<?xml version="1.0" encoding="UTF-8" standalone="no" ?>
<gpx xmlns="http://www.topografix.com/GPX/1/1" xmlns:xsi="http://www.w3.org/2001/XMLSchema-instance" xsi:schemaLocation="http://www.topografix.com/GPX/1/1 http://www.topografix.com/GPX/1/1/gpx.xsd" version="1.1" creator="VisuGPX - https://www.visugpx.com">
  <metadata>
    <name>Marche Nordique</name>
    <desc><![CDATA[Avec le groupe complet de 9h à 11h]]></desc>
  </metadata>
  <trk>
    <name><![CDATA[02/03/2013 9:00]]></name>
    <desc><![CDATA[]]></desc>
    <trkseg>
      <trkpt lat="47.28249" lon="4.97307">
        <ele>225.4</ele>
        <time>2013-03-02T08:04:38.000Z</time>
      </trkpt>
      <trkpt lat="47.28246" lon="4.97303">
        <ele>230</ele>
        <time>2013-03-02T08:04:42.000Z</time>
      </trkpt>
      <trkpt lat="47.28246" lon="4.97302">
        <ele>230.5</ele>
        <time>2013-03-02T08:04:43.000Z</time>
      </trkpt>
      <trkpt lat="47.28246" lon="4.97296">
        <ele>228.1</ele>
        <time>2013-03-02T08:04:52.000Z</time>
      </trkpt>
      <trkpt lat="47.28247" lon="4.97296">
        <ele>226.5</ele>
        <time>2013-03-02T08:04:53.000Z</time>
      </trkpt>
      <trkpt lat="47.28247" lon="4.97296">
        <ele>224.2</ele>
        <time>2013-03-02T08:04:56.000Z</time>
      </trkpt>
      <trkpt lat="47.28252" lon="4.97304">
        <ele>235</ele>
        <time>2013-03-02T08:05:02.000Z</time>
      </trkpt>
      <trkpt lat="47.28249" lon="4.97301">
        <ele>236.4</ele>
        <time>2013-03-02T08:05:04.000Z</time>
      </trkpt>
      <trkpt lat="47.28247" lon="4.973">
        <ele>237.7</ele>
        <time>2013-03-02T08:05:05.000Z</time>
      </trkpt>
      <trkpt lat="47.28242" lon="4.97298">
        <ele>253.3</ele>
        <time>2013-03-02T08:05:34.000Z</time>
      </trkpt>
      <trkpt lat="47.28242" lon="4.97297">
        <ele>254.1</ele>
        <time>2013-03-02T08:05:35.000Z</time>
      </trkpt>
      <trkpt lat="47.28242" lon="4.97291">
        <ele>260.1</ele>
        <time>2013-03-02T08:05:40.000Z</time>
      </trkpt>
      <trkpt lat="47.28242" lon="4.97289">
        <ele>261.4</ele>
        <time>2013-03-02T08:05:41.000Z</time>
      </trkpt>
      <trkpt lat="47.28243" lon="4.97284">
        <ele>264.8</ele>
        <time>2013-03-02T08:05:44.000Z</time>
      </trkpt>
      <trkpt lat="47.28243" lon="4.97282">
        <ele>265.5</ele>
        <time>2013-03-02T08:05:45.000Z</time>
      </trkpt>
      <trkpt lat="47.28244" lon="4.97277">
        <ele>266.7</ele>
        <time>2013-03-02T08:05:47.000Z</time>
      </trkpt>
      <trkpt lat="47.28245" lon="4.97275">
        <ele>267.4</ele>
        <time>2013-03-02T08:05:48.000Z</time>
      </trkpt>
      <trkpt lat="47.28246" lon="4.9727">
        <ele>268.7</ele>
        <time>2013-03-02T08:05:50.000Z</time>
      </trkpt>
      <trkpt lat="47.28246" lon="4.97267">
        <ele>269.1</ele>
        <time>2013-03-02T08:05:51.000Z</time>
      </trkpt>
      <trkpt lat="47.28247" lon="4.97262">
        <ele>270.5</ele>
        <time>2013-03-02T08:05:54.000Z</time>
      </trkpt>
      <trkpt lat="47.28247" lon="4.9726">
        <ele>271.1</ele>
        <time>2013-03-02T08:05:55.000Z</time>
      </trkpt>
      <trkpt lat="47.28248" lon="4.97259">
        <ele>271.7</ele>
        <time>2013-03-02T08:05:56.000Z</time>
      </trkpt>
      <trkpt lat="47.28246" lon="4.97233">
        <ele>292.6</ele>
        <time>2013-03-02T08:06:06.000Z</time>
      </trkpt>
      <trkpt lat="47.28245" lon="4.97228">
        <ele>299.1</ele>
        <time>2013-03-02T08:06:10.000Z</time>
      </trkpt>
      <trkpt lat="47.28244" lon="4.97227">
        <ele>302.7</ele>
        <time>2013-03-02T08:06:11.000Z</time>
      </trkpt>
      <trkpt lat="47.28243" lon="4.97222">
        <ele>313.7</ele>
        <time>2013-03-02T08:06:16.000Z</time>
      </trkpt>
      <trkpt lat="47.28243" lon="4.9722">
        <ele>316.1</ele>
        <time>2013-03-02T08:06:17.000Z</time>
      </trkpt>
      <trkpt lat="47.28242" lon="4.97214">
        <ele>322.5</ele>
        <time>2013-03-02T08:06:20.000Z</time>
      </trkpt>
      <trkpt lat="47.28241" lon="4.97212">
        <ele>325</ele>
        <time>2013-03-02T08:06:21.000Z</time>
      </trkpt>
      <trkpt lat="47.2824" lon="4.97205">
        <ele>331.3</ele>
        <time>2013-03-02T08:06:24.000Z</time>
      </trkpt>
      <trkpt lat="47.2824" lon="4.97204">
        <ele>333.3</ele>
        <time>2013-03-02T08:06:25.000Z</time>
      </trkpt>
      <trkpt lat="47.28243" lon="4.97199">
        <ele>328.9</ele>
        <time>2013-03-02T08:06:28.000Z</time>
      </trkpt>
      <trkpt lat="47.28245" lon="4.97197">
        <ele>324.3</ele>
        <time>2013-03-02T08:06:29.000Z</time>
      </trkpt>
      <trkpt lat="47.28245" lon="4.97191">
        <ele>322.8</ele>
        <time>2013-03-02T08:06:31.000Z</time>
      </trkpt>
      <trkpt lat="47.28245" lon="4.97189">
        <ele>323.2</ele>
        <time>2013-03-02T08:06:32.000Z</time>
      </trkpt>
      <trkpt lat="47.28246" lon="4.97183">
        <ele>323.7</ele>
        <time>2013-03-02T08:06:35.000Z</time>
      </trkpt>
      <trkpt lat="47.28246" lon="4.97181">
        <ele>324.3</ele>
        <time>2013-03-02T08:06:36.000Z</time>
      </trkpt>
      <trkpt lat="47.28247" lon="4.97176">
        <ele>326.6</ele>
        <time>2013-03-02T08:06:39.000Z</time>
      </trkpt>
      <trkpt lat="47.28247" lon="4.97174">
        <ele>327.3</ele>
        <time>2013-03-02T08:06:40.000Z</time>
      </trkpt>
      <trkpt lat="47.28248" lon="4.97169">
        <ele>328.9</ele>
        <time>2013-03-02T08:06:43.000Z</time>
      </trkpt>
      <trkpt lat="47.28248" lon="4.97166">
        <ele>329.6</ele>
        <time>2013-03-02T08:06:44.000Z</time>
      </trkpt>
      <trkpt lat="47.28248" lon="4.97161">
        <ele>330.5</ele>
        <time>2013-03-02T08:06:46.000Z</time>
      </trkpt>
      <trkpt lat="47.28248" lon="4.97159">
        <ele>331</ele>
        <time>2013-03-02T08:06:47.000Z</time>
      </trkpt>
      <trkpt lat="47.28249" lon="4.97155">
        <ele>330.7</ele>
        <time>2013-03-02T08:06:49.000Z</time>
      </trkpt>
      <trkpt lat="47.28249" lon="4.97152">
        <ele>330.7</ele>
        <time>2013-03-02T08:06:50.000Z</time>
      </trkpt>
      <trkpt lat="47.2825" lon="4.97146">
        <ele>332.6</ele>
        <time>2013-03-02T08:06:54.000Z</time>
      </trkpt>
      <trkpt lat="47.2825" lon="4.97144">
        <ele>333.1</ele>
        <time>2013-03-02T08:06:55.000Z</time>
      </trkpt>
      <trkpt lat="47.2825" lon="4.97143">
        <ele>333.7</ele>
        <time>2013-03-02T08:06:56.000Z</time>
      </trkpt>
      <trkpt lat="47.2825" lon="4.9712">
        <ele>340.2</ele>
        <time>2013-03-02T08:07:05.000Z</time>
      </trkpt>
      <trkpt lat="47.28251" lon="4.97115">
        <ele>343.2</ele>
        <time>2013-03-02T08:07:08.000Z</time>
      </trkpt>
      <trkpt lat="47.28252" lon="4.97113">
        <ele>343</ele>
        <time>2013-03-02T08:07:09.000Z</time>
      </trkpt>
      <trkpt lat="47.28252" lon="4.97108">
        <ele>344.9</ele>
        <time>2013-03-02T08:07:11.000Z</time>
      </trkpt>
      <trkpt lat="47.28252" lon="4.97105">
        <ele>345.4</ele>
        <time>2013-03-02T08:07:12.000Z</time>
      </trkpt>
      <trkpt lat="47.28251" lon="4.97101">
        <ele>349</ele>
        <time>2013-03-02T08:07:14.000Z</time>
      </trkpt>
      <trkpt lat="47.28251" lon="4.97099">
        <ele>349.2</ele>
        <time>2013-03-02T08:07:15.000Z</time>
      </trkpt>
      <trkpt lat="47.28251" lon="4.97093">
        <ele>350.5</ele>
        <time>2013-03-02T08:07:19.000Z</time>
      </trkpt>
      <trkpt lat="47.28251" lon="4.97091">
        <ele>351.8</ele>
        <time>2013-03-02T08:07:20.000Z</time>
      </trkpt>
      <trkpt lat="47.28251" lon="4.97086">
        <ele>352.5</ele>
        <time>2013-03-02T08:07:24.000Z</time>
      </trkpt>
      <trkpt lat="47.28251" lon="4.97084">
        <ele>352.4</ele>
        <time>2013-03-02T08:07:25.000Z</time>
      </trkpt>
      <trkpt lat="47.28253" lon="4.9708">
        <ele>348.9</ele>
        <time>2013-03-02T08:07:28.000Z</time>
      </trkpt>
      <trkpt lat="47.28254" lon="4.97079">
        <ele>348.5</ele>
        <time>2013-03-02T08:07:29.000Z</time>
      </trkpt>
      <trkpt lat="47.28255" lon="4.97073">
        <ele>348.5</ele>
        <time>2013-03-02T08:07:32.000Z</time>
      </trkpt>
      <trkpt lat="47.28256" lon="4.9707">
        <ele>348.6</ele>
        <time>2013-03-02T08:07:33.000Z</time>
      </trkpt>
      <trkpt lat="47.28256" lon="4.97064">
        <ele>349.8</ele>
        <time>2013-03-02T08:07:36.000Z</time>
      </trkpt>
      <trkpt lat="47.28257" lon="4.97063">
        <ele>350.1</ele>
        <time>2013-03-02T08:07:37.000Z</time>
      </trkpt>
      <trkpt lat="47.28257" lon="4.97057">
        <ele>350.7</ele>
        <time>2013-03-02T08:07:40.000Z</time>
      </trkpt>
      <trkpt lat="47.28258" lon="4.97055">
        <ele>350.8</ele>
        <time>2013-03-02T08:07:41.000Z</time>
      </trkpt>
      <trkpt lat="47.28258" lon="4.97049">
        <ele>350.1</ele>
        <time>2013-03-02T08:07:44.000Z</time>
      </trkpt>
      <trkpt lat="47.28259" lon="4.97047">
        <ele>349.7</ele>
        <time>2013-03-02T08:07:45.000Z</time>
      </trkpt>
      <trkpt lat="47.28259" lon="4.97042">
        <ele>349.2</ele>
        <time>2013-03-02T08:07:48.000Z</time>
      </trkpt>
      <trkpt lat="47.28259" lon="4.9704">
        <ele>349.1</ele>
        <time>2013-03-02T08:07:49.000Z</time>
      </trkpt>
      <trkpt lat="47.28259" lon="4.97035">
        <ele>349.2</ele>
        <time>2013-03-02T08:07:51.000Z</time>
      </trkpt>
      <trkpt lat="47.28259" lon="4.97033">
        <ele>349.3</ele>
        <time>2013-03-02T08:07:52.000Z</time>
      </trkpt>
      <trkpt lat="47.28259" lon="4.97028">
        <ele>349.4</ele>
        <time>2013-03-02T08:07:55.000Z</time>
      </trkpt>
      <trkpt lat="47.28258" lon="4.97025">
        <ele>349.3</ele>
        <time>2013-03-02T08:07:56.000Z</time>
      </trkpt>
      <trkpt lat="47.28259" lon="4.97">
        <ele>353.3</ele>
        <time>2013-03-02T08:08:06.000Z</time>
      </trkpt>
      <trkpt lat="47.2826" lon="4.96995">
        <ele>353.4</ele>
        <time>2013-03-02T08:08:08.000Z</time>
      </trkpt>
      <trkpt lat="47.2826" lon="4.96992">
        <ele>354.8</ele>
        <time>2013-03-02T08:08:09.000Z</time>
      </trkpt>
      <trkpt lat="47.28261" lon="4.96987">
        <ele>356.6</ele>
        <time>2013-03-02T08:08:12.000Z</time>
      </trkpt>
      <trkpt lat="47.28261" lon="4.96985">
        <ele>357.6</ele>
        <time>2013-03-02T08:08:13.000Z</time>
      </trkpt>
      <trkpt lat="47.28261" lon="4.9698">
        <ele>362.3</ele>
        <time>2013-03-02T08:08:16.000Z</time>
      </trkpt>
      <trkpt lat="47.28261" lon="4.96978">
        <ele>363.5</ele>
        <time>2013-03-02T08:08:17.000Z</time>
      </trkpt>
      <trkpt lat="47.28262" lon="4.96973">
        <ele>364.4</ele>
        <time>2013-03-02T08:08:19.000Z</time>
      </trkpt>
      <trkpt lat="47.28262" lon="4.96972">
        <ele>364.6</ele>
        <time>2013-03-02T08:08:20.000Z</time>
      </trkpt>
      <trkpt lat="47.28263" lon="4.96967">
        <ele>364.8</ele>
        <time>2013-03-02T08:08:22.000Z</time>
      </trkpt>
      <trkpt lat="47.28264" lon="4.96965">
        <ele>365.9</ele>
        <time>2013-03-02T08:08:23.000Z</time>
      </trkpt>
      <trkpt lat="47.28265" lon="4.96959">
        <ele>366.9</ele>
        <time>2013-03-02T08:08:26.000Z</time>
      </trkpt>
      <trkpt lat="47.28265" lon="4.96957">
        <ele>368.1</ele>
        <time>2013-03-02T08:08:27.000Z</time>
      </trkpt>
      <trkpt lat="47.28267" lon="4.96953">
        <ele>362.3</ele>
        <time>2013-03-02T08:08:29.000Z</time>
      </trkpt>
      <trkpt lat="47.28268" lon="4.96952">
        <ele>361.5</ele>
        <time>2013-03-02T08:08:30.000Z</time>
      </trkpt>
      <trkpt lat="47.2827" lon="4.96947">
        <ele>360.4</ele>
        <time>2013-03-02T08:08:32.000Z</time>
      </trkpt>
      <trkpt lat="47.2827" lon="4.96946">
        <ele>359.8</ele>
        <time>2013-03-02T08:08:33.000Z</time>
      </trkpt>
      <trkpt lat="47.28271" lon="4.96941">
        <ele>358.9</ele>
        <time>2013-03-02T08:08:35.000Z</time>
      </trkpt>
      <trkpt lat="47.28272" lon="4.96938">
        <ele>358.8</ele>
        <time>2013-03-02T08:08:36.000Z</time>
      </trkpt>
      <trkpt lat="47.28273" lon="4.96934">
        <ele>358.5</ele>
        <time>2013-03-02T08:08:38.000Z</time>
      </trkpt>
      <trkpt lat="47.28273" lon="4.96932">
        <ele>358.2</ele>
        <time>2013-03-02T08:08:39.000Z</time>
      </trkpt>
      <trkpt lat="47.28274" lon="4.96925">
        <ele>358.3</ele>
        <time>2013-03-02T08:08:42.000Z</time>
      </trkpt>
      <trkpt lat="47.28273" lon="4.96923">
        <ele>358.3</ele>
        <time>2013-03-02T08:08:43.000Z</time>
      </trkpt>
      <trkpt lat="47.28274" lon="4.96918">
        <ele>358.7</ele>
        <time>2013-03-02T08:08:45.000Z</time>
      </trkpt>
      <trkpt lat="47.28274" lon="4.96916">
        <ele>358.7</ele>
        <time>2013-03-02T08:08:46.000Z</time>
      </trkpt>
      <trkpt lat="47.28274" lon="4.96911">
        <ele>358.9</ele>
        <time>2013-03-02T08:08:48.000Z</time>
      </trkpt>
      <trkpt lat="47.28274" lon="4.96908">
        <ele>359.1</ele>
        <time>2013-03-02T08:08:49.000Z</time>
      </trkpt>
      <trkpt lat="47.28274" lon="4.96902">
        <ele>359</ele>
        <time>2013-03-02T08:08:52.000Z</time>
      </trkpt>
      <trkpt lat="47.28275" lon="4.969">
        <ele>359</ele>
        <time>2013-03-02T08:08:53.000Z</time>
      </trkpt>
      <trkpt lat="47.28276" lon="4.96894">
        <ele>358.8</ele>
        <time>2013-03-02T08:08:56.000Z</time>
      </trkpt>
      <trkpt lat="47.28276" lon="4.96871">
        <ele>362.9</ele>
        <time>2013-03-02T08:09:05.000Z</time>
      </trkpt>
      <trkpt lat="47.28275" lon="4.96865">
        <ele>363.6</ele>
        <time>2013-03-02T08:09:06.000Z</time>
      </trkpt>
      <trkpt lat="47.28276" lon="4.96863">
        <ele>364</ele>
        <time>2013-03-02T08:09:07.000Z</time>
      </trkpt>
      <trkpt lat="47.28277" lon="4.96861">
        <ele>362.3</ele>
        <time>2013-03-02T08:09:08.000Z</time>
      </trkpt>
      <trkpt lat="47.28279" lon="4.96858">
        <ele>360.5</ele>
        <time>2013-03-02T08:09:09.000Z</time>
      </trkpt>
      <trkpt lat="47.28281" lon="4.96854">
        <ele>359.8</ele>
        <time>2013-03-02T08:09:11.000Z</time>
      </trkpt>
      <trkpt lat="47.28282" lon="4.96853">
        <ele>359.8</ele>
        <time>2013-03-02T08:09:12.000Z</time>
      </trkpt>
      <trkpt lat="47.28282" lon="4.96847">
        <ele>362.9</ele>
        <time>2013-03-02T08:09:14.000Z</time>
      </trkpt>
      <trkpt lat="47.28283" lon="4.96844">
        <ele>363.4</ele>
        <time>2013-03-02T08:09:15.000Z</time>
      </trkpt>
      <trkpt lat="47.28284" lon="4.96838">
        <ele>364.6</ele>
        <time>2013-03-02T08:09:17.000Z</time>
      </trkpt>
      <trkpt lat="47.28285" lon="4.96835">
        <ele>363.3</ele>
        <time>2013-03-02T08:09:18.000Z</time>
      </trkpt>
      <trkpt lat="47.28287" lon="4.96833">
        <ele>363.3</ele>
        <time>2013-03-02T08:09:19.000Z</time>
      </trkpt>
      <trkpt lat="47.28287" lon="4.96829">
        <ele>363.9</ele>
        <time>2013-03-02T08:09:20.000Z</time>
      </trkpt>
      <trkpt lat="47.2829" lon="4.96824">
        <ele>364.6</ele>
        <time>2013-03-02T08:09:22.000Z</time>
      </trkpt>
      <trkpt lat="47.28291" lon="4.96822">
        <ele>363.8</ele>
        <time>2013-03-02T08:09:23.000Z</time>
      </trkpt>
      <trkpt lat="47.28292" lon="4.96817">
        <ele>363.6</ele>
        <time>2013-03-02T08:09:25.000Z</time>
      </trkpt>
      <trkpt lat="47.28292" lon="4.96815">
        <ele>363.6</ele>
        <time>2013-03-02T08:09:26.000Z</time>
      </trkpt>
      <trkpt lat="47.28294" lon="4.9681">
        <ele>361.5</ele>
        <time>2013-03-02T08:09:28.000Z</time>
      </trkpt>
      <trkpt lat="47.28294" lon="4.96807">
        <ele>361.5</ele>
        <time>2013-03-02T08:09:29.000Z</time>
      </trkpt>
      <trkpt lat="47.28296" lon="4.96802">
        <ele>361.7</ele>
        <time>2013-03-02T08:09:31.000Z</time>
      </trkpt>
      <trkpt lat="47.28297" lon="4.96799">
        <ele>361.7</ele>
        <time>2013-03-02T08:09:32.000Z</time>
      </trkpt>
      <trkpt lat="47.28298" lon="4.96795">
        <ele>361.2</ele>
        <time>2013-03-02T08:09:33.000Z</time>
      </trkpt>
      <trkpt lat="47.28298" lon="4.96791">
        <ele>361.1</ele>
        <time>2013-03-02T08:09:34.000Z</time>
      </trkpt>
      <trkpt lat="47.283" lon="4.96788">
        <ele>361.1</ele>
        <time>2013-03-02T08:09:35.000Z</time>
      </trkpt>
      <trkpt lat="47.28301" lon="4.96785">
        <ele>361.4</ele>
        <time>2013-03-02T08:09:36.000Z</time>
      </trkpt>
      <trkpt lat="47.28302" lon="4.96782">
        <ele>361.8</ele>
        <time>2013-03-02T08:09:37.000Z</time>
      </trkpt>
      <trkpt lat="47.28304" lon="4.96779">
        <ele>361.8</ele>
        <time>2013-03-02T08:09:38.000Z</time>
      </trkpt>
      <trkpt lat="47.28306" lon="4.96777">
        <ele>361.8</ele>
        <time>2013-03-02T08:09:39.000Z</time>
      </trkpt>
      <trkpt lat="47.28307" lon="4.96775">
        <ele>361.9</ele>
        <time>2013-03-02T08:09:40.000Z</time>
      </trkpt>
      <trkpt lat="47.2831" lon="4.9677">
        <ele>362.2</ele>
        <time>2013-03-02T08:09:42.000Z</time>
      </trkpt>
      <trkpt lat="47.28312" lon="4.96769">
        <ele>362.1</ele>
        <time>2013-03-02T08:09:43.000Z</time>
      </trkpt>
      <trkpt lat="47.28314" lon="4.96765">
        <ele>362.1</ele>
        <time>2013-03-02T08:09:45.000Z</time>
      </trkpt>
      <trkpt lat="47.28315" lon="4.96763">
        <ele>362.3</ele>
        <time>2013-03-02T08:09:46.000Z</time>
      </trkpt>
      <trkpt lat="47.28317" lon="4.96758">
        <ele>362.2</ele>
        <time>2013-03-02T08:09:48.000Z</time>
      </trkpt>
      <trkpt lat="47.28318" lon="4.96756">
        <ele>362.3</ele>
        <time>2013-03-02T08:09:49.000Z</time>
      </trkpt>
      <trkpt lat="47.28322" lon="4.96751">
        <ele>362.9</ele>
        <time>2013-03-02T08:09:51.000Z</time>
      </trkpt>
      <trkpt lat="47.28323" lon="4.9675">
        <ele>363.5</ele>
        <time>2013-03-02T08:09:52.000Z</time>
      </trkpt>
      <trkpt lat="47.28325" lon="4.96745">
        <ele>364.1</ele>
        <time>2013-03-02T08:09:54.000Z</time>
      </trkpt>
      <trkpt lat="47.28326" lon="4.96742">
        <ele>364.3</ele>
        <time>2013-03-02T08:09:55.000Z</time>
      </trkpt>
      <trkpt lat="47.28326" lon="4.96739">
        <ele>364.3</ele>
        <time>2013-03-02T08:09:56.000Z</time>
      </trkpt>
      <trkpt lat="47.28337" lon="4.9673">
        <ele>370.6</ele>
        <time>2013-03-02T08:10:05.000Z</time>
      </trkpt>
      <trkpt lat="47.28336" lon="4.96723">
        <ele>378.7</ele>
        <time>2013-03-02T08:10:12.000Z</time>
      </trkpt>
      <trkpt lat="47.28335" lon="4.96723">
        <ele>380.4</ele>
        <time>2013-03-02T08:10:13.000Z</time>
      </trkpt>
      <trkpt lat="47.28335" lon="4.96722">
        <ele>380.6</ele>
        <time>2013-03-02T08:10:20.000Z</time>
      </trkpt>
      <trkpt lat="47.28336" lon="4.96711">
        <ele>378.2</ele>
        <time>2013-03-02T08:10:21.000Z</time>
      </trkpt>
      <trkpt lat="47.28334" lon="4.96706">
        <ele>377.9</ele>
        <time>2013-03-02T08:10:24.000Z</time>
      </trkpt>
      <trkpt lat="47.28334" lon="4.96705">
        <ele>378.2</ele>
        <time>2013-03-02T08:10:25.000Z</time>
      </trkpt>
      <trkpt lat="47.28334" lon="4.96708">
        <ele>377.4</ele>
        <time>2013-03-02T08:10:37.000Z</time>
      </trkpt>
      <trkpt lat="47.28334" lon="4.96716">
        <ele>377.9</ele>
        <time>2013-03-02T08:10:38.000Z</time>
      </trkpt>
      <trkpt lat="47.28331" lon="4.96713">
        <ele>377.9</ele>
        <time>2013-03-02T08:10:41.000Z</time>
      </trkpt>
      <trkpt lat="47.28331" lon="4.96711">
        <ele>377.9</ele>
        <time>2013-03-02T08:10:42.000Z</time>
      </trkpt>
      <trkpt lat="47.28332" lon="4.96709">
        <ele>377.9</ele>
        <time>2013-03-02T08:10:43.000Z</time>
      </trkpt>
      <trkpt lat="47.28333" lon="4.96705">
        <ele>377.9</ele>
        <time>2013-03-02T08:10:44.000Z</time>
      </trkpt>
      <trkpt lat="47.28336" lon="4.96701">
        <ele>378</ele>
        <time>2013-03-02T08:10:46.000Z</time>
      </trkpt>
      <trkpt lat="47.28338" lon="4.96699">
        <ele>377.9</ele>
        <time>2013-03-02T08:10:47.000Z</time>
      </trkpt>
      <trkpt lat="47.2834" lon="4.96695">
        <ele>377.9</ele>
        <time>2013-03-02T08:10:49.000Z</time>
      </trkpt>
      <trkpt lat="47.2834" lon="4.96692">
        <ele>377.9</ele>
        <time>2013-03-02T08:10:50.000Z</time>
      </trkpt>
      <trkpt lat="47.28341" lon="4.96687">
        <ele>377.8</ele>
        <time>2013-03-02T08:10:52.000Z</time>
      </trkpt>
      <trkpt lat="47.28342" lon="4.96684">
        <ele>377.8</ele>
        <time>2013-03-02T08:10:53.000Z</time>
      </trkpt>
      <trkpt lat="47.28343" lon="4.96678">
        <ele>377.6</ele>
        <time>2013-03-02T08:10:56.000Z</time>
      </trkpt>
      <trkpt lat="47.28336" lon="4.96621">
        <ele>391.3</ele>
        <time>2013-03-02T08:11:15.000Z</time>
      </trkpt>
      <trkpt lat="47.28337" lon="4.96616">
        <ele>390.7</ele>
        <time>2013-03-02T08:11:17.000Z</time>
      </trkpt>
      <trkpt lat="47.28337" lon="4.96612">
        <ele>390.6</ele>
        <time>2013-03-02T08:11:18.000Z</time>
      </trkpt>
      <trkpt lat="47.28336" lon="4.96607">
        <ele>392.4</ele>
        <time>2013-03-02T08:11:21.000Z</time>
      </trkpt>
      <trkpt lat="47.28335" lon="4.96602">
        <ele>392.5</ele>
        <time>2013-03-02T08:11:22.000Z</time>
      </trkpt>
      <trkpt lat="47.28336" lon="4.96597">
        <ele>394.4</ele>
        <time>2013-03-02T08:11:24.000Z</time>
      </trkpt>
      <trkpt lat="47.28336" lon="4.96594">
        <ele>395.6</ele>
        <time>2013-03-02T08:11:25.000Z</time>
      </trkpt>
      <trkpt lat="47.28337" lon="4.9659">
        <ele>395.8</ele>
        <time>2013-03-02T08:11:27.000Z</time>
      </trkpt>
      <trkpt lat="47.28338" lon="4.96586">
        <ele>389.8</ele>
        <time>2013-03-02T08:11:28.000Z</time>
      </trkpt>
      <trkpt lat="47.28338" lon="4.9658">
        <ele>388.8</ele>
        <time>2013-03-02T08:11:30.000Z</time>
      </trkpt>
      <trkpt lat="47.28339" lon="4.96577">
        <ele>388.5</ele>
        <time>2013-03-02T08:11:31.000Z</time>
      </trkpt>
      <trkpt lat="47.28339" lon="4.96572">
        <ele>388</ele>
        <time>2013-03-02T08:11:33.000Z</time>
      </trkpt>
      <trkpt lat="47.2834" lon="4.96569">
        <ele>387.5</ele>
        <time>2013-03-02T08:11:34.000Z</time>
      </trkpt>
      <trkpt lat="47.28339" lon="4.96563">
        <ele>386.8</ele>
        <time>2013-03-02T08:11:36.000Z</time>
      </trkpt>
      <trkpt lat="47.28339" lon="4.96559">
        <ele>386.2</ele>
        <time>2013-03-02T08:11:37.000Z</time>
      </trkpt>
      <trkpt lat="47.28339" lon="4.96555">
        <ele>385.6</ele>
        <time>2013-03-02T08:11:38.000Z</time>
      </trkpt>
      <trkpt lat="47.28339" lon="4.96551">
        <ele>384.8</ele>
        <time>2013-03-02T08:11:39.000Z</time>
      </trkpt>
      <trkpt lat="47.28338" lon="4.96548">
        <ele>384.7</ele>
        <time>2013-03-02T08:11:40.000Z</time>
      </trkpt>
      <trkpt lat="47.28338" lon="4.96544">
        <ele>384.5</ele>
        <time>2013-03-02T08:11:41.000Z</time>
      </trkpt>
      <trkpt lat="47.28338" lon="4.96539">
        <ele>384</ele>
        <time>2013-03-02T08:11:43.000Z</time>
      </trkpt>
      <trkpt lat="47.28338" lon="4.96536">
        <ele>384</ele>
        <time>2013-03-02T08:11:44.000Z</time>
      </trkpt>
      <trkpt lat="47.28337" lon="4.9653">
        <ele>383.7</ele>
        <time>2013-03-02T08:11:46.000Z</time>
      </trkpt>
      <trkpt lat="47.28337" lon="4.96527">
        <ele>383.8</ele>
        <time>2013-03-02T08:11:47.000Z</time>
      </trkpt>
      <trkpt lat="47.28337" lon="4.96521">
        <ele>383.8</ele>
        <time>2013-03-02T08:11:49.000Z</time>
      </trkpt>
      <trkpt lat="47.28337" lon="4.96518">
        <ele>383.7</ele>
        <time>2013-03-02T08:11:50.000Z</time>
      </trkpt>
      <trkpt lat="47.28337" lon="4.96513">
        <ele>383</ele>
        <time>2013-03-02T08:11:52.000Z</time>
      </trkpt>
      <trkpt lat="47.28338" lon="4.9651">
        <ele>382.9</ele>
        <time>2013-03-02T08:11:53.000Z</time>
      </trkpt>
      <trkpt lat="47.28337" lon="4.96504">
        <ele>382.7</ele>
        <time>2013-03-02T08:11:55.000Z</time>
      </trkpt>
      <trkpt lat="47.28337" lon="4.96501">
        <ele>382.6</ele>
        <time>2013-03-02T08:11:56.000Z</time>
      </trkpt>
      <trkpt lat="47.28331" lon="4.96469">
        <ele>381.5</ele>
        <time>2013-03-02T08:12:08.000Z</time>
      </trkpt>
      <trkpt lat="47.28331" lon="4.96466">
        <ele>381</ele>
        <time>2013-03-02T08:12:09.000Z</time>
      </trkpt>
      <trkpt lat="47.2833" lon="4.96462">
        <ele>381.7</ele>
        <time>2013-03-02T08:12:10.000Z</time>
      </trkpt>
      <trkpt lat="47.28329" lon="4.96459">
        <ele>380.9</ele>
        <time>2013-03-02T08:12:11.000Z</time>
      </trkpt>
      <trkpt lat="47.28329" lon="4.96456">
        <ele>380.5</ele>
        <time>2013-03-02T08:12:12.000Z</time>
      </trkpt>
      <trkpt lat="47.28328" lon="4.96453">
        <ele>380.3</ele>
        <time>2013-03-02T08:12:13.000Z</time>
      </trkpt>
      <trkpt lat="47.28327" lon="4.9645">
        <ele>380.9</ele>
        <time>2013-03-02T08:12:14.000Z</time>
      </trkpt>
      <trkpt lat="47.28326" lon="4.96443">
        <ele>382.6</ele>
        <time>2013-03-02T08:12:16.000Z</time>
      </trkpt>
      <trkpt lat="47.28325" lon="4.96441">
        <ele>382.8</ele>
        <time>2013-03-02T08:12:17.000Z</time>
      </trkpt>
      <trkpt lat="47.28326" lon="4.96435">
        <ele>381.7</ele>
        <time>2013-03-02T08:12:20.000Z</time>
      </trkpt>
      <trkpt lat="47.28325" lon="4.96433">
        <ele>382.3</ele>
        <time>2013-03-02T08:12:21.000Z</time>
      </trkpt>
      <trkpt lat="47.28325" lon="4.96427">
        <ele>381.6</ele>
        <time>2013-03-02T08:12:23.000Z</time>
      </trkpt>
      <trkpt lat="47.28324" lon="4.96424">
        <ele>381.4</ele>
        <time>2013-03-02T08:12:24.000Z</time>
      </trkpt>
      <trkpt lat="47.28323" lon="4.96418">
        <ele>382.4</ele>
        <time>2013-03-02T08:12:26.000Z</time>
      </trkpt>
      <trkpt lat="47.28322" lon="4.96416">
        <ele>380.8</ele>
        <time>2013-03-02T08:12:27.000Z</time>
      </trkpt>
      <trkpt lat="47.28321" lon="4.96411">
        <ele>380.6</ele>
        <time>2013-03-02T08:12:29.000Z</time>
      </trkpt>
      <trkpt lat="47.28319" lon="4.96409">
        <ele>380.7</ele>
        <time>2013-03-02T08:12:30.000Z</time>
      </trkpt>
      <trkpt lat="47.28317" lon="4.96404">
        <ele>380.9</ele>
        <time>2013-03-02T08:12:32.000Z</time>
      </trkpt>
      <trkpt lat="47.28316" lon="4.96401">
        <ele>381</ele>
        <time>2013-03-02T08:12:33.000Z</time>
      </trkpt>
      <trkpt lat="47.28314" lon="4.96396">
        <ele>381</ele>
        <time>2013-03-02T08:12:35.000Z</time>
      </trkpt>
      <trkpt lat="47.28313" lon="4.96394">
        <ele>381.1</ele>
        <time>2013-03-02T08:12:36.000Z</time>
      </trkpt>
      <trkpt lat="47.28311" lon="4.96389">
        <ele>380.9</ele>
        <time>2013-03-02T08:12:38.000Z</time>
      </trkpt>
      <trkpt lat="47.2831" lon="4.96387">
        <ele>380.8</ele>
        <time>2013-03-02T08:12:39.000Z</time>
      </trkpt>
      <trkpt lat="47.28309" lon="4.96383">
        <ele>380.6</ele>
        <time>2013-03-02T08:12:41.000Z</time>
      </trkpt>
      <trkpt lat="47.28308" lon="4.9638">
        <ele>380.4</ele>
        <time>2013-03-02T08:12:42.000Z</time>
      </trkpt>
      <trkpt lat="47.28306" lon="4.96374">
        <ele>379.7</ele>
        <time>2013-03-02T08:12:44.000Z</time>
      </trkpt>
      <trkpt lat="47.28305" lon="4.96371">
        <ele>379.4</ele>
        <time>2013-03-02T08:12:45.000Z</time>
      </trkpt>
      <trkpt lat="47.28303" lon="4.96365">
        <ele>379</ele>
        <time>2013-03-02T08:12:47.000Z</time>
      </trkpt>
      <trkpt lat="47.28301" lon="4.96363">
        <ele>379</ele>
        <time>2013-03-02T08:12:48.000Z</time>
      </trkpt>
      <trkpt lat="47.28299" lon="4.96359">
        <ele>378.9</ele>
        <time>2013-03-02T08:12:50.000Z</time>
      </trkpt>
      <trkpt lat="47.28298" lon="4.96357">
        <ele>379.1</ele>
        <time>2013-03-02T08:12:51.000Z</time>
      </trkpt>
      <trkpt lat="47.28296" lon="4.96352">
        <ele>378.9</ele>
        <time>2013-03-02T08:12:53.000Z</time>
      </trkpt>
      <trkpt lat="47.28295" lon="4.96348">
        <ele>378.6</ele>
        <time>2013-03-02T08:12:54.000Z</time>
      </trkpt>
      <trkpt lat="47.28293" lon="4.96344">
        <ele>378.8</ele>
        <time>2013-03-02T08:12:56.000Z</time>
      </trkpt>
      <trkpt lat="47.2829" lon="4.96329">
        <ele>380.6</ele>
        <time>2013-03-02T08:13:04.000Z</time>
      </trkpt>
      <trkpt lat="47.28288" lon="4.96326">
        <ele>381.5</ele>
        <time>2013-03-02T08:13:05.000Z</time>
      </trkpt>
      <trkpt lat="47.28286" lon="4.96322">
        <ele>383.8</ele>
        <time>2013-03-02T08:13:06.000Z</time>
      </trkpt>
      <trkpt lat="47.28284" lon="4.96318">
        <ele>385.6</ele>
        <time>2013-03-02T08:13:07.000Z</time>
      </trkpt>
      <trkpt lat="47.28282" lon="4.96315">
        <ele>386.5</ele>
        <time>2013-03-02T08:13:08.000Z</time>
      </trkpt>
      <trkpt lat="47.28281" lon="4.96312">
        <ele>387.3</ele>
        <time>2013-03-02T08:13:09.000Z</time>
      </trkpt>
      <trkpt lat="47.2828" lon="4.96309">
        <ele>387.7</ele>
        <time>2013-03-02T08:13:10.000Z</time>
      </trkpt>
      <trkpt lat="47.28279" lon="4.96304">
        <ele>386.3</ele>
        <time>2013-03-02T08:13:12.000Z</time>
      </trkpt>
      <trkpt lat="47.28278" lon="4.96302">
        <ele>385</ele>
        <time>2013-03-02T08:13:13.000Z</time>
      </trkpt>
      <trkpt lat="47.28275" lon="4.96298">
        <ele>386.2</ele>
        <time>2013-03-02T08:13:15.000Z</time>
      </trkpt>
      <trkpt lat="47.28274" lon="4.96296">
        <ele>385.7</ele>
        <time>2013-03-02T08:13:16.000Z</time>
      </trkpt>
      <trkpt lat="47.28271" lon="4.96292">
        <ele>383.9</ele>
        <time>2013-03-02T08:13:19.000Z</time>
      </trkpt>
      <trkpt lat="47.2827" lon="4.96291">
        <ele>383.9</ele>
        <time>2013-03-02T08:13:20.000Z</time>
      </trkpt>
      <trkpt lat="47.28267" lon="4.96288">
        <ele>387</ele>
        <time>2013-03-02T08:13:22.000Z</time>
      </trkpt>
      <trkpt lat="47.28266" lon="4.96287">
        <ele>387.4</ele>
        <time>2013-03-02T08:13:23.000Z</time>
      </trkpt>
      <trkpt lat="47.28264" lon="4.96281">
        <ele>386.8</ele>
        <time>2013-03-02T08:13:25.000Z</time>
      </trkpt>
      <trkpt lat="47.28263" lon="4.96279">
        <ele>386</ele>
        <time>2013-03-02T08:13:26.000Z</time>
      </trkpt>
      <trkpt lat="47.28262" lon="4.96277">
        <ele>385.9</ele>
        <time>2013-03-02T08:13:27.000Z</time>
      </trkpt>
      <trkpt lat="47.2826" lon="4.96272">
        <ele>383.7</ele>
        <time>2013-03-02T08:13:28.000Z</time>
      </trkpt>
      <trkpt lat="47.28259" lon="4.96266">
        <ele>381</ele>
        <time>2013-03-02T08:13:30.000Z</time>
      </trkpt>
      <trkpt lat="47.28258" lon="4.96264">
        <ele>379.9</ele>
        <time>2013-03-02T08:13:31.000Z</time>
      </trkpt>
      <trkpt lat="47.28257" lon="4.96259">
        <ele>378.2</ele>
        <time>2013-03-02T08:13:33.000Z</time>
      </trkpt>
      <trkpt lat="47.28256" lon="4.96258">
        <ele>377.8</ele>
        <time>2013-03-02T08:13:34.000Z</time>
      </trkpt>
      <trkpt lat="47.28254" lon="4.96253">
        <ele>376.9</ele>
        <time>2013-03-02T08:13:36.000Z</time>
      </trkpt>
      <trkpt lat="47.28253" lon="4.96251">
        <ele>376.1</ele>
        <time>2013-03-02T08:13:37.000Z</time>
      </trkpt>
      <trkpt lat="47.28252" lon="4.96248">
        <ele>374.7</ele>
        <time>2013-03-02T08:13:38.000Z</time>
      </trkpt>
      <trkpt lat="47.28251" lon="4.96245">
        <ele>373.6</ele>
        <time>2013-03-02T08:13:39.000Z</time>
      </trkpt>
      <trkpt lat="47.28249" lon="4.96241">
        <ele>373</ele>
        <time>2013-03-02T08:13:40.000Z</time>
      </trkpt>
      <trkpt lat="47.28248" lon="4.96238">
        <ele>372.5</ele>
        <time>2013-03-02T08:13:41.000Z</time>
      </trkpt>
      <trkpt lat="47.28246" lon="4.96233">
        <ele>372.8</ele>
        <time>2013-03-02T08:13:43.000Z</time>
      </trkpt>
      <trkpt lat="47.28245" lon="4.96231">
        <ele>373.5</ele>
        <time>2013-03-02T08:13:44.000Z</time>
      </trkpt>
      <trkpt lat="47.28242" lon="4.96226">
        <ele>375.6</ele>
        <time>2013-03-02T08:13:47.000Z</time>
      </trkpt>
      <trkpt lat="47.2824" lon="4.96224">
        <ele>375.9</ele>
        <time>2013-03-02T08:13:48.000Z</time>
      </trkpt>
      <trkpt lat="47.28238" lon="4.9622">
        <ele>375.9</ele>
        <time>2013-03-02T08:13:50.000Z</time>
      </trkpt>
      <trkpt lat="47.28237" lon="4.96218">
        <ele>376.2</ele>
        <time>2013-03-02T08:13:51.000Z</time>
      </trkpt>
      <trkpt lat="47.28234" lon="4.96215">
        <ele>376.1</ele>
        <time>2013-03-02T08:13:53.000Z</time>
      </trkpt>
      <trkpt lat="47.28233" lon="4.96213">
        <ele>376.2</ele>
        <time>2013-03-02T08:13:54.000Z</time>
      </trkpt>
      <trkpt lat="47.2823" lon="4.9621">
        <ele>376.3</ele>
        <time>2013-03-02T08:13:56.000Z</time>
      </trkpt>
      <trkpt lat="47.28218" lon="4.96192">
        <ele>382.5</ele>
        <time>2013-03-02T08:14:05.000Z</time>
      </trkpt>
      <trkpt lat="47.28215" lon="4.96189">
        <ele>383.5</ele>
        <time>2013-03-02T08:14:06.000Z</time>
      </trkpt>
      <trkpt lat="47.28213" lon="4.96186">
        <ele>384.1</ele>
        <time>2013-03-02T08:14:07.000Z</time>
      </trkpt>
      <trkpt lat="47.28212" lon="4.96183">
        <ele>385</ele>
        <time>2013-03-02T08:14:08.000Z</time>
      </trkpt>
      <trkpt lat="47.2821" lon="4.96181">
        <ele>386.9</ele>
        <time>2013-03-02T08:14:09.000Z</time>
      </trkpt>
      <trkpt lat="47.2821" lon="4.96174">
        <ele>387.2</ele>
        <time>2013-03-02T08:14:12.000Z</time>
      </trkpt>
      <trkpt lat="47.28209" lon="4.96172">
        <ele>388.1</ele>
        <time>2013-03-02T08:14:13.000Z</time>
      </trkpt>
      <trkpt lat="47.28206" lon="4.96168">
        <ele>389.5</ele>
        <time>2013-03-02T08:14:15.000Z</time>
      </trkpt>
      <trkpt lat="47.28205" lon="4.96166">
        <ele>389.1</ele>
        <time>2013-03-02T08:14:16.000Z</time>
      </trkpt>
      <trkpt lat="47.28203" lon="4.96162">
        <ele>389.6</ele>
        <time>2013-03-02T08:14:18.000Z</time>
      </trkpt>
      <trkpt lat="47.28202" lon="4.9616">
        <ele>389.7</ele>
        <time>2013-03-02T08:14:19.000Z</time>
      </trkpt>
      <trkpt lat="47.28199" lon="4.96156">
        <ele>390.3</ele>
        <time>2013-03-02T08:14:22.000Z</time>
      </trkpt>
      <trkpt lat="47.28199" lon="4.96154">
        <ele>388.9</ele>
        <time>2013-03-02T08:14:23.000Z</time>
      </trkpt>
      <trkpt lat="47.28196" lon="4.96148">
        <ele>392.3</ele>
        <time>2013-03-02T08:14:25.000Z</time>
      </trkpt>
      <trkpt lat="47.28195" lon="4.96146">
        <ele>393.4</ele>
        <time>2013-03-02T08:14:26.000Z</time>
      </trkpt>
      <trkpt lat="47.28194" lon="4.96143">
        <ele>391.1</ele>
        <time>2013-03-02T08:14:27.000Z</time>
      </trkpt>
      <trkpt lat="47.28193" lon="4.9614">
        <ele>391.5</ele>
        <time>2013-03-02T08:14:28.000Z</time>
      </trkpt>
      <trkpt lat="47.28191" lon="4.96137">
        <ele>391.2</ele>
        <time>2013-03-02T08:14:29.000Z</time>
      </trkpt>
      <trkpt lat="47.2819" lon="4.96134">
        <ele>390.5</ele>
        <time>2013-03-02T08:14:30.000Z</time>
      </trkpt>
      <trkpt lat="47.28189" lon="4.9613">
        <ele>390</ele>
        <time>2013-03-02T08:14:31.000Z</time>
      </trkpt>
      <trkpt lat="47.28189" lon="4.96126">
        <ele>389.8</ele>
        <time>2013-03-02T08:14:32.000Z</time>
      </trkpt>
      <trkpt lat="47.28188" lon="4.96121">
        <ele>389.6</ele>
        <time>2013-03-02T08:14:33.000Z</time>
      </trkpt>
      <trkpt lat="47.28187" lon="4.96117">
        <ele>389.3</ele>
        <time>2013-03-02T08:14:34.000Z</time>
      </trkpt>
      <trkpt lat="47.28186" lon="4.96111">
        <ele>388.6</ele>
        <time>2013-03-02T08:14:36.000Z</time>
      </trkpt>
      <trkpt lat="47.28185" lon="4.96109">
        <ele>388.7</ele>
        <time>2013-03-02T08:14:37.000Z</time>
      </trkpt>
      <trkpt lat="47.28184" lon="4.96104">
        <ele>387.8</ele>
        <time>2013-03-02T08:14:39.000Z</time>
      </trkpt>
      <trkpt lat="47.28183" lon="4.96102">
        <ele>387.5</ele>
        <time>2013-03-02T08:14:40.000Z</time>
      </trkpt>
      <trkpt lat="47.28181" lon="4.96097">
        <ele>386.6</ele>
        <time>2013-03-02T08:14:42.000Z</time>
      </trkpt>
      <trkpt lat="47.2818" lon="4.96094">
        <ele>385.9</ele>
        <time>2013-03-02T08:14:43.000Z</time>
      </trkpt>
      <trkpt lat="47.28178" lon="4.9609">
        <ele>385.7</ele>
        <time>2013-03-02T08:14:45.000Z</time>
      </trkpt>
      <trkpt lat="47.28177" lon="4.96087">
        <ele>385.4</ele>
        <time>2013-03-02T08:14:46.000Z</time>
      </trkpt>
      <trkpt lat="47.28174" lon="4.96084">
        <ele>385</ele>
        <time>2013-03-02T08:14:48.000Z</time>
      </trkpt>
      <trkpt lat="47.28173" lon="4.96082">
        <ele>385</ele>
        <time>2013-03-02T08:14:49.000Z</time>
      </trkpt>
      <trkpt lat="47.28171" lon="4.96076">
        <ele>385</ele>
        <time>2013-03-02T08:14:52.000Z</time>
      </trkpt>
      <trkpt lat="47.2817" lon="4.96074">
        <ele>385</ele>
        <time>2013-03-02T08:14:53.000Z</time>
      </trkpt>
      <trkpt lat="47.28168" lon="4.9607">
        <ele>385.1</ele>
        <time>2013-03-02T08:14:55.000Z</time>
      </trkpt>
      <trkpt lat="47.28166" lon="4.96067">
        <ele>385.3</ele>
        <time>2013-03-02T08:14:56.000Z</time>
      </trkpt>
      <trkpt lat="47.28152" lon="4.96045">
        <ele>390.1</ele>
        <time>2013-03-02T08:15:08.000Z</time>
      </trkpt>
      <trkpt lat="47.2815" lon="4.9604">
        <ele>392.1</ele>
        <time>2013-03-02T08:15:10.000Z</time>
      </trkpt>
      <trkpt lat="47.28149" lon="4.96039">
        <ele>391.9</ele>
        <time>2013-03-02T08:15:11.000Z</time>
      </trkpt>
      <trkpt lat="47.28149" lon="4.96037">
        <ele>391.7</ele>
        <time>2013-03-02T08:15:12.000Z</time>
      </trkpt>
      <trkpt lat="47.28147" lon="4.96033">
        <ele>391.3</ele>
        <time>2013-03-02T08:15:13.000Z</time>
      </trkpt>
      <trkpt lat="47.28144" lon="4.96029">
        <ele>392.5</ele>
        <time>2013-03-02T08:15:14.000Z</time>
      </trkpt>
      <trkpt lat="47.28144" lon="4.96027">
        <ele>390.4</ele>
        <time>2013-03-02T08:15:15.000Z</time>
      </trkpt>
      <trkpt lat="47.28143" lon="4.96022">
        <ele>386.7</ele>
        <time>2013-03-02T08:15:17.000Z</time>
      </trkpt>
      <trkpt lat="47.28142" lon="4.9602">
        <ele>386</ele>
        <time>2013-03-02T08:15:18.000Z</time>
      </trkpt>
      <trkpt lat="47.2814" lon="4.96015">
        <ele>384.4</ele>
        <time>2013-03-02T08:15:20.000Z</time>
      </trkpt>
      <trkpt lat="47.2814" lon="4.96013">
        <ele>383.1</ele>
        <time>2013-03-02T08:15:21.000Z</time>
      </trkpt>
      <trkpt lat="47.28138" lon="4.96008">
        <ele>382.4</ele>
        <time>2013-03-02T08:15:24.000Z</time>
      </trkpt>
      <trkpt lat="47.28136" lon="4.96007">
        <ele>383.8</ele>
        <time>2013-03-02T08:15:25.000Z</time>
      </trkpt>
      <trkpt lat="47.28134" lon="4.96004">
        <ele>385.2</ele>
        <time>2013-03-02T08:15:27.000Z</time>
      </trkpt>
      <trkpt lat="47.28133" lon="4.96002">
        <ele>386</ele>
        <time>2013-03-02T08:15:28.000Z</time>
      </trkpt>
      <trkpt lat="47.28129" lon="4.95997">
        <ele>388.4</ele>
        <time>2013-03-02T08:15:30.000Z</time>
      </trkpt>
      <trkpt lat="47.28129" lon="4.95995">
        <ele>388.4</ele>
        <time>2013-03-02T08:15:31.000Z</time>
      </trkpt>
      <trkpt lat="47.28127" lon="4.95991">
        <ele>388.8</ele>
        <time>2013-03-02T08:15:33.000Z</time>
      </trkpt>
      <trkpt lat="47.28126" lon="4.95989">
        <ele>388.4</ele>
        <time>2013-03-02T08:15:34.000Z</time>
      </trkpt>
      <trkpt lat="47.28125" lon="4.95986">
        <ele>388.7</ele>
        <time>2013-03-02T08:15:35.000Z</time>
      </trkpt>
      <trkpt lat="47.28124" lon="4.95982">
        <ele>388.6</ele>
        <time>2013-03-02T08:15:36.000Z</time>
      </trkpt>
      <trkpt lat="47.28122" lon="4.95978">
        <ele>388.6</ele>
        <time>2013-03-02T08:15:38.000Z</time>
      </trkpt>
      <trkpt lat="47.2812" lon="4.95976">
        <ele>388.9</ele>
        <time>2013-03-02T08:15:39.000Z</time>
      </trkpt>
      <trkpt lat="47.28119" lon="4.95973">
        <ele>389.2</ele>
        <time>2013-03-02T08:15:40.000Z</time>
      </trkpt>
      <trkpt lat="47.28118" lon="4.9597">
        <ele>389.4</ele>
        <time>2013-03-02T08:15:41.000Z</time>
      </trkpt>
      <trkpt lat="47.28116" lon="4.95966">
        <ele>389.9</ele>
        <time>2013-03-02T08:15:43.000Z</time>
      </trkpt>
      <trkpt lat="47.28114" lon="4.95963">
        <ele>389.8</ele>
        <time>2013-03-02T08:15:44.000Z</time>
      </trkpt>
      <trkpt lat="47.28112" lon="4.95959">
        <ele>389.6</ele>
        <time>2013-03-02T08:15:46.000Z</time>
      </trkpt>
      <trkpt lat="47.28111" lon="4.95956">
        <ele>389.6</ele>
        <time>2013-03-02T08:15:47.000Z</time>
      </trkpt>
      <trkpt lat="47.28109" lon="4.95951">
        <ele>390.2</ele>
        <time>2013-03-02T08:15:50.000Z</time>
      </trkpt>
      <trkpt lat="47.28109" lon="4.9595">
        <ele>390.1</ele>
        <time>2013-03-02T08:15:51.000Z</time>
      </trkpt>
      <trkpt lat="47.28107" lon="4.95946">
        <ele>390.6</ele>
        <time>2013-03-02T08:15:53.000Z</time>
      </trkpt>
      <trkpt lat="47.28106" lon="4.95943">
        <ele>391</ele>
        <time>2013-03-02T08:15:54.000Z</time>
      </trkpt>
      <trkpt lat="47.28105" lon="4.95941">
        <ele>391.9</ele>
        <time>2013-03-02T08:15:56.000Z</time>
      </trkpt>
      <trkpt lat="47.28108" lon="4.95935">
        <ele>390.2</ele>
        <time>2013-03-02T08:16:03.000Z</time>
      </trkpt>
      <trkpt lat="47.28107" lon="4.9593">
        <ele>385.6</ele>
        <time>2013-03-02T08:16:07.000Z</time>
      </trkpt>
      <trkpt lat="47.28106" lon="4.95912">
        <ele>373</ele>
        <time>2013-03-02T08:16:15.000Z</time>
      </trkpt>
      <trkpt lat="47.28106" lon="4.95912">
        <ele>373</ele>
        <time>2013-03-02T08:16:17.000Z</time>
      </trkpt>
      <trkpt lat="47.28097" lon="4.95914">
        <ele>367.8</ele>
        <time>2013-03-02T08:16:18.000Z</time>
      </trkpt>
      <trkpt lat="47.28099" lon="4.95908">
        <ele>335.7</ele>
        <time>2013-03-02T08:16:25.000Z</time>
      </trkpt>
      <trkpt lat="47.281" lon="4.95907">
        <ele>329.5</ele>
        <time>2013-03-02T08:16:26.000Z</time>
      </trkpt>
      <trkpt lat="47.28095" lon="4.95909">
        <ele>350.9</ele>
        <time>2013-03-02T08:16:27.000Z</time>
      </trkpt>
      <trkpt lat="47.28095" lon="4.95909">
        <ele>350.9</ele>
        <time>2013-03-02T08:16:37.000Z</time>
      </trkpt>
      <trkpt lat="47.28102" lon="4.95918">
        <ele>358.3</ele>
        <time>2013-03-02T08:16:38.000Z</time>
      </trkpt>
      <trkpt lat="47.28099" lon="4.95923">
        <ele>374.4</ele>
        <time>2013-03-02T08:16:51.000Z</time>
      </trkpt>
      <trkpt lat="47.28099" lon="4.95924">
        <ele>375</ele>
        <time>2013-03-02T08:16:52.000Z</time>
      </trkpt>
      <trkpt lat="47.28095" lon="4.95919">
        <ele>376.6</ele>
        <time>2013-03-02T08:16:55.000Z</time>
      </trkpt>
      <trkpt lat="47.28094" lon="4.95918">
        <ele>376.9</ele>
        <time>2013-03-02T08:16:56.000Z</time>
      </trkpt>
      <trkpt lat="47.28091" lon="4.95915">
        <ele>378</ele>
        <time>2013-03-02T08:16:59.000Z</time>
      </trkpt>
      <trkpt lat="47.28091" lon="4.95914">
        <ele>378.5</ele>
        <time>2013-03-02T08:17:00.000Z</time>
      </trkpt>
      <trkpt lat="47.28089" lon="4.95909">
        <ele>380.1</ele>
        <time>2013-03-02T08:17:03.000Z</time>
      </trkpt>
      <trkpt lat="47.28087" lon="4.95906">
        <ele>380.3</ele>
        <time>2013-03-02T08:17:04.000Z</time>
      </trkpt>
      <trkpt lat="47.28084" lon="4.95902">
        <ele>381.2</ele>
        <time>2013-03-02T08:17:06.000Z</time>
      </trkpt>
      <trkpt lat="47.28083" lon="4.959">
        <ele>381.4</ele>
        <time>2013-03-02T08:17:07.000Z</time>
      </trkpt>
      <trkpt lat="47.28082" lon="4.95897">
        <ele>381.3</ele>
        <time>2013-03-02T08:17:08.000Z</time>
      </trkpt>
      <trkpt lat="47.28081" lon="4.95894">
        <ele>381.4</ele>
        <time>2013-03-02T08:17:09.000Z</time>
      </trkpt>
      <trkpt lat="47.28079" lon="4.95891">
        <ele>381.7</ele>
        <time>2013-03-02T08:17:10.000Z</time>
      </trkpt>
      <trkpt lat="47.28077" lon="4.95888">
        <ele>381.8</ele>
        <time>2013-03-02T08:17:11.000Z</time>
      </trkpt>
      <trkpt lat="47.28075" lon="4.95884">
        <ele>381.9</ele>
        <time>2013-03-02T08:17:12.000Z</time>
      </trkpt>
      <trkpt lat="47.28073" lon="4.95881">
        <ele>381.9</ele>
        <time>2013-03-02T08:17:13.000Z</time>
      </trkpt>
      <trkpt lat="47.28071" lon="4.95878">
        <ele>382.2</ele>
        <time>2013-03-02T08:17:14.000Z</time>
      </trkpt>
      <trkpt lat="47.2807" lon="4.95875">
        <ele>382.5</ele>
        <time>2013-03-02T08:17:15.000Z</time>
      </trkpt>
      <trkpt lat="47.28067" lon="4.95872">
        <ele>383.1</ele>
        <time>2013-03-02T08:17:17.000Z</time>
      </trkpt>
      <trkpt lat="47.28066" lon="4.9587">
        <ele>383.5</ele>
        <time>2013-03-02T08:17:18.000Z</time>
      </trkpt>
      <trkpt lat="47.28062" lon="4.9587">
        <ele>384.5</ele>
        <time>2013-03-02T08:17:21.000Z</time>
      </trkpt>
      <trkpt lat="47.28061" lon="4.95868">
        <ele>384.8</ele>
        <time>2013-03-02T08:17:22.000Z</time>
      </trkpt>
      <trkpt lat="47.28059" lon="4.95866">
        <ele>385</ele>
        <time>2013-03-02T08:17:23.000Z</time>
      </trkpt>
      <trkpt lat="47.28058" lon="4.95862">
        <ele>385.1</ele>
        <time>2013-03-02T08:17:24.000Z</time>
      </trkpt>
      <trkpt lat="47.28056" lon="4.95858">
        <ele>385.4</ele>
        <time>2013-03-02T08:17:25.000Z</time>
      </trkpt>
      <trkpt lat="47.28055" lon="4.95855">
        <ele>385.6</ele>
        <time>2013-03-02T08:17:26.000Z</time>
      </trkpt>
      <trkpt lat="47.28054" lon="4.95852">
        <ele>385.7</ele>
        <time>2013-03-02T08:17:27.000Z</time>
      </trkpt>
      <trkpt lat="47.28053" lon="4.95848">
        <ele>385.7</ele>
        <time>2013-03-02T08:17:28.000Z</time>
      </trkpt>
      <trkpt lat="47.2805" lon="4.95844">
        <ele>385.8</ele>
        <time>2013-03-02T08:17:30.000Z</time>
      </trkpt>
      <trkpt lat="47.28049" lon="4.95842">
        <ele>385.9</ele>
        <time>2013-03-02T08:17:31.000Z</time>
      </trkpt>
      <trkpt lat="47.28046" lon="4.95837">
        <ele>386.1</ele>
        <time>2013-03-02T08:17:33.000Z</time>
      </trkpt>
      <trkpt lat="47.28045" lon="4.95835">
        <ele>386</ele>
        <time>2013-03-02T08:17:34.000Z</time>
      </trkpt>
      <trkpt lat="47.28043" lon="4.95831">
        <ele>386.2</ele>
        <time>2013-03-02T08:17:36.000Z</time>
      </trkpt>
      <trkpt lat="47.28042" lon="4.95829">
        <ele>386.5</ele>
        <time>2013-03-02T08:17:37.000Z</time>
      </trkpt>
      <trkpt lat="47.28039" lon="4.95826">
        <ele>386.8</ele>
        <time>2013-03-02T08:17:39.000Z</time>
      </trkpt>
      <trkpt lat="47.28038" lon="4.95824">
        <ele>386.9</ele>
        <time>2013-03-02T08:17:40.000Z</time>
      </trkpt>
      <trkpt lat="47.28035" lon="4.9582">
        <ele>387.2</ele>
        <time>2013-03-02T08:17:42.000Z</time>
      </trkpt>
      <trkpt lat="47.28034" lon="4.95817">
        <ele>387.2</ele>
        <time>2013-03-02T08:17:43.000Z</time>
      </trkpt>
      <trkpt lat="47.28032" lon="4.95813">
        <ele>387.5</ele>
        <time>2013-03-02T08:17:45.000Z</time>
      </trkpt>
      <trkpt lat="47.2803" lon="4.95812">
        <ele>387.7</ele>
        <time>2013-03-02T08:17:46.000Z</time>
      </trkpt>
      <trkpt lat="47.28028" lon="4.95808">
        <ele>388.3</ele>
        <time>2013-03-02T08:17:48.000Z</time>
      </trkpt>
      <trkpt lat="47.28027" lon="4.95807">
        <ele>388.6</ele>
        <time>2013-03-02T08:17:49.000Z</time>
      </trkpt>
      <trkpt lat="47.28025" lon="4.95805">
        <ele>388.8</ele>
        <time>2013-03-02T08:17:50.000Z</time>
      </trkpt>
      <trkpt lat="47.28024" lon="4.95802">
        <ele>389</ele>
        <time>2013-03-02T08:17:51.000Z</time>
      </trkpt>
      <trkpt lat="47.28022" lon="4.95798">
        <ele>389.2</ele>
        <time>2013-03-02T08:17:53.000Z</time>
      </trkpt>
      <trkpt lat="47.28021" lon="4.95797">
        <ele>389.6</ele>
        <time>2013-03-02T08:17:54.000Z</time>
      </trkpt>
      <trkpt lat="47.28019" lon="4.95795">
        <ele>390.2</ele>
        <time>2013-03-02T08:17:56.000Z</time>
      </trkpt>
      <trkpt lat="47.27992" lon="4.9576">
        <ele>414.2</ele>
        <time>2013-03-02T08:18:12.000Z</time>
      </trkpt>
      <trkpt lat="47.2799" lon="4.95757">
        <ele>415.7</ele>
        <time>2013-03-02T08:18:14.000Z</time>
      </trkpt>
      <trkpt lat="47.27988" lon="4.95755">
        <ele>417.1</ele>
        <time>2013-03-02T08:18:15.000Z</time>
      </trkpt>
      <trkpt lat="47.27985" lon="4.95751">
        <ele>420.9</ele>
        <time>2013-03-02T08:18:17.000Z</time>
      </trkpt>
      <trkpt lat="47.27984" lon="4.9575">
        <ele>421.7</ele>
        <time>2013-03-02T08:18:18.000Z</time>
      </trkpt>
      <trkpt lat="47.27981" lon="4.95746">
        <ele>420.5</ele>
        <time>2013-03-02T08:18:20.000Z</time>
      </trkpt>
      <trkpt lat="47.27979" lon="4.95743">
        <ele>421.7</ele>
        <time>2013-03-02T08:18:21.000Z</time>
      </trkpt>
      <trkpt lat="47.27978" lon="4.95741">
        <ele>422</ele>
        <time>2013-03-02T08:18:22.000Z</time>
      </trkpt>
      <trkpt lat="47.27976" lon="4.95738">
        <ele>423</ele>
        <time>2013-03-02T08:18:23.000Z</time>
      </trkpt>
      <trkpt lat="47.27974" lon="4.95736">
        <ele>422.1</ele>
        <time>2013-03-02T08:18:24.000Z</time>
      </trkpt>
      <trkpt lat="47.27973" lon="4.95733">
        <ele>422</ele>
        <time>2013-03-02T08:18:25.000Z</time>
      </trkpt>
      <trkpt lat="47.27971" lon="4.95727">
        <ele>414.5</ele>
        <time>2013-03-02T08:18:28.000Z</time>
      </trkpt>
      <trkpt lat="47.2797" lon="4.95724">
        <ele>413.3</ele>
        <time>2013-03-02T08:18:29.000Z</time>
      </trkpt>
      <trkpt lat="47.27968" lon="4.9572">
        <ele>411.4</ele>
        <time>2013-03-02T08:18:31.000Z</time>
      </trkpt>
      <trkpt lat="47.27966" lon="4.95718">
        <ele>411.1</ele>
        <time>2013-03-02T08:18:32.000Z</time>
      </trkpt>
      <trkpt lat="47.27964" lon="4.95714">
        <ele>409.6</ele>
        <time>2013-03-02T08:18:34.000Z</time>
      </trkpt>
      <trkpt lat="47.27963" lon="4.95712">
        <ele>409.3</ele>
        <time>2013-03-02T08:18:35.000Z</time>
      </trkpt>
      <trkpt lat="47.27959" lon="4.95709">
        <ele>408.7</ele>
        <time>2013-03-02T08:18:38.000Z</time>
      </trkpt>
      <trkpt lat="47.27958" lon="4.95707">
        <ele>408.3</ele>
        <time>2013-03-02T08:18:39.000Z</time>
      </trkpt>
      <trkpt lat="47.27955" lon="4.95704">
        <ele>408.2</ele>
        <time>2013-03-02T08:18:42.000Z</time>
      </trkpt>
      <trkpt lat="47.27954" lon="4.95703">
        <ele>407.9</ele>
        <time>2013-03-02T08:18:43.000Z</time>
      </trkpt>
      <trkpt lat="47.27951" lon="4.95699">
        <ele>407.3</ele>
        <time>2013-03-02T08:18:45.000Z</time>
      </trkpt>
      <trkpt lat="47.2795" lon="4.95697">
        <ele>407.5</ele>
        <time>2013-03-02T08:18:46.000Z</time>
      </trkpt>
      <trkpt lat="47.27947" lon="4.95694">
        <ele>408.3</ele>
        <time>2013-03-02T08:18:48.000Z</time>
      </trkpt>
      <trkpt lat="47.27946" lon="4.95693">
        <ele>408.7</ele>
        <time>2013-03-02T08:18:49.000Z</time>
      </trkpt>
      <trkpt lat="47.27942" lon="4.9569">
        <ele>408.5</ele>
        <time>2013-03-02T08:18:52.000Z</time>
      </trkpt>
      <trkpt lat="47.27941" lon="4.95689">
        <ele>408.5</ele>
        <time>2013-03-02T08:18:53.000Z</time>
      </trkpt>
      <trkpt lat="47.27938" lon="4.95685">
        <ele>408.2</ele>
        <time>2013-03-02T08:18:55.000Z</time>
      </trkpt>
      <trkpt lat="47.27937" lon="4.95684">
        <ele>408.3</ele>
        <time>2013-03-02T08:18:56.000Z</time>
      </trkpt>
      <trkpt lat="47.27914" lon="4.95665">
        <ele>411.9</ele>
        <time>2013-03-02T08:19:10.000Z</time>
      </trkpt>
      <trkpt lat="47.2791" lon="4.95664">
        <ele>414.4</ele>
        <time>2013-03-02T08:19:12.000Z</time>
      </trkpt>
      <trkpt lat="47.27909" lon="4.95664">
        <ele>416.5</ele>
        <time>2013-03-02T08:19:13.000Z</time>
      </trkpt>
      <trkpt lat="47.27905" lon="4.95665">
        <ele>420.4</ele>
        <time>2013-03-02T08:19:16.000Z</time>
      </trkpt>
      <trkpt lat="47.27903" lon="4.95666">
        <ele>421.8</ele>
        <time>2013-03-02T08:19:17.000Z</time>
      </trkpt>
      <trkpt lat="47.27901" lon="4.95661">
        <ele>422.5</ele>
        <time>2013-03-02T08:19:19.000Z</time>
      </trkpt>
      <trkpt lat="47.279" lon="4.95656">
        <ele>422.3</ele>
        <time>2013-03-02T08:19:20.000Z</time>
      </trkpt>
      <trkpt lat="47.27899" lon="4.95651">
        <ele>419.9</ele>
        <time>2013-03-02T08:19:22.000Z</time>
      </trkpt>
      <trkpt lat="47.27899" lon="4.95649">
        <ele>419.3</ele>
        <time>2013-03-02T08:19:23.000Z</time>
      </trkpt>
      <trkpt lat="47.27895" lon="4.9565">
        <ele>415.6</ele>
        <time>2013-03-02T08:19:29.000Z</time>
      </trkpt>
      <trkpt lat="47.27894" lon="4.9565">
        <ele>415.4</ele>
        <time>2013-03-02T08:19:30.000Z</time>
      </trkpt>
      <trkpt lat="47.2789" lon="4.95648">
        <ele>415.3</ele>
        <time>2013-03-02T08:19:34.000Z</time>
      </trkpt>
      <trkpt lat="47.27889" lon="4.95647">
        <ele>416.1</ele>
        <time>2013-03-02T08:19:35.000Z</time>
      </trkpt>
      <trkpt lat="47.27886" lon="4.95644">
        <ele>416.8</ele>
        <time>2013-03-02T08:19:37.000Z</time>
      </trkpt>
      <trkpt lat="47.27885" lon="4.95643">
        <ele>417.4</ele>
        <time>2013-03-02T08:19:38.000Z</time>
      </trkpt>
      <trkpt lat="47.27881" lon="4.95639">
        <ele>418</ele>
        <time>2013-03-02T08:19:40.000Z</time>
      </trkpt>
      <trkpt lat="47.2788" lon="4.95637">
        <ele>417.8</ele>
        <time>2013-03-02T08:19:41.000Z</time>
      </trkpt>
      <trkpt lat="47.27877" lon="4.95633">
        <ele>418.6</ele>
        <time>2013-03-02T08:19:43.000Z</time>
      </trkpt>
      <trkpt lat="47.27876" lon="4.95632">
        <ele>419</ele>
        <time>2013-03-02T08:19:44.000Z</time>
      </trkpt>
      <trkpt lat="47.27873" lon="4.95629">
        <ele>418.8</ele>
        <time>2013-03-02T08:19:46.000Z</time>
      </trkpt>
      <trkpt lat="47.27872" lon="4.95628">
        <ele>418.7</ele>
        <time>2013-03-02T08:19:47.000Z</time>
      </trkpt>
      <trkpt lat="47.27869" lon="4.95625">
        <ele>418.5</ele>
        <time>2013-03-02T08:19:49.000Z</time>
      </trkpt>
      <trkpt lat="47.27868" lon="4.95624">
        <ele>418.7</ele>
        <time>2013-03-02T08:19:50.000Z</time>
      </trkpt>
      <trkpt lat="47.27865" lon="4.95622">
        <ele>418.5</ele>
        <time>2013-03-02T08:19:53.000Z</time>
      </trkpt>
      <trkpt lat="47.27863" lon="4.95621">
        <ele>418.5</ele>
        <time>2013-03-02T08:19:54.000Z</time>
      </trkpt>
      <trkpt lat="47.2786" lon="4.95618">
        <ele>419</ele>
        <time>2013-03-02T08:19:56.000Z</time>
      </trkpt>
      <trkpt lat="47.27845" lon="4.95598">
        <ele>409.8</ele>
        <time>2013-03-02T08:20:10.000Z</time>
      </trkpt>
      <trkpt lat="47.27842" lon="4.95594">
        <ele>410.5</ele>
        <time>2013-03-02T08:20:12.000Z</time>
      </trkpt>
      <trkpt lat="47.27841" lon="4.95593">
        <ele>412.4</ele>
        <time>2013-03-02T08:20:13.000Z</time>
      </trkpt>
      <trkpt lat="47.27838" lon="4.9559">
        <ele>411.1</ele>
        <time>2013-03-02T08:20:15.000Z</time>
      </trkpt>
      <trkpt lat="47.27836" lon="4.95589">
        <ele>411.6</ele>
        <time>2013-03-02T08:20:16.000Z</time>
      </trkpt>
      <trkpt lat="47.27832" lon="4.95588">
        <ele>414.7</ele>
        <time>2013-03-02T08:20:18.000Z</time>
      </trkpt>
      <trkpt lat="47.2783" lon="4.95587">
        <ele>414.8</ele>
        <time>2013-03-02T08:20:19.000Z</time>
      </trkpt>
      <trkpt lat="47.27827" lon="4.95584">
        <ele>419</ele>
        <time>2013-03-02T08:20:21.000Z</time>
      </trkpt>
      <trkpt lat="47.27825" lon="4.95584">
        <ele>422.3</ele>
        <time>2013-03-02T08:20:22.000Z</time>
      </trkpt>
      <trkpt lat="47.2782" lon="4.95582">
        <ele>424.3</ele>
        <time>2013-03-02T08:20:25.000Z</time>
      </trkpt>
      <trkpt lat="47.27819" lon="4.95581">
        <ele>425.8</ele>
        <time>2013-03-02T08:20:26.000Z</time>
      </trkpt>
      <trkpt lat="47.27816" lon="4.95577">
        <ele>421.1</ele>
        <time>2013-03-02T08:20:29.000Z</time>
      </trkpt>
      <trkpt lat="47.27814" lon="4.95576">
        <ele>420.6</ele>
        <time>2013-03-02T08:20:30.000Z</time>
      </trkpt>
      <trkpt lat="47.27811" lon="4.95574">
        <ele>419.9</ele>
        <time>2013-03-02T08:20:32.000Z</time>
      </trkpt>
      <trkpt lat="47.2781" lon="4.95574">
        <ele>420</ele>
        <time>2013-03-02T08:20:33.000Z</time>
      </trkpt>
      <trkpt lat="47.27806" lon="4.95571">
        <ele>420.4</ele>
        <time>2013-03-02T08:20:36.000Z</time>
      </trkpt>
      <trkpt lat="47.27804" lon="4.95569">
        <ele>420.2</ele>
        <time>2013-03-02T08:20:37.000Z</time>
      </trkpt>
      <trkpt lat="47.27801" lon="4.95567">
        <ele>421.1</ele>
        <time>2013-03-02T08:20:40.000Z</time>
      </trkpt>
      <trkpt lat="47.278" lon="4.95566">
        <ele>421.8</ele>
        <time>2013-03-02T08:20:41.000Z</time>
      </trkpt>
      <trkpt lat="47.27796" lon="4.95566">
        <ele>424.4</ele>
        <time>2013-03-02T08:20:44.000Z</time>
      </trkpt>
      <trkpt lat="47.27795" lon="4.95565">
        <ele>424.7</ele>
        <time>2013-03-02T08:20:45.000Z</time>
      </trkpt>
      <trkpt lat="47.2779" lon="4.95562">
        <ele>425.9</ele>
        <time>2013-03-02T08:20:48.000Z</time>
      </trkpt>
      <trkpt lat="47.27789" lon="4.95561">
        <ele>426.2</ele>
        <time>2013-03-02T08:20:49.000Z</time>
      </trkpt>
      <trkpt lat="47.27785" lon="4.95558">
        <ele>427.3</ele>
        <time>2013-03-02T08:20:53.000Z</time>
      </trkpt>
      <trkpt lat="47.27784" lon="4.95557">
        <ele>427.1</ele>
        <time>2013-03-02T08:20:54.000Z</time>
      </trkpt>
      <trkpt lat="47.27782" lon="4.95555">
        <ele>426.2</ele>
        <time>2013-03-02T08:20:56.000Z</time>
      </trkpt>
      <trkpt lat="47.27758" lon="4.95541">
        <ele>430.9</ele>
        <time>2013-03-02T08:21:12.000Z</time>
      </trkpt>
      <trkpt lat="47.27756" lon="4.95537">
        <ele>434.6</ele>
        <time>2013-03-02T08:21:15.000Z</time>
      </trkpt>
      <trkpt lat="47.27754" lon="4.95537">
        <ele>435.8</ele>
        <time>2013-03-02T08:21:16.000Z</time>
      </trkpt>
      <trkpt lat="47.27752" lon="4.95538">
        <ele>437.6</ele>
        <time>2013-03-02T08:21:17.000Z</time>
      </trkpt>
      <trkpt lat="47.27749" lon="4.95538">
        <ele>441</ele>
        <time>2013-03-02T08:21:18.000Z</time>
      </trkpt>
      <trkpt lat="47.27746" lon="4.95537">
        <ele>444</ele>
        <time>2013-03-02T08:21:20.000Z</time>
      </trkpt>
      <trkpt lat="47.27745" lon="4.95536">
        <ele>443.9</ele>
        <time>2013-03-02T08:21:21.000Z</time>
      </trkpt>
      <trkpt lat="47.27743" lon="4.95534">
        <ele>445.5</ele>
        <time>2013-03-02T08:21:22.000Z</time>
      </trkpt>
      <trkpt lat="47.27741" lon="4.95531">
        <ele>447.5</ele>
        <time>2013-03-02T08:21:23.000Z</time>
      </trkpt>
      <trkpt lat="47.27738" lon="4.95526">
        <ele>448.5</ele>
        <time>2013-03-02T08:21:25.000Z</time>
      </trkpt>
      <trkpt lat="47.27737" lon="4.95523">
        <ele>447.3</ele>
        <time>2013-03-02T08:21:26.000Z</time>
      </trkpt>
      <trkpt lat="47.27737" lon="4.9552">
        <ele>445.1</ele>
        <time>2013-03-02T08:21:27.000Z</time>
      </trkpt>
      <trkpt lat="47.27737" lon="4.95517">
        <ele>438.6</ele>
        <time>2013-03-02T08:21:28.000Z</time>
      </trkpt>
      <trkpt lat="47.27734" lon="4.95511">
        <ele>434.6</ele>
        <time>2013-03-02T08:21:30.000Z</time>
      </trkpt>
      <trkpt lat="47.27734" lon="4.95509">
        <ele>434.4</ele>
        <time>2013-03-02T08:21:31.000Z</time>
      </trkpt>
      <trkpt lat="47.2773" lon="4.95504">
        <ele>434.2</ele>
        <time>2013-03-02T08:21:34.000Z</time>
      </trkpt>
      <trkpt lat="47.27729" lon="4.95503">
        <ele>433.9</ele>
        <time>2013-03-02T08:21:35.000Z</time>
      </trkpt>
      <trkpt lat="47.27726" lon="4.95498">
        <ele>433.2</ele>
        <time>2013-03-02T08:21:39.000Z</time>
      </trkpt>
      <trkpt lat="47.27725" lon="4.95498">
        <ele>433.3</ele>
        <time>2013-03-02T08:21:40.000Z</time>
      </trkpt>
      <trkpt lat="47.27722" lon="4.95496">
        <ele>433.3</ele>
        <time>2013-03-02T08:21:42.000Z</time>
      </trkpt>
      <trkpt lat="47.27721" lon="4.95494">
        <ele>433.2</ele>
        <time>2013-03-02T08:21:43.000Z</time>
      </trkpt>
      <trkpt lat="47.27718" lon="4.9549">
        <ele>433</ele>
        <time>2013-03-02T08:21:45.000Z</time>
      </trkpt>
      <trkpt lat="47.27717" lon="4.95488">
        <ele>433.2</ele>
        <time>2013-03-02T08:21:46.000Z</time>
      </trkpt>
      <trkpt lat="47.27715" lon="4.95485">
        <ele>433.5</ele>
        <time>2013-03-02T08:21:48.000Z</time>
      </trkpt>
      <trkpt lat="47.27714" lon="4.95482">
        <ele>433.9</ele>
        <time>2013-03-02T08:21:49.000Z</time>
      </trkpt>
      <trkpt lat="47.27712" lon="4.95478">
        <ele>434.3</ele>
        <time>2013-03-02T08:21:50.000Z</time>
      </trkpt>
      <trkpt lat="47.27711" lon="4.95476">
        <ele>434.7</ele>
        <time>2013-03-02T08:21:51.000Z</time>
      </trkpt>
      <trkpt lat="47.27709" lon="4.95472">
        <ele>434.8</ele>
        <time>2013-03-02T08:21:53.000Z</time>
      </trkpt>
      <trkpt lat="47.27708" lon="4.9547">
        <ele>434.7</ele>
        <time>2013-03-02T08:21:54.000Z</time>
      </trkpt>
      <trkpt lat="47.27706" lon="4.95467">
        <ele>434.2</ele>
        <time>2013-03-02T08:21:56.000Z</time>
      </trkpt>
      <trkpt lat="47.27693" lon="4.95446">
        <ele>439.9</ele>
        <time>2013-03-02T08:22:06.000Z</time>
      </trkpt>
      <trkpt lat="47.27689" lon="4.95442">
        <ele>443.5</ele>
        <time>2013-03-02T08:22:09.000Z</time>
      </trkpt>
      <trkpt lat="47.27688" lon="4.95441">
        <ele>445.3</ele>
        <time>2013-03-02T08:22:10.000Z</time>
      </trkpt>
      <trkpt lat="47.27684" lon="4.95438">
        <ele>447.3</ele>
        <time>2013-03-02T08:22:13.000Z</time>
      </trkpt>
      <trkpt lat="47.27682" lon="4.95436">
        <ele>448.9</ele>
        <time>2013-03-02T08:22:14.000Z</time>
      </trkpt>
      <trkpt lat="47.27679" lon="4.95433">
        <ele>452.5</ele>
        <time>2013-03-02T08:22:17.000Z</time>
      </trkpt>
      <trkpt lat="47.27676" lon="4.95431">
        <ele>458.1</ele>
        <time>2013-03-02T08:22:18.000Z</time>
      </trkpt>
      <trkpt lat="47.27672" lon="4.95429">
        <ele>458.7</ele>
        <time>2013-03-02T08:22:22.000Z</time>
      </trkpt>
      <trkpt lat="47.27671" lon="4.95429">
        <ele>459.1</ele>
        <time>2013-03-02T08:22:23.000Z</time>
      </trkpt>
      <trkpt lat="47.27667" lon="4.95427">
        <ele>460.5</ele>
        <time>2013-03-02T08:22:26.000Z</time>
      </trkpt>
      <trkpt lat="47.27666" lon="4.95427">
        <ele>461.1</ele>
        <time>2013-03-02T08:22:27.000Z</time>
      </trkpt>
      <trkpt lat="47.27663" lon="4.95423">
        <ele>453.8</ele>
        <time>2013-03-02T08:22:31.000Z</time>
      </trkpt>
      <trkpt lat="47.27662" lon="4.95422">
        <ele>453.7</ele>
        <time>2013-03-02T08:22:32.000Z</time>
      </trkpt>
      <trkpt lat="47.27659" lon="4.95418">
        <ele>454.4</ele>
        <time>2013-03-02T08:22:40.000Z</time>
      </trkpt>
      <trkpt lat="47.27657" lon="4.95417">
        <ele>454.8</ele>
        <time>2013-03-02T08:22:41.000Z</time>
      </trkpt>
      <trkpt lat="47.27653" lon="4.95414">
        <ele>454.9</ele>
        <time>2013-03-02T08:22:43.000Z</time>
      </trkpt>
      <trkpt lat="47.27651" lon="4.95413">
        <ele>454.7</ele>
        <time>2013-03-02T08:22:44.000Z</time>
      </trkpt>
      <trkpt lat="47.2765" lon="4.95412">
        <ele>454.4</ele>
        <time>2013-03-02T08:22:45.000Z</time>
      </trkpt>
      <trkpt lat="47.27647" lon="4.95409">
        <ele>453.7</ele>
        <time>2013-03-02T08:22:46.000Z</time>
      </trkpt>
      <trkpt lat="47.27645" lon="4.95407">
        <ele>453</ele>
        <time>2013-03-02T08:22:47.000Z</time>
      </trkpt>
      <trkpt lat="47.27643" lon="4.95405">
        <ele>452.2</ele>
        <time>2013-03-02T08:22:48.000Z</time>
      </trkpt>
      <trkpt lat="47.2764" lon="4.95404">
        <ele>450.8</ele>
        <time>2013-03-02T08:22:51.000Z</time>
      </trkpt>
      <trkpt lat="47.27638" lon="4.95403">
        <ele>450.7</ele>
        <time>2013-03-02T08:22:52.000Z</time>
      </trkpt>
      <trkpt lat="47.27636" lon="4.95398">
        <ele>450.4</ele>
        <time>2013-03-02T08:22:56.000Z</time>
      </trkpt>
      <trkpt lat="47.27618" lon="4.95381">
        <ele>458.1</ele>
        <time>2013-03-02T08:23:08.000Z</time>
      </trkpt>
      <trkpt lat="47.27615" lon="4.95377">
        <ele>458.8</ele>
        <time>2013-03-02T08:23:13.000Z</time>
      </trkpt>
      <trkpt lat="47.27613" lon="4.95374">
        <ele>461.8</ele>
        <time>2013-03-02T08:23:14.000Z</time>
      </trkpt>
      <trkpt lat="47.27611" lon="4.95372">
        <ele>461.3</ele>
        <time>2013-03-02T08:23:16.000Z</time>
      </trkpt>
      <trkpt lat="47.2761" lon="4.95368">
        <ele>461.4</ele>
        <time>2013-03-02T08:23:17.000Z</time>
      </trkpt>
      <trkpt lat="47.27609" lon="4.95365">
        <ele>461.6</ele>
        <time>2013-03-02T08:23:18.000Z</time>
      </trkpt>
      <trkpt lat="47.27608" lon="4.95362">
        <ele>461.7</ele>
        <time>2013-03-02T08:23:19.000Z</time>
      </trkpt>
      <trkpt lat="47.27606" lon="4.95356">
        <ele>463.1</ele>
        <time>2013-03-02T08:23:21.000Z</time>
      </trkpt>
      <trkpt lat="47.27605" lon="4.95354">
        <ele>462.9</ele>
        <time>2013-03-02T08:23:22.000Z</time>
      </trkpt>
      <trkpt lat="47.27603" lon="4.95349">
        <ele>463.8</ele>
        <time>2013-03-02T08:23:24.000Z</time>
      </trkpt>
      <trkpt lat="47.27602" lon="4.95347">
        <ele>464.4</ele>
        <time>2013-03-02T08:23:25.000Z</time>
      </trkpt>
      <trkpt lat="47.27601" lon="4.9534">
        <ele>460.9</ele>
        <time>2013-03-02T08:23:29.000Z</time>
      </trkpt>
      <trkpt lat="47.27601" lon="4.95339">
        <ele>460.2</ele>
        <time>2013-03-02T08:23:30.000Z</time>
      </trkpt>
      <trkpt lat="47.27599" lon="4.95333">
        <ele>459</ele>
        <time>2013-03-02T08:23:33.000Z</time>
      </trkpt>
      <trkpt lat="47.27598" lon="4.95332">
        <ele>459</ele>
        <time>2013-03-02T08:23:34.000Z</time>
      </trkpt>
      <trkpt lat="47.27596" lon="4.95326">
        <ele>459</ele>
        <time>2013-03-02T08:23:37.000Z</time>
      </trkpt>
      <trkpt lat="47.27595" lon="4.95324">
        <ele>458.8</ele>
        <time>2013-03-02T08:23:38.000Z</time>
      </trkpt>
      <trkpt lat="47.27593" lon="4.95319">
        <ele>458.5</ele>
        <time>2013-03-02T08:23:40.000Z</time>
      </trkpt>
      <trkpt lat="47.27591" lon="4.95317">
        <ele>458.2</ele>
        <time>2013-03-02T08:23:41.000Z</time>
      </trkpt>
      <trkpt lat="47.27588" lon="4.95313">
        <ele>458.5</ele>
        <time>2013-03-02T08:23:44.000Z</time>
      </trkpt>
      <trkpt lat="47.27587" lon="4.95312">
        <ele>458.8</ele>
        <time>2013-03-02T08:23:45.000Z</time>
      </trkpt>
      <trkpt lat="47.27585" lon="4.9531">
        <ele>459.5</ele>
        <time>2013-03-02T08:23:47.000Z</time>
      </trkpt>
      <trkpt lat="47.27584" lon="4.95306">
        <ele>459.8</ele>
        <time>2013-03-02T08:23:48.000Z</time>
      </trkpt>
      <trkpt lat="47.2758" lon="4.95303">
        <ele>460.2</ele>
        <time>2013-03-02T08:23:51.000Z</time>
      </trkpt>
      <trkpt lat="47.27579" lon="4.95302">
        <ele>460.4</ele>
        <time>2013-03-02T08:23:52.000Z</time>
      </trkpt>
      <trkpt lat="47.27576" lon="4.95298">
        <ele>461.4</ele>
        <time>2013-03-02T08:23:56.000Z</time>
      </trkpt>
      <trkpt lat="47.27562" lon="4.95265">
        <ele>480.3</ele>
        <time>2013-03-02T08:24:10.000Z</time>
      </trkpt>
      <trkpt lat="47.27559" lon="4.95263">
        <ele>471.6</ele>
        <time>2013-03-02T08:24:14.000Z</time>
      </trkpt>
      <trkpt lat="47.27557" lon="4.95263">
        <ele>466.7</ele>
        <time>2013-03-02T08:24:15.000Z</time>
      </trkpt>
      <trkpt lat="47.27554" lon="4.9526">
        <ele>451.4</ele>
        <time>2013-03-02T08:24:23.000Z</time>
      </trkpt>
      <trkpt lat="47.27552" lon="4.9526">
        <ele>452.6</ele>
        <time>2013-03-02T08:24:24.000Z</time>
      </trkpt>
      <trkpt lat="47.27548" lon="4.95261">
        <ele>454.9</ele>
        <time>2013-03-02T08:24:28.000Z</time>
      </trkpt>
      <trkpt lat="47.27547" lon="4.9526">
        <ele>455.1</ele>
        <time>2013-03-02T08:24:29.000Z</time>
      </trkpt>
      <trkpt lat="47.27543" lon="4.9526">
        <ele>464</ele>
        <time>2013-03-02T08:24:47.000Z</time>
      </trkpt>
      <trkpt lat="47.27543" lon="4.95259">
        <ele>464.2</ele>
        <time>2013-03-02T08:24:48.000Z</time>
      </trkpt>
      <trkpt lat="47.27542" lon="4.95259">
        <ele>464.1</ele>
        <time>2013-03-02T08:25:07.000Z</time>
      </trkpt>
      <trkpt lat="47.27538" lon="4.95257">
        <ele>463.6</ele>
        <time>2013-03-02T08:25:08.000Z</time>
      </trkpt>
      <trkpt lat="47.27533" lon="4.95257">
        <ele>462.2</ele>
        <time>2013-03-02T08:25:14.000Z</time>
      </trkpt>
      <trkpt lat="47.27533" lon="4.95256">
        <ele>461.9</ele>
        <time>2013-03-02T08:25:15.000Z</time>
      </trkpt>
      <trkpt lat="47.27533" lon="4.95256">
        <ele>461.9</ele>
        <time>2013-03-02T08:25:56.000Z</time>
      </trkpt>
      <trkpt lat="47.27515" lon="4.95262">
        <ele>496.5</ele>
        <time>2013-03-02T08:26:07.000Z</time>
      </trkpt>
      <trkpt lat="47.27515" lon="4.95262">
        <ele>496.9</ele>
        <time>2013-03-02T08:26:35.000Z</time>
      </trkpt>
      <trkpt lat="47.27516" lon="4.95253">
        <ele>495.8</ele>
        <time>2013-03-02T08:26:36.000Z</time>
      </trkpt>
      <trkpt lat="47.27513" lon="4.95249">
        <ele>490.9</ele>
        <time>2013-03-02T08:26:45.000Z</time>
      </trkpt>
      <trkpt lat="47.27512" lon="4.95248">
        <ele>490.8</ele>
        <time>2013-03-02T08:26:46.000Z</time>
      </trkpt>
      <trkpt lat="47.27508" lon="4.95245">
        <ele>489.9</ele>
        <time>2013-03-02T08:26:50.000Z</time>
      </trkpt>
      <trkpt lat="47.27508" lon="4.95244">
        <ele>489.8</ele>
        <time>2013-03-02T08:26:51.000Z</time>
      </trkpt>
      <trkpt lat="47.27505" lon="4.9524">
        <ele>488.4</ele>
        <time>2013-03-02T08:26:54.000Z</time>
      </trkpt>
      <trkpt lat="47.27504" lon="4.95239">
        <ele>487.8</ele>
        <time>2013-03-02T08:26:55.000Z</time>
      </trkpt>
      <trkpt lat="47.27503" lon="4.95238">
        <ele>487.6</ele>
        <time>2013-03-02T08:26:56.000Z</time>
      </trkpt>
      <trkpt lat="47.27496" lon="4.95229">
        <ele>494.2</ele>
        <time>2013-03-02T08:27:06.000Z</time>
      </trkpt>
      <trkpt lat="47.27498" lon="4.95224">
        <ele>493.6</ele>
        <time>2013-03-02T08:27:56.000Z</time>
      </trkpt>
      <trkpt lat="47.27501" lon="4.95211">
        <ele>490.7</ele>
        <time>2013-03-02T08:28:05.000Z</time>
      </trkpt>
      <trkpt lat="47.27499" lon="4.9521">
        <ele>490.6</ele>
        <time>2013-03-02T08:28:53.000Z</time>
      </trkpt>
      <trkpt lat="47.27497" lon="4.95209">
        <ele>490.3</ele>
        <time>2013-03-02T08:28:54.000Z</time>
      </trkpt>
      <trkpt lat="47.27497" lon="4.95208">
        <ele>490.3</ele>
        <time>2013-03-02T08:28:56.000Z</time>
      </trkpt>
      <trkpt lat="47.2749" lon="4.95212">
        <ele>494</ele>
        <time>2013-03-02T08:29:04.000Z</time>
      </trkpt>
      <trkpt lat="47.27494" lon="4.95211">
        <ele>490.1</ele>
        <time>2013-03-02T08:29:08.000Z</time>
      </trkpt>
      <trkpt lat="47.27494" lon="4.95209">
        <ele>490</ele>
        <time>2013-03-02T08:29:09.000Z</time>
      </trkpt>
      <trkpt lat="47.27495" lon="4.95208">
        <ele>489.8</ele>
        <time>2013-03-02T08:29:56.000Z</time>
      </trkpt>
      <trkpt lat="47.27499" lon="4.95201">
        <ele>492.5</ele>
        <time>2013-03-02T08:30:07.000Z</time>
      </trkpt>
      <trkpt lat="47.27501" lon="4.95202">
        <ele>500.2</ele>
        <time>2013-03-02T08:32:08.000Z</time>
      </trkpt>
      <trkpt lat="47.27503" lon="4.9521">
        <ele>491.6</ele>
        <time>2013-03-02T08:32:09.000Z</time>
      </trkpt>
      <trkpt lat="47.27504" lon="4.9521">
        <ele>491.6</ele>
        <time>2013-03-02T08:32:56.000Z</time>
      </trkpt>
      <trkpt lat="47.2749" lon="4.95202">
        <ele>500.1</ele>
        <time>2013-03-02T08:33:05.000Z</time>
      </trkpt>
      <trkpt lat="47.27491" lon="4.95198">
        <ele>495.9</ele>
        <time>2013-03-02T08:33:09.000Z</time>
      </trkpt>
      <trkpt lat="47.27492" lon="4.95196">
        <ele>494.9</ele>
        <time>2013-03-02T08:33:10.000Z</time>
      </trkpt>
      <trkpt lat="47.27491" lon="4.9519">
        <ele>494.4</ele>
        <time>2013-03-02T08:33:14.000Z</time>
      </trkpt>
      <trkpt lat="47.27491" lon="4.95189">
        <ele>495.3</ele>
        <time>2013-03-02T08:33:15.000Z</time>
      </trkpt>
      <trkpt lat="47.2749" lon="4.95184">
        <ele>495.6</ele>
        <time>2013-03-02T08:33:19.000Z</time>
      </trkpt>
      <trkpt lat="47.27491" lon="4.95183">
        <ele>494.8</ele>
        <time>2013-03-02T08:33:20.000Z</time>
      </trkpt>
      <trkpt lat="47.27491" lon="4.95178">
        <ele>495.5</ele>
        <time>2013-03-02T08:33:22.000Z</time>
      </trkpt>
      <trkpt lat="47.27491" lon="4.95175">
        <ele>496.2</ele>
        <time>2013-03-02T08:33:23.000Z</time>
      </trkpt>
      <trkpt lat="47.27491" lon="4.95169">
        <ele>496.7</ele>
        <time>2013-03-02T08:33:26.000Z</time>
      </trkpt>
      <trkpt lat="47.27491" lon="4.95167">
        <ele>496.9</ele>
        <time>2013-03-02T08:33:27.000Z</time>
      </trkpt>
      <trkpt lat="47.27491" lon="4.95161">
        <ele>497.4</ele>
        <time>2013-03-02T08:33:30.000Z</time>
      </trkpt>
      <trkpt lat="47.27491" lon="4.95159">
        <ele>497.6</ele>
        <time>2013-03-02T08:33:31.000Z</time>
      </trkpt>
      <trkpt lat="47.27491" lon="4.95154">
        <ele>498.2</ele>
        <time>2013-03-02T08:33:33.000Z</time>
      </trkpt>
      <trkpt lat="47.27491" lon="4.95152">
        <ele>498.2</ele>
        <time>2013-03-02T08:33:34.000Z</time>
      </trkpt>
      <trkpt lat="47.27492" lon="4.95146">
        <ele>498.6</ele>
        <time>2013-03-02T08:33:37.000Z</time>
      </trkpt>
      <trkpt lat="47.27492" lon="4.95145">
        <ele>498.7</ele>
        <time>2013-03-02T08:33:38.000Z</time>
      </trkpt>
      <trkpt lat="47.27493" lon="4.9514">
        <ele>498.8</ele>
        <time>2013-03-02T08:33:40.000Z</time>
      </trkpt>
      <trkpt lat="47.27493" lon="4.95138">
        <ele>498.7</ele>
        <time>2013-03-02T08:33:41.000Z</time>
      </trkpt>
      <trkpt lat="47.27494" lon="4.95133">
        <ele>498.6</ele>
        <time>2013-03-02T08:33:43.000Z</time>
      </trkpt>
      <trkpt lat="47.27494" lon="4.95131">
        <ele>498.5</ele>
        <time>2013-03-02T08:33:44.000Z</time>
      </trkpt>
      <trkpt lat="47.27494" lon="4.95125">
        <ele>498.5</ele>
        <time>2013-03-02T08:33:47.000Z</time>
      </trkpt>
      <trkpt lat="47.27495" lon="4.95123">
        <ele>498.4</ele>
        <time>2013-03-02T08:33:48.000Z</time>
      </trkpt>
      <trkpt lat="47.27494" lon="4.95118">
        <ele>498.2</ele>
        <time>2013-03-02T08:33:50.000Z</time>
      </trkpt>
      <trkpt lat="47.27494" lon="4.95116">
        <ele>498.2</ele>
        <time>2013-03-02T08:33:51.000Z</time>
      </trkpt>
      <trkpt lat="47.27493" lon="4.95111">
        <ele>498.3</ele>
        <time>2013-03-02T08:33:53.000Z</time>
      </trkpt>
      <trkpt lat="47.27492" lon="4.95109">
        <ele>498.4</ele>
        <time>2013-03-02T08:33:54.000Z</time>
      </trkpt>
      <trkpt lat="47.27491" lon="4.95104">
        <ele>498.2</ele>
        <time>2013-03-02T08:33:56.000Z</time>
      </trkpt>
      <trkpt lat="47.27486" lon="4.95069">
        <ele>504.5</ele>
        <time>2013-03-02T08:34:08.000Z</time>
      </trkpt>
      <trkpt lat="47.27485" lon="4.95063">
        <ele>503.1</ele>
        <time>2013-03-02T08:34:12.000Z</time>
      </trkpt>
      <trkpt lat="47.27485" lon="4.95061">
        <ele>502.5</ele>
        <time>2013-03-02T08:34:13.000Z</time>
      </trkpt>
      <trkpt lat="47.27486" lon="4.95056">
        <ele>501.5</ele>
        <time>2013-03-02T08:34:15.000Z</time>
      </trkpt>
      <trkpt lat="47.27486" lon="4.95054">
        <ele>500.3</ele>
        <time>2013-03-02T08:34:16.000Z</time>
      </trkpt>
      <trkpt lat="47.27486" lon="4.95049">
        <ele>499.4</ele>
        <time>2013-03-02T08:34:18.000Z</time>
      </trkpt>
      <trkpt lat="47.27486" lon="4.95047">
        <ele>498.7</ele>
        <time>2013-03-02T08:34:19.000Z</time>
      </trkpt>
      <trkpt lat="47.27486" lon="4.95043">
        <ele>498.6</ele>
        <time>2013-03-02T08:34:21.000Z</time>
      </trkpt>
      <trkpt lat="47.27485" lon="4.9504">
        <ele>498.2</ele>
        <time>2013-03-02T08:34:22.000Z</time>
      </trkpt>
      <trkpt lat="47.27483" lon="4.95035">
        <ele>498.2</ele>
        <time>2013-03-02T08:34:25.000Z</time>
      </trkpt>
      <trkpt lat="47.27483" lon="4.95033">
        <ele>498.2</ele>
        <time>2013-03-02T08:34:26.000Z</time>
      </trkpt>
      <trkpt lat="47.2748" lon="4.95028">
        <ele>498.9</ele>
        <time>2013-03-02T08:34:29.000Z</time>
      </trkpt>
      <trkpt lat="47.2748" lon="4.95026">
        <ele>498.9</ele>
        <time>2013-03-02T08:34:30.000Z</time>
      </trkpt>
      <trkpt lat="47.2748" lon="4.95022">
        <ele>499</ele>
        <time>2013-03-02T08:34:32.000Z</time>
      </trkpt>
      <trkpt lat="47.27479" lon="4.9502">
        <ele>499.4</ele>
        <time>2013-03-02T08:34:33.000Z</time>
      </trkpt>
      <trkpt lat="47.27479" lon="4.95013">
        <ele>499.5</ele>
        <time>2013-03-02T08:34:36.000Z</time>
      </trkpt>
      <trkpt lat="47.27479" lon="4.95011">
        <ele>499.7</ele>
        <time>2013-03-02T08:34:37.000Z</time>
      </trkpt>
      <trkpt lat="47.27479" lon="4.95004">
        <ele>500.5</ele>
        <time>2013-03-02T08:34:40.000Z</time>
      </trkpt>
      <trkpt lat="47.27479" lon="4.95002">
        <ele>501</ele>
        <time>2013-03-02T08:34:41.000Z</time>
      </trkpt>
      <trkpt lat="47.27479" lon="4.94997">
        <ele>501.2</ele>
        <time>2013-03-02T08:34:43.000Z</time>
      </trkpt>
      <trkpt lat="47.27478" lon="4.94995">
        <ele>501.6</ele>
        <time>2013-03-02T08:34:44.000Z</time>
      </trkpt>
      <trkpt lat="47.27478" lon="4.9499">
        <ele>502.3</ele>
        <time>2013-03-02T08:34:46.000Z</time>
      </trkpt>
      <trkpt lat="47.27478" lon="4.94988">
        <ele>502.4</ele>
        <time>2013-03-02T08:34:47.000Z</time>
      </trkpt>
      <trkpt lat="47.27477" lon="4.94984">
        <ele>502.7</ele>
        <time>2013-03-02T08:34:49.000Z</time>
      </trkpt>
      <trkpt lat="47.27477" lon="4.94981">
        <ele>503.1</ele>
        <time>2013-03-02T08:34:50.000Z</time>
      </trkpt>
      <trkpt lat="47.27477" lon="4.94976">
        <ele>503.7</ele>
        <time>2013-03-02T08:34:52.000Z</time>
      </trkpt>
      <trkpt lat="47.27476" lon="4.94974">
        <ele>503.9</ele>
        <time>2013-03-02T08:34:53.000Z</time>
      </trkpt>
      <trkpt lat="47.27476" lon="4.9497">
        <ele>504.5</ele>
        <time>2013-03-02T08:34:55.000Z</time>
      </trkpt>
      <trkpt lat="47.27475" lon="4.94968">
        <ele>504.7</ele>
        <time>2013-03-02T08:34:56.000Z</time>
      </trkpt>
      <trkpt lat="47.27467" lon="4.94946">
        <ele>511.5</ele>
        <time>2013-03-02T08:35:06.000Z</time>
      </trkpt>
      <trkpt lat="47.27466" lon="4.94939">
        <ele>510.6</ele>
        <time>2013-03-02T08:35:09.000Z</time>
      </trkpt>
      <trkpt lat="47.27466" lon="4.94936">
        <ele>510.2</ele>
        <time>2013-03-02T08:35:10.000Z</time>
      </trkpt>
      <trkpt lat="47.27467" lon="4.94931">
        <ele>511.9</ele>
        <time>2013-03-02T08:35:12.000Z</time>
      </trkpt>
      <trkpt lat="47.27468" lon="4.9493">
        <ele>512.7</ele>
        <time>2013-03-02T08:35:13.000Z</time>
      </trkpt>
      <trkpt lat="47.27468" lon="4.94925">
        <ele>512.2</ele>
        <time>2013-03-02T08:35:15.000Z</time>
      </trkpt>
      <trkpt lat="47.27468" lon="4.94922">
        <ele>511.9</ele>
        <time>2013-03-02T08:35:16.000Z</time>
      </trkpt>
      <trkpt lat="47.27466" lon="4.94917">
        <ele>514.2</ele>
        <time>2013-03-02T08:35:18.000Z</time>
      </trkpt>
      <trkpt lat="47.27465" lon="4.94915">
        <ele>513.6</ele>
        <time>2013-03-02T08:35:19.000Z</time>
      </trkpt>
      <trkpt lat="47.27463" lon="4.94911">
        <ele>511.7</ele>
        <time>2013-03-02T08:35:21.000Z</time>
      </trkpt>
      <trkpt lat="47.27462" lon="4.94909">
        <ele>510.7</ele>
        <time>2013-03-02T08:35:22.000Z</time>
      </trkpt>
      <trkpt lat="47.27461" lon="4.94904">
        <ele>509.9</ele>
        <time>2013-03-02T08:35:24.000Z</time>
      </trkpt>
      <trkpt lat="47.27461" lon="4.94902">
        <ele>510.2</ele>
        <time>2013-03-02T08:35:25.000Z</time>
      </trkpt>
      <trkpt lat="47.27461" lon="4.94895">
        <ele>512</ele>
        <time>2013-03-02T08:35:28.000Z</time>
      </trkpt>
      <trkpt lat="47.27461" lon="4.94893">
        <ele>512.4</ele>
        <time>2013-03-02T08:35:29.000Z</time>
      </trkpt>
      <trkpt lat="47.27461" lon="4.94889">
        <ele>512.4</ele>
        <time>2013-03-02T08:35:31.000Z</time>
      </trkpt>
      <trkpt lat="47.27461" lon="4.94886">
        <ele>512.1</ele>
        <time>2013-03-02T08:35:32.000Z</time>
      </trkpt>
      <trkpt lat="47.2746" lon="4.94881">
        <ele>512.4</ele>
        <time>2013-03-02T08:35:34.000Z</time>
      </trkpt>
      <trkpt lat="47.27459" lon="4.94879">
        <ele>512.1</ele>
        <time>2013-03-02T08:35:35.000Z</time>
      </trkpt>
      <trkpt lat="47.27457" lon="4.94873">
        <ele>512.3</ele>
        <time>2013-03-02T08:35:38.000Z</time>
      </trkpt>
      <trkpt lat="47.27457" lon="4.94871">
        <ele>512</ele>
        <time>2013-03-02T08:35:39.000Z</time>
      </trkpt>
      <trkpt lat="47.27455" lon="4.94867">
        <ele>511.9</ele>
        <time>2013-03-02T08:35:41.000Z</time>
      </trkpt>
      <trkpt lat="47.27454" lon="4.94865">
        <ele>512.6</ele>
        <time>2013-03-02T08:35:42.000Z</time>
      </trkpt>
      <trkpt lat="47.27451" lon="4.94862">
        <ele>513.5</ele>
        <time>2013-03-02T08:35:44.000Z</time>
      </trkpt>
      <trkpt lat="47.2745" lon="4.94861">
        <ele>513.3</ele>
        <time>2013-03-02T08:35:45.000Z</time>
      </trkpt>
      <trkpt lat="47.27447" lon="4.94856">
        <ele>513.5</ele>
        <time>2013-03-02T08:35:48.000Z</time>
      </trkpt>
      <trkpt lat="47.27446" lon="4.94854">
        <ele>513.9</ele>
        <time>2013-03-02T08:35:49.000Z</time>
      </trkpt>
      <trkpt lat="47.27442" lon="4.94851">
        <ele>513.7</ele>
        <time>2013-03-02T08:35:52.000Z</time>
      </trkpt>
      <trkpt lat="47.27441" lon="4.94849">
        <ele>513.7</ele>
        <time>2013-03-02T08:35:53.000Z</time>
      </trkpt>
      <trkpt lat="47.27438" lon="4.94845">
        <ele>514.3</ele>
        <time>2013-03-02T08:35:55.000Z</time>
      </trkpt>
      <trkpt lat="47.27438" lon="4.94843">
        <ele>514.2</ele>
        <time>2013-03-02T08:35:56.000Z</time>
      </trkpt>
      <trkpt lat="47.27426" lon="4.94819">
        <ele>514.5</ele>
        <time>2013-03-02T08:36:05.000Z</time>
      </trkpt>
      <trkpt lat="47.27424" lon="4.94813">
        <ele>516.1</ele>
        <time>2013-03-02T08:36:08.000Z</time>
      </trkpt>
      <trkpt lat="47.27422" lon="4.94808">
        <ele>516.7</ele>
        <time>2013-03-02T08:36:10.000Z</time>
      </trkpt>
      <trkpt lat="47.27422" lon="4.94806">
        <ele>517</ele>
        <time>2013-03-02T08:36:11.000Z</time>
      </trkpt>
      <trkpt lat="47.2742" lon="4.948">
        <ele>517.2</ele>
        <time>2013-03-02T08:36:14.000Z</time>
      </trkpt>
      <trkpt lat="47.27419" lon="4.94798">
        <ele>517.8</ele>
        <time>2013-03-02T08:36:15.000Z</time>
      </trkpt>
      <trkpt lat="47.27418" lon="4.94793">
        <ele>517.3</ele>
        <time>2013-03-02T08:36:17.000Z</time>
      </trkpt>
      <trkpt lat="47.27418" lon="4.94791">
        <ele>516.6</ele>
        <time>2013-03-02T08:36:18.000Z</time>
      </trkpt>
      <trkpt lat="47.27417" lon="4.94786">
        <ele>515.6</ele>
        <time>2013-03-02T08:36:20.000Z</time>
      </trkpt>
      <trkpt lat="47.27417" lon="4.94784">
        <ele>515.2</ele>
        <time>2013-03-02T08:36:21.000Z</time>
      </trkpt>
      <trkpt lat="47.27415" lon="4.94779">
        <ele>515.9</ele>
        <time>2013-03-02T08:36:23.000Z</time>
      </trkpt>
      <trkpt lat="47.27415" lon="4.94777">
        <ele>516.2</ele>
        <time>2013-03-02T08:36:24.000Z</time>
      </trkpt>
      <trkpt lat="47.27414" lon="4.94772">
        <ele>518</ele>
        <time>2013-03-02T08:36:26.000Z</time>
      </trkpt>
      <trkpt lat="47.27413" lon="4.9477">
        <ele>517.9</ele>
        <time>2013-03-02T08:36:27.000Z</time>
      </trkpt>
      <trkpt lat="47.27412" lon="4.94765">
        <ele>517.4</ele>
        <time>2013-03-02T08:36:29.000Z</time>
      </trkpt>
      <trkpt lat="47.27411" lon="4.94763">
        <ele>517</ele>
        <time>2013-03-02T08:36:30.000Z</time>
      </trkpt>
      <trkpt lat="47.27409" lon="4.94758">
        <ele>517.1</ele>
        <time>2013-03-02T08:36:32.000Z</time>
      </trkpt>
      <trkpt lat="47.27409" lon="4.94756">
        <ele>517.2</ele>
        <time>2013-03-02T08:36:33.000Z</time>
      </trkpt>
      <trkpt lat="47.27408" lon="4.94752">
        <ele>517.3</ele>
        <time>2013-03-02T08:36:35.000Z</time>
      </trkpt>
      <trkpt lat="47.27407" lon="4.9475">
        <ele>517.4</ele>
        <time>2013-03-02T08:36:36.000Z</time>
      </trkpt>
      <trkpt lat="47.27405" lon="4.94746">
        <ele>517</ele>
        <time>2013-03-02T08:36:38.000Z</time>
      </trkpt>
      <trkpt lat="47.27404" lon="4.94744">
        <ele>516.9</ele>
        <time>2013-03-02T08:36:39.000Z</time>
      </trkpt>
      <trkpt lat="47.27401" lon="4.94739">
        <ele>516.8</ele>
        <time>2013-03-02T08:36:41.000Z</time>
      </trkpt>
      <trkpt lat="47.274" lon="4.94738">
        <ele>516.2</ele>
        <time>2013-03-02T08:36:42.000Z</time>
      </trkpt>
      <trkpt lat="47.27397" lon="4.94735">
        <ele>516.8</ele>
        <time>2013-03-02T08:36:44.000Z</time>
      </trkpt>
      <trkpt lat="47.27396" lon="4.94733">
        <ele>516.9</ele>
        <time>2013-03-02T08:36:45.000Z</time>
      </trkpt>
      <trkpt lat="47.27392" lon="4.9473">
        <ele>517.4</ele>
        <time>2013-03-02T08:36:48.000Z</time>
      </trkpt>
      <trkpt lat="47.27391" lon="4.9473">
        <ele>517.3</ele>
        <time>2013-03-02T08:36:49.000Z</time>
      </trkpt>
      <trkpt lat="47.27389" lon="4.94735">
        <ele>518.4</ele>
        <time>2013-03-02T08:36:56.000Z</time>
      </trkpt>
      <trkpt lat="47.27387" lon="4.94738">
        <ele>517.8</ele>
        <time>2013-03-02T08:37:03.000Z</time>
      </trkpt>
      <trkpt lat="47.27389" lon="4.94738">
        <ele>520.5</ele>
        <time>2013-03-02T08:37:08.000Z</time>
      </trkpt>
      <trkpt lat="47.27393" lon="4.9474">
        <ele>516.8</ele>
        <time>2013-03-02T08:37:09.000Z</time>
      </trkpt>
      <trkpt lat="47.27391" lon="4.94746">
        <ele>516.9</ele>
        <time>2013-03-02T08:37:29.000Z</time>
      </trkpt>
      <trkpt lat="47.27391" lon="4.94747">
        <ele>517.2</ele>
        <time>2013-03-02T08:37:30.000Z</time>
      </trkpt>
      <trkpt lat="47.2739" lon="4.94753">
        <ele>517.9</ele>
        <time>2013-03-02T08:37:37.000Z</time>
      </trkpt>
      <trkpt lat="47.2739" lon="4.94754">
        <ele>517.9</ele>
        <time>2013-03-02T08:37:38.000Z</time>
      </trkpt>
      <trkpt lat="47.27388" lon="4.94759">
        <ele>518</ele>
        <time>2013-03-02T08:37:43.000Z</time>
      </trkpt>
      <trkpt lat="47.27388" lon="4.94759">
        <ele>518.1</ele>
        <time>2013-03-02T08:37:44.000Z</time>
      </trkpt>
      <trkpt lat="47.27387" lon="4.94764">
        <ele>518.5</ele>
        <time>2013-03-02T08:37:48.000Z</time>
      </trkpt>
      <trkpt lat="47.27387" lon="4.94766">
        <ele>518.5</ele>
        <time>2013-03-02T08:37:49.000Z</time>
      </trkpt>
      <trkpt lat="47.27387" lon="4.94772">
        <ele>519.1</ele>
        <time>2013-03-02T08:37:52.000Z</time>
      </trkpt>
      <trkpt lat="47.27386" lon="4.94774">
        <ele>519.3</ele>
        <time>2013-03-02T08:37:53.000Z</time>
      </trkpt>
      <trkpt lat="47.27386" lon="4.94778">
        <ele>519.8</ele>
        <time>2013-03-02T08:37:55.000Z</time>
      </trkpt>
      <trkpt lat="47.27386" lon="4.9478">
        <ele>520.1</ele>
        <time>2013-03-02T08:37:56.000Z</time>
      </trkpt>
      <trkpt lat="47.27386" lon="4.94804">
        <ele>523.4</ele>
        <time>2013-03-02T08:38:05.000Z</time>
      </trkpt>
      <trkpt lat="47.27386" lon="4.94809">
        <ele>521.7</ele>
        <time>2013-03-02T08:38:07.000Z</time>
      </trkpt>
      <trkpt lat="47.27387" lon="4.94811">
        <ele>522.4</ele>
        <time>2013-03-02T08:38:08.000Z</time>
      </trkpt>
      <trkpt lat="47.27386" lon="4.94815">
        <ele>522</ele>
        <time>2013-03-02T08:38:10.000Z</time>
      </trkpt>
      <trkpt lat="47.27386" lon="4.94817">
        <ele>521.8</ele>
        <time>2013-03-02T08:38:11.000Z</time>
      </trkpt>
      <trkpt lat="47.27384" lon="4.94823">
        <ele>523.3</ele>
        <time>2013-03-02T08:38:14.000Z</time>
      </trkpt>
      <trkpt lat="47.27384" lon="4.94826">
        <ele>524</ele>
        <time>2013-03-02T08:38:15.000Z</time>
      </trkpt>
      <trkpt lat="47.27383" lon="4.94831">
        <ele>523.6</ele>
        <time>2013-03-02T08:38:17.000Z</time>
      </trkpt>
      <trkpt lat="47.27381" lon="4.94833">
        <ele>525.4</ele>
        <time>2013-03-02T08:38:18.000Z</time>
      </trkpt>
      <trkpt lat="47.27382" lon="4.94837">
        <ele>526.8</ele>
        <time>2013-03-02T08:38:19.000Z</time>
      </trkpt>
      <trkpt lat="47.27382" lon="4.9484">
        <ele>527.2</ele>
        <time>2013-03-02T08:38:20.000Z</time>
      </trkpt>
      <trkpt lat="47.27381" lon="4.94844">
        <ele>528.7</ele>
        <time>2013-03-02T08:38:22.000Z</time>
      </trkpt>
      <trkpt lat="47.27382" lon="4.94847">
        <ele>529.8</ele>
        <time>2013-03-02T08:38:23.000Z</time>
      </trkpt>
      <trkpt lat="47.27381" lon="4.94851">
        <ele>530.6</ele>
        <time>2013-03-02T08:38:25.000Z</time>
      </trkpt>
      <trkpt lat="47.27381" lon="4.94854">
        <ele>531.2</ele>
        <time>2013-03-02T08:38:26.000Z</time>
      </trkpt>
      <trkpt lat="47.27381" lon="4.9486">
        <ele>532.2</ele>
        <time>2013-03-02T08:38:28.000Z</time>
      </trkpt>
      <trkpt lat="47.2738" lon="4.94862">
        <ele>530.7</ele>
        <time>2013-03-02T08:38:29.000Z</time>
      </trkpt>
      <trkpt lat="47.27378" lon="4.94867">
        <ele>529.5</ele>
        <time>2013-03-02T08:38:31.000Z</time>
      </trkpt>
      <trkpt lat="47.27377" lon="4.9487">
        <ele>529.1</ele>
        <time>2013-03-02T08:38:32.000Z</time>
      </trkpt>
      <trkpt lat="47.27377" lon="4.94876">
        <ele>527.8</ele>
        <time>2013-03-02T08:38:34.000Z</time>
      </trkpt>
      <trkpt lat="47.27377" lon="4.94879">
        <ele>527.3</ele>
        <time>2013-03-02T08:38:35.000Z</time>
      </trkpt>
      <trkpt lat="47.27376" lon="4.94884">
        <ele>527</ele>
        <time>2013-03-02T08:38:37.000Z</time>
      </trkpt>
      <trkpt lat="47.27376" lon="4.94887">
        <ele>527</ele>
        <time>2013-03-02T08:38:38.000Z</time>
      </trkpt>
      <trkpt lat="47.27375" lon="4.94893">
        <ele>526.9</ele>
        <time>2013-03-02T08:38:40.000Z</time>
      </trkpt>
      <trkpt lat="47.27376" lon="4.94895">
        <ele>527.1</ele>
        <time>2013-03-02T08:38:41.000Z</time>
      </trkpt>
      <trkpt lat="47.27375" lon="4.94901">
        <ele>527.8</ele>
        <time>2013-03-02T08:38:43.000Z</time>
      </trkpt>
      <trkpt lat="47.27375" lon="4.94904">
        <ele>528.1</ele>
        <time>2013-03-02T08:38:44.000Z</time>
      </trkpt>
      <trkpt lat="47.27373" lon="4.94909">
        <ele>528.5</ele>
        <time>2013-03-02T08:38:46.000Z</time>
      </trkpt>
      <trkpt lat="47.27373" lon="4.94912">
        <ele>528.5</ele>
        <time>2013-03-02T08:38:47.000Z</time>
      </trkpt>
      <trkpt lat="47.27374" lon="4.94916">
        <ele>528.3</ele>
        <time>2013-03-02T08:38:48.000Z</time>
      </trkpt>
      <trkpt lat="47.27373" lon="4.94919">
        <ele>528.4</ele>
        <time>2013-03-02T08:38:49.000Z</time>
      </trkpt>
      <trkpt lat="47.27372" lon="4.94923">
        <ele>528.8</ele>
        <time>2013-03-02T08:38:51.000Z</time>
      </trkpt>
      <trkpt lat="47.27373" lon="4.94928">
        <ele>528.7</ele>
        <time>2013-03-02T08:38:52.000Z</time>
      </trkpt>
      <trkpt lat="47.27374" lon="4.94933">
        <ele>528.3</ele>
        <time>2013-03-02T08:38:54.000Z</time>
      </trkpt>
      <trkpt lat="47.27373" lon="4.94936">
        <ele>528.1</ele>
        <time>2013-03-02T08:38:55.000Z</time>
      </trkpt>
      <trkpt lat="47.27374" lon="4.94939">
        <ele>528.1</ele>
        <time>2013-03-02T08:38:56.000Z</time>
      </trkpt>
      <trkpt lat="47.27373" lon="4.94969">
        <ele>525.9</ele>
        <time>2013-03-02T08:39:04.000Z</time>
      </trkpt>
      <trkpt lat="47.27374" lon="4.94975">
        <ele>524.3</ele>
        <time>2013-03-02T08:39:06.000Z</time>
      </trkpt>
      <trkpt lat="47.27373" lon="4.94978">
        <ele>523.8</ele>
        <time>2013-03-02T08:39:07.000Z</time>
      </trkpt>
      <trkpt lat="47.27373" lon="4.94984">
        <ele>524</ele>
        <time>2013-03-02T08:39:09.000Z</time>
      </trkpt>
      <trkpt lat="47.27372" lon="4.94986">
        <ele>524.1</ele>
        <time>2013-03-02T08:39:10.000Z</time>
      </trkpt>
      <trkpt lat="47.27371" lon="4.94991">
        <ele>523.9</ele>
        <time>2013-03-02T08:39:12.000Z</time>
      </trkpt>
      <trkpt lat="47.2737" lon="4.94994">
        <ele>523.8</ele>
        <time>2013-03-02T08:39:13.000Z</time>
      </trkpt>
      <trkpt lat="47.27369" lon="4.95">
        <ele>522.9</ele>
        <time>2013-03-02T08:39:15.000Z</time>
      </trkpt>
      <trkpt lat="47.27368" lon="4.95002">
        <ele>522</ele>
        <time>2013-03-02T08:39:16.000Z</time>
      </trkpt>
      <trkpt lat="47.27367" lon="4.95008">
        <ele>521.2</ele>
        <time>2013-03-02T08:39:18.000Z</time>
      </trkpt>
      <trkpt lat="47.27366" lon="4.9501">
        <ele>521.2</ele>
        <time>2013-03-02T08:39:19.000Z</time>
      </trkpt>
      <trkpt lat="47.27365" lon="4.95016">
        <ele>520.2</ele>
        <time>2013-03-02T08:39:21.000Z</time>
      </trkpt>
      <trkpt lat="47.27364" lon="4.95018">
        <ele>520.3</ele>
        <time>2013-03-02T08:39:22.000Z</time>
      </trkpt>
      <trkpt lat="47.27363" lon="4.95021">
        <ele>520.4</ele>
        <time>2013-03-02T08:39:23.000Z</time>
      </trkpt>
      <trkpt lat="47.27361" lon="4.95024">
        <ele>519.7</ele>
        <time>2013-03-02T08:39:24.000Z</time>
      </trkpt>
      <trkpt lat="47.2736" lon="4.9503">
        <ele>518.4</ele>
        <time>2013-03-02T08:39:26.000Z</time>
      </trkpt>
      <trkpt lat="47.27359" lon="4.95033">
        <ele>517.7</ele>
        <time>2013-03-02T08:39:27.000Z</time>
      </trkpt>
      <trkpt lat="47.27356" lon="4.95038">
        <ele>517.6</ele>
        <time>2013-03-02T08:39:29.000Z</time>
      </trkpt>
      <trkpt lat="47.27355" lon="4.95041">
        <ele>517.3</ele>
        <time>2013-03-02T08:39:30.000Z</time>
      </trkpt>
      <trkpt lat="47.27353" lon="4.95043">
        <ele>517</ele>
        <time>2013-03-02T08:39:31.000Z</time>
      </trkpt>
      <trkpt lat="47.27352" lon="4.95046">
        <ele>516.7</ele>
        <time>2013-03-02T08:39:32.000Z</time>
      </trkpt>
      <trkpt lat="47.2735" lon="4.95051">
        <ele>516.3</ele>
        <time>2013-03-02T08:39:34.000Z</time>
      </trkpt>
      <trkpt lat="47.27348" lon="4.95054">
        <ele>516.1</ele>
        <time>2013-03-02T08:39:35.000Z</time>
      </trkpt>
      <trkpt lat="47.27346" lon="4.95057">
        <ele>516</ele>
        <time>2013-03-02T08:39:36.000Z</time>
      </trkpt>
      <trkpt lat="47.27344" lon="4.95059">
        <ele>515.9</ele>
        <time>2013-03-02T08:39:37.000Z</time>
      </trkpt>
      <trkpt lat="47.27342" lon="4.95061">
        <ele>515.7</ele>
        <time>2013-03-02T08:39:38.000Z</time>
      </trkpt>
      <trkpt lat="47.27341" lon="4.95064">
        <ele>515.2</ele>
        <time>2013-03-02T08:39:39.000Z</time>
      </trkpt>
      <trkpt lat="47.27339" lon="4.95066">
        <ele>514.8</ele>
        <time>2013-03-02T08:39:40.000Z</time>
      </trkpt>
      <trkpt lat="47.27338" lon="4.95068">
        <ele>514.4</ele>
        <time>2013-03-02T08:39:41.000Z</time>
      </trkpt>
      <trkpt lat="47.27336" lon="4.95071">
        <ele>514.1</ele>
        <time>2013-03-02T08:39:42.000Z</time>
      </trkpt>
      <trkpt lat="47.27334" lon="4.95073">
        <ele>513.8</ele>
        <time>2013-03-02T08:39:43.000Z</time>
      </trkpt>
      <trkpt lat="47.27332" lon="4.95075">
        <ele>513.6</ele>
        <time>2013-03-02T08:39:44.000Z</time>
      </trkpt>
      <trkpt lat="47.2733" lon="4.95077">
        <ele>513.4</ele>
        <time>2013-03-02T08:39:45.000Z</time>
      </trkpt>
      <trkpt lat="47.27326" lon="4.95081">
        <ele>513.4</ele>
        <time>2013-03-02T08:39:47.000Z</time>
      </trkpt>
      <trkpt lat="47.27324" lon="4.95082">
        <ele>513.4</ele>
        <time>2013-03-02T08:39:48.000Z</time>
      </trkpt>
      <trkpt lat="47.27321" lon="4.95086">
        <ele>513.4</ele>
        <time>2013-03-02T08:39:50.000Z</time>
      </trkpt>
      <trkpt lat="47.27319" lon="4.95088">
        <ele>513.5</ele>
        <time>2013-03-02T08:39:51.000Z</time>
      </trkpt>
      <trkpt lat="47.27316" lon="4.95092">
        <ele>513.6</ele>
        <time>2013-03-02T08:39:53.000Z</time>
      </trkpt>
      <trkpt lat="47.27315" lon="4.95093">
        <ele>513.6</ele>
        <time>2013-03-02T08:39:54.000Z</time>
      </trkpt>
      <trkpt lat="47.27311" lon="4.95098">
        <ele>513.3</ele>
        <time>2013-03-02T08:39:56.000Z</time>
      </trkpt>
      <trkpt lat="47.27303" lon="4.95114">
        <ele>508.3</ele>
        <time>2013-03-02T08:40:03.000Z</time>
      </trkpt>
      <trkpt lat="47.27299" lon="4.95117">
        <ele>510</ele>
        <time>2013-03-02T08:40:04.000Z</time>
      </trkpt>
      <trkpt lat="47.27297" lon="4.95118">
        <ele>510.6</ele>
        <time>2013-03-02T08:40:05.000Z</time>
      </trkpt>
      <trkpt lat="47.27294" lon="4.95119">
        <ele>510.7</ele>
        <time>2013-03-02T08:40:06.000Z</time>
      </trkpt>
      <trkpt lat="47.27293" lon="4.95121">
        <ele>510.3</ele>
        <time>2013-03-02T08:40:07.000Z</time>
      </trkpt>
      <trkpt lat="47.27289" lon="4.95123">
        <ele>512.5</ele>
        <time>2013-03-02T08:40:09.000Z</time>
      </trkpt>
      <trkpt lat="47.27288" lon="4.95125">
        <ele>513</ele>
        <time>2013-03-02T08:40:10.000Z</time>
      </trkpt>
      <trkpt lat="47.27286" lon="4.95129">
        <ele>513.6</ele>
        <time>2013-03-02T08:40:12.000Z</time>
      </trkpt>
      <trkpt lat="47.27284" lon="4.9513">
        <ele>514</ele>
        <time>2013-03-02T08:40:13.000Z</time>
      </trkpt>
      <trkpt lat="47.27282" lon="4.95133">
        <ele>514.8</ele>
        <time>2013-03-02T08:40:15.000Z</time>
      </trkpt>
      <trkpt lat="47.27281" lon="4.95136">
        <ele>515</ele>
        <time>2013-03-02T08:40:16.000Z</time>
      </trkpt>
      <trkpt lat="47.27279" lon="4.9514">
        <ele>516.1</ele>
        <time>2013-03-02T08:40:18.000Z</time>
      </trkpt>
      <trkpt lat="47.27279" lon="4.95142">
        <ele>516.2</ele>
        <time>2013-03-02T08:40:19.000Z</time>
      </trkpt>
      <trkpt lat="47.27278" lon="4.95148">
        <ele>519.5</ele>
        <time>2013-03-02T08:40:22.000Z</time>
      </trkpt>
      <trkpt lat="47.27277" lon="4.9515">
        <ele>520.1</ele>
        <time>2013-03-02T08:40:23.000Z</time>
      </trkpt>
      <trkpt lat="47.27276" lon="4.95155">
        <ele>521.4</ele>
        <time>2013-03-02T08:40:25.000Z</time>
      </trkpt>
      <trkpt lat="47.27276" lon="4.95157">
        <ele>522.1</ele>
        <time>2013-03-02T08:40:26.000Z</time>
      </trkpt>
      <trkpt lat="47.27273" lon="4.95162">
        <ele>518.4</ele>
        <time>2013-03-02T08:40:30.000Z</time>
      </trkpt>
      <trkpt lat="47.27273" lon="4.95164">
        <ele>517.6</ele>
        <time>2013-03-02T08:40:31.000Z</time>
      </trkpt>
      <trkpt lat="47.2727" lon="4.95168">
        <ele>514.9</ele>
        <time>2013-03-02T08:40:34.000Z</time>
      </trkpt>
      <trkpt lat="47.2727" lon="4.9517">
        <ele>514.2</ele>
        <time>2013-03-02T08:40:35.000Z</time>
      </trkpt>
      <trkpt lat="47.2727" lon="4.95175">
        <ele>513.1</ele>
        <time>2013-03-02T08:40:51.000Z</time>
      </trkpt>
      <trkpt lat="47.27271" lon="4.95176">
        <ele>513.3</ele>
        <time>2013-03-02T08:40:52.000Z</time>
      </trkpt>
      <trkpt lat="47.27272" lon="4.95181">
        <ele>514</ele>
        <time>2013-03-02T08:40:55.000Z</time>
      </trkpt>
      <trkpt lat="47.27273" lon="4.95182">
        <ele>514.2</ele>
        <time>2013-03-02T08:40:56.000Z</time>
      </trkpt>
      <trkpt lat="47.27287" lon="4.95205">
        <ele>516.4</ele>
        <time>2013-03-02T08:41:04.000Z</time>
      </trkpt>
      <trkpt lat="47.27287" lon="4.95211">
        <ele>517.9</ele>
        <time>2013-03-02T08:41:16.000Z</time>
      </trkpt>
      <trkpt lat="47.27287" lon="4.95212">
        <ele>517.6</ele>
        <time>2013-03-02T08:41:17.000Z</time>
      </trkpt>
      <trkpt lat="47.27288" lon="4.95217">
        <ele>518.9</ele>
        <time>2013-03-02T08:41:23.000Z</time>
      </trkpt>
      <trkpt lat="47.27289" lon="4.95218">
        <ele>518.9</ele>
        <time>2013-03-02T08:41:24.000Z</time>
      </trkpt>
      <trkpt lat="47.27292" lon="4.95223">
        <ele>517</ele>
        <time>2013-03-02T08:41:29.000Z</time>
      </trkpt>
      <trkpt lat="47.27292" lon="4.95224">
        <ele>517</ele>
        <time>2013-03-02T08:41:30.000Z</time>
      </trkpt>
      <trkpt lat="47.27294" lon="4.95227">
        <ele>517.2</ele>
        <time>2013-03-02T08:41:33.000Z</time>
      </trkpt>
      <trkpt lat="47.27295" lon="4.95229">
        <ele>516.8</ele>
        <time>2013-03-02T08:41:34.000Z</time>
      </trkpt>
      <trkpt lat="47.27296" lon="4.95233">
        <ele>516.2</ele>
        <time>2013-03-02T08:41:36.000Z</time>
      </trkpt>
      <trkpt lat="47.27298" lon="4.95235">
        <ele>515.8</ele>
        <time>2013-03-02T08:41:37.000Z</time>
      </trkpt>
      <trkpt lat="47.273" lon="4.95239">
        <ele>515.8</ele>
        <time>2013-03-02T08:41:40.000Z</time>
      </trkpt>
      <trkpt lat="47.273" lon="4.95241">
        <ele>516</ele>
        <time>2013-03-02T08:41:41.000Z</time>
      </trkpt>
      <trkpt lat="47.27302" lon="4.95246">
        <ele>516.3</ele>
        <time>2013-03-02T08:41:43.000Z</time>
      </trkpt>
      <trkpt lat="47.27303" lon="4.95248">
        <ele>516.5</ele>
        <time>2013-03-02T08:41:44.000Z</time>
      </trkpt>
      <trkpt lat="47.27306" lon="4.95253">
        <ele>517</ele>
        <time>2013-03-02T08:41:47.000Z</time>
      </trkpt>
      <trkpt lat="47.27307" lon="4.95256">
        <ele>516.8</ele>
        <time>2013-03-02T08:41:48.000Z</time>
      </trkpt>
      <trkpt lat="47.27309" lon="4.9526">
        <ele>516.7</ele>
        <time>2013-03-02T08:41:50.000Z</time>
      </trkpt>
      <trkpt lat="47.2731" lon="4.95262">
        <ele>516.7</ele>
        <time>2013-03-02T08:41:51.000Z</time>
      </trkpt>
      <trkpt lat="47.27312" lon="4.95266">
        <ele>516.9</ele>
        <time>2013-03-02T08:41:53.000Z</time>
      </trkpt>
      <trkpt lat="47.27313" lon="4.95268">
        <ele>516.9</ele>
        <time>2013-03-02T08:41:54.000Z</time>
      </trkpt>
      <trkpt lat="47.27315" lon="4.95272">
        <ele>516.8</ele>
        <time>2013-03-02T08:41:56.000Z</time>
      </trkpt>
      <trkpt lat="47.27324" lon="4.95289">
        <ele>522.4</ele>
        <time>2013-03-02T08:42:03.000Z</time>
      </trkpt>
      <trkpt lat="47.27325" lon="4.95292">
        <ele>522.3</ele>
        <time>2013-03-02T08:42:04.000Z</time>
      </trkpt>
      <trkpt lat="47.27327" lon="4.95294">
        <ele>521.7</ele>
        <time>2013-03-02T08:42:05.000Z</time>
      </trkpt>
      <trkpt lat="47.27329" lon="4.95298">
        <ele>519.8</ele>
        <time>2013-03-02T08:42:07.000Z</time>
      </trkpt>
      <trkpt lat="47.2733" lon="4.953">
        <ele>520.5</ele>
        <time>2013-03-02T08:42:08.000Z</time>
      </trkpt>
      <trkpt lat="47.27331" lon="4.95304">
        <ele>521.5</ele>
        <time>2013-03-02T08:42:11.000Z</time>
      </trkpt>
      <trkpt lat="47.27333" lon="4.95307">
        <ele>521.1</ele>
        <time>2013-03-02T08:42:12.000Z</time>
      </trkpt>
      <trkpt lat="47.27334" lon="4.95311">
        <ele>520.7</ele>
        <time>2013-03-02T08:42:14.000Z</time>
      </trkpt>
      <trkpt lat="47.27335" lon="4.95313">
        <ele>520.5</ele>
        <time>2013-03-02T08:42:15.000Z</time>
      </trkpt>
      <trkpt lat="47.27337" lon="4.95318">
        <ele>519.7</ele>
        <time>2013-03-02T08:42:18.000Z</time>
      </trkpt>
      <trkpt lat="47.27338" lon="4.95319">
        <ele>519.7</ele>
        <time>2013-03-02T08:42:19.000Z</time>
      </trkpt>
      <trkpt lat="47.2734" lon="4.95325">
        <ele>520.8</ele>
        <time>2013-03-02T08:42:22.000Z</time>
      </trkpt>
      <trkpt lat="47.2734" lon="4.95327">
        <ele>521.4</ele>
        <time>2013-03-02T08:42:23.000Z</time>
      </trkpt>
      <trkpt lat="47.27342" lon="4.95332">
        <ele>522.1</ele>
        <time>2013-03-02T08:42:26.000Z</time>
      </trkpt>
      <trkpt lat="47.27343" lon="4.95334">
        <ele>522</ele>
        <time>2013-03-02T08:42:27.000Z</time>
      </trkpt>
      <trkpt lat="47.27345" lon="4.95337">
        <ele>520.9</ele>
        <time>2013-03-02T08:42:28.000Z</time>
      </trkpt>
      <trkpt lat="47.27346" lon="4.95339">
        <ele>520.2</ele>
        <time>2013-03-02T08:42:29.000Z</time>
      </trkpt>
      <trkpt lat="47.27348" lon="4.95342">
        <ele>520.1</ele>
        <time>2013-03-02T08:42:30.000Z</time>
      </trkpt>
      <trkpt lat="47.27351" lon="4.95345">
        <ele>519.5</ele>
        <time>2013-03-02T08:42:31.000Z</time>
      </trkpt>
      <trkpt lat="47.27353" lon="4.95348">
        <ele>519.3</ele>
        <time>2013-03-02T08:42:32.000Z</time>
      </trkpt>
      <trkpt lat="47.27354" lon="4.95351">
        <ele>519.3</ele>
        <time>2013-03-02T08:42:33.000Z</time>
      </trkpt>
      <trkpt lat="47.27356" lon="4.95353">
        <ele>519.5</ele>
        <time>2013-03-02T08:42:34.000Z</time>
      </trkpt>
      <trkpt lat="47.27358" lon="4.95355">
        <ele>519.5</ele>
        <time>2013-03-02T08:42:35.000Z</time>
      </trkpt>
      <trkpt lat="47.2736" lon="4.95359">
        <ele>519.5</ele>
        <time>2013-03-02T08:42:37.000Z</time>
      </trkpt>
      <trkpt lat="47.27362" lon="4.95361">
        <ele>519.3</ele>
        <time>2013-03-02T08:42:38.000Z</time>
      </trkpt>
      <trkpt lat="47.27363" lon="4.95364">
        <ele>519.1</ele>
        <time>2013-03-02T08:42:40.000Z</time>
      </trkpt>
      <trkpt lat="47.27364" lon="4.95366">
        <ele>519</ele>
        <time>2013-03-02T08:42:41.000Z</time>
      </trkpt>
      <trkpt lat="47.27367" lon="4.95371">
        <ele>519.3</ele>
        <time>2013-03-02T08:42:44.000Z</time>
      </trkpt>
      <trkpt lat="47.27367" lon="4.95373">
        <ele>519.4</ele>
        <time>2013-03-02T08:42:45.000Z</time>
      </trkpt>
      <trkpt lat="47.2737" lon="4.95378">
        <ele>519.5</ele>
        <time>2013-03-02T08:42:48.000Z</time>
      </trkpt>
      <trkpt lat="47.2737" lon="4.9538">
        <ele>519.5</ele>
        <time>2013-03-02T08:42:49.000Z</time>
      </trkpt>
      <trkpt lat="47.27373" lon="4.95385">
        <ele>518.8</ele>
        <time>2013-03-02T08:42:52.000Z</time>
      </trkpt>
      <trkpt lat="47.27374" lon="4.95387">
        <ele>518.8</ele>
        <time>2013-03-02T08:42:53.000Z</time>
      </trkpt>
      <trkpt lat="47.27375" lon="4.95391">
        <ele>518.8</ele>
        <time>2013-03-02T08:42:55.000Z</time>
      </trkpt>
      <trkpt lat="47.27377" lon="4.95393">
        <ele>518.6</ele>
        <time>2013-03-02T08:42:56.000Z</time>
      </trkpt>
      <trkpt lat="47.2738" lon="4.95398">
        <ele>518.2</ele>
        <time>2013-03-02T08:42:58.000Z</time>
      </trkpt>
      <trkpt lat="47.27382" lon="4.954">
        <ele>517.7</ele>
        <time>2013-03-02T08:42:59.000Z</time>
      </trkpt>
      <trkpt lat="47.27384" lon="4.95405">
        <ele>517.5</ele>
        <time>2013-03-02T08:43:01.000Z</time>
      </trkpt>
      <trkpt lat="47.27385" lon="4.95407">
        <ele>517.6</ele>
        <time>2013-03-02T08:43:02.000Z</time>
      </trkpt>
      <trkpt lat="47.27387" lon="4.95411">
        <ele>517.5</ele>
        <time>2013-03-02T08:43:04.000Z</time>
      </trkpt>
      <trkpt lat="47.27388" lon="4.95413">
        <ele>517.6</ele>
        <time>2013-03-02T08:43:05.000Z</time>
      </trkpt>
      <trkpt lat="47.2739" lon="4.95417">
        <ele>517.6</ele>
        <time>2013-03-02T08:43:07.000Z</time>
      </trkpt>
      <trkpt lat="47.27391" lon="4.95419">
        <ele>517.4</ele>
        <time>2013-03-02T08:43:08.000Z</time>
      </trkpt>
      <trkpt lat="47.27392" lon="4.95423">
        <ele>517.6</ele>
        <time>2013-03-02T08:43:10.000Z</time>
      </trkpt>
      <trkpt lat="47.27393" lon="4.95426">
        <ele>517.6</ele>
        <time>2013-03-02T08:43:11.000Z</time>
      </trkpt>
      <trkpt lat="47.27395" lon="4.95429">
        <ele>517.8</ele>
        <time>2013-03-02T08:43:13.000Z</time>
      </trkpt>
      <trkpt lat="47.27396" lon="4.95432">
        <ele>517.7</ele>
        <time>2013-03-02T08:43:14.000Z</time>
      </trkpt>
      <trkpt lat="47.27398" lon="4.95436">
        <ele>517.7</ele>
        <time>2013-03-02T08:43:16.000Z</time>
      </trkpt>
      <trkpt lat="47.27399" lon="4.95438">
        <ele>517.8</ele>
        <time>2013-03-02T08:43:17.000Z</time>
      </trkpt>
      <trkpt lat="47.27402" lon="4.95443">
        <ele>517.8</ele>
        <time>2013-03-02T08:43:20.000Z</time>
      </trkpt>
      <trkpt lat="47.27403" lon="4.95445">
        <ele>517.8</ele>
        <time>2013-03-02T08:43:21.000Z</time>
      </trkpt>
      <trkpt lat="47.27405" lon="4.95449">
        <ele>517.6</ele>
        <time>2013-03-02T08:43:23.000Z</time>
      </trkpt>
      <trkpt lat="47.27406" lon="4.95451">
        <ele>517.7</ele>
        <time>2013-03-02T08:43:24.000Z</time>
      </trkpt>
      <trkpt lat="47.27408" lon="4.95455">
        <ele>517.6</ele>
        <time>2013-03-02T08:43:26.000Z</time>
      </trkpt>
      <trkpt lat="47.27409" lon="4.95457">
        <ele>517.4</ele>
        <time>2013-03-02T08:43:27.000Z</time>
      </trkpt>
      <trkpt lat="47.27411" lon="4.95462">
        <ele>517.4</ele>
        <time>2013-03-02T08:43:29.000Z</time>
      </trkpt>
      <trkpt lat="47.27412" lon="4.95464">
        <ele>517.5</ele>
        <time>2013-03-02T08:43:30.000Z</time>
      </trkpt>
      <trkpt lat="47.27413" lon="4.95467">
        <ele>517.7</ele>
        <time>2013-03-02T08:43:32.000Z</time>
      </trkpt>
      <trkpt lat="47.27414" lon="4.9547">
        <ele>517.7</ele>
        <time>2013-03-02T08:43:33.000Z</time>
      </trkpt>
      <trkpt lat="47.27415" lon="4.95474">
        <ele>517.4</ele>
        <time>2013-03-02T08:43:35.000Z</time>
      </trkpt>
      <trkpt lat="47.27416" lon="4.95476">
        <ele>517.2</ele>
        <time>2013-03-02T08:43:36.000Z</time>
      </trkpt>
      <trkpt lat="47.27418" lon="4.9548">
        <ele>517</ele>
        <time>2013-03-02T08:43:38.000Z</time>
      </trkpt>
      <trkpt lat="47.27419" lon="4.95483">
        <ele>516.9</ele>
        <time>2013-03-02T08:43:39.000Z</time>
      </trkpt>
      <trkpt lat="47.27421" lon="4.95485">
        <ele>516.8</ele>
        <time>2013-03-02T08:43:40.000Z</time>
      </trkpt>
      <trkpt lat="47.27422" lon="4.95488">
        <ele>516.7</ele>
        <time>2013-03-02T08:43:41.000Z</time>
      </trkpt>
      <trkpt lat="47.27424" lon="4.95492">
        <ele>516.4</ele>
        <time>2013-03-02T08:43:43.000Z</time>
      </trkpt>
      <trkpt lat="47.27426" lon="4.95495">
        <ele>516.2</ele>
        <time>2013-03-02T08:43:44.000Z</time>
      </trkpt>
      <trkpt lat="47.27428" lon="4.955">
        <ele>516.1</ele>
        <time>2013-03-02T08:43:46.000Z</time>
      </trkpt>
      <trkpt lat="47.27429" lon="4.95502">
        <ele>516.1</ele>
        <time>2013-03-02T08:43:47.000Z</time>
      </trkpt>
      <trkpt lat="47.2743" lon="4.95506">
        <ele>515.8</ele>
        <time>2013-03-02T08:43:49.000Z</time>
      </trkpt>
      <trkpt lat="47.27431" lon="4.95508">
        <ele>515.6</ele>
        <time>2013-03-02T08:43:50.000Z</time>
      </trkpt>
      <trkpt lat="47.27434" lon="4.95511">
        <ele>515.6</ele>
        <time>2013-03-02T08:43:52.000Z</time>
      </trkpt>
      <trkpt lat="47.27435" lon="4.95513">
        <ele>515.5</ele>
        <time>2013-03-02T08:43:53.000Z</time>
      </trkpt>
      <trkpt lat="47.27437" lon="4.95517">
        <ele>515.3</ele>
        <time>2013-03-02T08:43:55.000Z</time>
      </trkpt>
      <trkpt lat="47.27438" lon="4.95519">
        <ele>515.2</ele>
        <time>2013-03-02T08:43:56.000Z</time>
      </trkpt>
      <trkpt lat="47.27448" lon="4.95538">
        <ele>515.9</ele>
        <time>2013-03-02T08:44:03.000Z</time>
      </trkpt>
      <trkpt lat="47.27449" lon="4.95544">
        <ele>514.3</ele>
        <time>2013-03-02T08:44:06.000Z</time>
      </trkpt>
      <trkpt lat="47.27449" lon="4.95545">
        <ele>514.4</ele>
        <time>2013-03-02T08:44:07.000Z</time>
      </trkpt>
      <trkpt lat="47.27451" lon="4.95549">
        <ele>513.7</ele>
        <time>2013-03-02T08:44:09.000Z</time>
      </trkpt>
      <trkpt lat="47.27452" lon="4.95551">
        <ele>514.4</ele>
        <time>2013-03-02T08:44:10.000Z</time>
      </trkpt>
      <trkpt lat="47.27454" lon="4.95555">
        <ele>515</ele>
        <time>2013-03-02T08:44:12.000Z</time>
      </trkpt>
      <trkpt lat="47.27455" lon="4.95557">
        <ele>515.4</ele>
        <time>2013-03-02T08:44:13.000Z</time>
      </trkpt>
      <trkpt lat="47.27457" lon="4.95562">
        <ele>515.4</ele>
        <time>2013-03-02T08:44:15.000Z</time>
      </trkpt>
      <trkpt lat="47.27458" lon="4.95564">
        <ele>516</ele>
        <time>2013-03-02T08:44:16.000Z</time>
      </trkpt>
      <trkpt lat="47.27455" lon="4.9556">
        <ele>510</ele>
        <time>2013-03-02T08:44:27.000Z</time>
      </trkpt>
      <trkpt lat="47.27454" lon="4.95559">
        <ele>510.4</ele>
        <time>2013-03-02T08:44:28.000Z</time>
      </trkpt>
      <trkpt lat="47.27451" lon="4.95554">
        <ele>510</ele>
        <time>2013-03-02T08:44:31.000Z</time>
      </trkpt>
      <trkpt lat="47.2745" lon="4.95552">
        <ele>509.9</ele>
        <time>2013-03-02T08:44:32.000Z</time>
      </trkpt>
      <trkpt lat="47.27448" lon="4.95547">
        <ele>509.2</ele>
        <time>2013-03-02T08:44:34.000Z</time>
      </trkpt>
      <trkpt lat="47.27447" lon="4.95545">
        <ele>508.9</ele>
        <time>2013-03-02T08:44:35.000Z</time>
      </trkpt>
      <trkpt lat="47.27445" lon="4.95541">
        <ele>508.4</ele>
        <time>2013-03-02T08:44:37.000Z</time>
      </trkpt>
      <trkpt lat="47.27444" lon="4.95539">
        <ele>508.3</ele>
        <time>2013-03-02T08:44:38.000Z</time>
      </trkpt>
      <trkpt lat="47.27442" lon="4.95536">
        <ele>508.3</ele>
        <time>2013-03-02T08:44:40.000Z</time>
      </trkpt>
      <trkpt lat="47.27441" lon="4.95533">
        <ele>508.3</ele>
        <time>2013-03-02T08:44:41.000Z</time>
      </trkpt>
      <trkpt lat="47.27439" lon="4.9553">
        <ele>508.7</ele>
        <time>2013-03-02T08:44:43.000Z</time>
      </trkpt>
      <trkpt lat="47.27438" lon="4.95528">
        <ele>508.6</ele>
        <time>2013-03-02T08:44:44.000Z</time>
      </trkpt>
      <trkpt lat="47.27436" lon="4.95523">
        <ele>508.5</ele>
        <time>2013-03-02T08:44:47.000Z</time>
      </trkpt>
      <trkpt lat="47.27435" lon="4.95521">
        <ele>508.5</ele>
        <time>2013-03-02T08:44:48.000Z</time>
      </trkpt>
      <trkpt lat="47.27432" lon="4.95517">
        <ele>508.7</ele>
        <time>2013-03-02T08:44:50.000Z</time>
      </trkpt>
      <trkpt lat="47.27431" lon="4.95515">
        <ele>508.6</ele>
        <time>2013-03-02T08:44:51.000Z</time>
      </trkpt>
      <trkpt lat="47.27429" lon="4.95511">
        <ele>508.6</ele>
        <time>2013-03-02T08:44:53.000Z</time>
      </trkpt>
      <trkpt lat="47.27428" lon="4.95509">
        <ele>508.6</ele>
        <time>2013-03-02T08:44:54.000Z</time>
      </trkpt>
      <trkpt lat="47.27426" lon="4.95505">
        <ele>508.9</ele>
        <time>2013-03-02T08:44:56.000Z</time>
      </trkpt>
      <trkpt lat="47.27417" lon="4.95494">
        <ele>516.7</ele>
        <time>2013-03-02T08:45:03.000Z</time>
      </trkpt>
      <trkpt lat="47.27416" lon="4.95489">
        <ele>516.9</ele>
        <time>2013-03-02T08:45:05.000Z</time>
      </trkpt>
      <trkpt lat="47.27415" lon="4.95487">
        <ele>515.8</ele>
        <time>2013-03-02T08:45:06.000Z</time>
      </trkpt>
      <trkpt lat="47.27414" lon="4.95483">
        <ele>514.4</ele>
        <time>2013-03-02T08:45:08.000Z</time>
      </trkpt>
      <trkpt lat="47.27413" lon="4.9548">
        <ele>513.5</ele>
        <time>2013-03-02T08:45:09.000Z</time>
      </trkpt>
      <trkpt lat="47.2741" lon="4.95476">
        <ele>513</ele>
        <time>2013-03-02T08:45:12.000Z</time>
      </trkpt>
      <trkpt lat="47.27409" lon="4.95473">
        <ele>512.9</ele>
        <time>2013-03-02T08:45:13.000Z</time>
      </trkpt>
      <trkpt lat="47.27407" lon="4.95468">
        <ele>511.9</ele>
        <time>2013-03-02T08:45:15.000Z</time>
      </trkpt>
      <trkpt lat="47.27406" lon="4.95466">
        <ele>512</ele>
        <time>2013-03-02T08:45:16.000Z</time>
      </trkpt>
      <trkpt lat="47.27405" lon="4.95462">
        <ele>511.9</ele>
        <time>2013-03-02T08:45:18.000Z</time>
      </trkpt>
      <trkpt lat="47.27404" lon="4.9546">
        <ele>511.9</ele>
        <time>2013-03-02T08:45:19.000Z</time>
      </trkpt>
      <trkpt lat="47.27401" lon="4.95455">
        <ele>512.9</ele>
        <time>2013-03-02T08:45:21.000Z</time>
      </trkpt>
      <trkpt lat="47.274" lon="4.95454">
        <ele>512.6</ele>
        <time>2013-03-02T08:45:22.000Z</time>
      </trkpt>
      <trkpt lat="47.27398" lon="4.95449">
        <ele>513.1</ele>
        <time>2013-03-02T08:45:25.000Z</time>
      </trkpt>
      <trkpt lat="47.27397" lon="4.95448">
        <ele>513.3</ele>
        <time>2013-03-02T08:45:26.000Z</time>
      </trkpt>
      <trkpt lat="47.27394" lon="4.95443">
        <ele>513.5</ele>
        <time>2013-03-02T08:45:28.000Z</time>
      </trkpt>
      <trkpt lat="47.27393" lon="4.95441">
        <ele>514.1</ele>
        <time>2013-03-02T08:45:29.000Z</time>
      </trkpt>
      <trkpt lat="47.27391" lon="4.95435">
        <ele>514</ele>
        <time>2013-03-02T08:45:31.000Z</time>
      </trkpt>
      <trkpt lat="47.2739" lon="4.95433">
        <ele>513.8</ele>
        <time>2013-03-02T08:45:32.000Z</time>
      </trkpt>
      <trkpt lat="47.27387" lon="4.95429">
        <ele>513.7</ele>
        <time>2013-03-02T08:45:34.000Z</time>
      </trkpt>
      <trkpt lat="47.27386" lon="4.95426">
        <ele>513.7</ele>
        <time>2013-03-02T08:45:35.000Z</time>
      </trkpt>
      <trkpt lat="47.27384" lon="4.95421">
        <ele>513.6</ele>
        <time>2013-03-02T08:45:38.000Z</time>
      </trkpt>
      <trkpt lat="47.27383" lon="4.9542">
        <ele>513.6</ele>
        <time>2013-03-02T08:45:39.000Z</time>
      </trkpt>
      <trkpt lat="47.2738" lon="4.95414">
        <ele>513.4</ele>
        <time>2013-03-02T08:45:42.000Z</time>
      </trkpt>
      <trkpt lat="47.27379" lon="4.95412">
        <ele>513.2</ele>
        <time>2013-03-02T08:45:43.000Z</time>
      </trkpt>
      <trkpt lat="47.27377" lon="4.95407">
        <ele>513.3</ele>
        <time>2013-03-02T08:45:45.000Z</time>
      </trkpt>
      <trkpt lat="47.27376" lon="4.95405">
        <ele>513.2</ele>
        <time>2013-03-02T08:45:46.000Z</time>
      </trkpt>
      <trkpt lat="47.27375" lon="4.954">
        <ele>513</ele>
        <time>2013-03-02T08:45:48.000Z</time>
      </trkpt>
      <trkpt lat="47.27374" lon="4.95398">
        <ele>512.8</ele>
        <time>2013-03-02T08:45:49.000Z</time>
      </trkpt>
      <trkpt lat="47.27371" lon="4.95394">
        <ele>512.7</ele>
        <time>2013-03-02T08:45:51.000Z</time>
      </trkpt>
      <trkpt lat="47.2737" lon="4.95392">
        <ele>512.8</ele>
        <time>2013-03-02T08:45:52.000Z</time>
      </trkpt>
      <trkpt lat="47.27368" lon="4.95389">
        <ele>512.9</ele>
        <time>2013-03-02T08:45:54.000Z</time>
      </trkpt>
      <trkpt lat="47.27367" lon="4.95387">
        <ele>512.8</ele>
        <time>2013-03-02T08:45:55.000Z</time>
      </trkpt>
      <trkpt lat="47.27365" lon="4.95383">
        <ele>512.8</ele>
        <time>2013-03-02T08:45:57.000Z</time>
      </trkpt>
      <trkpt lat="47.27364" lon="4.95381">
        <ele>512.9</ele>
        <time>2013-03-02T08:45:58.000Z</time>
      </trkpt>
      <trkpt lat="47.27361" lon="4.95377">
        <ele>512.8</ele>
        <time>2013-03-02T08:46:00.000Z</time>
      </trkpt>
      <trkpt lat="47.2736" lon="4.95375">
        <ele>513</ele>
        <time>2013-03-02T08:46:01.000Z</time>
      </trkpt>
      <trkpt lat="47.27358" lon="4.95371">
        <ele>512.8</ele>
        <time>2013-03-02T08:46:03.000Z</time>
      </trkpt>
      <trkpt lat="47.27357" lon="4.95368">
        <ele>512.5</ele>
        <time>2013-03-02T08:46:04.000Z</time>
      </trkpt>
      <trkpt lat="47.27355" lon="4.95365">
        <ele>512.2</ele>
        <time>2013-03-02T08:46:07.000Z</time>
      </trkpt>
      <trkpt lat="47.27354" lon="4.95364">
        <ele>511.9</ele>
        <time>2013-03-02T08:46:08.000Z</time>
      </trkpt>
      <trkpt lat="47.27351" lon="4.95368">
        <ele>510.7</ele>
        <time>2013-03-02T08:46:13.000Z</time>
      </trkpt>
      <trkpt lat="47.2735" lon="4.9537">
        <ele>510.5</ele>
        <time>2013-03-02T08:46:14.000Z</time>
      </trkpt>
      <trkpt lat="47.2735" lon="4.95374">
        <ele>510.4</ele>
        <time>2013-03-02T08:46:16.000Z</time>
      </trkpt>
      <trkpt lat="47.2735" lon="4.95377">
        <ele>510.4</ele>
        <time>2013-03-02T08:46:17.000Z</time>
      </trkpt>
      <trkpt lat="47.27349" lon="4.95382">
        <ele>510.3</ele>
        <time>2013-03-02T08:46:20.000Z</time>
      </trkpt>
      <trkpt lat="47.27349" lon="4.95383">
        <ele>510.3</ele>
        <time>2013-03-02T08:46:21.000Z</time>
      </trkpt>
      <trkpt lat="47.27349" lon="4.95388">
        <ele>510.5</ele>
        <time>2013-03-02T08:46:23.000Z</time>
      </trkpt>
      <trkpt lat="47.27349" lon="4.95391">
        <ele>510.6</ele>
        <time>2013-03-02T08:46:24.000Z</time>
      </trkpt>
      <trkpt lat="47.27349" lon="4.95395">
        <ele>510.7</ele>
        <time>2013-03-02T08:46:26.000Z</time>
      </trkpt>
      <trkpt lat="47.27348" lon="4.95397">
        <ele>510.8</ele>
        <time>2013-03-02T08:46:27.000Z</time>
      </trkpt>
      <trkpt lat="47.27348" lon="4.95402">
        <ele>510.8</ele>
        <time>2013-03-02T08:46:29.000Z</time>
      </trkpt>
      <trkpt lat="47.27348" lon="4.95404">
        <ele>510.9</ele>
        <time>2013-03-02T08:46:30.000Z</time>
      </trkpt>
      <trkpt lat="47.27348" lon="4.95409">
        <ele>511.3</ele>
        <time>2013-03-02T08:46:32.000Z</time>
      </trkpt>
      <trkpt lat="47.27348" lon="4.95412">
        <ele>511.3</ele>
        <time>2013-03-02T08:46:33.000Z</time>
      </trkpt>
      <trkpt lat="47.27347" lon="4.95417">
        <ele>511.1</ele>
        <time>2013-03-02T08:46:35.000Z</time>
      </trkpt>
      <trkpt lat="47.27346" lon="4.95419">
        <ele>511</ele>
        <time>2013-03-02T08:46:36.000Z</time>
      </trkpt>
      <trkpt lat="47.27344" lon="4.95424">
        <ele>511.1</ele>
        <time>2013-03-02T08:46:38.000Z</time>
      </trkpt>
      <trkpt lat="47.27343" lon="4.95426">
        <ele>511.2</ele>
        <time>2013-03-02T08:46:39.000Z</time>
      </trkpt>
      <trkpt lat="47.27341" lon="4.95432">
        <ele>511.6</ele>
        <time>2013-03-02T08:46:42.000Z</time>
      </trkpt>
      <trkpt lat="47.27341" lon="4.95435">
        <ele>511.7</ele>
        <time>2013-03-02T08:46:43.000Z</time>
      </trkpt>
      <trkpt lat="47.27341" lon="4.9544">
        <ele>511.7</ele>
        <time>2013-03-02T08:46:45.000Z</time>
      </trkpt>
      <trkpt lat="47.27341" lon="4.95443">
        <ele>511.5</ele>
        <time>2013-03-02T08:46:46.000Z</time>
      </trkpt>
      <trkpt lat="47.27338" lon="4.95447">
        <ele>511.7</ele>
        <time>2013-03-02T08:46:48.000Z</time>
      </trkpt>
      <trkpt lat="47.27338" lon="4.95449">
        <ele>511.6</ele>
        <time>2013-03-02T08:46:49.000Z</time>
      </trkpt>
      <trkpt lat="47.27336" lon="4.95453">
        <ele>511.8</ele>
        <time>2013-03-02T08:46:51.000Z</time>
      </trkpt>
      <trkpt lat="47.27335" lon="4.95456">
        <ele>512</ele>
        <time>2013-03-02T08:46:52.000Z</time>
      </trkpt>
      <trkpt lat="47.27335" lon="4.95462">
        <ele>512.3</ele>
        <time>2013-03-02T08:46:55.000Z</time>
      </trkpt>
      <trkpt lat="47.27335" lon="4.95464">
        <ele>512.6</ele>
        <time>2013-03-02T08:46:56.000Z</time>
      </trkpt>
      <trkpt lat="47.27333" lon="4.95483">
        <ele>518.8</ele>
        <time>2013-03-02T08:47:03.000Z</time>
      </trkpt>
      <trkpt lat="47.27333" lon="4.95489">
        <ele>518</ele>
        <time>2013-03-02T08:47:05.000Z</time>
      </trkpt>
      <trkpt lat="47.27333" lon="4.95491">
        <ele>516.9</ele>
        <time>2013-03-02T08:47:06.000Z</time>
      </trkpt>
      <trkpt lat="47.27331" lon="4.95496">
        <ele>517.5</ele>
        <time>2013-03-02T08:47:12.000Z</time>
      </trkpt>
      <trkpt lat="47.27331" lon="4.95498">
        <ele>517</ele>
        <time>2013-03-02T08:47:13.000Z</time>
      </trkpt>
      <trkpt lat="47.27329" lon="4.95503">
        <ele>517.5</ele>
        <time>2013-03-02T08:47:16.000Z</time>
      </trkpt>
      <trkpt lat="47.27329" lon="4.95505">
        <ele>517.4</ele>
        <time>2013-03-02T08:47:17.000Z</time>
      </trkpt>
      <trkpt lat="47.27328" lon="4.9551">
        <ele>517.4</ele>
        <time>2013-03-02T08:47:20.000Z</time>
      </trkpt>
      <trkpt lat="47.27327" lon="4.95512">
        <ele>517.8</ele>
        <time>2013-03-02T08:47:21.000Z</time>
      </trkpt>
      <trkpt lat="47.27326" lon="4.95518">
        <ele>516.8</ele>
        <time>2013-03-02T08:47:24.000Z</time>
      </trkpt>
      <trkpt lat="47.27325" lon="4.9552">
        <ele>516.7</ele>
        <time>2013-03-02T08:47:25.000Z</time>
      </trkpt>
      <trkpt lat="47.27323" lon="4.95526">
        <ele>517</ele>
        <time>2013-03-02T08:47:28.000Z</time>
      </trkpt>
      <trkpt lat="47.27322" lon="4.95528">
        <ele>517.1</ele>
        <time>2013-03-02T08:47:29.000Z</time>
      </trkpt>
      <trkpt lat="47.27321" lon="4.95532">
        <ele>516.7</ele>
        <time>2013-03-02T08:47:31.000Z</time>
      </trkpt>
      <trkpt lat="47.2732" lon="4.95534">
        <ele>516.5</ele>
        <time>2013-03-02T08:47:32.000Z</time>
      </trkpt>
      <trkpt lat="47.27319" lon="4.95539">
        <ele>516.8</ele>
        <time>2013-03-02T08:47:34.000Z</time>
      </trkpt>
      <trkpt lat="47.27318" lon="4.95541">
        <ele>516.8</ele>
        <time>2013-03-02T08:47:35.000Z</time>
      </trkpt>
      <trkpt lat="47.27316" lon="4.95546">
        <ele>517.3</ele>
        <time>2013-03-02T08:47:37.000Z</time>
      </trkpt>
      <trkpt lat="47.27316" lon="4.95549">
        <ele>517.3</ele>
        <time>2013-03-02T08:47:38.000Z</time>
      </trkpt>
      <trkpt lat="47.27315" lon="4.95554">
        <ele>517.4</ele>
        <time>2013-03-02T08:47:40.000Z</time>
      </trkpt>
      <trkpt lat="47.27314" lon="4.95557">
        <ele>517.3</ele>
        <time>2013-03-02T08:47:41.000Z</time>
      </trkpt>
      <trkpt lat="47.27313" lon="4.95562">
        <ele>517.3</ele>
        <time>2013-03-02T08:47:43.000Z</time>
      </trkpt>
      <trkpt lat="47.27313" lon="4.95564">
        <ele>517.3</ele>
        <time>2013-03-02T08:47:44.000Z</time>
      </trkpt>
      <trkpt lat="47.27313" lon="4.95569">
        <ele>517.2</ele>
        <time>2013-03-02T08:47:46.000Z</time>
      </trkpt>
      <trkpt lat="47.27312" lon="4.95571">
        <ele>517.1</ele>
        <time>2013-03-02T08:47:47.000Z</time>
      </trkpt>
      <trkpt lat="47.27311" lon="4.95577">
        <ele>517.5</ele>
        <time>2013-03-02T08:47:50.000Z</time>
      </trkpt>
      <trkpt lat="47.27311" lon="4.95579">
        <ele>517.5</ele>
        <time>2013-03-02T08:47:51.000Z</time>
      </trkpt>
      <trkpt lat="47.2731" lon="4.95585">
        <ele>517.7</ele>
        <time>2013-03-02T08:47:54.000Z</time>
      </trkpt>
      <trkpt lat="47.27309" lon="4.95588">
        <ele>517.7</ele>
        <time>2013-03-02T08:47:55.000Z</time>
      </trkpt>
      <trkpt lat="47.27309" lon="4.9559">
        <ele>517.9</ele>
        <time>2013-03-02T08:47:56.000Z</time>
      </trkpt>
      <trkpt lat="47.27311" lon="4.95616">
        <ele>517.7</ele>
        <time>2013-03-02T08:48:06.000Z</time>
      </trkpt>
      <trkpt lat="47.27309" lon="4.9562">
        <ele>516.9</ele>
        <time>2013-03-02T08:48:08.000Z</time>
      </trkpt>
      <trkpt lat="47.27308" lon="4.95622">
        <ele>516.4</ele>
        <time>2013-03-02T08:48:09.000Z</time>
      </trkpt>
      <trkpt lat="47.27308" lon="4.95627">
        <ele>518.2</ele>
        <time>2013-03-02T08:48:12.000Z</time>
      </trkpt>
      <trkpt lat="47.27308" lon="4.95629">
        <ele>518.2</ele>
        <time>2013-03-02T08:48:13.000Z</time>
      </trkpt>
      <trkpt lat="47.27307" lon="4.95634">
        <ele>518.7</ele>
        <time>2013-03-02T08:48:16.000Z</time>
      </trkpt>
      <trkpt lat="47.27307" lon="4.95636">
        <ele>518.7</ele>
        <time>2013-03-02T08:48:17.000Z</time>
      </trkpt>
      <trkpt lat="47.27306" lon="4.95641">
        <ele>515.9</ele>
        <time>2013-03-02T08:48:23.000Z</time>
      </trkpt>
      <trkpt lat="47.27306" lon="4.95644">
        <ele>515.8</ele>
        <time>2013-03-02T08:48:24.000Z</time>
      </trkpt>
      <trkpt lat="47.27305" lon="4.95649">
        <ele>517.1</ele>
        <time>2013-03-02T08:48:29.000Z</time>
      </trkpt>
      <trkpt lat="47.27305" lon="4.9565">
        <ele>516.7</ele>
        <time>2013-03-02T08:48:30.000Z</time>
      </trkpt>
      <trkpt lat="47.27303" lon="4.95655">
        <ele>515.3</ele>
        <time>2013-03-02T08:48:33.000Z</time>
      </trkpt>
      <trkpt lat="47.27303" lon="4.95656">
        <ele>514.8</ele>
        <time>2013-03-02T08:48:34.000Z</time>
      </trkpt>
      <trkpt lat="47.27303" lon="4.95663">
        <ele>514.8</ele>
        <time>2013-03-02T08:48:37.000Z</time>
      </trkpt>
      <trkpt lat="47.27303" lon="4.95665">
        <ele>514.8</ele>
        <time>2013-03-02T08:48:38.000Z</time>
      </trkpt>
      <trkpt lat="47.27302" lon="4.95671">
        <ele>514.7</ele>
        <time>2013-03-02T08:48:41.000Z</time>
      </trkpt>
      <trkpt lat="47.27302" lon="4.95672">
        <ele>514.7</ele>
        <time>2013-03-02T08:48:42.000Z</time>
      </trkpt>
      <trkpt lat="47.27301" lon="4.95678">
        <ele>514.5</ele>
        <time>2013-03-02T08:48:45.000Z</time>
      </trkpt>
      <trkpt lat="47.27301" lon="4.9568">
        <ele>514.1</ele>
        <time>2013-03-02T08:48:46.000Z</time>
      </trkpt>
      <trkpt lat="47.27301" lon="4.95687">
        <ele>513.9</ele>
        <time>2013-03-02T08:48:49.000Z</time>
      </trkpt>
      <trkpt lat="47.27301" lon="4.95689">
        <ele>513.8</ele>
        <time>2013-03-02T08:48:50.000Z</time>
      </trkpt>
      <trkpt lat="47.273" lon="4.95693">
        <ele>513.6</ele>
        <time>2013-03-02T08:48:52.000Z</time>
      </trkpt>
      <trkpt lat="47.273" lon="4.95695">
        <ele>513.6</ele>
        <time>2013-03-02T08:48:53.000Z</time>
      </trkpt>
      <trkpt lat="47.273" lon="4.957">
        <ele>513.7</ele>
        <time>2013-03-02T08:48:55.000Z</time>
      </trkpt>
      <trkpt lat="47.273" lon="4.95703">
        <ele>513.4</ele>
        <time>2013-03-02T08:48:56.000Z</time>
      </trkpt>
      <trkpt lat="47.273" lon="4.95719">
        <ele>509</ele>
        <time>2013-03-02T08:49:03.000Z</time>
      </trkpt>
      <trkpt lat="47.27298" lon="4.95725">
        <ele>511.3</ele>
        <time>2013-03-02T08:49:06.000Z</time>
      </trkpt>
      <trkpt lat="47.27298" lon="4.95726">
        <ele>511.9</ele>
        <time>2013-03-02T08:49:07.000Z</time>
      </trkpt>
      <trkpt lat="47.27299" lon="4.95731">
        <ele>513.5</ele>
        <time>2013-03-02T08:49:09.000Z</time>
      </trkpt>
      <trkpt lat="47.27299" lon="4.95733">
        <ele>513.6</ele>
        <time>2013-03-02T08:49:10.000Z</time>
      </trkpt>
      <trkpt lat="47.27298" lon="4.95738">
        <ele>512.9</ele>
        <time>2013-03-02T08:49:12.000Z</time>
      </trkpt>
      <trkpt lat="47.27298" lon="4.95741">
        <ele>513.4</ele>
        <time>2013-03-02T08:49:13.000Z</time>
      </trkpt>
      <trkpt lat="47.27298" lon="4.95746">
        <ele>514.7</ele>
        <time>2013-03-02T08:49:15.000Z</time>
      </trkpt>
      <trkpt lat="47.27297" lon="4.95748">
        <ele>515.8</ele>
        <time>2013-03-02T08:49:16.000Z</time>
      </trkpt>
      <trkpt lat="47.27297" lon="4.95753">
        <ele>517.3</ele>
        <time>2013-03-02T08:49:18.000Z</time>
      </trkpt>
      <trkpt lat="47.27296" lon="4.95755">
        <ele>517.2</ele>
        <time>2013-03-02T08:49:19.000Z</time>
      </trkpt>
      <trkpt lat="47.27297" lon="4.9576">
        <ele>517.8</ele>
        <time>2013-03-02T08:49:21.000Z</time>
      </trkpt>
      <trkpt lat="47.27297" lon="4.95762">
        <ele>517.9</ele>
        <time>2013-03-02T08:49:22.000Z</time>
      </trkpt>
      <trkpt lat="47.27297" lon="4.95767">
        <ele>516.9</ele>
        <time>2013-03-02T08:49:24.000Z</time>
      </trkpt>
      <trkpt lat="47.27297" lon="4.95769">
        <ele>517</ele>
        <time>2013-03-02T08:49:25.000Z</time>
      </trkpt>
      <trkpt lat="47.27297" lon="4.95774">
        <ele>516.5</ele>
        <time>2013-03-02T08:49:27.000Z</time>
      </trkpt>
      <trkpt lat="47.27296" lon="4.95776">
        <ele>515.4</ele>
        <time>2013-03-02T08:49:28.000Z</time>
      </trkpt>
      <trkpt lat="47.27296" lon="4.95782">
        <ele>514</ele>
        <time>2013-03-02T08:49:31.000Z</time>
      </trkpt>
      <trkpt lat="47.27296" lon="4.95784">
        <ele>513.9</ele>
        <time>2013-03-02T08:49:32.000Z</time>
      </trkpt>
      <trkpt lat="47.27295" lon="4.95791">
        <ele>513.5</ele>
        <time>2013-03-02T08:49:35.000Z</time>
      </trkpt>
      <trkpt lat="47.27295" lon="4.95793">
        <ele>513.5</ele>
        <time>2013-03-02T08:49:36.000Z</time>
      </trkpt>
      <trkpt lat="47.27294" lon="4.95799">
        <ele>513.3</ele>
        <time>2013-03-02T08:49:39.000Z</time>
      </trkpt>
      <trkpt lat="47.27294" lon="4.95801">
        <ele>512.7</ele>
        <time>2013-03-02T08:49:40.000Z</time>
      </trkpt>
      <trkpt lat="47.27293" lon="4.95805">
        <ele>512.3</ele>
        <time>2013-03-02T08:49:42.000Z</time>
      </trkpt>
      <trkpt lat="47.27293" lon="4.95808">
        <ele>511.8</ele>
        <time>2013-03-02T08:49:43.000Z</time>
      </trkpt>
      <trkpt lat="47.27292" lon="4.95814">
        <ele>511.3</ele>
        <time>2013-03-02T08:49:46.000Z</time>
      </trkpt>
      <trkpt lat="47.27292" lon="4.95816">
        <ele>511</ele>
        <time>2013-03-02T08:49:47.000Z</time>
      </trkpt>
      <trkpt lat="47.27293" lon="4.95822">
        <ele>510.7</ele>
        <time>2013-03-02T08:49:50.000Z</time>
      </trkpt>
      <trkpt lat="47.27293" lon="4.95824">
        <ele>510.8</ele>
        <time>2013-03-02T08:49:51.000Z</time>
      </trkpt>
      <trkpt lat="47.27293" lon="4.95828">
        <ele>510.7</ele>
        <time>2013-03-02T08:49:53.000Z</time>
      </trkpt>
      <trkpt lat="47.27292" lon="4.95831">
        <ele>510.7</ele>
        <time>2013-03-02T08:49:54.000Z</time>
      </trkpt>
      <trkpt lat="47.27291" lon="4.95834">
        <ele>510.7</ele>
        <time>2013-03-02T08:49:56.000Z</time>
      </trkpt>
      <trkpt lat="47.27286" lon="4.95856">
        <ele>507.6</ele>
        <time>2013-03-02T08:50:05.000Z</time>
      </trkpt>
      <trkpt lat="47.27286" lon="4.95862">
        <ele>509.5</ele>
        <time>2013-03-02T08:50:08.000Z</time>
      </trkpt>
      <trkpt lat="47.27285" lon="4.95864">
        <ele>509.4</ele>
        <time>2013-03-02T08:50:09.000Z</time>
      </trkpt>
      <trkpt lat="47.27286" lon="4.95868">
        <ele>509.4</ele>
        <time>2013-03-02T08:50:12.000Z</time>
      </trkpt>
      <trkpt lat="47.27287" lon="4.9587">
        <ele>509.2</ele>
        <time>2013-03-02T08:50:13.000Z</time>
      </trkpt>
      <trkpt lat="47.27286" lon="4.95876">
        <ele>510.9</ele>
        <time>2013-03-02T08:50:17.000Z</time>
      </trkpt>
      <trkpt lat="47.27287" lon="4.95879">
        <ele>510.9</ele>
        <time>2013-03-02T08:50:18.000Z</time>
      </trkpt>
      <trkpt lat="47.27285" lon="4.95883">
        <ele>512.1</ele>
        <time>2013-03-02T08:50:20.000Z</time>
      </trkpt>
      <trkpt lat="47.27284" lon="4.95884">
        <ele>511.8</ele>
        <time>2013-03-02T08:50:21.000Z</time>
      </trkpt>
      <trkpt lat="47.27284" lon="4.9589">
        <ele>511.3</ele>
        <time>2013-03-02T08:50:24.000Z</time>
      </trkpt>
      <trkpt lat="47.27284" lon="4.95891">
        <ele>512.1</ele>
        <time>2013-03-02T08:50:25.000Z</time>
      </trkpt>
      <trkpt lat="47.27283" lon="4.95896">
        <ele>512.1</ele>
        <time>2013-03-02T08:50:27.000Z</time>
      </trkpt>
      <trkpt lat="47.27283" lon="4.95898">
        <ele>511.1</ele>
        <time>2013-03-02T08:50:28.000Z</time>
      </trkpt>
      <trkpt lat="47.27281" lon="4.95903">
        <ele>509.8</ele>
        <time>2013-03-02T08:50:30.000Z</time>
      </trkpt>
      <trkpt lat="47.2728" lon="4.95905">
        <ele>509.5</ele>
        <time>2013-03-02T08:50:31.000Z</time>
      </trkpt>
      <trkpt lat="47.27278" lon="4.95911">
        <ele>509.7</ele>
        <time>2013-03-02T08:50:34.000Z</time>
      </trkpt>
      <trkpt lat="47.27277" lon="4.95912">
        <ele>509.6</ele>
        <time>2013-03-02T08:50:35.000Z</time>
      </trkpt>
      <trkpt lat="47.27274" lon="4.95916">
        <ele>508.3</ele>
        <time>2013-03-02T08:50:38.000Z</time>
      </trkpt>
      <trkpt lat="47.27273" lon="4.95917">
        <ele>507.9</ele>
        <time>2013-03-02T08:50:39.000Z</time>
      </trkpt>
      <trkpt lat="47.27272" lon="4.95922">
        <ele>507.9</ele>
        <time>2013-03-02T08:50:42.000Z</time>
      </trkpt>
      <trkpt lat="47.27272" lon="4.95924">
        <ele>507.8</ele>
        <time>2013-03-02T08:50:43.000Z</time>
      </trkpt>
      <trkpt lat="47.27271" lon="4.95929">
        <ele>507.6</ele>
        <time>2013-03-02T08:50:46.000Z</time>
      </trkpt>
      <trkpt lat="47.27271" lon="4.95931">
        <ele>507.4</ele>
        <time>2013-03-02T08:50:47.000Z</time>
      </trkpt>
      <trkpt lat="47.2727" lon="4.95936">
        <ele>506.9</ele>
        <time>2013-03-02T08:50:49.000Z</time>
      </trkpt>
      <trkpt lat="47.2727" lon="4.95938">
        <ele>506.7</ele>
        <time>2013-03-02T08:50:50.000Z</time>
      </trkpt>
      <trkpt lat="47.27269" lon="4.95943">
        <ele>506.8</ele>
        <time>2013-03-02T08:50:53.000Z</time>
      </trkpt>
      <trkpt lat="47.27268" lon="4.95945">
        <ele>506.9</ele>
        <time>2013-03-02T08:50:54.000Z</time>
      </trkpt>
      <trkpt lat="47.27268" lon="4.95948">
        <ele>506.7</ele>
        <time>2013-03-02T08:50:56.000Z</time>
      </trkpt>
      <trkpt lat="47.27262" lon="4.95962">
        <ele>500.9</ele>
        <time>2013-03-02T08:51:03.000Z</time>
      </trkpt>
      <trkpt lat="47.27261" lon="4.95967">
        <ele>502.9</ele>
        <time>2013-03-02T08:51:05.000Z</time>
      </trkpt>
      <trkpt lat="47.2726" lon="4.95969">
        <ele>504.2</ele>
        <time>2013-03-02T08:51:06.000Z</time>
      </trkpt>
      <trkpt lat="47.27258" lon="4.95973">
        <ele>501.6</ele>
        <time>2013-03-02T08:51:09.000Z</time>
      </trkpt>
      <trkpt lat="47.27258" lon="4.95974">
        <ele>501.4</ele>
        <time>2013-03-02T08:51:10.000Z</time>
      </trkpt>
      <trkpt lat="47.27259" lon="4.9598">
        <ele>501.9</ele>
        <time>2013-03-02T08:51:14.000Z</time>
      </trkpt>
      <trkpt lat="47.27258" lon="4.95982">
        <ele>501.8</ele>
        <time>2013-03-02T08:51:15.000Z</time>
      </trkpt>
      <trkpt lat="47.27258" lon="4.95987">
        <ele>501.4</ele>
        <time>2013-03-02T08:51:18.000Z</time>
      </trkpt>
      <trkpt lat="47.27257" lon="4.95988">
        <ele>501.3</ele>
        <time>2013-03-02T08:51:19.000Z</time>
      </trkpt>
      <trkpt lat="47.27256" lon="4.95993">
        <ele>502.1</ele>
        <time>2013-03-02T08:51:22.000Z</time>
      </trkpt>
      <trkpt lat="47.27256" lon="4.95995">
        <ele>502.1</ele>
        <time>2013-03-02T08:51:23.000Z</time>
      </trkpt>
      <trkpt lat="47.27255" lon="4.96">
        <ele>500.3</ele>
        <time>2013-03-02T08:51:26.000Z</time>
      </trkpt>
      <trkpt lat="47.27255" lon="4.96002">
        <ele>500.3</ele>
        <time>2013-03-02T08:51:27.000Z</time>
      </trkpt>
      <trkpt lat="47.27252" lon="4.96006">
        <ele>499.8</ele>
        <time>2013-03-02T08:51:30.000Z</time>
      </trkpt>
      <trkpt lat="47.27252" lon="4.96007">
        <ele>500</ele>
        <time>2013-03-02T08:51:31.000Z</time>
      </trkpt>
      <trkpt lat="47.27251" lon="4.96012">
        <ele>499.9</ele>
        <time>2013-03-02T08:51:35.000Z</time>
      </trkpt>
      <trkpt lat="47.27251" lon="4.96014">
        <ele>500</ele>
        <time>2013-03-02T08:51:36.000Z</time>
      </trkpt>
      <trkpt lat="47.27249" lon="4.96019">
        <ele>500.2</ele>
        <time>2013-03-02T08:51:39.000Z</time>
      </trkpt>
      <trkpt lat="47.27249" lon="4.96021">
        <ele>500</ele>
        <time>2013-03-02T08:51:40.000Z</time>
      </trkpt>
      <trkpt lat="47.27248" lon="4.96027">
        <ele>499.2</ele>
        <time>2013-03-02T08:51:43.000Z</time>
      </trkpt>
      <trkpt lat="47.27248" lon="4.96029">
        <ele>499</ele>
        <time>2013-03-02T08:51:44.000Z</time>
      </trkpt>
      <trkpt lat="47.27249" lon="4.96035">
        <ele>498.6</ele>
        <time>2013-03-02T08:51:48.000Z</time>
      </trkpt>
      <trkpt lat="47.27248" lon="4.96037">
        <ele>498.3</ele>
        <time>2013-03-02T08:51:49.000Z</time>
      </trkpt>
      <trkpt lat="47.27247" lon="4.96042">
        <ele>497.4</ele>
        <time>2013-03-02T08:51:54.000Z</time>
      </trkpt>
      <trkpt lat="47.27247" lon="4.96043">
        <ele>497.2</ele>
        <time>2013-03-02T08:51:55.000Z</time>
      </trkpt>
      <trkpt lat="47.27247" lon="4.96045">
        <ele>496.9</ele>
        <time>2013-03-02T08:51:56.000Z</time>
      </trkpt>
      <trkpt lat="47.27238" lon="4.96054">
        <ele>490.8</ele>
        <time>2013-03-02T08:52:03.000Z</time>
      </trkpt>
      <trkpt lat="47.27238" lon="4.9606">
        <ele>495.8</ele>
        <time>2013-03-02T08:52:08.000Z</time>
      </trkpt>
      <trkpt lat="47.27238" lon="4.96061">
        <ele>496.6</ele>
        <time>2013-03-02T08:52:09.000Z</time>
      </trkpt>
      <trkpt lat="47.27241" lon="4.96066">
        <ele>495.3</ele>
        <time>2013-03-02T08:52:15.000Z</time>
      </trkpt>
      <trkpt lat="47.27241" lon="4.96066">
        <ele>494.6</ele>
        <time>2013-03-02T08:52:16.000Z</time>
      </trkpt>
      <trkpt lat="47.27244" lon="4.9607">
        <ele>490.9</ele>
        <time>2013-03-02T08:52:54.000Z</time>
      </trkpt>
      <trkpt lat="47.27245" lon="4.96071">
        <ele>491.1</ele>
        <time>2013-03-02T08:52:55.000Z</time>
      </trkpt>
      <trkpt lat="47.27245" lon="4.96073">
        <ele>491.3</ele>
        <time>2013-03-02T08:52:56.000Z</time>
      </trkpt>
      <trkpt lat="47.27246" lon="4.96077">
        <ele>501.2</ele>
        <time>2013-03-02T08:53:03.000Z</time>
      </trkpt>
      <trkpt lat="47.27248" lon="4.9608">
        <ele>500.9</ele>
        <time>2013-03-02T08:53:04.000Z</time>
      </trkpt>
      <trkpt lat="47.27249" lon="4.96083">
        <ele>500.1</ele>
        <time>2013-03-02T08:53:05.000Z</time>
      </trkpt>
      <trkpt lat="47.2725" lon="4.96088">
        <ele>499.3</ele>
        <time>2013-03-02T08:53:07.000Z</time>
      </trkpt>
      <trkpt lat="47.27251" lon="4.9609">
        <ele>500.1</ele>
        <time>2013-03-02T08:53:08.000Z</time>
      </trkpt>
      <trkpt lat="47.27252" lon="4.96095">
        <ele>500.1</ele>
        <time>2013-03-02T08:53:10.000Z</time>
      </trkpt>
      <trkpt lat="47.27253" lon="4.96098">
        <ele>500.7</ele>
        <time>2013-03-02T08:53:11.000Z</time>
      </trkpt>
      <trkpt lat="47.27254" lon="4.96103">
        <ele>500.3</ele>
        <time>2013-03-02T08:53:13.000Z</time>
      </trkpt>
      <trkpt lat="47.27254" lon="4.96105">
        <ele>500.7</ele>
        <time>2013-03-02T08:53:14.000Z</time>
      </trkpt>
      <trkpt lat="47.27255" lon="4.96111">
        <ele>500.9</ele>
        <time>2013-03-02T08:53:17.000Z</time>
      </trkpt>
      <trkpt lat="47.27255" lon="4.96113">
        <ele>502.4</ele>
        <time>2013-03-02T08:53:18.000Z</time>
      </trkpt>
      <trkpt lat="47.27256" lon="4.96118">
        <ele>504.7</ele>
        <time>2013-03-02T08:53:21.000Z</time>
      </trkpt>
      <trkpt lat="47.27256" lon="4.9612">
        <ele>504.3</ele>
        <time>2013-03-02T08:53:22.000Z</time>
      </trkpt>
      <trkpt lat="47.27258" lon="4.96125">
        <ele>504</ele>
        <time>2013-03-02T08:53:24.000Z</time>
      </trkpt>
      <trkpt lat="47.27259" lon="4.96127">
        <ele>503.4</ele>
        <time>2013-03-02T08:53:25.000Z</time>
      </trkpt>
      <trkpt lat="47.2726" lon="4.96133">
        <ele>501.2</ele>
        <time>2013-03-02T08:53:28.000Z</time>
      </trkpt>
      <trkpt lat="47.2726" lon="4.96135">
        <ele>501</ele>
        <time>2013-03-02T08:53:29.000Z</time>
      </trkpt>
      <trkpt lat="47.27261" lon="4.96139">
        <ele>500.3</ele>
        <time>2013-03-02T08:53:31.000Z</time>
      </trkpt>
      <trkpt lat="47.27262" lon="4.96142">
        <ele>500</ele>
        <time>2013-03-02T08:53:32.000Z</time>
      </trkpt>
      <trkpt lat="47.27264" lon="4.96147">
        <ele>498.7</ele>
        <time>2013-03-02T08:53:35.000Z</time>
      </trkpt>
      <trkpt lat="47.27265" lon="4.96149">
        <ele>498.3</ele>
        <time>2013-03-02T08:53:36.000Z</time>
      </trkpt>
      <trkpt lat="47.27267" lon="4.96154">
        <ele>497.7</ele>
        <time>2013-03-02T08:53:38.000Z</time>
      </trkpt>
      <trkpt lat="47.27267" lon="4.96157">
        <ele>497.6</ele>
        <time>2013-03-02T08:53:39.000Z</time>
      </trkpt>
      <trkpt lat="47.27269" lon="4.96161">
        <ele>497.5</ele>
        <time>2013-03-02T08:53:41.000Z</time>
      </trkpt>
      <trkpt lat="47.27269" lon="4.96163">
        <ele>497.3</ele>
        <time>2013-03-02T08:53:42.000Z</time>
      </trkpt>
      <trkpt lat="47.2727" lon="4.96168">
        <ele>497.1</ele>
        <time>2013-03-02T08:53:44.000Z</time>
      </trkpt>
      <trkpt lat="47.27271" lon="4.96171">
        <ele>497</ele>
        <time>2013-03-02T08:53:45.000Z</time>
      </trkpt>
      <trkpt lat="47.27272" lon="4.96175">
        <ele>496.9</ele>
        <time>2013-03-02T08:53:47.000Z</time>
      </trkpt>
      <trkpt lat="47.27273" lon="4.96177">
        <ele>496.7</ele>
        <time>2013-03-02T08:53:48.000Z</time>
      </trkpt>
      <trkpt lat="47.27274" lon="4.96181">
        <ele>496.5</ele>
        <time>2013-03-02T08:53:50.000Z</time>
      </trkpt>
      <trkpt lat="47.27275" lon="4.96183">
        <ele>496.6</ele>
        <time>2013-03-02T08:53:51.000Z</time>
      </trkpt>
      <trkpt lat="47.27277" lon="4.96187">
        <ele>496.7</ele>
        <time>2013-03-02T08:53:53.000Z</time>
      </trkpt>
      <trkpt lat="47.27277" lon="4.96189">
        <ele>496.6</ele>
        <time>2013-03-02T08:53:54.000Z</time>
      </trkpt>
      <trkpt lat="47.27278" lon="4.96194">
        <ele>496.6</ele>
        <time>2013-03-02T08:53:56.000Z</time>
      </trkpt>
      <trkpt lat="47.27281" lon="4.96212">
        <ele>495.2</ele>
        <time>2013-03-02T08:54:04.000Z</time>
      </trkpt>
      <trkpt lat="47.27283" lon="4.96216">
        <ele>494.1</ele>
        <time>2013-03-02T08:54:07.000Z</time>
      </trkpt>
      <trkpt lat="47.27284" lon="4.96218">
        <ele>494.1</ele>
        <time>2013-03-02T08:54:08.000Z</time>
      </trkpt>
      <trkpt lat="47.27285" lon="4.96223">
        <ele>493.1</ele>
        <time>2013-03-02T08:54:11.000Z</time>
      </trkpt>
      <trkpt lat="47.27286" lon="4.96225">
        <ele>492.2</ele>
        <time>2013-03-02T08:54:12.000Z</time>
      </trkpt>
      <trkpt lat="47.27284" lon="4.96221">
        <ele>488.7</ele>
        <time>2013-03-02T08:54:22.000Z</time>
      </trkpt>
      <trkpt lat="47.27283" lon="4.9622">
        <ele>488.8</ele>
        <time>2013-03-02T08:54:23.000Z</time>
      </trkpt>
      <trkpt lat="47.27282" lon="4.96215">
        <ele>489</ele>
        <time>2013-03-02T08:54:27.000Z</time>
      </trkpt>
      <trkpt lat="47.27282" lon="4.96213">
        <ele>488.9</ele>
        <time>2013-03-02T08:54:28.000Z</time>
      </trkpt>
      <trkpt lat="47.2728" lon="4.96208">
        <ele>489.3</ele>
        <time>2013-03-02T08:54:30.000Z</time>
      </trkpt>
      <trkpt lat="47.27279" lon="4.96206">
        <ele>489.4</ele>
        <time>2013-03-02T08:54:31.000Z</time>
      </trkpt>
      <trkpt lat="47.27277" lon="4.96202">
        <ele>489.8</ele>
        <time>2013-03-02T08:54:33.000Z</time>
      </trkpt>
      <trkpt lat="47.27276" lon="4.96199">
        <ele>489.9</ele>
        <time>2013-03-02T08:54:34.000Z</time>
      </trkpt>
      <trkpt lat="47.27275" lon="4.96193">
        <ele>489.8</ele>
        <time>2013-03-02T08:54:37.000Z</time>
      </trkpt>
      <trkpt lat="47.27274" lon="4.96191">
        <ele>489.7</ele>
        <time>2013-03-02T08:54:38.000Z</time>
      </trkpt>
      <trkpt lat="47.27273" lon="4.96188">
        <ele>489.7</ele>
        <time>2013-03-02T08:54:40.000Z</time>
      </trkpt>
      <trkpt lat="47.27272" lon="4.96185">
        <ele>489.9</ele>
        <time>2013-03-02T08:54:41.000Z</time>
      </trkpt>
      <trkpt lat="47.2727" lon="4.9618">
        <ele>489.6</ele>
        <time>2013-03-02T08:54:43.000Z</time>
      </trkpt>
      <trkpt lat="47.27269" lon="4.96178">
        <ele>489.8</ele>
        <time>2013-03-02T08:54:44.000Z</time>
      </trkpt>
      <trkpt lat="47.27268" lon="4.96173">
        <ele>489.6</ele>
        <time>2013-03-02T08:54:47.000Z</time>
      </trkpt>
      <trkpt lat="47.27267" lon="4.96171">
        <ele>489.8</ele>
        <time>2013-03-02T08:54:48.000Z</time>
      </trkpt>
      <trkpt lat="47.27265" lon="4.96167">
        <ele>490</ele>
        <time>2013-03-02T08:54:50.000Z</time>
      </trkpt>
      <trkpt lat="47.27264" lon="4.96164">
        <ele>490.1</ele>
        <time>2013-03-02T08:54:51.000Z</time>
      </trkpt>
      <trkpt lat="47.27262" lon="4.96159">
        <ele>490.1</ele>
        <time>2013-03-02T08:54:53.000Z</time>
      </trkpt>
      <trkpt lat="47.27261" lon="4.96156">
        <ele>490.4</ele>
        <time>2013-03-02T08:54:54.000Z</time>
      </trkpt>
      <trkpt lat="47.2726" lon="4.96151">
        <ele>490.4</ele>
        <time>2013-03-02T08:54:56.000Z</time>
      </trkpt>
      <trkpt lat="47.27253" lon="4.96128">
        <ele>497.1</ele>
        <time>2013-03-02T08:55:07.000Z</time>
      </trkpt>
      <trkpt lat="47.27252" lon="4.96122">
        <ele>495</ele>
        <time>2013-03-02T08:55:10.000Z</time>
      </trkpt>
      <trkpt lat="47.27252" lon="4.96121">
        <ele>495.8</ele>
        <time>2013-03-02T08:55:11.000Z</time>
      </trkpt>
      <trkpt lat="47.2725" lon="4.96115">
        <ele>496.1</ele>
        <time>2013-03-02T08:55:15.000Z</time>
      </trkpt>
      <trkpt lat="47.2725" lon="4.96113">
        <ele>495.7</ele>
        <time>2013-03-02T08:55:16.000Z</time>
      </trkpt>
      <trkpt lat="47.27249" lon="4.96108">
        <ele>495.8</ele>
        <time>2013-03-02T08:55:19.000Z</time>
      </trkpt>
      <trkpt lat="47.27248" lon="4.96106">
        <ele>495.9</ele>
        <time>2013-03-02T08:55:20.000Z</time>
      </trkpt>
      <trkpt lat="47.27247" lon="4.96101">
        <ele>496</ele>
        <time>2013-03-02T08:55:24.000Z</time>
      </trkpt>
      <trkpt lat="47.27246" lon="4.961">
        <ele>496.3</ele>
        <time>2013-03-02T08:55:25.000Z</time>
      </trkpt>
      <trkpt lat="47.27243" lon="4.96095">
        <ele>496.2</ele>
        <time>2013-03-02T08:55:30.000Z</time>
      </trkpt>
      <trkpt lat="47.27242" lon="4.96095">
        <ele>495.9</ele>
        <time>2013-03-02T08:55:31.000Z</time>
      </trkpt>
      <trkpt lat="47.27239" lon="4.96098">
        <ele>494.4</ele>
        <time>2013-03-02T08:55:38.000Z</time>
      </trkpt>
      <trkpt lat="47.27239" lon="4.96099">
        <ele>494.1</ele>
        <time>2013-03-02T08:55:39.000Z</time>
      </trkpt>
      <trkpt lat="47.27239" lon="4.96106">
        <ele>494</ele>
        <time>2013-03-02T08:55:44.000Z</time>
      </trkpt>
      <trkpt lat="47.27239" lon="4.96107">
        <ele>494.1</ele>
        <time>2013-03-02T08:55:45.000Z</time>
      </trkpt>
      <trkpt lat="47.27239" lon="4.96113">
        <ele>494.3</ele>
        <time>2013-03-02T08:55:48.000Z</time>
      </trkpt>
      <trkpt lat="47.27239" lon="4.96114">
        <ele>494.4</ele>
        <time>2013-03-02T08:55:49.000Z</time>
      </trkpt>
      <trkpt lat="47.2724" lon="4.96118">
        <ele>494.8</ele>
        <time>2013-03-02T08:55:51.000Z</time>
      </trkpt>
      <trkpt lat="47.27241" lon="4.96121">
        <ele>494.8</ele>
        <time>2013-03-02T08:55:52.000Z</time>
      </trkpt>
      <trkpt lat="47.27242" lon="4.96126">
        <ele>494.7</ele>
        <time>2013-03-02T08:55:54.000Z</time>
      </trkpt>
      <trkpt lat="47.27242" lon="4.96128">
        <ele>494.9</ele>
        <time>2013-03-02T08:55:55.000Z</time>
      </trkpt>
      <trkpt lat="47.27243" lon="4.96134">
        <ele>494.8</ele>
        <time>2013-03-02T08:55:57.000Z</time>
      </trkpt>
      <trkpt lat="47.27247" lon="4.96167">
        <ele>483.8</ele>
        <time>2013-03-02T08:56:11.000Z</time>
      </trkpt>
      <trkpt lat="47.27245" lon="4.96173">
        <ele>484.1</ele>
        <time>2013-03-02T08:56:15.000Z</time>
      </trkpt>
      <trkpt lat="47.27244" lon="4.96174">
        <ele>484.2</ele>
        <time>2013-03-02T08:56:16.000Z</time>
      </trkpt>
      <trkpt lat="47.27245" lon="4.96179">
        <ele>486.5</ele>
        <time>2013-03-02T08:56:22.000Z</time>
      </trkpt>
      <trkpt lat="47.27246" lon="4.9618">
        <ele>486.8</ele>
        <time>2013-03-02T08:56:23.000Z</time>
      </trkpt>
      <trkpt lat="47.27248" lon="4.96183">
        <ele>488.2</ele>
        <time>2013-03-02T08:56:27.000Z</time>
      </trkpt>
      <trkpt lat="47.27249" lon="4.96184">
        <ele>488.9</ele>
        <time>2013-03-02T08:56:28.000Z</time>
      </trkpt>
      <trkpt lat="47.27251" lon="4.96189">
        <ele>488.1</ele>
        <time>2013-03-02T08:56:31.000Z</time>
      </trkpt>
      <trkpt lat="47.27252" lon="4.9619">
        <ele>488.2</ele>
        <time>2013-03-02T08:56:32.000Z</time>
      </trkpt>
      <trkpt lat="47.27254" lon="4.96195">
        <ele>488.1</ele>
        <time>2013-03-02T08:56:35.000Z</time>
      </trkpt>
      <trkpt lat="47.27255" lon="4.96196">
        <ele>488.2</ele>
        <time>2013-03-02T08:56:36.000Z</time>
      </trkpt>
      <trkpt lat="47.27258" lon="4.96199">
        <ele>488.2</ele>
        <time>2013-03-02T08:56:39.000Z</time>
      </trkpt>
      <trkpt lat="47.27259" lon="4.962">
        <ele>488.2</ele>
        <time>2013-03-02T08:56:40.000Z</time>
      </trkpt>
      <trkpt lat="47.27261" lon="4.96204">
        <ele>488</ele>
        <time>2013-03-02T08:56:43.000Z</time>
      </trkpt>
      <trkpt lat="47.27262" lon="4.96206">
        <ele>487.9</ele>
        <time>2013-03-02T08:56:44.000Z</time>
      </trkpt>
      <trkpt lat="47.27264" lon="4.96211">
        <ele>486.8</ele>
        <time>2013-03-02T08:56:48.000Z</time>
      </trkpt>
      <trkpt lat="47.27264" lon="4.96212">
        <ele>486.7</ele>
        <time>2013-03-02T08:56:49.000Z</time>
      </trkpt>
      <trkpt lat="47.27266" lon="4.96217">
        <ele>485.6</ele>
        <time>2013-03-02T08:56:54.000Z</time>
      </trkpt>
      <trkpt lat="47.27266" lon="4.96218">
        <ele>485.4</ele>
        <time>2013-03-02T08:56:55.000Z</time>
      </trkpt>
      <trkpt lat="47.27266" lon="4.96219">
        <ele>484.9</ele>
        <time>2013-03-02T08:56:57.000Z</time>
      </trkpt>
      <trkpt lat="47.27256" lon="4.96223">
        <ele>482.1</ele>
        <time>2013-03-02T08:57:11.000Z</time>
      </trkpt>
      <trkpt lat="47.27252" lon="4.9622">
        <ele>482.3</ele>
        <time>2013-03-02T08:57:13.000Z</time>
      </trkpt>
      <trkpt lat="47.2725" lon="4.96219">
        <ele>481.9</ele>
        <time>2013-03-02T08:57:14.000Z</time>
      </trkpt>
      <trkpt lat="47.27247" lon="4.96217">
        <ele>481.8</ele>
        <time>2013-03-02T08:57:16.000Z</time>
      </trkpt>
      <trkpt lat="47.27246" lon="4.96217">
        <ele>482.3</ele>
        <time>2013-03-02T08:57:17.000Z</time>
      </trkpt>
      <trkpt lat="47.27244" lon="4.96211">
        <ele>484.4</ele>
        <time>2013-03-02T08:57:57.000Z</time>
      </trkpt>
      <trkpt lat="47.27239" lon="4.96219">
        <ele>507.8</ele>
        <time>2013-03-02T08:58:15.000Z</time>
      </trkpt>
      <trkpt lat="47.27235" lon="4.96221">
        <ele>502.2</ele>
        <time>2013-03-02T08:58:49.000Z</time>
      </trkpt>
      <trkpt lat="47.27235" lon="4.96221">
        <ele>502.1</ele>
        <time>2013-03-02T08:58:50.000Z</time>
      </trkpt>
      <trkpt lat="47.27234" lon="4.96219">
        <ele>501.6</ele>
        <time>2013-03-02T08:58:57.000Z</time>
      </trkpt>
      <trkpt lat="47.27223" lon="4.96216">
        <ele>511.5</ele>
        <time>2013-03-02T08:59:16.000Z</time>
      </trkpt>
      <trkpt lat="47.27228" lon="4.96212">
        <ele>499.4</ele>
        <time>2013-03-02T08:59:17.000Z</time>
      </trkpt>
      <trkpt lat="47.2723" lon="4.96211">
        <ele>489.4</ele>
        <time>2013-03-02T08:59:23.000Z</time>
      </trkpt>
      <trkpt lat="47.27234" lon="4.96209">
        <ele>479.1</ele>
        <time>2013-03-02T08:59:24.000Z</time>
      </trkpt>
      <trkpt lat="47.27235" lon="4.96215">
        <ele>479.6</ele>
        <time>2013-03-02T08:59:35.000Z</time>
      </trkpt>
      <trkpt lat="47.27236" lon="4.96216">
        <ele>479.8</ele>
        <time>2013-03-02T08:59:36.000Z</time>
      </trkpt>
      <trkpt lat="47.27233" lon="4.96219">
        <ele>480.1</ele>
        <time>2013-03-02T08:59:42.000Z</time>
      </trkpt>
      <trkpt lat="47.27233" lon="4.9622">
        <ele>479.2</ele>
        <time>2013-03-02T08:59:43.000Z</time>
      </trkpt>
      <trkpt lat="47.27232" lon="4.96214">
        <ele>468.5</ele>
        <time>2013-03-02T09:00:31.000Z</time>
      </trkpt>
      <trkpt lat="47.27232" lon="4.96213">
        <ele>468.8</ele>
        <time>2013-03-02T09:00:32.000Z</time>
      </trkpt>
      <trkpt lat="47.27231" lon="4.96207">
        <ele>471.4</ele>
        <time>2013-03-02T09:00:40.000Z</time>
      </trkpt>
      <trkpt lat="47.27231" lon="4.96207">
        <ele>471.5</ele>
        <time>2013-03-02T09:00:41.000Z</time>
      </trkpt>
      <trkpt lat="47.2723" lon="4.96206">
        <ele>471.6</ele>
        <time>2013-03-02T09:00:57.000Z</time>
      </trkpt>
      <trkpt lat="47.27246" lon="4.96191">
        <ele>466.7</ele>
        <time>2013-03-02T09:01:16.000Z</time>
      </trkpt>
      <trkpt lat="47.27242" lon="4.96191">
        <ele>459.4</ele>
        <time>2013-03-02T09:01:34.000Z</time>
      </trkpt>
      <trkpt lat="47.27241" lon="4.96191">
        <ele>459.2</ele>
        <time>2013-03-02T09:01:35.000Z</time>
      </trkpt>
      <trkpt lat="47.2724" lon="4.96191">
        <ele>458.4</ele>
        <time>2013-03-02T09:01:59.000Z</time>
      </trkpt>
      <trkpt lat="47.27235" lon="4.96198">
        <ele>460.2</ele>
        <time>2013-03-02T09:02:00.000Z</time>
      </trkpt>
      <trkpt lat="47.27235" lon="4.96204">
        <ele>462</ele>
        <time>2013-03-02T09:02:03.000Z</time>
      </trkpt>
      <trkpt lat="47.27235" lon="4.96205">
        <ele>462.4</ele>
        <time>2013-03-02T09:02:04.000Z</time>
      </trkpt>
      <trkpt lat="47.27236" lon="4.96211">
        <ele>464.4</ele>
        <time>2013-03-02T09:02:10.000Z</time>
      </trkpt>
      <trkpt lat="47.27235" lon="4.96213">
        <ele>464.8</ele>
        <time>2013-03-02T09:02:11.000Z</time>
      </trkpt>
      <trkpt lat="47.27235" lon="4.96213">
        <ele>465.7</ele>
        <time>2013-03-02T09:02:32.000Z</time>
      </trkpt>
      <trkpt lat="47.27233" lon="4.96219">
        <ele>469.4</ele>
        <time>2013-03-02T09:02:33.000Z</time>
      </trkpt>
      <trkpt lat="47.27233" lon="4.96221">
        <ele>470.7</ele>
        <time>2013-03-02T09:02:58.000Z</time>
      </trkpt>
      <trkpt lat="47.27236" lon="4.96214">
        <ele>487.8</ele>
        <time>2013-03-02T09:03:13.000Z</time>
      </trkpt>
      <trkpt lat="47.27235" lon="4.9622">
        <ele>491.8</ele>
        <time>2013-03-02T09:03:19.000Z</time>
      </trkpt>
      <trkpt lat="47.27235" lon="4.96221">
        <ele>492.2</ele>
        <time>2013-03-02T09:03:20.000Z</time>
      </trkpt>
      <trkpt lat="47.27233" lon="4.96226">
        <ele>493.3</ele>
        <time>2013-03-02T09:03:24.000Z</time>
      </trkpt>
      <trkpt lat="47.27234" lon="4.9623">
        <ele>493.3</ele>
        <time>2013-03-02T09:03:25.000Z</time>
      </trkpt>
      <trkpt lat="47.27233" lon="4.96235">
        <ele>496.7</ele>
        <time>2013-03-02T09:03:28.000Z</time>
      </trkpt>
      <trkpt lat="47.27233" lon="4.96236">
        <ele>493.8</ele>
        <time>2013-03-02T09:03:29.000Z</time>
      </trkpt>
      <trkpt lat="47.27232" lon="4.9624">
        <ele>492.2</ele>
        <time>2013-03-02T09:03:32.000Z</time>
      </trkpt>
      <trkpt lat="47.27231" lon="4.96243">
        <ele>492.1</ele>
        <time>2013-03-02T09:03:33.000Z</time>
      </trkpt>
      <trkpt lat="47.27229" lon="4.96248">
        <ele>491.3</ele>
        <time>2013-03-02T09:03:36.000Z</time>
      </trkpt>
      <trkpt lat="47.27227" lon="4.96249">
        <ele>491.2</ele>
        <time>2013-03-02T09:03:37.000Z</time>
      </trkpt>
      <trkpt lat="47.27224" lon="4.96252">
        <ele>490.7</ele>
        <time>2013-03-02T09:03:39.000Z</time>
      </trkpt>
      <trkpt lat="47.27222" lon="4.96254">
        <ele>490.5</ele>
        <time>2013-03-02T09:03:40.000Z</time>
      </trkpt>
      <trkpt lat="47.2722" lon="4.96257">
        <ele>490.3</ele>
        <time>2013-03-02T09:03:41.000Z</time>
      </trkpt>
      <trkpt lat="47.27218" lon="4.96259">
        <ele>490</ele>
        <time>2013-03-02T09:03:42.000Z</time>
      </trkpt>
      <trkpt lat="47.27216" lon="4.96263">
        <ele>489.9</ele>
        <time>2013-03-02T09:03:44.000Z</time>
      </trkpt>
      <trkpt lat="47.27216" lon="4.96265">
        <ele>489.7</ele>
        <time>2013-03-02T09:03:45.000Z</time>
      </trkpt>
      <trkpt lat="47.27214" lon="4.9627">
        <ele>489</ele>
        <time>2013-03-02T09:03:47.000Z</time>
      </trkpt>
      <trkpt lat="47.27213" lon="4.96273">
        <ele>488.3</ele>
        <time>2013-03-02T09:03:48.000Z</time>
      </trkpt>
      <trkpt lat="47.2721" lon="4.96277">
        <ele>487.7</ele>
        <time>2013-03-02T09:03:50.000Z</time>
      </trkpt>
      <trkpt lat="47.27209" lon="4.9628">
        <ele>487.4</ele>
        <time>2013-03-02T09:03:51.000Z</time>
      </trkpt>
      <trkpt lat="47.27206" lon="4.96285">
        <ele>486.7</ele>
        <time>2013-03-02T09:03:53.000Z</time>
      </trkpt>
      <trkpt lat="47.27205" lon="4.96288">
        <ele>486.1</ele>
        <time>2013-03-02T09:03:54.000Z</time>
      </trkpt>
      <trkpt lat="47.27204" lon="4.96291">
        <ele>485.6</ele>
        <time>2013-03-02T09:03:55.000Z</time>
      </trkpt>
      <trkpt lat="47.27203" lon="4.96294">
        <ele>484.8</ele>
        <time>2013-03-02T09:03:56.000Z</time>
      </trkpt>
      <trkpt lat="47.27202" lon="4.963">
        <ele>484.1</ele>
        <time>2013-03-02T09:03:58.000Z</time>
      </trkpt>
      <trkpt lat="47.27192" lon="4.96343">
        <ele>474.2</ele>
        <time>2013-03-02T09:04:11.000Z</time>
      </trkpt>
      <trkpt lat="47.2719" lon="4.96361">
        <ele>476.3</ele>
        <time>2013-03-02T09:04:17.000Z</time>
      </trkpt>
      <trkpt lat="47.27189" lon="4.96365">
        <ele>476.8</ele>
        <time>2013-03-02T09:04:18.000Z</time>
      </trkpt>
      <trkpt lat="47.27189" lon="4.96368">
        <ele>477.3</ele>
        <time>2013-03-02T09:04:19.000Z</time>
      </trkpt>
      <trkpt lat="47.27189" lon="4.96372">
        <ele>476.9</ele>
        <time>2013-03-02T09:04:20.000Z</time>
      </trkpt>
      <trkpt lat="47.27189" lon="4.96376">
        <ele>477.3</ele>
        <time>2013-03-02T09:04:21.000Z</time>
      </trkpt>
      <trkpt lat="47.27189" lon="4.96381">
        <ele>479.4</ele>
        <time>2013-03-02T09:04:23.000Z</time>
      </trkpt>
      <trkpt lat="47.27189" lon="4.96384">
        <ele>478.6</ele>
        <time>2013-03-02T09:04:24.000Z</time>
      </trkpt>
      <trkpt lat="47.27189" lon="4.96388">
        <ele>477.6</ele>
        <time>2013-03-02T09:04:25.000Z</time>
      </trkpt>
      <trkpt lat="47.27189" lon="4.96391">
        <ele>478.3</ele>
        <time>2013-03-02T09:04:26.000Z</time>
      </trkpt>
      <trkpt lat="47.27188" lon="4.96394">
        <ele>478.6</ele>
        <time>2013-03-02T09:04:27.000Z</time>
      </trkpt>
      <trkpt lat="47.27188" lon="4.96397">
        <ele>479</ele>
        <time>2013-03-02T09:04:28.000Z</time>
      </trkpt>
      <trkpt lat="47.27186" lon="4.96402">
        <ele>474.6</ele>
        <time>2013-03-02T09:04:30.000Z</time>
      </trkpt>
      <trkpt lat="47.27185" lon="4.96404">
        <ele>474</ele>
        <time>2013-03-02T09:04:31.000Z</time>
      </trkpt>
      <trkpt lat="47.27185" lon="4.96409">
        <ele>473.6</ele>
        <time>2013-03-02T09:04:34.000Z</time>
      </trkpt>
      <trkpt lat="47.27185" lon="4.9641">
        <ele>473.4</ele>
        <time>2013-03-02T09:04:35.000Z</time>
      </trkpt>
      <trkpt lat="47.27184" lon="4.96412">
        <ele>472.7</ele>
        <time>2013-03-02T09:04:48.000Z</time>
      </trkpt>
      <trkpt lat="47.2718" lon="4.96421">
        <ele>465.9</ele>
        <time>2013-03-02T09:04:49.000Z</time>
      </trkpt>
      <trkpt lat="47.27179" lon="4.96421">
        <ele>462.6</ele>
        <time>2013-03-02T09:04:58.000Z</time>
      </trkpt>
      <trkpt lat="47.27186" lon="4.96427">
        <ele>440.8</ele>
        <time>2013-03-02T09:05:08.000Z</time>
      </trkpt>
      <trkpt lat="47.27183" lon="4.96431">
        <ele>448.8</ele>
        <time>2013-03-02T09:05:17.000Z</time>
      </trkpt>
      <trkpt lat="47.27183" lon="4.96432">
        <ele>449.5</ele>
        <time>2013-03-02T09:05:18.000Z</time>
      </trkpt>
      <trkpt lat="47.27181" lon="4.96436">
        <ele>453.9</ele>
        <time>2013-03-02T09:05:22.000Z</time>
      </trkpt>
      <trkpt lat="47.2718" lon="4.96437">
        <ele>454.7</ele>
        <time>2013-03-02T09:05:23.000Z</time>
      </trkpt>
      <trkpt lat="47.27177" lon="4.96441">
        <ele>460.7</ele>
        <time>2013-03-02T09:05:26.000Z</time>
      </trkpt>
      <trkpt lat="47.27176" lon="4.96442">
        <ele>460.1</ele>
        <time>2013-03-02T09:05:27.000Z</time>
      </trkpt>
      <trkpt lat="47.27174" lon="4.96445">
        <ele>457.9</ele>
        <time>2013-03-02T09:05:30.000Z</time>
      </trkpt>
      <trkpt lat="47.27173" lon="4.96447">
        <ele>457.4</ele>
        <time>2013-03-02T09:05:31.000Z</time>
      </trkpt>
      <trkpt lat="47.27172" lon="4.96452">
        <ele>457.2</ele>
        <time>2013-03-02T09:05:33.000Z</time>
      </trkpt>
      <trkpt lat="47.27171" lon="4.96454">
        <ele>457.3</ele>
        <time>2013-03-02T09:05:34.000Z</time>
      </trkpt>
      <trkpt lat="47.27169" lon="4.96458">
        <ele>458.3</ele>
        <time>2013-03-02T09:05:36.000Z</time>
      </trkpt>
      <trkpt lat="47.27168" lon="4.96461">
        <ele>458.9</ele>
        <time>2013-03-02T09:05:37.000Z</time>
      </trkpt>
      <trkpt lat="47.27167" lon="4.96464">
        <ele>459.5</ele>
        <time>2013-03-02T09:05:38.000Z</time>
      </trkpt>
      <trkpt lat="47.27165" lon="4.96467">
        <ele>459.7</ele>
        <time>2013-03-02T09:05:39.000Z</time>
      </trkpt>
      <trkpt lat="47.27164" lon="4.9647">
        <ele>459.7</ele>
        <time>2013-03-02T09:05:40.000Z</time>
      </trkpt>
      <trkpt lat="47.27163" lon="4.96473">
        <ele>459.7</ele>
        <time>2013-03-02T09:05:41.000Z</time>
      </trkpt>
      <trkpt lat="47.2716" lon="4.96478">
        <ele>459.7</ele>
        <time>2013-03-02T09:05:43.000Z</time>
      </trkpt>
      <trkpt lat="47.27159" lon="4.96481">
        <ele>459.5</ele>
        <time>2013-03-02T09:05:44.000Z</time>
      </trkpt>
      <trkpt lat="47.27158" lon="4.96484">
        <ele>459.3</ele>
        <time>2013-03-02T09:05:45.000Z</time>
      </trkpt>
      <trkpt lat="47.27155" lon="4.96486">
        <ele>458.9</ele>
        <time>2013-03-02T09:05:46.000Z</time>
      </trkpt>
      <trkpt lat="47.27153" lon="4.96489">
        <ele>458.8</ele>
        <time>2013-03-02T09:05:47.000Z</time>
      </trkpt>
      <trkpt lat="47.27152" lon="4.96492">
        <ele>458.4</ele>
        <time>2013-03-02T09:05:48.000Z</time>
      </trkpt>
      <trkpt lat="47.27149" lon="4.96496">
        <ele>458.9</ele>
        <time>2013-03-02T09:05:50.000Z</time>
      </trkpt>
      <trkpt lat="47.27148" lon="4.96499">
        <ele>458.9</ele>
        <time>2013-03-02T09:05:51.000Z</time>
      </trkpt>
      <trkpt lat="47.27146" lon="4.96502">
        <ele>459.4</ele>
        <time>2013-03-02T09:05:53.000Z</time>
      </trkpt>
      <trkpt lat="47.27145" lon="4.96504">
        <ele>459.4</ele>
        <time>2013-03-02T09:05:54.000Z</time>
      </trkpt>
      <trkpt lat="47.27144" lon="4.96509">
        <ele>459</ele>
        <time>2013-03-02T09:05:56.000Z</time>
      </trkpt>
      <trkpt lat="47.27143" lon="4.9651">
        <ele>458.9</ele>
        <time>2013-03-02T09:05:57.000Z</time>
      </trkpt>
      <trkpt lat="47.27143" lon="4.96512">
        <ele>458.7</ele>
        <time>2013-03-02T09:05:58.000Z</time>
      </trkpt>
      <trkpt lat="47.27126" lon="4.96547">
        <ele>445.2</ele>
        <time>2013-03-02T09:06:09.000Z</time>
      </trkpt>
      <trkpt lat="47.27123" lon="4.96551">
        <ele>442.2</ele>
        <time>2013-03-02T09:06:12.000Z</time>
      </trkpt>
      <trkpt lat="47.27121" lon="4.96553">
        <ele>444.4</ele>
        <time>2013-03-02T09:06:13.000Z</time>
      </trkpt>
      <trkpt lat="47.27117" lon="4.96557">
        <ele>447.4</ele>
        <time>2013-03-02T09:06:16.000Z</time>
      </trkpt>
      <trkpt lat="47.27114" lon="4.96559">
        <ele>448.9</ele>
        <time>2013-03-02T09:06:17.000Z</time>
      </trkpt>
      <trkpt lat="47.27112" lon="4.9656">
        <ele>448.4</ele>
        <time>2013-03-02T09:06:18.000Z</time>
      </trkpt>
      <trkpt lat="47.27108" lon="4.96561">
        <ele>448.8</ele>
        <time>2013-03-02T09:06:20.000Z</time>
      </trkpt>
      <trkpt lat="47.27106" lon="4.96562">
        <ele>449.1</ele>
        <time>2013-03-02T09:06:21.000Z</time>
      </trkpt>
      <trkpt lat="47.27104" lon="4.96564">
        <ele>449.6</ele>
        <time>2013-03-02T09:06:22.000Z</time>
      </trkpt>
      <trkpt lat="47.27101" lon="4.96565">
        <ele>449.8</ele>
        <time>2013-03-02T09:06:23.000Z</time>
      </trkpt>
      <trkpt lat="47.27099" lon="4.96568">
        <ele>449.9</ele>
        <time>2013-03-02T09:06:24.000Z</time>
      </trkpt>
      <trkpt lat="47.27097" lon="4.96569">
        <ele>448.6</ele>
        <time>2013-03-02T09:06:25.000Z</time>
      </trkpt>
      <trkpt lat="47.27094" lon="4.96571">
        <ele>447.3</ele>
        <time>2013-03-02T09:06:26.000Z</time>
      </trkpt>
      <trkpt lat="47.27092" lon="4.96572">
        <ele>446</ele>
        <time>2013-03-02T09:06:27.000Z</time>
      </trkpt>
      <trkpt lat="47.27089" lon="4.96576">
        <ele>444.2</ele>
        <time>2013-03-02T09:06:29.000Z</time>
      </trkpt>
      <trkpt lat="47.27088" lon="4.96577">
        <ele>444</ele>
        <time>2013-03-02T09:06:30.000Z</time>
      </trkpt>
      <trkpt lat="47.27086" lon="4.96578">
        <ele>444.2</ele>
        <time>2013-03-02T09:06:31.000Z</time>
      </trkpt>
      <trkpt lat="47.27083" lon="4.9658">
        <ele>444.1</ele>
        <time>2013-03-02T09:06:32.000Z</time>
      </trkpt>
      <trkpt lat="47.27081" lon="4.96582">
        <ele>443.9</ele>
        <time>2013-03-02T09:06:33.000Z</time>
      </trkpt>
      <trkpt lat="47.27078" lon="4.96584">
        <ele>443.6</ele>
        <time>2013-03-02T09:06:34.000Z</time>
      </trkpt>
      <trkpt lat="47.27076" lon="4.96585">
        <ele>443.6</ele>
        <time>2013-03-02T09:06:35.000Z</time>
      </trkpt>
      <trkpt lat="47.27074" lon="4.96587">
        <ele>443</ele>
        <time>2013-03-02T09:06:36.000Z</time>
      </trkpt>
      <trkpt lat="47.2707" lon="4.9659">
        <ele>442.7</ele>
        <time>2013-03-02T09:06:38.000Z</time>
      </trkpt>
      <trkpt lat="47.27068" lon="4.96591">
        <ele>441.9</ele>
        <time>2013-03-02T09:06:39.000Z</time>
      </trkpt>
      <trkpt lat="47.27066" lon="4.96592">
        <ele>441.5</ele>
        <time>2013-03-02T09:06:40.000Z</time>
      </trkpt>
      <trkpt lat="47.27064" lon="4.96594">
        <ele>441.4</ele>
        <time>2013-03-02T09:06:41.000Z</time>
      </trkpt>
      <trkpt lat="47.27062" lon="4.96596">
        <ele>440.8</ele>
        <time>2013-03-02T09:06:42.000Z</time>
      </trkpt>
      <trkpt lat="47.2706" lon="4.96598">
        <ele>440.2</ele>
        <time>2013-03-02T09:06:43.000Z</time>
      </trkpt>
      <trkpt lat="47.27058" lon="4.966">
        <ele>439.7</ele>
        <time>2013-03-02T09:06:44.000Z</time>
      </trkpt>
      <trkpt lat="47.27056" lon="4.96602">
        <ele>439.4</ele>
        <time>2013-03-02T09:06:45.000Z</time>
      </trkpt>
      <trkpt lat="47.27054" lon="4.96605">
        <ele>439.7</ele>
        <time>2013-03-02T09:06:46.000Z</time>
      </trkpt>
      <trkpt lat="47.27052" lon="4.96607">
        <ele>439.6</ele>
        <time>2013-03-02T09:06:47.000Z</time>
      </trkpt>
      <trkpt lat="47.27049" lon="4.96609">
        <ele>439.6</ele>
        <time>2013-03-02T09:06:48.000Z</time>
      </trkpt>
      <trkpt lat="47.27047" lon="4.9661">
        <ele>439.8</ele>
        <time>2013-03-02T09:06:49.000Z</time>
      </trkpt>
      <trkpt lat="47.27045" lon="4.96612">
        <ele>439.8</ele>
        <time>2013-03-02T09:06:50.000Z</time>
      </trkpt>
      <trkpt lat="47.27044" lon="4.96615">
        <ele>439.3</ele>
        <time>2013-03-02T09:06:51.000Z</time>
      </trkpt>
      <trkpt lat="47.27042" lon="4.96617">
        <ele>439.3</ele>
        <time>2013-03-02T09:06:52.000Z</time>
      </trkpt>
      <trkpt lat="47.2704" lon="4.96619">
        <ele>439.3</ele>
        <time>2013-03-02T09:06:53.000Z</time>
      </trkpt>
      <trkpt lat="47.27037" lon="4.96622">
        <ele>439.6</ele>
        <time>2013-03-02T09:06:55.000Z</time>
      </trkpt>
      <trkpt lat="47.27036" lon="4.96624">
        <ele>439.7</ele>
        <time>2013-03-02T09:06:56.000Z</time>
      </trkpt>
      <trkpt lat="47.27035" lon="4.96628">
        <ele>440.1</ele>
        <time>2013-03-02T09:06:58.000Z</time>
      </trkpt>
      <trkpt lat="47.27022" lon="4.96655">
        <ele>436.7</ele>
        <time>2013-03-02T09:07:07.000Z</time>
      </trkpt>
      <trkpt lat="47.27022" lon="4.96661">
        <ele>438.6</ele>
        <time>2013-03-02T09:07:10.000Z</time>
      </trkpt>
      <trkpt lat="47.27021" lon="4.96664">
        <ele>440.5</ele>
        <time>2013-03-02T09:07:11.000Z</time>
      </trkpt>
      <trkpt lat="47.27018" lon="4.96672">
        <ele>441</ele>
        <time>2013-03-02T09:07:16.000Z</time>
      </trkpt>
      <trkpt lat="47.27015" lon="4.96674">
        <ele>440.7</ele>
        <time>2013-03-02T09:07:18.000Z</time>
      </trkpt>
      <trkpt lat="47.27013" lon="4.96675">
        <ele>441.7</ele>
        <time>2013-03-02T09:07:19.000Z</time>
      </trkpt>
      <trkpt lat="47.27011" lon="4.96679">
        <ele>443.1</ele>
        <time>2013-03-02T09:07:21.000Z</time>
      </trkpt>
      <trkpt lat="47.2701" lon="4.96681">
        <ele>444.3</ele>
        <time>2013-03-02T09:07:22.000Z</time>
      </trkpt>
      <trkpt lat="47.27008" lon="4.96684">
        <ele>444.5</ele>
        <time>2013-03-02T09:07:24.000Z</time>
      </trkpt>
      <trkpt lat="47.27007" lon="4.96685">
        <ele>444.1</ele>
        <time>2013-03-02T09:07:25.000Z</time>
      </trkpt>
      <trkpt lat="47.27005" lon="4.96691">
        <ele>444.9</ele>
        <time>2013-03-02T09:07:28.000Z</time>
      </trkpt>
      <trkpt lat="47.27003" lon="4.96692">
        <ele>442.2</ele>
        <time>2013-03-02T09:07:29.000Z</time>
      </trkpt>
      <trkpt lat="47.27" lon="4.96695">
        <ele>441</ele>
        <time>2013-03-02T09:07:31.000Z</time>
      </trkpt>
      <trkpt lat="47.26999" lon="4.96697">
        <ele>440.2</ele>
        <time>2013-03-02T09:07:32.000Z</time>
      </trkpt>
      <trkpt lat="47.26998" lon="4.96702">
        <ele>438.4</ele>
        <time>2013-03-02T09:07:34.000Z</time>
      </trkpt>
      <trkpt lat="47.26997" lon="4.96704">
        <ele>438.1</ele>
        <time>2013-03-02T09:07:35.000Z</time>
      </trkpt>
      <trkpt lat="47.26996" lon="4.96709">
        <ele>438.1</ele>
        <time>2013-03-02T09:07:37.000Z</time>
      </trkpt>
      <trkpt lat="47.26996" lon="4.96712">
        <ele>438.2</ele>
        <time>2013-03-02T09:07:38.000Z</time>
      </trkpt>
      <trkpt lat="47.26996" lon="4.96717">
        <ele>438.1</ele>
        <time>2013-03-02T09:07:40.000Z</time>
      </trkpt>
      <trkpt lat="47.26995" lon="4.96719">
        <ele>438.1</ele>
        <time>2013-03-02T09:07:41.000Z</time>
      </trkpt>
      <trkpt lat="47.26995" lon="4.96724">
        <ele>437.1</ele>
        <time>2013-03-02T09:07:43.000Z</time>
      </trkpt>
      <trkpt lat="47.26994" lon="4.96728">
        <ele>436.8</ele>
        <time>2013-03-02T09:07:44.000Z</time>
      </trkpt>
      <trkpt lat="47.26993" lon="4.9673">
        <ele>436.7</ele>
        <time>2013-03-02T09:07:45.000Z</time>
      </trkpt>
      <trkpt lat="47.26992" lon="4.96734">
        <ele>436.7</ele>
        <time>2013-03-02T09:07:46.000Z</time>
      </trkpt>
      <trkpt lat="47.2699" lon="4.96739">
        <ele>436.4</ele>
        <time>2013-03-02T09:07:48.000Z</time>
      </trkpt>
      <trkpt lat="47.26989" lon="4.9674">
        <ele>436.4</ele>
        <time>2013-03-02T09:07:49.000Z</time>
      </trkpt>
      <trkpt lat="47.26986" lon="4.96745">
        <ele>436.6</ele>
        <time>2013-03-02T09:07:51.000Z</time>
      </trkpt>
      <trkpt lat="47.26985" lon="4.96748">
        <ele>436.5</ele>
        <time>2013-03-02T09:07:52.000Z</time>
      </trkpt>
      <trkpt lat="47.26984" lon="4.96754">
        <ele>435.8</ele>
        <time>2013-03-02T09:07:54.000Z</time>
      </trkpt>
      <trkpt lat="47.26983" lon="4.96757">
        <ele>435.9</ele>
        <time>2013-03-02T09:07:55.000Z</time>
      </trkpt>
      <trkpt lat="47.26981" lon="4.96762">
        <ele>435.5</ele>
        <time>2013-03-02T09:07:57.000Z</time>
      </trkpt>
      <trkpt lat="47.2698" lon="4.96764">
        <ele>435.6</ele>
        <time>2013-03-02T09:07:58.000Z</time>
      </trkpt>
      <trkpt lat="47.26968" lon="4.96797">
        <ele>432</ele>
        <time>2013-03-02T09:08:06.000Z</time>
      </trkpt>
      <trkpt lat="47.26967" lon="4.96802">
        <ele>426.2</ele>
        <time>2013-03-02T09:08:08.000Z</time>
      </trkpt>
      <trkpt lat="47.26966" lon="4.96805">
        <ele>425.9</ele>
        <time>2013-03-02T09:08:09.000Z</time>
      </trkpt>
      <trkpt lat="47.26965" lon="4.96807">
        <ele>425</ele>
        <time>2013-03-02T09:08:11.000Z</time>
      </trkpt>
      <trkpt lat="47.26954" lon="4.96816">
        <ele>420.5</ele>
        <time>2013-03-02T09:08:16.000Z</time>
      </trkpt>
      <trkpt lat="47.26951" lon="4.96818">
        <ele>420.3</ele>
        <time>2013-03-02T09:08:17.000Z</time>
      </trkpt>
      <trkpt lat="47.26949" lon="4.9682">
        <ele>420.6</ele>
        <time>2013-03-02T09:08:18.000Z</time>
      </trkpt>
      <trkpt lat="47.26947" lon="4.96822">
        <ele>421.3</ele>
        <time>2013-03-02T09:08:19.000Z</time>
      </trkpt>
      <trkpt lat="47.26944" lon="4.96824">
        <ele>420.7</ele>
        <time>2013-03-02T09:08:20.000Z</time>
      </trkpt>
      <trkpt lat="47.26942" lon="4.96825">
        <ele>421.4</ele>
        <time>2013-03-02T09:08:21.000Z</time>
      </trkpt>
      <trkpt lat="47.2694" lon="4.96828">
        <ele>423.9</ele>
        <time>2013-03-02T09:08:22.000Z</time>
      </trkpt>
      <trkpt lat="47.26936" lon="4.96829">
        <ele>420.7</ele>
        <time>2013-03-02T09:08:25.000Z</time>
      </trkpt>
      <trkpt lat="47.26934" lon="4.9683">
        <ele>420.5</ele>
        <time>2013-03-02T09:08:26.000Z</time>
      </trkpt>
      <trkpt lat="47.26931" lon="4.9683">
        <ele>420.3</ele>
        <time>2013-03-02T09:08:28.000Z</time>
      </trkpt>
      <trkpt lat="47.26929" lon="4.96831">
        <ele>419</ele>
        <time>2013-03-02T09:08:29.000Z</time>
      </trkpt>
      <trkpt lat="47.26927" lon="4.96834">
        <ele>418.2</ele>
        <time>2013-03-02T09:08:31.000Z</time>
      </trkpt>
      <trkpt lat="47.26925" lon="4.96835">
        <ele>417.3</ele>
        <time>2013-03-02T09:08:32.000Z</time>
      </trkpt>
      <trkpt lat="47.26923" lon="4.96837">
        <ele>416.3</ele>
        <time>2013-03-02T09:08:34.000Z</time>
      </trkpt>
      <trkpt lat="47.2692" lon="4.96837">
        <ele>415.4</ele>
        <time>2013-03-02T09:08:35.000Z</time>
      </trkpt>
      <trkpt lat="47.26918" lon="4.96837">
        <ele>414.8</ele>
        <time>2013-03-02T09:08:36.000Z</time>
      </trkpt>
      <trkpt lat="47.26916" lon="4.96837">
        <ele>415</ele>
        <time>2013-03-02T09:08:37.000Z</time>
      </trkpt>
      <trkpt lat="47.26913" lon="4.96837">
        <ele>414.3</ele>
        <time>2013-03-02T09:08:44.000Z</time>
      </trkpt>
      <trkpt lat="47.26911" lon="4.96839">
        <ele>414.2</ele>
        <time>2013-03-02T09:08:45.000Z</time>
      </trkpt>
      <trkpt lat="47.26911" lon="4.96838">
        <ele>412.9</ele>
        <time>2013-03-02T09:08:58.000Z</time>
      </trkpt>
      <trkpt lat="47.2692" lon="4.96851">
        <ele>407</ele>
        <time>2013-03-02T09:09:06.000Z</time>
      </trkpt>
      <trkpt lat="47.2692" lon="4.96851">
        <ele>407</ele>
        <time>2013-03-02T09:09:08.000Z</time>
      </trkpt>
      <trkpt lat="47.26929" lon="4.9685">
        <ele>416.6</ele>
        <time>2013-03-02T09:09:14.000Z</time>
      </trkpt>
      <trkpt lat="47.2693" lon="4.9685">
        <ele>415.2</ele>
        <time>2013-03-02T09:09:31.000Z</time>
      </trkpt>
      <trkpt lat="47.26933" lon="4.96855">
        <ele>416.2</ele>
        <time>2013-03-02T09:09:32.000Z</time>
      </trkpt>
      <trkpt lat="47.26937" lon="4.96857">
        <ele>418.2</ele>
        <time>2013-03-02T09:09:38.000Z</time>
      </trkpt>
      <trkpt lat="47.26938" lon="4.96858">
        <ele>418.7</ele>
        <time>2013-03-02T09:09:39.000Z</time>
      </trkpt>
      <trkpt lat="47.26939" lon="4.96861">
        <ele>418.8</ele>
        <time>2013-03-02T09:09:50.000Z</time>
      </trkpt>
      <trkpt lat="47.26944" lon="4.96865">
        <ele>419.9</ele>
        <time>2013-03-02T09:09:51.000Z</time>
      </trkpt>
      <trkpt lat="47.26948" lon="4.96865">
        <ele>421.3</ele>
        <time>2013-03-02T09:09:58.000Z</time>
      </trkpt>
      <trkpt lat="47.26952" lon="4.96863">
        <ele>422.3</ele>
        <time>2013-03-02T09:10:07.000Z</time>
      </trkpt>
      <trkpt lat="47.26952" lon="4.96863">
        <ele>422.3</ele>
        <time>2013-03-02T09:10:20.000Z</time>
      </trkpt>
      <trkpt lat="47.26959" lon="4.9687">
        <ele>428</ele>
        <time>2013-03-02T09:10:21.000Z</time>
      </trkpt>
      <trkpt lat="47.26955" lon="4.96873">
        <ele>424.4</ele>
        <time>2013-03-02T09:10:56.000Z</time>
      </trkpt>
      <trkpt lat="47.26954" lon="4.96873">
        <ele>424.5</ele>
        <time>2013-03-02T09:10:57.000Z</time>
      </trkpt>
      <trkpt lat="47.26953" lon="4.96873">
        <ele>424.4</ele>
        <time>2013-03-02T09:10:58.000Z</time>
      </trkpt>
      <trkpt lat="47.2694" lon="4.96866">
        <ele>417</ele>
        <time>2013-03-02T09:11:07.000Z</time>
      </trkpt>
      <trkpt lat="47.26937" lon="4.96863">
        <ele>414.2</ele>
        <time>2013-03-02T09:11:11.000Z</time>
      </trkpt>
      <trkpt lat="47.26936" lon="4.96862">
        <ele>414.1</ele>
        <time>2013-03-02T09:11:12.000Z</time>
      </trkpt>
      <trkpt lat="47.26933" lon="4.96861">
        <ele>413.8</ele>
        <time>2013-03-02T09:11:15.000Z</time>
      </trkpt>
      <trkpt lat="47.26932" lon="4.9686">
        <ele>413</ele>
        <time>2013-03-02T09:11:16.000Z</time>
      </trkpt>
      <trkpt lat="47.26929" lon="4.9686">
        <ele>412.1</ele>
        <time>2013-03-02T09:11:18.000Z</time>
      </trkpt>
      <trkpt lat="47.26927" lon="4.96859">
        <ele>411.6</ele>
        <time>2013-03-02T09:11:19.000Z</time>
      </trkpt>
      <trkpt lat="47.26922" lon="4.96859">
        <ele>408.6</ele>
        <time>2013-03-02T09:11:21.000Z</time>
      </trkpt>
      <trkpt lat="47.26921" lon="4.96857">
        <ele>407.9</ele>
        <time>2013-03-02T09:11:22.000Z</time>
      </trkpt>
      <trkpt lat="47.26918" lon="4.96855">
        <ele>404.1</ele>
        <time>2013-03-02T09:11:24.000Z</time>
      </trkpt>
      <trkpt lat="47.26916" lon="4.96855">
        <ele>402.1</ele>
        <time>2013-03-02T09:11:25.000Z</time>
      </trkpt>
      <trkpt lat="47.26913" lon="4.9685">
        <ele>401.5</ele>
        <time>2013-03-02T09:11:37.000Z</time>
      </trkpt>
      <trkpt lat="47.2691" lon="4.96837">
        <ele>400.8</ele>
        <time>2013-03-02T09:11:38.000Z</time>
      </trkpt>
      <trkpt lat="47.26909" lon="4.96837">
        <ele>402.6</ele>
        <time>2013-03-02T09:11:58.000Z</time>
      </trkpt>
      <trkpt lat="47.26915" lon="4.96838">
        <ele>410.1</ele>
        <time>2013-03-02T09:12:06.000Z</time>
      </trkpt>
      <trkpt lat="47.26915" lon="4.96838">
        <ele>410.1</ele>
        <time>2013-03-02T09:12:17.000Z</time>
      </trkpt>
      <trkpt lat="47.26907" lon="4.96834">
        <ele>403.1</ele>
        <time>2013-03-02T09:12:18.000Z</time>
      </trkpt>
      <trkpt lat="47.26909" lon="4.96837">
        <ele>399.6</ele>
        <time>2013-03-02T09:12:34.000Z</time>
      </trkpt>
      <trkpt lat="47.26907" lon="4.96843">
        <ele>392.8</ele>
        <time>2013-03-02T09:12:35.000Z</time>
      </trkpt>
      <trkpt lat="47.26907" lon="4.96847">
        <ele>396.2</ele>
        <time>2013-03-02T09:12:41.000Z</time>
      </trkpt>
      <trkpt lat="47.26906" lon="4.96852">
        <ele>397.2</ele>
        <time>2013-03-02T09:12:42.000Z</time>
      </trkpt>
      <trkpt lat="47.26903" lon="4.96857">
        <ele>398.4</ele>
        <time>2013-03-02T09:12:45.000Z</time>
      </trkpt>
      <trkpt lat="47.26902" lon="4.96858">
        <ele>398.6</ele>
        <time>2013-03-02T09:12:46.000Z</time>
      </trkpt>
      <trkpt lat="47.26899" lon="4.9686">
        <ele>399.2</ele>
        <time>2013-03-02T09:12:48.000Z</time>
      </trkpt>
      <trkpt lat="47.26895" lon="4.9686">
        <ele>399.8</ele>
        <time>2013-03-02T09:12:49.000Z</time>
      </trkpt>
      <trkpt lat="47.26893" lon="4.96865">
        <ele>400.7</ele>
        <time>2013-03-02T09:12:56.000Z</time>
      </trkpt>
      <trkpt lat="47.26893" lon="4.96867">
        <ele>400.7</ele>
        <time>2013-03-02T09:12:57.000Z</time>
      </trkpt>
      <trkpt lat="47.26891" lon="4.96872">
        <ele>400.9</ele>
        <time>2013-03-02T09:13:02.000Z</time>
      </trkpt>
      <trkpt lat="47.2689" lon="4.96873">
        <ele>401.2</ele>
        <time>2013-03-02T09:13:03.000Z</time>
      </trkpt>
      <trkpt lat="47.26887" lon="4.96878">
        <ele>401.8</ele>
        <time>2013-03-02T09:13:07.000Z</time>
      </trkpt>
      <trkpt lat="47.26887" lon="4.96879">
        <ele>402.1</ele>
        <time>2013-03-02T09:13:08.000Z</time>
      </trkpt>
      <trkpt lat="47.26885" lon="4.96884">
        <ele>402.8</ele>
        <time>2013-03-02T09:13:13.000Z</time>
      </trkpt>
      <trkpt lat="47.26883" lon="4.96885">
        <ele>403.3</ele>
        <time>2013-03-02T09:13:14.000Z</time>
      </trkpt>
      <trkpt lat="47.26879" lon="4.9689">
        <ele>403.9</ele>
        <time>2013-03-02T09:13:17.000Z</time>
      </trkpt>
      <trkpt lat="47.26878" lon="4.96891">
        <ele>404.1</ele>
        <time>2013-03-02T09:13:18.000Z</time>
      </trkpt>
      <trkpt lat="47.26876" lon="4.96896">
        <ele>404.5</ele>
        <time>2013-03-02T09:13:20.000Z</time>
      </trkpt>
      <trkpt lat="47.26874" lon="4.96898">
        <ele>404.5</ele>
        <time>2013-03-02T09:13:21.000Z</time>
      </trkpt>
      <trkpt lat="47.26871" lon="4.96903">
        <ele>404.5</ele>
        <time>2013-03-02T09:13:23.000Z</time>
      </trkpt>
      <trkpt lat="47.2687" lon="4.96905">
        <ele>405</ele>
        <time>2013-03-02T09:13:24.000Z</time>
      </trkpt>
      <trkpt lat="47.26868" lon="4.96908">
        <ele>405.7</ele>
        <time>2013-03-02T09:13:26.000Z</time>
      </trkpt>
      <trkpt lat="47.26867" lon="4.96911">
        <ele>406</ele>
        <time>2013-03-02T09:13:27.000Z</time>
      </trkpt>
      <trkpt lat="47.26864" lon="4.96915">
        <ele>406.5</ele>
        <time>2013-03-02T09:13:29.000Z</time>
      </trkpt>
      <trkpt lat="47.26862" lon="4.96917">
        <ele>406.7</ele>
        <time>2013-03-02T09:13:30.000Z</time>
      </trkpt>
      <trkpt lat="47.26861" lon="4.96919">
        <ele>407</ele>
        <time>2013-03-02T09:13:31.000Z</time>
      </trkpt>
      <trkpt lat="47.26859" lon="4.96922">
        <ele>407.1</ele>
        <time>2013-03-02T09:13:32.000Z</time>
      </trkpt>
      <trkpt lat="47.26859" lon="4.96927">
        <ele>407.1</ele>
        <time>2013-03-02T09:13:34.000Z</time>
      </trkpt>
      <trkpt lat="47.26858" lon="4.96929">
        <ele>407.3</ele>
        <time>2013-03-02T09:13:35.000Z</time>
      </trkpt>
      <trkpt lat="47.26857" lon="4.96934">
        <ele>407.7</ele>
        <time>2013-03-02T09:13:37.000Z</time>
      </trkpt>
      <trkpt lat="47.26856" lon="4.96937">
        <ele>407.8</ele>
        <time>2013-03-02T09:13:38.000Z</time>
      </trkpt>
      <trkpt lat="47.26854" lon="4.9694">
        <ele>407.9</ele>
        <time>2013-03-02T09:13:39.000Z</time>
      </trkpt>
      <trkpt lat="47.26852" lon="4.96942">
        <ele>408</ele>
        <time>2013-03-02T09:13:40.000Z</time>
      </trkpt>
      <trkpt lat="47.2685" lon="4.96944">
        <ele>408</ele>
        <time>2013-03-02T09:13:41.000Z</time>
      </trkpt>
      <trkpt lat="47.26849" lon="4.96948">
        <ele>408.4</ele>
        <time>2013-03-02T09:13:42.000Z</time>
      </trkpt>
      <trkpt lat="47.26849" lon="4.96953">
        <ele>408.5</ele>
        <time>2013-03-02T09:13:44.000Z</time>
      </trkpt>
      <trkpt lat="47.26847" lon="4.96955">
        <ele>408.5</ele>
        <time>2013-03-02T09:13:45.000Z</time>
      </trkpt>
      <trkpt lat="47.26845" lon="4.9696">
        <ele>409</ele>
        <time>2013-03-02T09:13:47.000Z</time>
      </trkpt>
      <trkpt lat="47.26844" lon="4.96963">
        <ele>409.2</ele>
        <time>2013-03-02T09:13:48.000Z</time>
      </trkpt>
      <trkpt lat="47.26842" lon="4.96966">
        <ele>409.4</ele>
        <time>2013-03-02T09:13:50.000Z</time>
      </trkpt>
      <trkpt lat="47.2684" lon="4.96969">
        <ele>409.4</ele>
        <time>2013-03-02T09:13:51.000Z</time>
      </trkpt>
      <trkpt lat="47.26838" lon="4.96974">
        <ele>409.7</ele>
        <time>2013-03-02T09:13:53.000Z</time>
      </trkpt>
      <trkpt lat="47.26838" lon="4.96977">
        <ele>409.6</ele>
        <time>2013-03-02T09:13:54.000Z</time>
      </trkpt>
      <trkpt lat="47.26837" lon="4.96982">
        <ele>409.6</ele>
        <time>2013-03-02T09:13:56.000Z</time>
      </trkpt>
      <trkpt lat="47.26836" lon="4.96985">
        <ele>409.5</ele>
        <time>2013-03-02T09:13:57.000Z</time>
      </trkpt>
      <trkpt lat="47.26836" lon="4.96987">
        <ele>409.5</ele>
        <time>2013-03-02T09:13:58.000Z</time>
      </trkpt>
      <trkpt lat="47.26817" lon="4.97047">
        <ele>417</ele>
        <time>2013-03-02T09:14:16.000Z</time>
      </trkpt>
      <trkpt lat="47.26816" lon="4.97049">
        <ele>417.5</ele>
        <time>2013-03-02T09:14:17.000Z</time>
      </trkpt>
      <trkpt lat="47.26815" lon="4.97053">
        <ele>418.6</ele>
        <time>2013-03-02T09:14:18.000Z</time>
      </trkpt>
      <trkpt lat="47.26813" lon="4.97055">
        <ele>418.9</ele>
        <time>2013-03-02T09:14:19.000Z</time>
      </trkpt>
      <trkpt lat="47.26811" lon="4.97059">
        <ele>418.2</ele>
        <time>2013-03-02T09:14:20.000Z</time>
      </trkpt>
      <trkpt lat="47.26811" lon="4.97063">
        <ele>417.4</ele>
        <time>2013-03-02T09:14:21.000Z</time>
      </trkpt>
      <trkpt lat="47.2681" lon="4.97067">
        <ele>415.7</ele>
        <time>2013-03-02T09:14:22.000Z</time>
      </trkpt>
      <trkpt lat="47.26809" lon="4.97071">
        <ele>415.7</ele>
        <time>2013-03-02T09:14:23.000Z</time>
      </trkpt>
      <trkpt lat="47.26809" lon="4.97075">
        <ele>415.7</ele>
        <time>2013-03-02T09:14:24.000Z</time>
      </trkpt>
      <trkpt lat="47.26808" lon="4.97079">
        <ele>413.6</ele>
        <time>2013-03-02T09:14:25.000Z</time>
      </trkpt>
      <trkpt lat="47.26808" lon="4.97082">
        <ele>413.4</ele>
        <time>2013-03-02T09:14:26.000Z</time>
      </trkpt>
      <trkpt lat="47.26805" lon="4.97087">
        <ele>410.9</ele>
        <time>2013-03-02T09:14:28.000Z</time>
      </trkpt>
      <trkpt lat="47.26803" lon="4.9709">
        <ele>408.3</ele>
        <time>2013-03-02T09:14:29.000Z</time>
      </trkpt>
      <trkpt lat="47.268" lon="4.97094">
        <ele>408.7</ele>
        <time>2013-03-02T09:14:31.000Z</time>
      </trkpt>
      <trkpt lat="47.268" lon="4.97097">
        <ele>408.5</ele>
        <time>2013-03-02T09:14:32.000Z</time>
      </trkpt>
      <trkpt lat="47.26798" lon="4.97103">
        <ele>406.9</ele>
        <time>2013-03-02T09:14:34.000Z</time>
      </trkpt>
      <trkpt lat="47.26797" lon="4.97105">
        <ele>407.2</ele>
        <time>2013-03-02T09:14:35.000Z</time>
      </trkpt>
      <trkpt lat="47.26794" lon="4.9711">
        <ele>407.3</ele>
        <time>2013-03-02T09:14:37.000Z</time>
      </trkpt>
      <trkpt lat="47.26794" lon="4.97113">
        <ele>407.5</ele>
        <time>2013-03-02T09:14:38.000Z</time>
      </trkpt>
      <trkpt lat="47.26794" lon="4.97119">
        <ele>407.4</ele>
        <time>2013-03-02T09:14:40.000Z</time>
      </trkpt>
      <trkpt lat="47.26793" lon="4.97122">
        <ele>407.6</ele>
        <time>2013-03-02T09:14:41.000Z</time>
      </trkpt>
      <trkpt lat="47.26793" lon="4.97128">
        <ele>407.6</ele>
        <time>2013-03-02T09:14:43.000Z</time>
      </trkpt>
      <trkpt lat="47.26794" lon="4.97131">
        <ele>407.3</ele>
        <time>2013-03-02T09:14:44.000Z</time>
      </trkpt>
      <trkpt lat="47.26793" lon="4.97136">
        <ele>407.3</ele>
        <time>2013-03-02T09:14:46.000Z</time>
      </trkpt>
      <trkpt lat="47.26792" lon="4.97141">
        <ele>406.9</ele>
        <time>2013-03-02T09:14:47.000Z</time>
      </trkpt>
      <trkpt lat="47.26792" lon="4.97146">
        <ele>406.4</ele>
        <time>2013-03-02T09:14:48.000Z</time>
      </trkpt>
      <trkpt lat="47.26792" lon="4.9715">
        <ele>405.5</ele>
        <time>2013-03-02T09:14:49.000Z</time>
      </trkpt>
      <trkpt lat="47.26792" lon="4.97156">
        <ele>404.4</ele>
        <time>2013-03-02T09:14:51.000Z</time>
      </trkpt>
      <trkpt lat="47.26792" lon="4.9716">
        <ele>403.9</ele>
        <time>2013-03-02T09:14:52.000Z</time>
      </trkpt>
      <trkpt lat="47.26791" lon="4.97166">
        <ele>403.4</ele>
        <time>2013-03-02T09:14:54.000Z</time>
      </trkpt>
      <trkpt lat="47.26791" lon="4.97169">
        <ele>403.1</ele>
        <time>2013-03-02T09:14:55.000Z</time>
      </trkpt>
      <trkpt lat="47.26791" lon="4.97174">
        <ele>403</ele>
        <time>2013-03-02T09:14:57.000Z</time>
      </trkpt>
      <trkpt lat="47.26791" lon="4.97177">
        <ele>402.8</ele>
        <time>2013-03-02T09:14:58.000Z</time>
      </trkpt>
      <trkpt lat="47.26778" lon="4.97232">
        <ele>383.5</ele>
        <time>2013-03-02T09:15:15.000Z</time>
      </trkpt>
      <trkpt lat="47.26778" lon="4.97235">
        <ele>383.8</ele>
        <time>2013-03-02T09:15:16.000Z</time>
      </trkpt>
      <trkpt lat="47.26779" lon="4.97239">
        <ele>384.8</ele>
        <time>2013-03-02T09:15:17.000Z</time>
      </trkpt>
      <trkpt lat="47.26779" lon="4.97242">
        <ele>385.8</ele>
        <time>2013-03-02T09:15:18.000Z</time>
      </trkpt>
      <trkpt lat="47.2678" lon="4.97246">
        <ele>387.1</ele>
        <time>2013-03-02T09:15:19.000Z</time>
      </trkpt>
      <trkpt lat="47.26779" lon="4.97251">
        <ele>387.6</ele>
        <time>2013-03-02T09:15:20.000Z</time>
      </trkpt>
      <trkpt lat="47.26779" lon="4.97255">
        <ele>389.2</ele>
        <time>2013-03-02T09:15:21.000Z</time>
      </trkpt>
      <trkpt lat="47.26777" lon="4.97258">
        <ele>390.6</ele>
        <time>2013-03-02T09:15:22.000Z</time>
      </trkpt>
      <trkpt lat="47.26775" lon="4.97261">
        <ele>391.5</ele>
        <time>2013-03-02T09:15:23.000Z</time>
      </trkpt>
      <trkpt lat="47.26772" lon="4.97263">
        <ele>391.8</ele>
        <time>2013-03-02T09:15:24.000Z</time>
      </trkpt>
      <trkpt lat="47.26768" lon="4.97265">
        <ele>393.3</ele>
        <time>2013-03-02T09:15:25.000Z</time>
      </trkpt>
      <trkpt lat="47.26765" lon="4.97266">
        <ele>394.2</ele>
        <time>2013-03-02T09:15:26.000Z</time>
      </trkpt>
      <trkpt lat="47.26761" lon="4.97268">
        <ele>394.7</ele>
        <time>2013-03-02T09:15:27.000Z</time>
      </trkpt>
      <trkpt lat="47.26758" lon="4.97266">
        <ele>391.9</ele>
        <time>2013-03-02T09:15:29.000Z</time>
      </trkpt>
      <trkpt lat="47.26756" lon="4.97265">
        <ele>390.3</ele>
        <time>2013-03-02T09:15:30.000Z</time>
      </trkpt>
      <trkpt lat="47.26753" lon="4.97264">
        <ele>388.8</ele>
        <time>2013-03-02T09:15:32.000Z</time>
      </trkpt>
      <trkpt lat="47.26751" lon="4.97264">
        <ele>388.8</ele>
        <time>2013-03-02T09:15:33.000Z</time>
      </trkpt>
      <trkpt lat="47.26747" lon="4.97263">
        <ele>388.1</ele>
        <time>2013-03-02T09:15:35.000Z</time>
      </trkpt>
      <trkpt lat="47.26745" lon="4.97264">
        <ele>387.8</ele>
        <time>2013-03-02T09:15:36.000Z</time>
      </trkpt>
      <trkpt lat="47.26741" lon="4.97264">
        <ele>387.6</ele>
        <time>2013-03-02T09:15:38.000Z</time>
      </trkpt>
      <trkpt lat="47.2674" lon="4.97263">
        <ele>387.4</ele>
        <time>2013-03-02T09:15:39.000Z</time>
      </trkpt>
      <trkpt lat="47.26736" lon="4.97264">
        <ele>387.5</ele>
        <time>2013-03-02T09:15:41.000Z</time>
      </trkpt>
      <trkpt lat="47.26734" lon="4.97264">
        <ele>387.7</ele>
        <time>2013-03-02T09:15:42.000Z</time>
      </trkpt>
      <trkpt lat="47.2673" lon="4.97264">
        <ele>387.6</ele>
        <time>2013-03-02T09:15:44.000Z</time>
      </trkpt>
      <trkpt lat="47.26728" lon="4.97263">
        <ele>387.6</ele>
        <time>2013-03-02T09:15:45.000Z</time>
      </trkpt>
      <trkpt lat="47.26725" lon="4.97262">
        <ele>387.6</ele>
        <time>2013-03-02T09:15:47.000Z</time>
      </trkpt>
      <trkpt lat="47.26723" lon="4.97261">
        <ele>387.5</ele>
        <time>2013-03-02T09:15:48.000Z</time>
      </trkpt>
      <trkpt lat="47.2672" lon="4.97259">
        <ele>387.5</ele>
        <time>2013-03-02T09:15:50.000Z</time>
      </trkpt>
      <trkpt lat="47.26719" lon="4.97257">
        <ele>387.6</ele>
        <time>2013-03-02T09:15:51.000Z</time>
      </trkpt>
      <trkpt lat="47.26715" lon="4.97258">
        <ele>388.6</ele>
        <time>2013-03-02T09:15:54.000Z</time>
      </trkpt>
      <trkpt lat="47.26713" lon="4.97258">
        <ele>388.8</ele>
        <time>2013-03-02T09:15:55.000Z</time>
      </trkpt>
      <trkpt lat="47.26711" lon="4.97259">
        <ele>388.8</ele>
        <time>2013-03-02T09:15:58.000Z</time>
      </trkpt>
      <trkpt lat="47.26693" lon="4.97288">
        <ele>390.3</ele>
        <time>2013-03-02T09:16:17.000Z</time>
      </trkpt>
      <trkpt lat="47.2669" lon="4.97291">
        <ele>391.5</ele>
        <time>2013-03-02T09:16:19.000Z</time>
      </trkpt>
      <trkpt lat="47.26687" lon="4.97292">
        <ele>390.3</ele>
        <time>2013-03-02T09:16:20.000Z</time>
      </trkpt>
      <trkpt lat="47.26685" lon="4.97293">
        <ele>389.3</ele>
        <time>2013-03-02T09:16:29.000Z</time>
      </trkpt>
      <trkpt lat="47.26676" lon="4.97292">
        <ele>390.2</ele>
        <time>2013-03-02T09:16:30.000Z</time>
      </trkpt>
      <trkpt lat="47.26675" lon="4.97299">
        <ele>389</ele>
        <time>2013-03-02T09:16:40.000Z</time>
      </trkpt>
      <trkpt lat="47.26676" lon="4.973">
        <ele>388.9</ele>
        <time>2013-03-02T09:16:41.000Z</time>
      </trkpt>
      <trkpt lat="47.26674" lon="4.97294">
        <ele>380.3</ele>
        <time>2013-03-02T09:17:33.000Z</time>
      </trkpt>
      <trkpt lat="47.26674" lon="4.97293">
        <ele>380.4</ele>
        <time>2013-03-02T09:17:34.000Z</time>
      </trkpt>
      <trkpt lat="47.26677" lon="4.97289">
        <ele>381.9</ele>
        <time>2013-03-02T09:17:38.000Z</time>
      </trkpt>
      <trkpt lat="47.26678" lon="4.97288">
        <ele>381.9</ele>
        <time>2013-03-02T09:17:39.000Z</time>
      </trkpt>
      <trkpt lat="47.26681" lon="4.97284">
        <ele>382.3</ele>
        <time>2013-03-02T09:17:43.000Z</time>
      </trkpt>
      <trkpt lat="47.26682" lon="4.97282">
        <ele>382.5</ele>
        <time>2013-03-02T09:17:44.000Z</time>
      </trkpt>
      <trkpt lat="47.26686" lon="4.97279">
        <ele>383.1</ele>
        <time>2013-03-02T09:17:49.000Z</time>
      </trkpt>
      <trkpt lat="47.26686" lon="4.97278">
        <ele>383.3</ele>
        <time>2013-03-02T09:17:50.000Z</time>
      </trkpt>
      <trkpt lat="47.26688" lon="4.97274">
        <ele>383.8</ele>
        <time>2013-03-02T09:17:52.000Z</time>
      </trkpt>
      <trkpt lat="47.26689" lon="4.97272">
        <ele>383.9</ele>
        <time>2013-03-02T09:17:53.000Z</time>
      </trkpt>
      <trkpt lat="47.2669" lon="4.97269">
        <ele>383.9</ele>
        <time>2013-03-02T09:17:54.000Z</time>
      </trkpt>
      <trkpt lat="47.26692" lon="4.97266">
        <ele>383.9</ele>
        <time>2013-03-02T09:17:55.000Z</time>
      </trkpt>
      <trkpt lat="47.26694" lon="4.97263">
        <ele>384.1</ele>
        <time>2013-03-02T09:17:56.000Z</time>
      </trkpt>
      <trkpt lat="47.26696" lon="4.9726">
        <ele>384</ele>
        <time>2013-03-02T09:17:57.000Z</time>
      </trkpt>
      <trkpt lat="47.26698" lon="4.97258">
        <ele>384</ele>
        <time>2013-03-02T09:17:58.000Z</time>
      </trkpt>
      <trkpt lat="47.26754" lon="4.97252">
        <ele>388.1</ele>
        <time>2013-03-02T09:18:17.000Z</time>
      </trkpt>
      <trkpt lat="47.26756" lon="4.97252">
        <ele>387.2</ele>
        <time>2013-03-02T09:18:18.000Z</time>
      </trkpt>
      <trkpt lat="47.26759" lon="4.97253">
        <ele>387.2</ele>
        <time>2013-03-02T09:18:19.000Z</time>
      </trkpt>
      <trkpt lat="47.2676" lon="4.97255">
        <ele>387.7</ele>
        <time>2013-03-02T09:18:20.000Z</time>
      </trkpt>
      <trkpt lat="47.26763" lon="4.97257">
        <ele>389</ele>
        <time>2013-03-02T09:18:21.000Z</time>
      </trkpt>
      <trkpt lat="47.26765" lon="4.97259">
        <ele>388.8</ele>
        <time>2013-03-02T09:18:22.000Z</time>
      </trkpt>
      <trkpt lat="47.26768" lon="4.97262">
        <ele>388.4</ele>
        <time>2013-03-02T09:18:23.000Z</time>
      </trkpt>
      <trkpt lat="47.2677" lon="4.97264">
        <ele>388.6</ele>
        <time>2013-03-02T09:18:24.000Z</time>
      </trkpt>
      <trkpt lat="47.26772" lon="4.97267">
        <ele>388.5</ele>
        <time>2013-03-02T09:18:25.000Z</time>
      </trkpt>
      <trkpt lat="47.26773" lon="4.9727">
        <ele>388.4</ele>
        <time>2013-03-02T09:18:26.000Z</time>
      </trkpt>
      <trkpt lat="47.26774" lon="4.97273">
        <ele>387.2</ele>
        <time>2013-03-02T09:18:27.000Z</time>
      </trkpt>
      <trkpt lat="47.26776" lon="4.97278">
        <ele>387.8</ele>
        <time>2013-03-02T09:18:29.000Z</time>
      </trkpt>
      <trkpt lat="47.26776" lon="4.97281">
        <ele>388.5</ele>
        <time>2013-03-02T09:18:30.000Z</time>
      </trkpt>
      <trkpt lat="47.26775" lon="4.97286">
        <ele>387.6</ele>
        <time>2013-03-02T09:18:32.000Z</time>
      </trkpt>
      <trkpt lat="47.26775" lon="4.97288">
        <ele>387.3</ele>
        <time>2013-03-02T09:18:33.000Z</time>
      </trkpt>
      <trkpt lat="47.26776" lon="4.97293">
        <ele>386.1</ele>
        <time>2013-03-02T09:18:35.000Z</time>
      </trkpt>
      <trkpt lat="47.26777" lon="4.97297">
        <ele>385.6</ele>
        <time>2013-03-02T09:18:36.000Z</time>
      </trkpt>
      <trkpt lat="47.26777" lon="4.97303">
        <ele>386.4</ele>
        <time>2013-03-02T09:18:38.000Z</time>
      </trkpt>
      <trkpt lat="47.26777" lon="4.97306">
        <ele>386.3</ele>
        <time>2013-03-02T09:18:39.000Z</time>
      </trkpt>
      <trkpt lat="47.26777" lon="4.9731">
        <ele>386.3</ele>
        <time>2013-03-02T09:18:40.000Z</time>
      </trkpt>
      <trkpt lat="47.26778" lon="4.97313">
        <ele>386</ele>
        <time>2013-03-02T09:18:41.000Z</time>
      </trkpt>
      <trkpt lat="47.26779" lon="4.97319">
        <ele>385</ele>
        <time>2013-03-02T09:18:43.000Z</time>
      </trkpt>
      <trkpt lat="47.26779" lon="4.97322">
        <ele>384.5</ele>
        <time>2013-03-02T09:18:44.000Z</time>
      </trkpt>
      <trkpt lat="47.26779" lon="4.97328">
        <ele>384.5</ele>
        <time>2013-03-02T09:18:46.000Z</time>
      </trkpt>
      <trkpt lat="47.26778" lon="4.97332">
        <ele>384.3</ele>
        <time>2013-03-02T09:18:47.000Z</time>
      </trkpt>
      <trkpt lat="47.26778" lon="4.97337">
        <ele>384.4</ele>
        <time>2013-03-02T09:18:49.000Z</time>
      </trkpt>
      <trkpt lat="47.26778" lon="4.9734">
        <ele>384</ele>
        <time>2013-03-02T09:18:50.000Z</time>
      </trkpt>
      <trkpt lat="47.26777" lon="4.97346">
        <ele>383.6</ele>
        <time>2013-03-02T09:18:52.000Z</time>
      </trkpt>
      <trkpt lat="47.26776" lon="4.97348">
        <ele>383.4</ele>
        <time>2013-03-02T09:18:53.000Z</time>
      </trkpt>
      <trkpt lat="47.26775" lon="4.97354">
        <ele>383.1</ele>
        <time>2013-03-02T09:18:55.000Z</time>
      </trkpt>
      <trkpt lat="47.26773" lon="4.97358">
        <ele>383.2</ele>
        <time>2013-03-02T09:18:56.000Z</time>
      </trkpt>
      <trkpt lat="47.26771" lon="4.97363">
        <ele>383.6</ele>
        <time>2013-03-02T09:18:58.000Z</time>
      </trkpt>
      <trkpt lat="47.26763" lon="4.97408">
        <ele>379.9</ele>
        <time>2013-03-02T09:19:11.000Z</time>
      </trkpt>
      <trkpt lat="47.26764" lon="4.97412">
        <ele>378.9</ele>
        <time>2013-03-02T09:19:12.000Z</time>
      </trkpt>
      <trkpt lat="47.26765" lon="4.97415">
        <ele>376.7</ele>
        <time>2013-03-02T09:19:13.000Z</time>
      </trkpt>
      <trkpt lat="47.26767" lon="4.97418">
        <ele>373.5</ele>
        <time>2013-03-02T09:19:14.000Z</time>
      </trkpt>
      <trkpt lat="47.26767" lon="4.97421">
        <ele>372</ele>
        <time>2013-03-02T09:19:15.000Z</time>
      </trkpt>
      <trkpt lat="47.26768" lon="4.97424">
        <ele>372.2</ele>
        <time>2013-03-02T09:19:16.000Z</time>
      </trkpt>
      <trkpt lat="47.26769" lon="4.97427">
        <ele>371.2</ele>
        <time>2013-03-02T09:19:17.000Z</time>
      </trkpt>
      <trkpt lat="47.26771" lon="4.97433">
        <ele>368.7</ele>
        <time>2013-03-02T09:19:19.000Z</time>
      </trkpt>
      <trkpt lat="47.26772" lon="4.97436">
        <ele>368.6</ele>
        <time>2013-03-02T09:19:20.000Z</time>
      </trkpt>
      <trkpt lat="47.26773" lon="4.97439">
        <ele>368.6</ele>
        <time>2013-03-02T09:19:21.000Z</time>
      </trkpt>
      <trkpt lat="47.26774" lon="4.97443">
        <ele>367.1</ele>
        <time>2013-03-02T09:19:22.000Z</time>
      </trkpt>
      <trkpt lat="47.26774" lon="4.97446">
        <ele>367</ele>
        <time>2013-03-02T09:19:23.000Z</time>
      </trkpt>
      <trkpt lat="47.26774" lon="4.9745">
        <ele>367.2</ele>
        <time>2013-03-02T09:19:24.000Z</time>
      </trkpt>
      <trkpt lat="47.26774" lon="4.97456">
        <ele>366.8</ele>
        <time>2013-03-02T09:19:26.000Z</time>
      </trkpt>
      <trkpt lat="47.26774" lon="4.97459">
        <ele>366.8</ele>
        <time>2013-03-02T09:19:27.000Z</time>
      </trkpt>
      <trkpt lat="47.26774" lon="4.97464">
        <ele>368.2</ele>
        <time>2013-03-02T09:19:29.000Z</time>
      </trkpt>
      <trkpt lat="47.26775" lon="4.97467">
        <ele>367.9</ele>
        <time>2013-03-02T09:19:30.000Z</time>
      </trkpt>
      <trkpt lat="47.26776" lon="4.9747">
        <ele>368.8</ele>
        <time>2013-03-02T09:19:31.000Z</time>
      </trkpt>
      <trkpt lat="47.26776" lon="4.97473">
        <ele>368.7</ele>
        <time>2013-03-02T09:19:32.000Z</time>
      </trkpt>
      <trkpt lat="47.26777" lon="4.97477">
        <ele>368.5</ele>
        <time>2013-03-02T09:19:33.000Z</time>
      </trkpt>
      <trkpt lat="47.26778" lon="4.9748">
        <ele>368.6</ele>
        <time>2013-03-02T09:19:34.000Z</time>
      </trkpt>
      <trkpt lat="47.26778" lon="4.97484">
        <ele>368.6</ele>
        <time>2013-03-02T09:19:35.000Z</time>
      </trkpt>
      <trkpt lat="47.26778" lon="4.97487">
        <ele>368.3</ele>
        <time>2013-03-02T09:19:36.000Z</time>
      </trkpt>
      <trkpt lat="47.26778" lon="4.9749">
        <ele>368.4</ele>
        <time>2013-03-02T09:19:37.000Z</time>
      </trkpt>
      <trkpt lat="47.26779" lon="4.97494">
        <ele>368.4</ele>
        <time>2013-03-02T09:19:38.000Z</time>
      </trkpt>
      <trkpt lat="47.2678" lon="4.97497">
        <ele>368.6</ele>
        <time>2013-03-02T09:19:39.000Z</time>
      </trkpt>
      <trkpt lat="47.2678" lon="4.97501">
        <ele>368.2</ele>
        <time>2013-03-02T09:19:40.000Z</time>
      </trkpt>
      <trkpt lat="47.26781" lon="4.97504">
        <ele>367.9</ele>
        <time>2013-03-02T09:19:41.000Z</time>
      </trkpt>
      <trkpt lat="47.26781" lon="4.97507">
        <ele>368</ele>
        <time>2013-03-02T09:19:42.000Z</time>
      </trkpt>
      <trkpt lat="47.26783" lon="4.9751">
        <ele>368.2</ele>
        <time>2013-03-02T09:19:43.000Z</time>
      </trkpt>
      <trkpt lat="47.26784" lon="4.97514">
        <ele>368.3</ele>
        <time>2013-03-02T09:19:44.000Z</time>
      </trkpt>
      <trkpt lat="47.26785" lon="4.97518">
        <ele>368.3</ele>
        <time>2013-03-02T09:19:45.000Z</time>
      </trkpt>
      <trkpt lat="47.26786" lon="4.97521">
        <ele>367.9</ele>
        <time>2013-03-02T09:19:46.000Z</time>
      </trkpt>
      <trkpt lat="47.26787" lon="4.97527">
        <ele>367.3</ele>
        <time>2013-03-02T09:19:48.000Z</time>
      </trkpt>
      <trkpt lat="47.26787" lon="4.9753">
        <ele>367.1</ele>
        <time>2013-03-02T09:19:49.000Z</time>
      </trkpt>
      <trkpt lat="47.26785" lon="4.97536">
        <ele>366.6</ele>
        <time>2013-03-02T09:19:52.000Z</time>
      </trkpt>
      <trkpt lat="47.26786" lon="4.97537">
        <ele>366</ele>
        <time>2013-03-02T09:19:53.000Z</time>
      </trkpt>
      <trkpt lat="47.2679" lon="4.97537">
        <ele>364.9</ele>
        <time>2013-03-02T09:19:57.000Z</time>
      </trkpt>
      <trkpt lat="47.26791" lon="4.97536">
        <ele>364.9</ele>
        <time>2013-03-02T09:19:58.000Z</time>
      </trkpt>
      <trkpt lat="47.26797" lon="4.97534">
        <ele>368.3</ele>
        <time>2013-03-02T09:20:05.000Z</time>
      </trkpt>
      <trkpt lat="47.268" lon="4.97532">
        <ele>367.2</ele>
        <time>2013-03-02T09:20:08.000Z</time>
      </trkpt>
      <trkpt lat="47.26801" lon="4.97532">
        <ele>367.5</ele>
        <time>2013-03-02T09:20:09.000Z</time>
      </trkpt>
      <trkpt lat="47.26805" lon="4.97531">
        <ele>368.3</ele>
        <time>2013-03-02T09:20:12.000Z</time>
      </trkpt>
      <trkpt lat="47.26806" lon="4.97529">
        <ele>368.7</ele>
        <time>2013-03-02T09:20:13.000Z</time>
      </trkpt>
      <trkpt lat="47.26808" lon="4.97525">
        <ele>369.4</ele>
        <time>2013-03-02T09:20:15.000Z</time>
      </trkpt>
      <trkpt lat="47.26809" lon="4.97523">
        <ele>369.6</ele>
        <time>2013-03-02T09:20:16.000Z</time>
      </trkpt>
      <trkpt lat="47.26812" lon="4.97519">
        <ele>370.6</ele>
        <time>2013-03-02T09:20:18.000Z</time>
      </trkpt>
      <trkpt lat="47.26813" lon="4.97516">
        <ele>371</ele>
        <time>2013-03-02T09:20:19.000Z</time>
      </trkpt>
      <trkpt lat="47.26816" lon="4.97512">
        <ele>372.2</ele>
        <time>2013-03-02T09:20:21.000Z</time>
      </trkpt>
      <trkpt lat="47.26817" lon="4.9751">
        <ele>372.5</ele>
        <time>2013-03-02T09:20:22.000Z</time>
      </trkpt>
      <trkpt lat="47.26821" lon="4.9751">
        <ele>373.5</ele>
        <time>2013-03-02T09:20:24.000Z</time>
      </trkpt>
      <trkpt lat="47.26822" lon="4.97511">
        <ele>374.3</ele>
        <time>2013-03-02T09:20:25.000Z</time>
      </trkpt>
      <trkpt lat="47.26825" lon="4.97514">
        <ele>375.4</ele>
        <time>2013-03-02T09:20:28.000Z</time>
      </trkpt>
      <trkpt lat="47.26826" lon="4.97515">
        <ele>376.2</ele>
        <time>2013-03-02T09:20:29.000Z</time>
      </trkpt>
      <trkpt lat="47.26828" lon="4.97519">
        <ele>374.9</ele>
        <time>2013-03-02T09:20:31.000Z</time>
      </trkpt>
      <trkpt lat="47.26829" lon="4.9752">
        <ele>374.8</ele>
        <time>2013-03-02T09:20:32.000Z</time>
      </trkpt>
      <trkpt lat="47.26831" lon="4.97523">
        <ele>374.6</ele>
        <time>2013-03-02T09:20:34.000Z</time>
      </trkpt>
      <trkpt lat="47.26833" lon="4.97525">
        <ele>374.6</ele>
        <time>2013-03-02T09:20:35.000Z</time>
      </trkpt>
      <trkpt lat="47.26836" lon="4.97528">
        <ele>374.8</ele>
        <time>2013-03-02T09:20:37.000Z</time>
      </trkpt>
      <trkpt lat="47.26838" lon="4.9753">
        <ele>375</ele>
        <time>2013-03-02T09:20:38.000Z</time>
      </trkpt>
      <trkpt lat="47.26842" lon="4.97533">
        <ele>375.3</ele>
        <time>2013-03-02T09:20:40.000Z</time>
      </trkpt>
      <trkpt lat="47.26843" lon="4.97534">
        <ele>375.3</ele>
        <time>2013-03-02T09:20:41.000Z</time>
      </trkpt>
      <trkpt lat="47.26846" lon="4.97536">
        <ele>375.6</ele>
        <time>2013-03-02T09:20:43.000Z</time>
      </trkpt>
      <trkpt lat="47.26848" lon="4.97537">
        <ele>375.6</ele>
        <time>2013-03-02T09:20:44.000Z</time>
      </trkpt>
      <trkpt lat="47.26852" lon="4.9754">
        <ele>375.5</ele>
        <time>2013-03-02T09:20:46.000Z</time>
      </trkpt>
      <trkpt lat="47.26854" lon="4.97541">
        <ele>375.4</ele>
        <time>2013-03-02T09:20:47.000Z</time>
      </trkpt>
      <trkpt lat="47.26857" lon="4.97542">
        <ele>375.7</ele>
        <time>2013-03-02T09:20:49.000Z</time>
      </trkpt>
      <trkpt lat="47.26859" lon="4.97542">
        <ele>375.8</ele>
        <time>2013-03-02T09:20:50.000Z</time>
      </trkpt>
      <trkpt lat="47.26863" lon="4.97545">
        <ele>375.9</ele>
        <time>2013-03-02T09:20:52.000Z</time>
      </trkpt>
      <trkpt lat="47.26864" lon="4.97546">
        <ele>376</ele>
        <time>2013-03-02T09:20:53.000Z</time>
      </trkpt>
      <trkpt lat="47.26867" lon="4.97548">
        <ele>376.1</ele>
        <time>2013-03-02T09:20:55.000Z</time>
      </trkpt>
      <trkpt lat="47.26869" lon="4.97549">
        <ele>376.1</ele>
        <time>2013-03-02T09:20:56.000Z</time>
      </trkpt>
      <trkpt lat="47.26873" lon="4.97551">
        <ele>376.2</ele>
        <time>2013-03-02T09:20:58.000Z</time>
      </trkpt>
      <trkpt lat="47.26886" lon="4.97557">
        <ele>381.2</ele>
        <time>2013-03-02T09:21:06.000Z</time>
      </trkpt>
      <trkpt lat="47.26889" lon="4.97559">
        <ele>380.7</ele>
        <time>2013-03-02T09:21:08.000Z</time>
      </trkpt>
      <trkpt lat="47.26891" lon="4.9756">
        <ele>381</ele>
        <time>2013-03-02T09:21:09.000Z</time>
      </trkpt>
      <trkpt lat="47.26894" lon="4.97562">
        <ele>382.2</ele>
        <time>2013-03-02T09:21:11.000Z</time>
      </trkpt>
      <trkpt lat="47.26895" lon="4.97564">
        <ele>382.1</ele>
        <time>2013-03-02T09:21:12.000Z</time>
      </trkpt>
      <trkpt lat="47.26898" lon="4.97566">
        <ele>383.2</ele>
        <time>2013-03-02T09:21:14.000Z</time>
      </trkpt>
      <trkpt lat="47.269" lon="4.97568">
        <ele>383.2</ele>
        <time>2013-03-02T09:21:15.000Z</time>
      </trkpt>
      <trkpt lat="47.26904" lon="4.9757">
        <ele>382.1</ele>
        <time>2013-03-02T09:21:17.000Z</time>
      </trkpt>
      <trkpt lat="47.26906" lon="4.97572">
        <ele>381.9</ele>
        <time>2013-03-02T09:21:18.000Z</time>
      </trkpt>
      <trkpt lat="47.26909" lon="4.97573">
        <ele>381.4</ele>
        <time>2013-03-02T09:21:19.000Z</time>
      </trkpt>
      <trkpt lat="47.26911" lon="4.97574">
        <ele>381.3</ele>
        <time>2013-03-02T09:21:20.000Z</time>
      </trkpt>
      <trkpt lat="47.26914" lon="4.97576">
        <ele>380.7</ele>
        <time>2013-03-02T09:21:22.000Z</time>
      </trkpt>
      <trkpt lat="47.26916" lon="4.97576">
        <ele>381</ele>
        <time>2013-03-02T09:21:23.000Z</time>
      </trkpt>
      <trkpt lat="47.2692" lon="4.97577">
        <ele>380.1</ele>
        <time>2013-03-02T09:21:25.000Z</time>
      </trkpt>
      <trkpt lat="47.26922" lon="4.97578">
        <ele>379.8</ele>
        <time>2013-03-02T09:21:26.000Z</time>
      </trkpt>
      <trkpt lat="47.26926" lon="4.97579">
        <ele>379.7</ele>
        <time>2013-03-02T09:21:28.000Z</time>
      </trkpt>
      <trkpt lat="47.26928" lon="4.9758">
        <ele>379.9</ele>
        <time>2013-03-02T09:21:29.000Z</time>
      </trkpt>
      <trkpt lat="47.26931" lon="4.97581">
        <ele>379.7</ele>
        <time>2013-03-02T09:21:30.000Z</time>
      </trkpt>
      <trkpt lat="47.26933" lon="4.97582">
        <ele>379.8</ele>
        <time>2013-03-02T09:21:31.000Z</time>
      </trkpt>
      <trkpt lat="47.26937" lon="4.97583">
        <ele>379.2</ele>
        <time>2013-03-02T09:21:33.000Z</time>
      </trkpt>
      <trkpt lat="47.26939" lon="4.97584">
        <ele>379.1</ele>
        <time>2013-03-02T09:21:34.000Z</time>
      </trkpt>
      <trkpt lat="47.26943" lon="4.97586">
        <ele>379.3</ele>
        <time>2013-03-02T09:21:36.000Z</time>
      </trkpt>
      <trkpt lat="47.26945" lon="4.97587">
        <ele>379.2</ele>
        <time>2013-03-02T09:21:37.000Z</time>
      </trkpt>
      <trkpt lat="47.26948" lon="4.97589">
        <ele>379.6</ele>
        <time>2013-03-02T09:21:39.000Z</time>
      </trkpt>
      <trkpt lat="47.26949" lon="4.97589">
        <ele>379.8</ele>
        <time>2013-03-02T09:21:40.000Z</time>
      </trkpt>
      <trkpt lat="47.26953" lon="4.97591">
        <ele>380</ele>
        <time>2013-03-02T09:21:42.000Z</time>
      </trkpt>
      <trkpt lat="47.26955" lon="4.97592">
        <ele>380.1</ele>
        <time>2013-03-02T09:21:43.000Z</time>
      </trkpt>
      <trkpt lat="47.26958" lon="4.97594">
        <ele>380.2</ele>
        <time>2013-03-02T09:21:45.000Z</time>
      </trkpt>
      <trkpt lat="47.2696" lon="4.97596">
        <ele>380.2</ele>
        <time>2013-03-02T09:21:46.000Z</time>
      </trkpt>
      <trkpt lat="47.26963" lon="4.97599">
        <ele>380.6</ele>
        <time>2013-03-02T09:21:48.000Z</time>
      </trkpt>
      <trkpt lat="47.26964" lon="4.97601">
        <ele>380.8</ele>
        <time>2013-03-02T09:21:49.000Z</time>
      </trkpt>
      <trkpt lat="47.26967" lon="4.97604">
        <ele>381.1</ele>
        <time>2013-03-02T09:21:52.000Z</time>
      </trkpt>
      <trkpt lat="47.26968" lon="4.97604">
        <ele>381.3</ele>
        <time>2013-03-02T09:21:53.000Z</time>
      </trkpt>
      <trkpt lat="47.26971" lon="4.97605">
        <ele>382.4</ele>
        <time>2013-03-02T09:21:58.000Z</time>
      </trkpt>
      <trkpt lat="47.26978" lon="4.97606">
        <ele>372.8</ele>
        <time>2013-03-02T09:22:06.000Z</time>
      </trkpt>
      <trkpt lat="47.26978" lon="4.97601">
        <ele>373.5</ele>
        <time>2013-03-02T09:22:09.000Z</time>
      </trkpt>
      <trkpt lat="47.26978" lon="4.97599">
        <ele>373.3</ele>
        <time>2013-03-02T09:22:10.000Z</time>
      </trkpt>
      <trkpt lat="47.2698" lon="4.97593">
        <ele>377.2</ele>
        <time>2013-03-02T09:22:15.000Z</time>
      </trkpt>
      <trkpt lat="47.2698" lon="4.97592">
        <ele>378.1</ele>
        <time>2013-03-02T09:22:16.000Z</time>
      </trkpt>
      <trkpt lat="47.26982" lon="4.97587">
        <ele>383</ele>
        <time>2013-03-02T09:22:20.000Z</time>
      </trkpt>
      <trkpt lat="47.26983" lon="4.97585">
        <ele>383.7</ele>
        <time>2013-03-02T09:22:21.000Z</time>
      </trkpt>
      <trkpt lat="47.26985" lon="4.9758">
        <ele>384</ele>
        <time>2013-03-02T09:22:23.000Z</time>
      </trkpt>
      <trkpt lat="47.26986" lon="4.97578">
        <ele>384.5</ele>
        <time>2013-03-02T09:22:24.000Z</time>
      </trkpt>
      <trkpt lat="47.26988" lon="4.97574">
        <ele>385.1</ele>
        <time>2013-03-02T09:22:26.000Z</time>
      </trkpt>
      <trkpt lat="47.26989" lon="4.97573">
        <ele>386.2</ele>
        <time>2013-03-02T09:22:27.000Z</time>
      </trkpt>
      <trkpt lat="47.26991" lon="4.97569">
        <ele>388.8</ele>
        <time>2013-03-02T09:22:30.000Z</time>
      </trkpt>
      <trkpt lat="47.26992" lon="4.97567">
        <ele>388.7</ele>
        <time>2013-03-02T09:22:31.000Z</time>
      </trkpt>
      <trkpt lat="47.26994" lon="4.97564">
        <ele>388.7</ele>
        <time>2013-03-02T09:22:33.000Z</time>
      </trkpt>
      <trkpt lat="47.26995" lon="4.97562">
        <ele>388.5</ele>
        <time>2013-03-02T09:22:34.000Z</time>
      </trkpt>
      <trkpt lat="47.26997" lon="4.97557">
        <ele>388.6</ele>
        <time>2013-03-02T09:22:36.000Z</time>
      </trkpt>
      <trkpt lat="47.26998" lon="4.97556">
        <ele>389.1</ele>
        <time>2013-03-02T09:22:37.000Z</time>
      </trkpt>
      <trkpt lat="47.27" lon="4.97552">
        <ele>389.4</ele>
        <time>2013-03-02T09:22:39.000Z</time>
      </trkpt>
      <trkpt lat="47.27001" lon="4.9755">
        <ele>389.8</ele>
        <time>2013-03-02T09:22:40.000Z</time>
      </trkpt>
      <trkpt lat="47.27003" lon="4.97547">
        <ele>390.2</ele>
        <time>2013-03-02T09:22:42.000Z</time>
      </trkpt>
      <trkpt lat="47.27004" lon="4.97545">
        <ele>390</ele>
        <time>2013-03-02T09:22:43.000Z</time>
      </trkpt>
      <trkpt lat="47.27007" lon="4.9754">
        <ele>390.4</ele>
        <time>2013-03-02T09:22:46.000Z</time>
      </trkpt>
      <trkpt lat="47.27008" lon="4.97538">
        <ele>390.7</ele>
        <time>2013-03-02T09:22:47.000Z</time>
      </trkpt>
      <trkpt lat="47.2701" lon="4.97534">
        <ele>391.4</ele>
        <time>2013-03-02T09:22:50.000Z</time>
      </trkpt>
      <trkpt lat="47.27011" lon="4.97532">
        <ele>391.7</ele>
        <time>2013-03-02T09:22:51.000Z</time>
      </trkpt>
      <trkpt lat="47.27013" lon="4.97529">
        <ele>391.9</ele>
        <time>2013-03-02T09:22:53.000Z</time>
      </trkpt>
      <trkpt lat="47.27014" lon="4.97527">
        <ele>391.9</ele>
        <time>2013-03-02T09:22:54.000Z</time>
      </trkpt>
      <trkpt lat="47.27016" lon="4.97524">
        <ele>392.2</ele>
        <time>2013-03-02T09:22:56.000Z</time>
      </trkpt>
      <trkpt lat="47.27017" lon="4.97522">
        <ele>392.3</ele>
        <time>2013-03-02T09:22:57.000Z</time>
      </trkpt>
      <trkpt lat="47.27018" lon="4.9752">
        <ele>392.4</ele>
        <time>2013-03-02T09:22:58.000Z</time>
      </trkpt>
      <trkpt lat="47.27024" lon="4.97511">
        <ele>401.2</ele>
        <time>2013-03-02T09:23:05.000Z</time>
      </trkpt>
      <trkpt lat="47.27026" lon="4.97508">
        <ele>401.6</ele>
        <time>2013-03-02T09:23:07.000Z</time>
      </trkpt>
      <trkpt lat="47.27027" lon="4.97505">
        <ele>401.1</ele>
        <time>2013-03-02T09:23:08.000Z</time>
      </trkpt>
      <trkpt lat="47.2703" lon="4.97501">
        <ele>401.7</ele>
        <time>2013-03-02T09:23:11.000Z</time>
      </trkpt>
      <trkpt lat="47.27031" lon="4.975">
        <ele>401.1</ele>
        <time>2013-03-02T09:23:12.000Z</time>
      </trkpt>
      <trkpt lat="47.27036" lon="4.97497">
        <ele>402.1</ele>
        <time>2013-03-02T09:23:15.000Z</time>
      </trkpt>
      <trkpt lat="47.27037" lon="4.97496">
        <ele>401.8</ele>
        <time>2013-03-02T09:23:16.000Z</time>
      </trkpt>
      <trkpt lat="47.27041" lon="4.97495">
        <ele>403.1</ele>
        <time>2013-03-02T09:23:19.000Z</time>
      </trkpt>
      <trkpt lat="47.27042" lon="4.97494">
        <ele>403.4</ele>
        <time>2013-03-02T09:23:20.000Z</time>
      </trkpt>
      <trkpt lat="47.27045" lon="4.97491">
        <ele>403.8</ele>
        <time>2013-03-02T09:23:23.000Z</time>
      </trkpt>
      <trkpt lat="47.27046" lon="4.97491">
        <ele>403.9</ele>
        <time>2013-03-02T09:23:24.000Z</time>
      </trkpt>
      <trkpt lat="47.2705" lon="4.97489">
        <ele>404.2</ele>
        <time>2013-03-02T09:23:27.000Z</time>
      </trkpt>
      <trkpt lat="47.27052" lon="4.97489">
        <ele>404.4</ele>
        <time>2013-03-02T09:23:28.000Z</time>
      </trkpt>
      <trkpt lat="47.27055" lon="4.97487">
        <ele>404.3</ele>
        <time>2013-03-02T09:23:30.000Z</time>
      </trkpt>
      <trkpt lat="47.27056" lon="4.97487">
        <ele>404.3</ele>
        <time>2013-03-02T09:23:31.000Z</time>
      </trkpt>
      <trkpt lat="47.27061" lon="4.97485">
        <ele>404.3</ele>
        <time>2013-03-02T09:23:34.000Z</time>
      </trkpt>
      <trkpt lat="47.27062" lon="4.97485">
        <ele>404.2</ele>
        <time>2013-03-02T09:23:35.000Z</time>
      </trkpt>
      <trkpt lat="47.27065" lon="4.97484">
        <ele>403.6</ele>
        <time>2013-03-02T09:23:37.000Z</time>
      </trkpt>
      <trkpt lat="47.27067" lon="4.97483">
        <ele>403.5</ele>
        <time>2013-03-02T09:23:38.000Z</time>
      </trkpt>
      <trkpt lat="47.27071" lon="4.97482">
        <ele>403.2</ele>
        <time>2013-03-02T09:23:41.000Z</time>
      </trkpt>
      <trkpt lat="47.27073" lon="4.97482">
        <ele>403.1</ele>
        <time>2013-03-02T09:23:42.000Z</time>
      </trkpt>
      <trkpt lat="47.27077" lon="4.9748">
        <ele>402.7</ele>
        <time>2013-03-02T09:23:45.000Z</time>
      </trkpt>
      <trkpt lat="47.27078" lon="4.9748">
        <ele>402.7</ele>
        <time>2013-03-02T09:23:46.000Z</time>
      </trkpt>
      <trkpt lat="47.27082" lon="4.97479">
        <ele>402.7</ele>
        <time>2013-03-02T09:23:49.000Z</time>
      </trkpt>
      <trkpt lat="47.27084" lon="4.97478">
        <ele>402.8</ele>
        <time>2013-03-02T09:23:50.000Z</time>
      </trkpt>
      <trkpt lat="47.27088" lon="4.97479">
        <ele>402.9</ele>
        <time>2013-03-02T09:23:53.000Z</time>
      </trkpt>
      <trkpt lat="47.2709" lon="4.97479">
        <ele>403.1</ele>
        <time>2013-03-02T09:23:54.000Z</time>
      </trkpt>
      <trkpt lat="47.27094" lon="4.97481">
        <ele>403.6</ele>
        <time>2013-03-02T09:23:57.000Z</time>
      </trkpt>
      <trkpt lat="47.27095" lon="4.97482">
        <ele>403.7</ele>
        <time>2013-03-02T09:23:58.000Z</time>
      </trkpt>
      <trkpt lat="47.27102" lon="4.97488">
        <ele>408.1</ele>
        <time>2013-03-02T09:24:05.000Z</time>
      </trkpt>
      <trkpt lat="47.27105" lon="4.97489">
        <ele>408.7</ele>
        <time>2013-03-02T09:24:07.000Z</time>
      </trkpt>
      <trkpt lat="47.27107" lon="4.9749">
        <ele>408.8</ele>
        <time>2013-03-02T09:24:08.000Z</time>
      </trkpt>
      <trkpt lat="47.2711" lon="4.97492">
        <ele>408.7</ele>
        <time>2013-03-02T09:24:10.000Z</time>
      </trkpt>
      <trkpt lat="47.27112" lon="4.97493">
        <ele>408.5</ele>
        <time>2013-03-02T09:24:11.000Z</time>
      </trkpt>
      <trkpt lat="47.27116" lon="4.97494">
        <ele>408.8</ele>
        <time>2013-03-02T09:24:13.000Z</time>
      </trkpt>
      <trkpt lat="47.27118" lon="4.97494">
        <ele>408.7</ele>
        <time>2013-03-02T09:24:14.000Z</time>
      </trkpt>
      <trkpt lat="47.27121" lon="4.97495">
        <ele>408</ele>
        <time>2013-03-02T09:24:16.000Z</time>
      </trkpt>
      <trkpt lat="47.27123" lon="4.97495">
        <ele>407.7</ele>
        <time>2013-03-02T09:24:17.000Z</time>
      </trkpt>
      <trkpt lat="47.27126" lon="4.97494">
        <ele>407.2</ele>
        <time>2013-03-02T09:24:19.000Z</time>
      </trkpt>
      <trkpt lat="47.27127" lon="4.97493">
        <ele>407.1</ele>
        <time>2013-03-02T09:24:20.000Z</time>
      </trkpt>
      <trkpt lat="47.2713" lon="4.9749">
        <ele>407.4</ele>
        <time>2013-03-02T09:24:23.000Z</time>
      </trkpt>
      <trkpt lat="47.27131" lon="4.97489">
        <ele>407.6</ele>
        <time>2013-03-02T09:24:24.000Z</time>
      </trkpt>
      <trkpt lat="47.27133" lon="4.97485">
        <ele>408.8</ele>
        <time>2013-03-02T09:24:27.000Z</time>
      </trkpt>
      <trkpt lat="47.27134" lon="4.97483">
        <ele>409.2</ele>
        <time>2013-03-02T09:24:28.000Z</time>
      </trkpt>
      <trkpt lat="47.27135" lon="4.97478">
        <ele>409.4</ele>
        <time>2013-03-02T09:24:31.000Z</time>
      </trkpt>
      <trkpt lat="47.27135" lon="4.97475">
        <ele>409.4</ele>
        <time>2013-03-02T09:24:32.000Z</time>
      </trkpt>
      <trkpt lat="47.27137" lon="4.9747">
        <ele>409.8</ele>
        <time>2013-03-02T09:24:35.000Z</time>
      </trkpt>
      <trkpt lat="47.27137" lon="4.97468">
        <ele>410</ele>
        <time>2013-03-02T09:24:36.000Z</time>
      </trkpt>
      <trkpt lat="47.27138" lon="4.97462">
        <ele>410.6</ele>
        <time>2013-03-02T09:24:39.000Z</time>
      </trkpt>
      <trkpt lat="47.27138" lon="4.9746">
        <ele>410.8</ele>
        <time>2013-03-02T09:24:40.000Z</time>
      </trkpt>
      <trkpt lat="47.27139" lon="4.97454">
        <ele>411.4</ele>
        <time>2013-03-02T09:24:43.000Z</time>
      </trkpt>
      <trkpt lat="47.27139" lon="4.97453">
        <ele>411.5</ele>
        <time>2013-03-02T09:24:44.000Z</time>
      </trkpt>
      <trkpt lat="47.27139" lon="4.97447">
        <ele>412.2</ele>
        <time>2013-03-02T09:24:47.000Z</time>
      </trkpt>
      <trkpt lat="47.27139" lon="4.97445">
        <ele>412.4</ele>
        <time>2013-03-02T09:24:48.000Z</time>
      </trkpt>
      <trkpt lat="47.27141" lon="4.9744">
        <ele>413.1</ele>
        <time>2013-03-02T09:24:51.000Z</time>
      </trkpt>
      <trkpt lat="47.27142" lon="4.97438">
        <ele>413.4</ele>
        <time>2013-03-02T09:24:52.000Z</time>
      </trkpt>
      <trkpt lat="47.27144" lon="4.97432">
        <ele>414.1</ele>
        <time>2013-03-02T09:24:56.000Z</time>
      </trkpt>
      <trkpt lat="47.27144" lon="4.97431">
        <ele>414.4</ele>
        <time>2013-03-02T09:24:57.000Z</time>
      </trkpt>
      <trkpt lat="47.27145" lon="4.97429">
        <ele>414.6</ele>
        <time>2013-03-02T09:24:58.000Z</time>
      </trkpt>
      <trkpt lat="47.27146" lon="4.97418">
        <ele>422.9</ele>
        <time>2013-03-02T09:25:05.000Z</time>
      </trkpt>
      <trkpt lat="47.27148" lon="4.97413">
        <ele>423.2</ele>
        <time>2013-03-02T09:25:08.000Z</time>
      </trkpt>
      <trkpt lat="47.27148" lon="4.97412">
        <ele>423.6</ele>
        <time>2013-03-02T09:25:09.000Z</time>
      </trkpt>
      <trkpt lat="47.27149" lon="4.97407">
        <ele>423.9</ele>
        <time>2013-03-02T09:25:13.000Z</time>
      </trkpt>
      <trkpt lat="47.2715" lon="4.97406">
        <ele>424.4</ele>
        <time>2013-03-02T09:25:14.000Z</time>
      </trkpt>
      <trkpt lat="47.27151" lon="4.974">
        <ele>427.4</ele>
        <time>2013-03-02T09:25:19.000Z</time>
      </trkpt>
      <trkpt lat="47.27151" lon="4.97399">
        <ele>427.7</ele>
        <time>2013-03-02T09:25:20.000Z</time>
      </trkpt>
      <trkpt lat="47.27152" lon="4.97393">
        <ele>429.6</ele>
        <time>2013-03-02T09:25:24.000Z</time>
      </trkpt>
      <trkpt lat="47.27152" lon="4.97392">
        <ele>430.3</ele>
        <time>2013-03-02T09:25:25.000Z</time>
      </trkpt>
      <trkpt lat="47.27154" lon="4.97387">
        <ele>430.9</ele>
        <time>2013-03-02T09:25:29.000Z</time>
      </trkpt>
      <trkpt lat="47.27154" lon="4.97385">
        <ele>431</ele>
        <time>2013-03-02T09:25:30.000Z</time>
      </trkpt>
      <trkpt lat="47.27156" lon="4.9738">
        <ele>431.5</ele>
        <time>2013-03-02T09:25:33.000Z</time>
      </trkpt>
      <trkpt lat="47.27156" lon="4.97378">
        <ele>431.4</ele>
        <time>2013-03-02T09:25:34.000Z</time>
      </trkpt>
      <trkpt lat="47.27158" lon="4.97373">
        <ele>431.4</ele>
        <time>2013-03-02T09:25:37.000Z</time>
      </trkpt>
      <trkpt lat="47.27158" lon="4.97372">
        <ele>431.5</ele>
        <time>2013-03-02T09:25:38.000Z</time>
      </trkpt>
      <trkpt lat="47.27159" lon="4.97366">
        <ele>431.6</ele>
        <time>2013-03-02T09:25:42.000Z</time>
      </trkpt>
      <trkpt lat="47.2716" lon="4.97364">
        <ele>431.5</ele>
        <time>2013-03-02T09:25:43.000Z</time>
      </trkpt>
      <trkpt lat="47.27161" lon="4.97359">
        <ele>431.2</ele>
        <time>2013-03-02T09:25:46.000Z</time>
      </trkpt>
      <trkpt lat="47.27162" lon="4.97358">
        <ele>431</ele>
        <time>2013-03-02T09:25:47.000Z</time>
      </trkpt>
      <trkpt lat="47.27163" lon="4.97353">
        <ele>430.8</ele>
        <time>2013-03-02T09:25:54.000Z</time>
      </trkpt>
      <trkpt lat="47.27163" lon="4.97351">
        <ele>430.8</ele>
        <time>2013-03-02T09:25:55.000Z</time>
      </trkpt>
      <trkpt lat="47.27164" lon="4.97347">
        <ele>431.3</ele>
        <time>2013-03-02T09:25:58.000Z</time>
      </trkpt>
      <trkpt lat="47.27165" lon="4.97339">
        <ele>440.7</ele>
        <time>2013-03-02T09:26:05.000Z</time>
      </trkpt>
      <trkpt lat="47.27166" lon="4.97335">
        <ele>440.4</ele>
        <time>2013-03-02T09:26:08.000Z</time>
      </trkpt>
      <trkpt lat="47.27167" lon="4.97332">
        <ele>439</ele>
        <time>2013-03-02T09:26:09.000Z</time>
      </trkpt>
      <trkpt lat="47.27168" lon="4.97327">
        <ele>440.1</ele>
        <time>2013-03-02T09:26:13.000Z</time>
      </trkpt>
      <trkpt lat="47.27169" lon="4.97325">
        <ele>439.4</ele>
        <time>2013-03-02T09:26:14.000Z</time>
      </trkpt>
      <trkpt lat="47.27171" lon="4.97319">
        <ele>437.6</ele>
        <time>2013-03-02T09:26:29.000Z</time>
      </trkpt>
      <trkpt lat="47.27171" lon="4.97318">
        <ele>437.8</ele>
        <time>2013-03-02T09:26:30.000Z</time>
      </trkpt>
      <trkpt lat="47.27173" lon="4.97313">
        <ele>438.7</ele>
        <time>2013-03-02T09:26:36.000Z</time>
      </trkpt>
      <trkpt lat="47.27173" lon="4.97312">
        <ele>438.8</ele>
        <time>2013-03-02T09:26:37.000Z</time>
      </trkpt>
      <trkpt lat="47.27175" lon="4.97306">
        <ele>440.3</ele>
        <time>2013-03-02T09:26:43.000Z</time>
      </trkpt>
      <trkpt lat="47.27175" lon="4.97305">
        <ele>440.7</ele>
        <time>2013-03-02T09:26:44.000Z</time>
      </trkpt>
      <trkpt lat="47.27177" lon="4.973">
        <ele>441.2</ele>
        <time>2013-03-02T09:26:48.000Z</time>
      </trkpt>
      <trkpt lat="47.27177" lon="4.97298">
        <ele>441.5</ele>
        <time>2013-03-02T09:26:49.000Z</time>
      </trkpt>
      <trkpt lat="47.27179" lon="4.97293">
        <ele>441.6</ele>
        <time>2013-03-02T09:26:52.000Z</time>
      </trkpt>
      <trkpt lat="47.27179" lon="4.97292">
        <ele>441.6</ele>
        <time>2013-03-02T09:26:53.000Z</time>
      </trkpt>
      <trkpt lat="47.27181" lon="4.97287">
        <ele>441.9</ele>
        <time>2013-03-02T09:26:57.000Z</time>
      </trkpt>
      <trkpt lat="47.27181" lon="4.97286">
        <ele>441.8</ele>
        <time>2013-03-02T09:26:58.000Z</time>
      </trkpt>
      <trkpt lat="47.27179" lon="4.97281">
        <ele>447.4</ele>
        <time>2013-03-02T09:27:05.000Z</time>
      </trkpt>
      <trkpt lat="47.27181" lon="4.97274">
        <ele>449.1</ele>
        <time>2013-03-02T09:27:06.000Z</time>
      </trkpt>
      <trkpt lat="47.27183" lon="4.97268">
        <ele>449.7</ele>
        <time>2013-03-02T09:27:12.000Z</time>
      </trkpt>
      <trkpt lat="47.27183" lon="4.97267">
        <ele>450</ele>
        <time>2013-03-02T09:27:13.000Z</time>
      </trkpt>
      <trkpt lat="47.27184" lon="4.9726">
        <ele>451.7</ele>
        <time>2013-03-02T09:27:18.000Z</time>
      </trkpt>
      <trkpt lat="47.27184" lon="4.97258">
        <ele>451.9</ele>
        <time>2013-03-02T09:27:19.000Z</time>
      </trkpt>
      <trkpt lat="47.27185" lon="4.97253">
        <ele>452.5</ele>
        <time>2013-03-02T09:27:22.000Z</time>
      </trkpt>
      <trkpt lat="47.27185" lon="4.97252">
        <ele>453</ele>
        <time>2013-03-02T09:27:23.000Z</time>
      </trkpt>
      <trkpt lat="47.27186" lon="4.97247">
        <ele>453.9</ele>
        <time>2013-03-02T09:27:26.000Z</time>
      </trkpt>
      <trkpt lat="47.27187" lon="4.97245">
        <ele>453.8</ele>
        <time>2013-03-02T09:27:27.000Z</time>
      </trkpt>
      <trkpt lat="47.27188" lon="4.97239">
        <ele>454.7</ele>
        <time>2013-03-02T09:27:30.000Z</time>
      </trkpt>
      <trkpt lat="47.27188" lon="4.97237">
        <ele>454.9</ele>
        <time>2013-03-02T09:27:31.000Z</time>
      </trkpt>
      <trkpt lat="47.2719" lon="4.97232">
        <ele>455.2</ele>
        <time>2013-03-02T09:27:34.000Z</time>
      </trkpt>
      <trkpt lat="47.27191" lon="4.9723">
        <ele>455.1</ele>
        <time>2013-03-02T09:27:35.000Z</time>
      </trkpt>
      <trkpt lat="47.27193" lon="4.97225">
        <ele>454.8</ele>
        <time>2013-03-02T09:27:38.000Z</time>
      </trkpt>
      <trkpt lat="47.27194" lon="4.97224">
        <ele>454.6</ele>
        <time>2013-03-02T09:27:39.000Z</time>
      </trkpt>
      <trkpt lat="47.27195" lon="4.97218">
        <ele>454.3</ele>
        <time>2013-03-02T09:27:45.000Z</time>
      </trkpt>
      <trkpt lat="47.27195" lon="4.97216">
        <ele>454.2</ele>
        <time>2013-03-02T09:27:46.000Z</time>
      </trkpt>
      <trkpt lat="47.27195" lon="4.9721">
        <ele>454.3</ele>
        <time>2013-03-02T09:27:49.000Z</time>
      </trkpt>
      <trkpt lat="47.27195" lon="4.97208">
        <ele>454.4</ele>
        <time>2013-03-02T09:27:50.000Z</time>
      </trkpt>
      <trkpt lat="47.27195" lon="4.97203">
        <ele>454.6</ele>
        <time>2013-03-02T09:27:53.000Z</time>
      </trkpt>
      <trkpt lat="47.27195" lon="4.97201">
        <ele>454.7</ele>
        <time>2013-03-02T09:27:54.000Z</time>
      </trkpt>
      <trkpt lat="47.27195" lon="4.97196">
        <ele>455.2</ele>
        <time>2013-03-02T09:27:57.000Z</time>
      </trkpt>
      <trkpt lat="47.27195" lon="4.97194">
        <ele>455.3</ele>
        <time>2013-03-02T09:27:58.000Z</time>
      </trkpt>
      <trkpt lat="47.27198" lon="4.97176">
        <ele>457.6</ele>
        <time>2013-03-02T09:28:05.000Z</time>
      </trkpt>
      <trkpt lat="47.27196" lon="4.97171">
        <ele>459.5</ele>
        <time>2013-03-02T09:28:10.000Z</time>
      </trkpt>
      <trkpt lat="47.27196" lon="4.97168">
        <ele>460.1</ele>
        <time>2013-03-02T09:28:11.000Z</time>
      </trkpt>
      <trkpt lat="47.27196" lon="4.97164">
        <ele>462.6</ele>
        <time>2013-03-02T09:28:14.000Z</time>
      </trkpt>
      <trkpt lat="47.27196" lon="4.97161">
        <ele>462.8</ele>
        <time>2013-03-02T09:28:15.000Z</time>
      </trkpt>
      <trkpt lat="47.27197" lon="4.97157">
        <ele>463.6</ele>
        <time>2013-03-02T09:28:17.000Z</time>
      </trkpt>
      <trkpt lat="47.27197" lon="4.97155">
        <ele>463.9</ele>
        <time>2013-03-02T09:28:18.000Z</time>
      </trkpt>
      <trkpt lat="47.27198" lon="4.9715">
        <ele>463.6</ele>
        <time>2013-03-02T09:28:20.000Z</time>
      </trkpt>
      <trkpt lat="47.27199" lon="4.97148">
        <ele>463.4</ele>
        <time>2013-03-02T09:28:21.000Z</time>
      </trkpt>
      <trkpt lat="47.272" lon="4.97142">
        <ele>463.4</ele>
        <time>2013-03-02T09:28:24.000Z</time>
      </trkpt>
      <trkpt lat="47.272" lon="4.97141">
        <ele>463.6</ele>
        <time>2013-03-02T09:28:25.000Z</time>
      </trkpt>
      <trkpt lat="47.272" lon="4.97136">
        <ele>464.3</ele>
        <time>2013-03-02T09:28:28.000Z</time>
      </trkpt>
      <trkpt lat="47.27201" lon="4.97134">
        <ele>464.2</ele>
        <time>2013-03-02T09:28:29.000Z</time>
      </trkpt>
      <trkpt lat="47.27201" lon="4.97128">
        <ele>464.8</ele>
        <time>2013-03-02T09:28:33.000Z</time>
      </trkpt>
      <trkpt lat="47.27202" lon="4.97126">
        <ele>464.8</ele>
        <time>2013-03-02T09:28:34.000Z</time>
      </trkpt>
      <trkpt lat="47.27203" lon="4.97121">
        <ele>464.7</ele>
        <time>2013-03-02T09:28:37.000Z</time>
      </trkpt>
      <trkpt lat="47.27203" lon="4.97119">
        <ele>464.4</ele>
        <time>2013-03-02T09:28:38.000Z</time>
      </trkpt>
      <trkpt lat="47.27204" lon="4.97114">
        <ele>463.7</ele>
        <time>2013-03-02T09:28:41.000Z</time>
      </trkpt>
      <trkpt lat="47.27204" lon="4.97113">
        <ele>463.7</ele>
        <time>2013-03-02T09:28:42.000Z</time>
      </trkpt>
      <trkpt lat="47.27205" lon="4.97107">
        <ele>464.3</ele>
        <time>2013-03-02T09:28:46.000Z</time>
      </trkpt>
      <trkpt lat="47.27206" lon="4.97106">
        <ele>464.5</ele>
        <time>2013-03-02T09:28:47.000Z</time>
      </trkpt>
      <trkpt lat="47.27206" lon="4.971">
        <ele>464.9</ele>
        <time>2013-03-02T09:28:52.000Z</time>
      </trkpt>
      <trkpt lat="47.27206" lon="4.97099">
        <ele>464.9</ele>
        <time>2013-03-02T09:28:53.000Z</time>
      </trkpt>
      <trkpt lat="47.27206" lon="4.97093">
        <ele>464.9</ele>
        <time>2013-03-02T09:28:56.000Z</time>
      </trkpt>
      <trkpt lat="47.27207" lon="4.97091">
        <ele>464.8</ele>
        <time>2013-03-02T09:28:57.000Z</time>
      </trkpt>
      <trkpt lat="47.27207" lon="4.97089">
        <ele>464.7</ele>
        <time>2013-03-02T09:28:58.000Z</time>
      </trkpt>
      <trkpt lat="47.27206" lon="4.97067">
        <ele>471.5</ele>
        <time>2013-03-02T09:29:05.000Z</time>
      </trkpt>
      <trkpt lat="47.27208" lon="4.97062">
        <ele>468.4</ele>
        <time>2013-03-02T09:29:08.000Z</time>
      </trkpt>
      <trkpt lat="47.27208" lon="4.9706">
        <ele>468</ele>
        <time>2013-03-02T09:29:09.000Z</time>
      </trkpt>
      <trkpt lat="47.27208" lon="4.97054">
        <ele>468.6</ele>
        <time>2013-03-02T09:29:13.000Z</time>
      </trkpt>
      <trkpt lat="47.27208" lon="4.97052">
        <ele>468.6</ele>
        <time>2013-03-02T09:29:14.000Z</time>
      </trkpt>
      <trkpt lat="47.27208" lon="4.97046">
        <ele>468.9</ele>
        <time>2013-03-02T09:29:17.000Z</time>
      </trkpt>
      <trkpt lat="47.27207" lon="4.97044">
        <ele>468.9</ele>
        <time>2013-03-02T09:29:18.000Z</time>
      </trkpt>
      <trkpt lat="47.27208" lon="4.97039">
        <ele>467.8</ele>
        <time>2013-03-02T09:29:23.000Z</time>
      </trkpt>
      <trkpt lat="47.27208" lon="4.97037">
        <ele>467.6</ele>
        <time>2013-03-02T09:29:24.000Z</time>
      </trkpt>
      <trkpt lat="47.27208" lon="4.97031">
        <ele>467.7</ele>
        <time>2013-03-02T09:29:30.000Z</time>
      </trkpt>
      <trkpt lat="47.27208" lon="4.9703">
        <ele>467.9</ele>
        <time>2013-03-02T09:29:31.000Z</time>
      </trkpt>
      <trkpt lat="47.27207" lon="4.97027">
        <ele>467.9</ele>
        <time>2013-03-02T09:29:58.000Z</time>
      </trkpt>
      <trkpt lat="47.27214" lon="4.97015">
        <ele>469.2</ele>
        <time>2013-03-02T09:30:05.000Z</time>
      </trkpt>
      <trkpt lat="47.27215" lon="4.97012">
        <ele>466.5</ele>
        <time>2013-03-02T09:30:06.000Z</time>
      </trkpt>
      <trkpt lat="47.27216" lon="4.97009">
        <ele>464.5</ele>
        <time>2013-03-02T09:30:07.000Z</time>
      </trkpt>
      <trkpt lat="47.27215" lon="4.97007">
        <ele>461.2</ele>
        <time>2013-03-02T09:31:17.000Z</time>
      </trkpt>
      <trkpt lat="47.2721" lon="4.97014">
        <ele>467.9</ele>
        <time>2013-03-02T09:31:18.000Z</time>
      </trkpt>
      <trkpt lat="47.27214" lon="4.97018">
        <ele>468.3</ele>
        <time>2013-03-02T09:32:14.000Z</time>
      </trkpt>
      <trkpt lat="47.27215" lon="4.97019">
        <ele>468.4</ele>
        <time>2013-03-02T09:32:15.000Z</time>
      </trkpt>
      <trkpt lat="47.27218" lon="4.97021">
        <ele>469.3</ele>
        <time>2013-03-02T09:32:18.000Z</time>
      </trkpt>
      <trkpt lat="47.27219" lon="4.97022">
        <ele>469.7</ele>
        <time>2013-03-02T09:32:19.000Z</time>
      </trkpt>
      <trkpt lat="47.27223" lon="4.97024">
        <ele>470.6</ele>
        <time>2013-03-02T09:32:25.000Z</time>
      </trkpt>
      <trkpt lat="47.27224" lon="4.97025">
        <ele>470.6</ele>
        <time>2013-03-02T09:32:26.000Z</time>
      </trkpt>
      <trkpt lat="47.27227" lon="4.97027">
        <ele>471</ele>
        <time>2013-03-02T09:32:28.000Z</time>
      </trkpt>
      <trkpt lat="47.27229" lon="4.97028">
        <ele>471.1</ele>
        <time>2013-03-02T09:32:29.000Z</time>
      </trkpt>
      <trkpt lat="47.27232" lon="4.9703">
        <ele>471.6</ele>
        <time>2013-03-02T09:32:32.000Z</time>
      </trkpt>
      <trkpt lat="47.27234" lon="4.97031">
        <ele>471.9</ele>
        <time>2013-03-02T09:32:33.000Z</time>
      </trkpt>
      <trkpt lat="47.27237" lon="4.97032">
        <ele>472.4</ele>
        <time>2013-03-02T09:32:35.000Z</time>
      </trkpt>
      <trkpt lat="47.27238" lon="4.97033">
        <ele>472.6</ele>
        <time>2013-03-02T09:32:36.000Z</time>
      </trkpt>
      <trkpt lat="47.27241" lon="4.97035">
        <ele>473</ele>
        <time>2013-03-02T09:32:38.000Z</time>
      </trkpt>
      <trkpt lat="47.27243" lon="4.97036">
        <ele>473.1</ele>
        <time>2013-03-02T09:32:39.000Z</time>
      </trkpt>
      <trkpt lat="47.27247" lon="4.97037">
        <ele>473.3</ele>
        <time>2013-03-02T09:32:42.000Z</time>
      </trkpt>
      <trkpt lat="47.27248" lon="4.97038">
        <ele>473.4</ele>
        <time>2013-03-02T09:32:43.000Z</time>
      </trkpt>
      <trkpt lat="47.27251" lon="4.9704">
        <ele>473.4</ele>
        <time>2013-03-02T09:32:45.000Z</time>
      </trkpt>
      <trkpt lat="47.27252" lon="4.97041">
        <ele>473.6</ele>
        <time>2013-03-02T09:32:46.000Z</time>
      </trkpt>
      <trkpt lat="47.27256" lon="4.97044">
        <ele>474.1</ele>
        <time>2013-03-02T09:32:49.000Z</time>
      </trkpt>
      <trkpt lat="47.27258" lon="4.97044">
        <ele>474.3</ele>
        <time>2013-03-02T09:32:50.000Z</time>
      </trkpt>
      <trkpt lat="47.27262" lon="4.97047">
        <ele>474.6</ele>
        <time>2013-03-02T09:32:53.000Z</time>
      </trkpt>
      <trkpt lat="47.27263" lon="4.97048">
        <ele>474.7</ele>
        <time>2013-03-02T09:32:54.000Z</time>
      </trkpt>
      <trkpt lat="47.27266" lon="4.9705">
        <ele>474.7</ele>
        <time>2013-03-02T09:32:56.000Z</time>
      </trkpt>
      <trkpt lat="47.27268" lon="4.97051">
        <ele>474.6</ele>
        <time>2013-03-02T09:32:57.000Z</time>
      </trkpt>
      <trkpt lat="47.27269" lon="4.97051">
        <ele>474.8</ele>
        <time>2013-03-02T09:32:58.000Z</time>
      </trkpt>
      <trkpt lat="47.27279" lon="4.97057">
        <ele>469.6</ele>
        <time>2013-03-02T09:33:05.000Z</time>
      </trkpt>
      <trkpt lat="47.27282" lon="4.97059">
        <ele>470.8</ele>
        <time>2013-03-02T09:33:07.000Z</time>
      </trkpt>
      <trkpt lat="47.27284" lon="4.9706">
        <ele>472.3</ele>
        <time>2013-03-02T09:33:08.000Z</time>
      </trkpt>
      <trkpt lat="47.27287" lon="4.97062">
        <ele>474.2</ele>
        <time>2013-03-02T09:33:11.000Z</time>
      </trkpt>
      <trkpt lat="47.27288" lon="4.97062">
        <ele>474.7</ele>
        <time>2013-03-02T09:33:12.000Z</time>
      </trkpt>
      <trkpt lat="47.27291" lon="4.97063">
        <ele>476.6</ele>
        <time>2013-03-02T09:33:15.000Z</time>
      </trkpt>
      <trkpt lat="47.27293" lon="4.97064">
        <ele>477</ele>
        <time>2013-03-02T09:33:16.000Z</time>
      </trkpt>
      <trkpt lat="47.27296" lon="4.97066">
        <ele>477.9</ele>
        <time>2013-03-02T09:33:19.000Z</time>
      </trkpt>
      <trkpt lat="47.27298" lon="4.97067">
        <ele>477.7</ele>
        <time>2013-03-02T09:33:20.000Z</time>
      </trkpt>
      <trkpt lat="47.27302" lon="4.9707">
        <ele>477.8</ele>
        <time>2013-03-02T09:33:23.000Z</time>
      </trkpt>
      <trkpt lat="47.27303" lon="4.97071">
        <ele>477.4</ele>
        <time>2013-03-02T09:33:24.000Z</time>
      </trkpt>
      <trkpt lat="47.27307" lon="4.97073">
        <ele>476.4</ele>
        <time>2013-03-02T09:33:27.000Z</time>
      </trkpt>
      <trkpt lat="47.27308" lon="4.97074">
        <ele>476.6</ele>
        <time>2013-03-02T09:33:28.000Z</time>
      </trkpt>
      <trkpt lat="47.27312" lon="4.97078">
        <ele>477.1</ele>
        <time>2013-03-02T09:33:31.000Z</time>
      </trkpt>
      <trkpt lat="47.27314" lon="4.97079">
        <ele>477.7</ele>
        <time>2013-03-02T09:33:32.000Z</time>
      </trkpt>
      <trkpt lat="47.27317" lon="4.97081">
        <ele>477.9</ele>
        <time>2013-03-02T09:33:35.000Z</time>
      </trkpt>
      <trkpt lat="47.27319" lon="4.97081">
        <ele>478.2</ele>
        <time>2013-03-02T09:33:36.000Z</time>
      </trkpt>
      <trkpt lat="47.27322" lon="4.97083">
        <ele>477.3</ele>
        <time>2013-03-02T09:33:39.000Z</time>
      </trkpt>
      <trkpt lat="47.27324" lon="4.97084">
        <ele>477.1</ele>
        <time>2013-03-02T09:33:40.000Z</time>
      </trkpt>
      <trkpt lat="47.27327" lon="4.97085">
        <ele>476.8</ele>
        <time>2013-03-02T09:33:43.000Z</time>
      </trkpt>
      <trkpt lat="47.27328" lon="4.97086">
        <ele>477.1</ele>
        <time>2013-03-02T09:33:44.000Z</time>
      </trkpt>
      <trkpt lat="47.27332" lon="4.97089">
        <ele>477.4</ele>
        <time>2013-03-02T09:33:47.000Z</time>
      </trkpt>
      <trkpt lat="47.27333" lon="4.9709">
        <ele>477.4</ele>
        <time>2013-03-02T09:33:48.000Z</time>
      </trkpt>
      <trkpt lat="47.27337" lon="4.97092">
        <ele>477.6</ele>
        <time>2013-03-02T09:33:51.000Z</time>
      </trkpt>
      <trkpt lat="47.27338" lon="4.97093">
        <ele>477.6</ele>
        <time>2013-03-02T09:33:52.000Z</time>
      </trkpt>
      <trkpt lat="47.27341" lon="4.97094">
        <ele>477.3</ele>
        <time>2013-03-02T09:33:54.000Z</time>
      </trkpt>
      <trkpt lat="47.27343" lon="4.97096">
        <ele>477.4</ele>
        <time>2013-03-02T09:33:55.000Z</time>
      </trkpt>
      <trkpt lat="47.27346" lon="4.97097">
        <ele>476.9</ele>
        <time>2013-03-02T09:33:57.000Z</time>
      </trkpt>
      <trkpt lat="47.27348" lon="4.97098">
        <ele>476.9</ele>
        <time>2013-03-02T09:33:58.000Z</time>
      </trkpt>
      <trkpt lat="47.2736" lon="4.97105">
        <ele>476.6</ele>
        <time>2013-03-02T09:34:05.000Z</time>
      </trkpt>
      <trkpt lat="47.27364" lon="4.97108">
        <ele>476</ele>
        <time>2013-03-02T09:34:07.000Z</time>
      </trkpt>
      <trkpt lat="47.27365" lon="4.97109">
        <ele>476.3</ele>
        <time>2013-03-02T09:34:08.000Z</time>
      </trkpt>
      <trkpt lat="47.27369" lon="4.9711">
        <ele>476.9</ele>
        <time>2013-03-02T09:34:11.000Z</time>
      </trkpt>
      <trkpt lat="47.2737" lon="4.97111">
        <ele>477.4</ele>
        <time>2013-03-02T09:34:12.000Z</time>
      </trkpt>
      <trkpt lat="47.27374" lon="4.97111">
        <ele>478.7</ele>
        <time>2013-03-02T09:34:14.000Z</time>
      </trkpt>
      <trkpt lat="47.27375" lon="4.9711">
        <ele>479.1</ele>
        <time>2013-03-02T09:34:15.000Z</time>
      </trkpt>
      <trkpt lat="47.27379" lon="4.97107">
        <ele>479.7</ele>
        <time>2013-03-02T09:34:20.000Z</time>
      </trkpt>
      <trkpt lat="47.27379" lon="4.97106">
        <ele>480.2</ele>
        <time>2013-03-02T09:34:21.000Z</time>
      </trkpt>
      <trkpt lat="47.27382" lon="4.97102">
        <ele>481.7</ele>
        <time>2013-03-02T09:34:26.000Z</time>
      </trkpt>
      <trkpt lat="47.27383" lon="4.971">
        <ele>482.1</ele>
        <time>2013-03-02T09:34:27.000Z</time>
      </trkpt>
      <trkpt lat="47.27384" lon="4.97095">
        <ele>482.4</ele>
        <time>2013-03-02T09:34:31.000Z</time>
      </trkpt>
      <trkpt lat="47.27385" lon="4.97093">
        <ele>481.7</ele>
        <time>2013-03-02T09:34:32.000Z</time>
      </trkpt>
      <trkpt lat="47.27386" lon="4.97089">
        <ele>480.9</ele>
        <time>2013-03-02T09:34:45.000Z</time>
      </trkpt>
      <trkpt lat="47.27388" lon="4.97086">
        <ele>480.1</ele>
        <time>2013-03-02T09:34:46.000Z</time>
      </trkpt>
      <trkpt lat="47.27389" lon="4.97081">
        <ele>481.2</ele>
        <time>2013-03-02T09:34:50.000Z</time>
      </trkpt>
      <trkpt lat="47.27389" lon="4.97079">
        <ele>481.4</ele>
        <time>2013-03-02T09:34:51.000Z</time>
      </trkpt>
      <trkpt lat="47.27391" lon="4.97073">
        <ele>482</ele>
        <time>2013-03-02T09:34:54.000Z</time>
      </trkpt>
      <trkpt lat="47.27392" lon="4.97071">
        <ele>482</ele>
        <time>2013-03-02T09:34:55.000Z</time>
      </trkpt>
      <trkpt lat="47.27392" lon="4.97067">
        <ele>482</ele>
        <time>2013-03-02T09:34:57.000Z</time>
      </trkpt>
      <trkpt lat="47.27393" lon="4.97064">
        <ele>482.1</ele>
        <time>2013-03-02T09:34:58.000Z</time>
      </trkpt>
      <trkpt lat="47.27399" lon="4.97038">
        <ele>488.8</ele>
        <time>2013-03-02T09:35:05.000Z</time>
      </trkpt>
      <trkpt lat="47.274" lon="4.97033">
        <ele>489.7</ele>
        <time>2013-03-02T09:35:07.000Z</time>
      </trkpt>
      <trkpt lat="47.27401" lon="4.97031">
        <ele>489.2</ele>
        <time>2013-03-02T09:35:08.000Z</time>
      </trkpt>
      <trkpt lat="47.27401" lon="4.97025">
        <ele>489.7</ele>
        <time>2013-03-02T09:35:11.000Z</time>
      </trkpt>
      <trkpt lat="47.27402" lon="4.97022">
        <ele>490.1</ele>
        <time>2013-03-02T09:35:12.000Z</time>
      </trkpt>
      <trkpt lat="47.27403" lon="4.97016">
        <ele>491.2</ele>
        <time>2013-03-02T09:35:16.000Z</time>
      </trkpt>
      <trkpt lat="47.27404" lon="4.97014">
        <ele>490.9</ele>
        <time>2013-03-02T09:35:17.000Z</time>
      </trkpt>
      <trkpt lat="47.27405" lon="4.9701">
        <ele>490.2</ele>
        <time>2013-03-02T09:35:19.000Z</time>
      </trkpt>
      <trkpt lat="47.27405" lon="4.97006">
        <ele>490.3</ele>
        <time>2013-03-02T09:35:20.000Z</time>
      </trkpt>
      <trkpt lat="47.27406" lon="4.97001">
        <ele>488.9</ele>
        <time>2013-03-02T09:35:22.000Z</time>
      </trkpt>
      <trkpt lat="47.27407" lon="4.96998">
        <ele>488.7</ele>
        <time>2013-03-02T09:35:23.000Z</time>
      </trkpt>
      <trkpt lat="47.27408" lon="4.96992">
        <ele>489.4</ele>
        <time>2013-03-02T09:35:25.000Z</time>
      </trkpt>
      <trkpt lat="47.27409" lon="4.96989">
        <ele>489.7</ele>
        <time>2013-03-02T09:35:26.000Z</time>
      </trkpt>
      <trkpt lat="47.2741" lon="4.96985">
        <ele>490.3</ele>
        <time>2013-03-02T09:35:28.000Z</time>
      </trkpt>
      <trkpt lat="47.27411" lon="4.96983">
        <ele>491.2</ele>
        <time>2013-03-02T09:35:29.000Z</time>
      </trkpt>
      <trkpt lat="47.27413" lon="4.96978">
        <ele>490</ele>
        <time>2013-03-02T09:35:31.000Z</time>
      </trkpt>
      <trkpt lat="47.27413" lon="4.96976">
        <ele>489.8</ele>
        <time>2013-03-02T09:35:32.000Z</time>
      </trkpt>
      <trkpt lat="47.27415" lon="4.96971">
        <ele>489.3</ele>
        <time>2013-03-02T09:35:34.000Z</time>
      </trkpt>
      <trkpt lat="47.27415" lon="4.9697">
        <ele>489.4</ele>
        <time>2013-03-02T09:35:35.000Z</time>
      </trkpt>
      <trkpt lat="47.27416" lon="4.96965">
        <ele>490.6</ele>
        <time>2013-03-02T09:35:38.000Z</time>
      </trkpt>
      <trkpt lat="47.27417" lon="4.96963">
        <ele>490.8</ele>
        <time>2013-03-02T09:35:39.000Z</time>
      </trkpt>
      <trkpt lat="47.27418" lon="4.96957">
        <ele>491.6</ele>
        <time>2013-03-02T09:35:42.000Z</time>
      </trkpt>
      <trkpt lat="47.27419" lon="4.96954">
        <ele>491.4</ele>
        <time>2013-03-02T09:35:43.000Z</time>
      </trkpt>
      <trkpt lat="47.2742" lon="4.96948">
        <ele>491.1</ele>
        <time>2013-03-02T09:35:45.000Z</time>
      </trkpt>
      <trkpt lat="47.2742" lon="4.96945">
        <ele>491</ele>
        <time>2013-03-02T09:35:46.000Z</time>
      </trkpt>
      <trkpt lat="47.27422" lon="4.9694">
        <ele>490.9</ele>
        <time>2013-03-02T09:35:48.000Z</time>
      </trkpt>
      <trkpt lat="47.27423" lon="4.96937">
        <ele>491.1</ele>
        <time>2013-03-02T09:35:49.000Z</time>
      </trkpt>
      <trkpt lat="47.27425" lon="4.96931">
        <ele>491.2</ele>
        <time>2013-03-02T09:35:51.000Z</time>
      </trkpt>
      <trkpt lat="47.27425" lon="4.96928">
        <ele>491.1</ele>
        <time>2013-03-02T09:35:52.000Z</time>
      </trkpt>
      <trkpt lat="47.27425" lon="4.96923">
        <ele>491.1</ele>
        <time>2013-03-02T09:35:54.000Z</time>
      </trkpt>
      <trkpt lat="47.27426" lon="4.96921">
        <ele>491.3</ele>
        <time>2013-03-02T09:35:55.000Z</time>
      </trkpt>
      <trkpt lat="47.27428" lon="4.96917">
        <ele>491.2</ele>
        <time>2013-03-02T09:35:57.000Z</time>
      </trkpt>
      <trkpt lat="47.27429" lon="4.96913">
        <ele>491.1</ele>
        <time>2013-03-02T09:35:58.000Z</time>
      </trkpt>
      <trkpt lat="47.27439" lon="4.96884">
        <ele>494.9</ele>
        <time>2013-03-02T09:36:06.000Z</time>
      </trkpt>
      <trkpt lat="47.2744" lon="4.9688">
        <ele>493.7</ele>
        <time>2013-03-02T09:36:08.000Z</time>
      </trkpt>
      <trkpt lat="47.27441" lon="4.96876">
        <ele>492.5</ele>
        <time>2013-03-02T09:36:09.000Z</time>
      </trkpt>
      <trkpt lat="47.27442" lon="4.9687">
        <ele>491.1</ele>
        <time>2013-03-02T09:36:12.000Z</time>
      </trkpt>
      <trkpt lat="47.27442" lon="4.96868">
        <ele>491.7</ele>
        <time>2013-03-02T09:36:13.000Z</time>
      </trkpt>
      <trkpt lat="47.27444" lon="4.96863">
        <ele>493.1</ele>
        <time>2013-03-02T09:36:15.000Z</time>
      </trkpt>
      <trkpt lat="47.27444" lon="4.96862">
        <ele>493.3</ele>
        <time>2013-03-02T09:36:16.000Z</time>
      </trkpt>
      <trkpt lat="47.27446" lon="4.96857">
        <ele>492.9</ele>
        <time>2013-03-02T09:36:18.000Z</time>
      </trkpt>
      <trkpt lat="47.27447" lon="4.96855">
        <ele>492.8</ele>
        <time>2013-03-02T09:36:19.000Z</time>
      </trkpt>
      <trkpt lat="47.27448" lon="4.96849">
        <ele>491.4</ele>
        <time>2013-03-02T09:36:21.000Z</time>
      </trkpt>
      <trkpt lat="47.27448" lon="4.96847">
        <ele>491.4</ele>
        <time>2013-03-02T09:36:22.000Z</time>
      </trkpt>
      <trkpt lat="47.2745" lon="4.96841">
        <ele>491</ele>
        <time>2013-03-02T09:36:24.000Z</time>
      </trkpt>
      <trkpt lat="47.27451" lon="4.96839">
        <ele>492.5</ele>
        <time>2013-03-02T09:36:25.000Z</time>
      </trkpt>
      <trkpt lat="47.27453" lon="4.96834">
        <ele>493.2</ele>
        <time>2013-03-02T09:36:27.000Z</time>
      </trkpt>
      <trkpt lat="47.27454" lon="4.96831">
        <ele>493.6</ele>
        <time>2013-03-02T09:36:28.000Z</time>
      </trkpt>
      <trkpt lat="47.27456" lon="4.96825">
        <ele>493.5</ele>
        <time>2013-03-02T09:36:30.000Z</time>
      </trkpt>
      <trkpt lat="47.27457" lon="4.96823">
        <ele>492.6</ele>
        <time>2013-03-02T09:36:31.000Z</time>
      </trkpt>
      <trkpt lat="47.27458" lon="4.96819">
        <ele>491.9</ele>
        <time>2013-03-02T09:36:33.000Z</time>
      </trkpt>
      <trkpt lat="47.27458" lon="4.96817">
        <ele>492.1</ele>
        <time>2013-03-02T09:36:34.000Z</time>
      </trkpt>
      <trkpt lat="47.2746" lon="4.96811">
        <ele>492.6</ele>
        <time>2013-03-02T09:36:37.000Z</time>
      </trkpt>
      <trkpt lat="47.2746" lon="4.96808">
        <ele>492.7</ele>
        <time>2013-03-02T09:36:38.000Z</time>
      </trkpt>
      <trkpt lat="47.27462" lon="4.96804">
        <ele>492.5</ele>
        <time>2013-03-02T09:36:40.000Z</time>
      </trkpt>
      <trkpt lat="47.27462" lon="4.96802">
        <ele>492.2</ele>
        <time>2013-03-02T09:36:41.000Z</time>
      </trkpt>
      <trkpt lat="47.27464" lon="4.96797">
        <ele>492</ele>
        <time>2013-03-02T09:36:43.000Z</time>
      </trkpt>
      <trkpt lat="47.27464" lon="4.96795">
        <ele>491.8</ele>
        <time>2013-03-02T09:36:44.000Z</time>
      </trkpt>
      <trkpt lat="47.27465" lon="4.9679">
        <ele>492.1</ele>
        <time>2013-03-02T09:36:46.000Z</time>
      </trkpt>
      <trkpt lat="47.27466" lon="4.96787">
        <ele>492</ele>
        <time>2013-03-02T09:36:47.000Z</time>
      </trkpt>
      <trkpt lat="47.27468" lon="4.96782">
        <ele>491.7</ele>
        <time>2013-03-02T09:36:49.000Z</time>
      </trkpt>
      <trkpt lat="47.27468" lon="4.96779">
        <ele>491.7</ele>
        <time>2013-03-02T09:36:50.000Z</time>
      </trkpt>
      <trkpt lat="47.2747" lon="4.96775">
        <ele>491.5</ele>
        <time>2013-03-02T09:36:52.000Z</time>
      </trkpt>
      <trkpt lat="47.27471" lon="4.96772">
        <ele>491.4</ele>
        <time>2013-03-02T09:36:53.000Z</time>
      </trkpt>
      <trkpt lat="47.27472" lon="4.96768">
        <ele>491.5</ele>
        <time>2013-03-02T09:36:55.000Z</time>
      </trkpt>
      <trkpt lat="47.27472" lon="4.96766">
        <ele>491.7</ele>
        <time>2013-03-02T09:36:56.000Z</time>
      </trkpt>
      <trkpt lat="47.27473" lon="4.96762">
        <ele>491.9</ele>
        <time>2013-03-02T09:36:58.000Z</time>
      </trkpt>
      <trkpt lat="47.27477" lon="4.96742">
        <ele>492</ele>
        <time>2013-03-02T09:37:05.000Z</time>
      </trkpt>
      <trkpt lat="47.27478" lon="4.96735">
        <ele>492.8</ele>
        <time>2013-03-02T09:37:07.000Z</time>
      </trkpt>
      <trkpt lat="47.27479" lon="4.96733">
        <ele>492.9</ele>
        <time>2013-03-02T09:37:08.000Z</time>
      </trkpt>
      <trkpt lat="47.2748" lon="4.96727">
        <ele>494.7</ele>
        <time>2013-03-02T09:37:11.000Z</time>
      </trkpt>
      <trkpt lat="47.27481" lon="4.96726">
        <ele>495.4</ele>
        <time>2013-03-02T09:37:12.000Z</time>
      </trkpt>
      <trkpt lat="47.27482" lon="4.96721">
        <ele>500.1</ele>
        <time>2013-03-02T09:37:16.000Z</time>
      </trkpt>
      <trkpt lat="47.27482" lon="4.96719">
        <ele>501.3</ele>
        <time>2013-03-02T09:37:17.000Z</time>
      </trkpt>
      <trkpt lat="47.27483" lon="4.96714">
        <ele>501.9</ele>
        <time>2013-03-02T09:37:20.000Z</time>
      </trkpt>
      <trkpt lat="47.27484" lon="4.96712">
        <ele>502</ele>
        <time>2013-03-02T09:37:21.000Z</time>
      </trkpt>
      <trkpt lat="47.27486" lon="4.96707">
        <ele>502</ele>
        <time>2013-03-02T09:37:24.000Z</time>
      </trkpt>
      <trkpt lat="47.27486" lon="4.96705">
        <ele>502</ele>
        <time>2013-03-02T09:37:25.000Z</time>
      </trkpt>
      <trkpt lat="47.27487" lon="4.967">
        <ele>502.9</ele>
        <time>2013-03-02T09:37:28.000Z</time>
      </trkpt>
      <trkpt lat="47.27488" lon="4.96698">
        <ele>502.9</ele>
        <time>2013-03-02T09:37:29.000Z</time>
      </trkpt>
      <trkpt lat="47.27489" lon="4.96694">
        <ele>500.1</ele>
        <time>2013-03-02T09:37:31.000Z</time>
      </trkpt>
      <trkpt lat="47.2749" lon="4.96691">
        <ele>499.4</ele>
        <time>2013-03-02T09:37:32.000Z</time>
      </trkpt>
      <trkpt lat="47.27491" lon="4.96687">
        <ele>498.9</ele>
        <time>2013-03-02T09:37:33.000Z</time>
      </trkpt>
      <trkpt lat="47.27492" lon="4.96684">
        <ele>498.6</ele>
        <time>2013-03-02T09:37:34.000Z</time>
      </trkpt>
      <trkpt lat="47.27493" lon="4.9668">
        <ele>499.4</ele>
        <time>2013-03-02T09:37:36.000Z</time>
      </trkpt>
      <trkpt lat="47.27494" lon="4.96678">
        <ele>499.5</ele>
        <time>2013-03-02T09:37:37.000Z</time>
      </trkpt>
      <trkpt lat="47.27495" lon="4.96673">
        <ele>499.6</ele>
        <time>2013-03-02T09:37:39.000Z</time>
      </trkpt>
      <trkpt lat="47.27495" lon="4.9667">
        <ele>499.6</ele>
        <time>2013-03-02T09:37:40.000Z</time>
      </trkpt>
      <trkpt lat="47.27496" lon="4.96664">
        <ele>499.9</ele>
        <time>2013-03-02T09:37:42.000Z</time>
      </trkpt>
      <trkpt lat="47.27497" lon="4.96661">
        <ele>500</ele>
        <time>2013-03-02T09:37:43.000Z</time>
      </trkpt>
      <trkpt lat="47.27499" lon="4.96657">
        <ele>499.6</ele>
        <time>2013-03-02T09:37:45.000Z</time>
      </trkpt>
      <trkpt lat="47.275" lon="4.96654">
        <ele>499.3</ele>
        <time>2013-03-02T09:37:46.000Z</time>
      </trkpt>
      <trkpt lat="47.27502" lon="4.96648">
        <ele>499.3</ele>
        <time>2013-03-02T09:37:48.000Z</time>
      </trkpt>
      <trkpt lat="47.27502" lon="4.96646">
        <ele>499.4</ele>
        <time>2013-03-02T09:37:49.000Z</time>
      </trkpt>
      <trkpt lat="47.27503" lon="4.96641">
        <ele>499.8</ele>
        <time>2013-03-02T09:37:51.000Z</time>
      </trkpt>
      <trkpt lat="47.27504" lon="4.96638">
        <ele>499.9</ele>
        <time>2013-03-02T09:37:52.000Z</time>
      </trkpt>
      <trkpt lat="47.27505" lon="4.96633">
        <ele>500</ele>
        <time>2013-03-02T09:37:54.000Z</time>
      </trkpt>
      <trkpt lat="47.27505" lon="4.96631">
        <ele>499.9</ele>
        <time>2013-03-02T09:37:55.000Z</time>
      </trkpt>
      <trkpt lat="47.27506" lon="4.96626">
        <ele>500</ele>
        <time>2013-03-02T09:37:57.000Z</time>
      </trkpt>
      <trkpt lat="47.27507" lon="4.96624">
        <ele>500.3</ele>
        <time>2013-03-02T09:37:58.000Z</time>
      </trkpt>
      <trkpt lat="47.27516" lon="4.96597">
        <ele>508.4</ele>
        <time>2013-03-02T09:38:09.000Z</time>
      </trkpt>
      <trkpt lat="47.27516" lon="4.96593">
        <ele>509.2</ele>
        <time>2013-03-02T09:38:12.000Z</time>
      </trkpt>
      <trkpt lat="47.27516" lon="4.9659">
        <ele>509.4</ele>
        <time>2013-03-02T09:38:13.000Z</time>
      </trkpt>
      <trkpt lat="47.27517" lon="4.96584">
        <ele>509.2</ele>
        <time>2013-03-02T09:38:16.000Z</time>
      </trkpt>
      <trkpt lat="47.27517" lon="4.96582">
        <ele>509.5</ele>
        <time>2013-03-02T09:38:17.000Z</time>
      </trkpt>
      <trkpt lat="47.27518" lon="4.96577">
        <ele>510.7</ele>
        <time>2013-03-02T09:38:19.000Z</time>
      </trkpt>
      <trkpt lat="47.27518" lon="4.96576">
        <ele>510.7</ele>
        <time>2013-03-02T09:38:20.000Z</time>
      </trkpt>
      <trkpt lat="47.2752" lon="4.9657">
        <ele>509.4</ele>
        <time>2013-03-02T09:38:22.000Z</time>
      </trkpt>
      <trkpt lat="47.27521" lon="4.96568">
        <ele>508.3</ele>
        <time>2013-03-02T09:38:23.000Z</time>
      </trkpt>
      <trkpt lat="47.27523" lon="4.96562">
        <ele>504.9</ele>
        <time>2013-03-02T09:38:25.000Z</time>
      </trkpt>
      <trkpt lat="47.27524" lon="4.9656">
        <ele>504.8</ele>
        <time>2013-03-02T09:38:26.000Z</time>
      </trkpt>
      <trkpt lat="47.27525" lon="4.96556">
        <ele>503</ele>
        <time>2013-03-02T09:38:28.000Z</time>
      </trkpt>
      <trkpt lat="47.27525" lon="4.96553">
        <ele>501.9</ele>
        <time>2013-03-02T09:38:29.000Z</time>
      </trkpt>
      <trkpt lat="47.27527" lon="4.96548">
        <ele>502.3</ele>
        <time>2013-03-02T09:38:31.000Z</time>
      </trkpt>
      <trkpt lat="47.27528" lon="4.96545">
        <ele>502.3</ele>
        <time>2013-03-02T09:38:32.000Z</time>
      </trkpt>
      <trkpt lat="47.27529" lon="4.96541">
        <ele>502.7</ele>
        <time>2013-03-02T09:38:34.000Z</time>
      </trkpt>
      <trkpt lat="47.2753" lon="4.96539">
        <ele>502.8</ele>
        <time>2013-03-02T09:38:35.000Z</time>
      </trkpt>
      <trkpt lat="47.27532" lon="4.96533">
        <ele>502.5</ele>
        <time>2013-03-02T09:38:38.000Z</time>
      </trkpt>
      <trkpt lat="47.27532" lon="4.96531">
        <ele>502.6</ele>
        <time>2013-03-02T09:38:39.000Z</time>
      </trkpt>
      <trkpt lat="47.27534" lon="4.96526">
        <ele>503.1</ele>
        <time>2013-03-02T09:38:42.000Z</time>
      </trkpt>
      <trkpt lat="47.27535" lon="4.96523">
        <ele>503.2</ele>
        <time>2013-03-02T09:38:43.000Z</time>
      </trkpt>
      <trkpt lat="47.27536" lon="4.96518">
        <ele>504.3</ele>
        <time>2013-03-02T09:38:46.000Z</time>
      </trkpt>
      <trkpt lat="47.27537" lon="4.96517">
        <ele>504.4</ele>
        <time>2013-03-02T09:38:47.000Z</time>
      </trkpt>
      <trkpt lat="47.27539" lon="4.96513">
        <ele>504.6</ele>
        <time>2013-03-02T09:38:49.000Z</time>
      </trkpt>
      <trkpt lat="47.2754" lon="4.96511">
        <ele>504.8</ele>
        <time>2013-03-02T09:38:50.000Z</time>
      </trkpt>
      <trkpt lat="47.27541" lon="4.96507">
        <ele>505.5</ele>
        <time>2013-03-02T09:38:52.000Z</time>
      </trkpt>
      <trkpt lat="47.27542" lon="4.96505">
        <ele>505.5</ele>
        <time>2013-03-02T09:38:53.000Z</time>
      </trkpt>
      <trkpt lat="47.27544" lon="4.96502">
        <ele>505.3</ele>
        <time>2013-03-02T09:38:54.000Z</time>
      </trkpt>
      <trkpt lat="47.27545" lon="4.96499">
        <ele>504.6</ele>
        <time>2013-03-02T09:38:55.000Z</time>
      </trkpt>
      <trkpt lat="47.27547" lon="4.96494">
        <ele>504.7</ele>
        <time>2013-03-02T09:38:57.000Z</time>
      </trkpt>
      <trkpt lat="47.27547" lon="4.96491">
        <ele>504.8</ele>
        <time>2013-03-02T09:38:58.000Z</time>
      </trkpt>
      <trkpt lat="47.27551" lon="4.96465">
        <ele>515.2</ele>
        <time>2013-03-02T09:39:09.000Z</time>
      </trkpt>
      <trkpt lat="47.27551" lon="4.96459">
        <ele>516.8</ele>
        <time>2013-03-02T09:39:12.000Z</time>
      </trkpt>
      <trkpt lat="47.27552" lon="4.96457">
        <ele>516.4</ele>
        <time>2013-03-02T09:39:13.000Z</time>
      </trkpt>
      <trkpt lat="47.27552" lon="4.96454">
        <ele>517</ele>
        <time>2013-03-02T09:39:15.000Z</time>
      </trkpt>
      <trkpt lat="47.27553" lon="4.96451">
        <ele>516.8</ele>
        <time>2013-03-02T09:39:16.000Z</time>
      </trkpt>
      <trkpt lat="47.27554" lon="4.96445">
        <ele>517.7</ele>
        <time>2013-03-02T09:39:19.000Z</time>
      </trkpt>
      <trkpt lat="47.27554" lon="4.96443">
        <ele>517.6</ele>
        <time>2013-03-02T09:39:20.000Z</time>
      </trkpt>
      <trkpt lat="47.27556" lon="4.96438">
        <ele>516.8</ele>
        <time>2013-03-02T09:39:22.000Z</time>
      </trkpt>
      <trkpt lat="47.27557" lon="4.96436">
        <ele>516.8</ele>
        <time>2013-03-02T09:39:23.000Z</time>
      </trkpt>
      <trkpt lat="47.27558" lon="4.9643">
        <ele>518.1</ele>
        <time>2013-03-02T09:39:26.000Z</time>
      </trkpt>
      <trkpt lat="47.27558" lon="4.96428">
        <ele>517.8</ele>
        <time>2013-03-02T09:39:27.000Z</time>
      </trkpt>
      <trkpt lat="47.2756" lon="4.96423">
        <ele>516.4</ele>
        <time>2013-03-02T09:39:29.000Z</time>
      </trkpt>
      <trkpt lat="47.27561" lon="4.96422">
        <ele>516.5</ele>
        <time>2013-03-02T09:39:30.000Z</time>
      </trkpt>
      <trkpt lat="47.27562" lon="4.96417">
        <ele>516.3</ele>
        <time>2013-03-02T09:39:33.000Z</time>
      </trkpt>
      <trkpt lat="47.27563" lon="4.96415">
        <ele>515.9</ele>
        <time>2013-03-02T09:39:34.000Z</time>
      </trkpt>
      <trkpt lat="47.27565" lon="4.9641">
        <ele>514.9</ele>
        <time>2013-03-02T09:39:37.000Z</time>
      </trkpt>
      <trkpt lat="47.27565" lon="4.96408">
        <ele>514.8</ele>
        <time>2013-03-02T09:39:38.000Z</time>
      </trkpt>
      <trkpt lat="47.27566" lon="4.96404">
        <ele>515</ele>
        <time>2013-03-02T09:39:40.000Z</time>
      </trkpt>
      <trkpt lat="47.27566" lon="4.96401">
        <ele>514.9</ele>
        <time>2013-03-02T09:39:41.000Z</time>
      </trkpt>
      <trkpt lat="47.27569" lon="4.96395">
        <ele>514.2</ele>
        <time>2013-03-02T09:39:45.000Z</time>
      </trkpt>
      <trkpt lat="47.27569" lon="4.96395">
        <ele>514</ele>
        <time>2013-03-02T09:39:46.000Z</time>
      </trkpt>
      <trkpt lat="47.2757" lon="4.96389">
        <ele>513.2</ele>
        <time>2013-03-02T09:39:49.000Z</time>
      </trkpt>
      <trkpt lat="47.27571" lon="4.96387">
        <ele>512.2</ele>
        <time>2013-03-02T09:39:50.000Z</time>
      </trkpt>
      <trkpt lat="47.27571" lon="4.96387">
        <ele>512.2</ele>
        <time>2013-03-02T09:40:58.000Z</time>
      </trkpt>
      <trkpt lat="47.27585" lon="4.9637">
        <ele>514.7</ele>
        <time>2013-03-02T09:41:13.000Z</time>
      </trkpt>
      <trkpt lat="47.27579" lon="4.96379">
        <ele>518.4</ele>
        <time>2013-03-02T09:41:14.000Z</time>
      </trkpt>
      <trkpt lat="47.27578" lon="4.96377">
        <ele>518.8</ele>
        <time>2013-03-02T09:41:53.000Z</time>
      </trkpt>
      <trkpt lat="47.27576" lon="4.96374">
        <ele>509.8</ele>
        <time>2013-03-02T09:41:54.000Z</time>
      </trkpt>
      <trkpt lat="47.27576" lon="4.96372">
        <ele>509.9</ele>
        <time>2013-03-02T09:41:58.000Z</time>
      </trkpt>
      <trkpt lat="47.27576" lon="4.9636">
        <ele>518</ele>
        <time>2013-03-02T09:42:08.000Z</time>
      </trkpt>
      <trkpt lat="47.27577" lon="4.96353">
        <ele>517.7</ele>
        <time>2013-03-02T09:42:12.000Z</time>
      </trkpt>
      <trkpt lat="47.27577" lon="4.96351">
        <ele>517.4</ele>
        <time>2013-03-02T09:42:13.000Z</time>
      </trkpt>
      <trkpt lat="47.27579" lon="4.96348">
        <ele>517</ele>
        <time>2013-03-02T09:42:15.000Z</time>
      </trkpt>
      <trkpt lat="47.2758" lon="4.96345">
        <ele>516.2</ele>
        <time>2013-03-02T09:42:16.000Z</time>
      </trkpt>
      <trkpt lat="47.27581" lon="4.96341">
        <ele>516.3</ele>
        <time>2013-03-02T09:42:18.000Z</time>
      </trkpt>
      <trkpt lat="47.27581" lon="4.96339">
        <ele>517</ele>
        <time>2013-03-02T09:42:19.000Z</time>
      </trkpt>
      <trkpt lat="47.27583" lon="4.96335">
        <ele>517.9</ele>
        <time>2013-03-02T09:42:21.000Z</time>
      </trkpt>
      <trkpt lat="47.27583" lon="4.96332">
        <ele>518.7</ele>
        <time>2013-03-02T09:42:22.000Z</time>
      </trkpt>
      <trkpt lat="47.27585" lon="4.96326">
        <ele>520</ele>
        <time>2013-03-02T09:42:24.000Z</time>
      </trkpt>
      <trkpt lat="47.27586" lon="4.96323">
        <ele>520.8</ele>
        <time>2013-03-02T09:42:25.000Z</time>
      </trkpt>
      <trkpt lat="47.27587" lon="4.96318">
        <ele>521.5</ele>
        <time>2013-03-02T09:42:27.000Z</time>
      </trkpt>
      <trkpt lat="47.27587" lon="4.96315">
        <ele>521.8</ele>
        <time>2013-03-02T09:42:28.000Z</time>
      </trkpt>
      <trkpt lat="47.27589" lon="4.9631">
        <ele>520.9</ele>
        <time>2013-03-02T09:42:30.000Z</time>
      </trkpt>
      <trkpt lat="47.27589" lon="4.96307">
        <ele>520.6</ele>
        <time>2013-03-02T09:42:31.000Z</time>
      </trkpt>
      <trkpt lat="47.2759" lon="4.963">
        <ele>520</ele>
        <time>2013-03-02T09:42:34.000Z</time>
      </trkpt>
      <trkpt lat="47.27591" lon="4.96298">
        <ele>520</ele>
        <time>2013-03-02T09:42:35.000Z</time>
      </trkpt>
      <trkpt lat="47.27592" lon="4.96293">
        <ele>520</ele>
        <time>2013-03-02T09:42:37.000Z</time>
      </trkpt>
      <trkpt lat="47.27592" lon="4.9629">
        <ele>520.1</ele>
        <time>2013-03-02T09:42:38.000Z</time>
      </trkpt>
      <trkpt lat="47.27593" lon="4.96285">
        <ele>519.7</ele>
        <time>2013-03-02T09:42:40.000Z</time>
      </trkpt>
      <trkpt lat="47.27594" lon="4.96282">
        <ele>519.6</ele>
        <time>2013-03-02T09:42:41.000Z</time>
      </trkpt>
      <trkpt lat="47.27596" lon="4.96277">
        <ele>519.6</ele>
        <time>2013-03-02T09:42:43.000Z</time>
      </trkpt>
      <trkpt lat="47.27597" lon="4.96275">
        <ele>520</ele>
        <time>2013-03-02T09:42:44.000Z</time>
      </trkpt>
      <trkpt lat="47.27598" lon="4.96269">
        <ele>519.9</ele>
        <time>2013-03-02T09:42:46.000Z</time>
      </trkpt>
      <trkpt lat="47.27598" lon="4.96267">
        <ele>519.6</ele>
        <time>2013-03-02T09:42:47.000Z</time>
      </trkpt>
      <trkpt lat="47.27599" lon="4.96261">
        <ele>519.5</ele>
        <time>2013-03-02T09:42:49.000Z</time>
      </trkpt>
      <trkpt lat="47.276" lon="4.96259">
        <ele>519.7</ele>
        <time>2013-03-02T09:42:50.000Z</time>
      </trkpt>
      <trkpt lat="47.27601" lon="4.96255">
        <ele>520.5</ele>
        <time>2013-03-02T09:42:52.000Z</time>
      </trkpt>
      <trkpt lat="47.27602" lon="4.96253">
        <ele>520.9</ele>
        <time>2013-03-02T09:42:53.000Z</time>
      </trkpt>
      <trkpt lat="47.27604" lon="4.96247">
        <ele>520.5</ele>
        <time>2013-03-02T09:42:55.000Z</time>
      </trkpt>
      <trkpt lat="47.27605" lon="4.96244">
        <ele>520.5</ele>
        <time>2013-03-02T09:42:56.000Z</time>
      </trkpt>
      <trkpt lat="47.27606" lon="4.96238">
        <ele>520.5</ele>
        <time>2013-03-02T09:42:58.000Z</time>
      </trkpt>
      <trkpt lat="47.27615" lon="4.96211">
        <ele>512.6</ele>
        <time>2013-03-02T09:43:06.000Z</time>
      </trkpt>
      <trkpt lat="47.27616" lon="4.96206">
        <ele>515.9</ele>
        <time>2013-03-02T09:43:09.000Z</time>
      </trkpt>
      <trkpt lat="47.27617" lon="4.96205">
        <ele>516</ele>
        <time>2013-03-02T09:43:10.000Z</time>
      </trkpt>
      <trkpt lat="47.27618" lon="4.96199">
        <ele>518.7</ele>
        <time>2013-03-02T09:43:13.000Z</time>
      </trkpt>
      <trkpt lat="47.27618" lon="4.96197">
        <ele>518.6</ele>
        <time>2013-03-02T09:43:14.000Z</time>
      </trkpt>
      <trkpt lat="47.27619" lon="4.96192">
        <ele>520.7</ele>
        <time>2013-03-02T09:43:17.000Z</time>
      </trkpt>
      <trkpt lat="47.2762" lon="4.96189">
        <ele>521.4</ele>
        <time>2013-03-02T09:43:18.000Z</time>
      </trkpt>
      <trkpt lat="47.27621" lon="4.96185">
        <ele>521.7</ele>
        <time>2013-03-02T09:43:19.000Z</time>
      </trkpt>
      <trkpt lat="47.27622" lon="4.96182">
        <ele>521.9</ele>
        <time>2013-03-02T09:43:20.000Z</time>
      </trkpt>
      <trkpt lat="47.27624" lon="4.9618">
        <ele>521.5</ele>
        <time>2013-03-02T09:43:21.000Z</time>
      </trkpt>
      <trkpt lat="47.27624" lon="4.96176">
        <ele>520.4</ele>
        <time>2013-03-02T09:43:22.000Z</time>
      </trkpt>
      <trkpt lat="47.27625" lon="4.96173">
        <ele>519.2</ele>
        <time>2013-03-02T09:43:23.000Z</time>
      </trkpt>
      <trkpt lat="47.27626" lon="4.96169">
        <ele>518.5</ele>
        <time>2013-03-02T09:43:24.000Z</time>
      </trkpt>
      <trkpt lat="47.27627" lon="4.96166">
        <ele>517.9</ele>
        <time>2013-03-02T09:43:25.000Z</time>
      </trkpt>
      <trkpt lat="47.27628" lon="4.96163">
        <ele>517.9</ele>
        <time>2013-03-02T09:43:26.000Z</time>
      </trkpt>
      <trkpt lat="47.27628" lon="4.9616">
        <ele>517.7</ele>
        <time>2013-03-02T09:43:27.000Z</time>
      </trkpt>
      <trkpt lat="47.27629" lon="4.96157">
        <ele>517.6</ele>
        <time>2013-03-02T09:43:28.000Z</time>
      </trkpt>
      <trkpt lat="47.27631" lon="4.96151">
        <ele>517.1</ele>
        <time>2013-03-02T09:43:30.000Z</time>
      </trkpt>
      <trkpt lat="47.27632" lon="4.96147">
        <ele>516.8</ele>
        <time>2013-03-02T09:43:31.000Z</time>
      </trkpt>
      <trkpt lat="47.27633" lon="4.96144">
        <ele>516.5</ele>
        <time>2013-03-02T09:43:32.000Z</time>
      </trkpt>
      <trkpt lat="47.27634" lon="4.96141">
        <ele>516.9</ele>
        <time>2013-03-02T09:43:33.000Z</time>
      </trkpt>
      <trkpt lat="47.27635" lon="4.96135">
        <ele>516.3</ele>
        <time>2013-03-02T09:43:35.000Z</time>
      </trkpt>
      <trkpt lat="47.27636" lon="4.96132">
        <ele>515.8</ele>
        <time>2013-03-02T09:43:36.000Z</time>
      </trkpt>
      <trkpt lat="47.27638" lon="4.96127">
        <ele>516.1</ele>
        <time>2013-03-02T09:43:38.000Z</time>
      </trkpt>
      <trkpt lat="47.27638" lon="4.96123">
        <ele>515.9</ele>
        <time>2013-03-02T09:43:39.000Z</time>
      </trkpt>
      <trkpt lat="47.2764" lon="4.96119">
        <ele>515.8</ele>
        <time>2013-03-02T09:43:41.000Z</time>
      </trkpt>
      <trkpt lat="47.27641" lon="4.96116">
        <ele>515.6</ele>
        <time>2013-03-02T09:43:42.000Z</time>
      </trkpt>
      <trkpt lat="47.27643" lon="4.96111">
        <ele>515.1</ele>
        <time>2013-03-02T09:43:44.000Z</time>
      </trkpt>
      <trkpt lat="47.27644" lon="4.96108">
        <ele>515</ele>
        <time>2013-03-02T09:43:45.000Z</time>
      </trkpt>
      <trkpt lat="47.27645" lon="4.96103">
        <ele>514.7</ele>
        <time>2013-03-02T09:43:47.000Z</time>
      </trkpt>
      <trkpt lat="47.27646" lon="4.961">
        <ele>514.8</ele>
        <time>2013-03-02T09:43:48.000Z</time>
      </trkpt>
      <trkpt lat="47.27647" lon="4.96094">
        <ele>514.7</ele>
        <time>2013-03-02T09:43:50.000Z</time>
      </trkpt>
      <trkpt lat="47.27648" lon="4.96092">
        <ele>514.7</ele>
        <time>2013-03-02T09:43:51.000Z</time>
      </trkpt>
      <trkpt lat="47.27649" lon="4.96087">
        <ele>514.6</ele>
        <time>2013-03-02T09:43:53.000Z</time>
      </trkpt>
      <trkpt lat="47.2765" lon="4.96084">
        <ele>514.7</ele>
        <time>2013-03-02T09:43:54.000Z</time>
      </trkpt>
      <trkpt lat="47.27651" lon="4.96078">
        <ele>514.7</ele>
        <time>2013-03-02T09:43:56.000Z</time>
      </trkpt>
      <trkpt lat="47.27652" lon="4.96075">
        <ele>514.6</ele>
        <time>2013-03-02T09:43:57.000Z</time>
      </trkpt>
      <trkpt lat="47.27653" lon="4.96072">
        <ele>514.4</ele>
        <time>2013-03-02T09:43:58.000Z</time>
      </trkpt>
      <trkpt lat="47.27664" lon="4.96037">
        <ele>509</ele>
        <time>2013-03-02T09:44:07.000Z</time>
      </trkpt>
      <trkpt lat="47.27666" lon="4.96033">
        <ele>506.5</ele>
        <time>2013-03-02T09:44:09.000Z</time>
      </trkpt>
      <trkpt lat="47.27666" lon="4.96031">
        <ele>506.2</ele>
        <time>2013-03-02T09:44:10.000Z</time>
      </trkpt>
      <trkpt lat="47.27667" lon="4.96026">
        <ele>506.4</ele>
        <time>2013-03-02T09:44:12.000Z</time>
      </trkpt>
      <trkpt lat="47.27668" lon="4.96024">
        <ele>506.9</ele>
        <time>2013-03-02T09:44:13.000Z</time>
      </trkpt>
      <trkpt lat="47.27669" lon="4.96019">
        <ele>507</ele>
        <time>2013-03-02T09:44:15.000Z</time>
      </trkpt>
      <trkpt lat="47.2767" lon="4.96017">
        <ele>507</ele>
        <time>2013-03-02T09:44:16.000Z</time>
      </trkpt>
      <trkpt lat="47.27671" lon="4.96012">
        <ele>506.5</ele>
        <time>2013-03-02T09:44:18.000Z</time>
      </trkpt>
      <trkpt lat="47.27672" lon="4.96009">
        <ele>506.6</ele>
        <time>2013-03-02T09:44:19.000Z</time>
      </trkpt>
      <trkpt lat="47.27673" lon="4.96004">
        <ele>507.4</ele>
        <time>2013-03-02T09:44:21.000Z</time>
      </trkpt>
      <trkpt lat="47.27673" lon="4.96002">
        <ele>507.7</ele>
        <time>2013-03-02T09:44:22.000Z</time>
      </trkpt>
      <trkpt lat="47.27675" lon="4.95997">
        <ele>507.4</ele>
        <time>2013-03-02T09:44:24.000Z</time>
      </trkpt>
      <trkpt lat="47.27675" lon="4.95995">
        <ele>508</ele>
        <time>2013-03-02T09:44:25.000Z</time>
      </trkpt>
      <trkpt lat="47.27677" lon="4.9599">
        <ele>508.1</ele>
        <time>2013-03-02T09:44:27.000Z</time>
      </trkpt>
      <trkpt lat="47.27678" lon="4.95988">
        <ele>507.8</ele>
        <time>2013-03-02T09:44:28.000Z</time>
      </trkpt>
      <trkpt lat="47.27679" lon="4.95982">
        <ele>507.9</ele>
        <time>2013-03-02T09:44:30.000Z</time>
      </trkpt>
      <trkpt lat="47.2768" lon="4.95979">
        <ele>508.1</ele>
        <time>2013-03-02T09:44:31.000Z</time>
      </trkpt>
      <trkpt lat="47.27681" lon="4.95974">
        <ele>507.6</ele>
        <time>2013-03-02T09:44:33.000Z</time>
      </trkpt>
      <trkpt lat="47.27682" lon="4.95971">
        <ele>507.3</ele>
        <time>2013-03-02T09:44:34.000Z</time>
      </trkpt>
      <trkpt lat="47.27683" lon="4.95966">
        <ele>507.4</ele>
        <time>2013-03-02T09:44:36.000Z</time>
      </trkpt>
      <trkpt lat="47.27684" lon="4.95964">
        <ele>507.2</ele>
        <time>2013-03-02T09:44:37.000Z</time>
      </trkpt>
      <trkpt lat="47.27685" lon="4.95958">
        <ele>507.3</ele>
        <time>2013-03-02T09:44:39.000Z</time>
      </trkpt>
      <trkpt lat="47.27686" lon="4.95955">
        <ele>507.2</ele>
        <time>2013-03-02T09:44:40.000Z</time>
      </trkpt>
      <trkpt lat="47.27687" lon="4.95949">
        <ele>507.2</ele>
        <time>2013-03-02T09:44:42.000Z</time>
      </trkpt>
      <trkpt lat="47.27688" lon="4.95947">
        <ele>507.3</ele>
        <time>2013-03-02T09:44:43.000Z</time>
      </trkpt>
      <trkpt lat="47.27689" lon="4.95942">
        <ele>507.5</ele>
        <time>2013-03-02T09:44:45.000Z</time>
      </trkpt>
      <trkpt lat="47.27689" lon="4.9594">
        <ele>507.9</ele>
        <time>2013-03-02T09:44:46.000Z</time>
      </trkpt>
      <trkpt lat="47.2769" lon="4.95934">
        <ele>507.9</ele>
        <time>2013-03-02T09:44:48.000Z</time>
      </trkpt>
      <trkpt lat="47.27691" lon="4.95931">
        <ele>507.8</ele>
        <time>2013-03-02T09:44:49.000Z</time>
      </trkpt>
      <trkpt lat="47.27691" lon="4.95928">
        <ele>507.7</ele>
        <time>2013-03-02T09:44:50.000Z</time>
      </trkpt>
      <trkpt lat="47.27692" lon="4.95924">
        <ele>507.5</ele>
        <time>2013-03-02T09:44:51.000Z</time>
      </trkpt>
      <trkpt lat="47.27693" lon="4.95919">
        <ele>507.6</ele>
        <time>2013-03-02T09:44:55.000Z</time>
      </trkpt>
      <trkpt lat="47.27694" lon="4.95916">
        <ele>507.7</ele>
        <time>2013-03-02T09:44:56.000Z</time>
      </trkpt>
      <trkpt lat="47.27696" lon="4.95911">
        <ele>508</ele>
        <time>2013-03-02T09:44:58.000Z</time>
      </trkpt>
      <trkpt lat="47.27702" lon="4.95884">
        <ele>507.5</ele>
        <time>2013-03-02T09:45:05.000Z</time>
      </trkpt>
      <trkpt lat="47.27704" lon="4.95879">
        <ele>505.6</ele>
        <time>2013-03-02T09:45:08.000Z</time>
      </trkpt>
      <trkpt lat="47.27705" lon="4.95878">
        <ele>506.5</ele>
        <time>2013-03-02T09:45:09.000Z</time>
      </trkpt>
      <trkpt lat="47.27705" lon="4.95873">
        <ele>508.6</ele>
        <time>2013-03-02T09:45:12.000Z</time>
      </trkpt>
      <trkpt lat="47.27706" lon="4.9587">
        <ele>508.2</ele>
        <time>2013-03-02T09:45:13.000Z</time>
      </trkpt>
      <trkpt lat="47.27707" lon="4.95867">
        <ele>507.8</ele>
        <time>2013-03-02T09:45:14.000Z</time>
      </trkpt>
      <trkpt lat="47.27707" lon="4.95864">
        <ele>507.8</ele>
        <time>2013-03-02T09:45:15.000Z</time>
      </trkpt>
      <trkpt lat="47.27709" lon="4.95858">
        <ele>507.9</ele>
        <time>2013-03-02T09:45:17.000Z</time>
      </trkpt>
      <trkpt lat="47.2771" lon="4.95856">
        <ele>508.1</ele>
        <time>2013-03-02T09:45:18.000Z</time>
      </trkpt>
      <trkpt lat="47.27711" lon="4.9585">
        <ele>507.9</ele>
        <time>2013-03-02T09:45:20.000Z</time>
      </trkpt>
      <trkpt lat="47.27712" lon="4.95848">
        <ele>508.3</ele>
        <time>2013-03-02T09:45:21.000Z</time>
      </trkpt>
      <trkpt lat="47.27714" lon="4.95843">
        <ele>507.7</ele>
        <time>2013-03-02T09:45:23.000Z</time>
      </trkpt>
      <trkpt lat="47.27714" lon="4.9584">
        <ele>507.2</ele>
        <time>2013-03-02T09:45:24.000Z</time>
      </trkpt>
      <trkpt lat="47.27715" lon="4.95837">
        <ele>507.5</ele>
        <time>2013-03-02T09:45:25.000Z</time>
      </trkpt>
      <trkpt lat="47.27717" lon="4.95833">
        <ele>507.6</ele>
        <time>2013-03-02T09:45:26.000Z</time>
      </trkpt>
      <trkpt lat="47.27717" lon="4.95827">
        <ele>508.3</ele>
        <time>2013-03-02T09:45:28.000Z</time>
      </trkpt>
      <trkpt lat="47.27718" lon="4.95824">
        <ele>508.3</ele>
        <time>2013-03-02T09:45:29.000Z</time>
      </trkpt>
      <trkpt lat="47.27719" lon="4.9582">
        <ele>507.6</ele>
        <time>2013-03-02T09:45:30.000Z</time>
      </trkpt>
      <trkpt lat="47.2772" lon="4.95818">
        <ele>507.6</ele>
        <time>2013-03-02T09:45:31.000Z</time>
      </trkpt>
      <trkpt lat="47.27722" lon="4.95812">
        <ele>507.3</ele>
        <time>2013-03-02T09:45:33.000Z</time>
      </trkpt>
      <trkpt lat="47.27723" lon="4.9581">
        <ele>507</ele>
        <time>2013-03-02T09:45:34.000Z</time>
      </trkpt>
      <trkpt lat="47.27724" lon="4.95806">
        <ele>507</ele>
        <time>2013-03-02T09:45:36.000Z</time>
      </trkpt>
      <trkpt lat="47.27725" lon="4.95803">
        <ele>506.8</ele>
        <time>2013-03-02T09:45:37.000Z</time>
      </trkpt>
      <trkpt lat="47.27726" lon="4.95799">
        <ele>506.9</ele>
        <time>2013-03-02T09:45:38.000Z</time>
      </trkpt>
      <trkpt lat="47.27727" lon="4.95796">
        <ele>506.5</ele>
        <time>2013-03-02T09:45:39.000Z</time>
      </trkpt>
      <trkpt lat="47.27728" lon="4.95791">
        <ele>506.1</ele>
        <time>2013-03-02T09:45:41.000Z</time>
      </trkpt>
      <trkpt lat="47.2773" lon="4.95788">
        <ele>506.1</ele>
        <time>2013-03-02T09:45:42.000Z</time>
      </trkpt>
      <trkpt lat="47.27731" lon="4.95782">
        <ele>505.9</ele>
        <time>2013-03-02T09:45:44.000Z</time>
      </trkpt>
      <trkpt lat="47.27732" lon="4.95779">
        <ele>505.6</ele>
        <time>2013-03-02T09:45:45.000Z</time>
      </trkpt>
      <trkpt lat="47.27734" lon="4.95774">
        <ele>505.2</ele>
        <time>2013-03-02T09:45:47.000Z</time>
      </trkpt>
      <trkpt lat="47.27735" lon="4.9577">
        <ele>504.6</ele>
        <time>2013-03-02T09:45:48.000Z</time>
      </trkpt>
      <trkpt lat="47.27737" lon="4.95765">
        <ele>504.2</ele>
        <time>2013-03-02T09:45:50.000Z</time>
      </trkpt>
      <trkpt lat="47.27737" lon="4.95762">
        <ele>504</ele>
        <time>2013-03-02T09:45:51.000Z</time>
      </trkpt>
      <trkpt lat="47.27738" lon="4.95757">
        <ele>503.5</ele>
        <time>2013-03-02T09:45:53.000Z</time>
      </trkpt>
      <trkpt lat="47.27739" lon="4.95754">
        <ele>503.2</ele>
        <time>2013-03-02T09:45:54.000Z</time>
      </trkpt>
      <trkpt lat="47.27742" lon="4.9575">
        <ele>502.5</ele>
        <time>2013-03-02T09:45:57.000Z</time>
      </trkpt>
      <trkpt lat="47.27742" lon="4.95748">
        <ele>502.3</ele>
        <time>2013-03-02T09:45:58.000Z</time>
      </trkpt>
      <trkpt lat="47.27748" lon="4.95725">
        <ele>499.7</ele>
        <time>2013-03-02T09:46:08.000Z</time>
      </trkpt>
      <trkpt lat="47.27749" lon="4.9572">
        <ele>497.6</ele>
        <time>2013-03-02T09:46:10.000Z</time>
      </trkpt>
      <trkpt lat="47.27748" lon="4.95717">
        <ele>497.6</ele>
        <time>2013-03-02T09:46:11.000Z</time>
      </trkpt>
      <trkpt lat="47.2775" lon="4.95712">
        <ele>497.1</ele>
        <time>2013-03-02T09:46:13.000Z</time>
      </trkpt>
      <trkpt lat="47.27751" lon="4.9571">
        <ele>496.6</ele>
        <time>2013-03-02T09:46:14.000Z</time>
      </trkpt>
      <trkpt lat="47.27752" lon="4.95707">
        <ele>495.4</ele>
        <time>2013-03-02T09:46:16.000Z</time>
      </trkpt>
      <trkpt lat="47.27753" lon="4.95704">
        <ele>494.3</ele>
        <time>2013-03-02T09:46:17.000Z</time>
      </trkpt>
      <trkpt lat="47.27754" lon="4.95699">
        <ele>491.6</ele>
        <time>2013-03-02T09:46:20.000Z</time>
      </trkpt>
      <trkpt lat="47.27754" lon="4.95698">
        <ele>491.7</ele>
        <time>2013-03-02T09:46:21.000Z</time>
      </trkpt>
      <trkpt lat="47.27756" lon="4.95691">
        <ele>490.9</ele>
        <time>2013-03-02T09:46:34.000Z</time>
      </trkpt>
      <trkpt lat="47.27756" lon="4.95691">
        <ele>491.1</ele>
        <time>2013-03-02T09:46:35.000Z</time>
      </trkpt>
      <trkpt lat="47.27758" lon="4.95687">
        <ele>490.1</ele>
        <time>2013-03-02T09:46:58.000Z</time>
      </trkpt>
      <trkpt lat="47.27761" lon="4.9568">
        <ele>481.8</ele>
        <time>2013-03-02T09:47:06.000Z</time>
      </trkpt>
      <trkpt lat="47.27762" lon="4.95674">
        <ele>477.3</ele>
        <time>2013-03-02T09:47:36.000Z</time>
      </trkpt>
      <trkpt lat="47.27762" lon="4.95673">
        <ele>477.3</ele>
        <time>2013-03-02T09:47:37.000Z</time>
      </trkpt>
      <trkpt lat="47.27764" lon="4.95669">
        <ele>472</ele>
        <time>2013-03-02T09:47:58.000Z</time>
      </trkpt>
      <trkpt lat="47.27766" lon="4.95665">
        <ele>485.6</ele>
        <time>2013-03-02T09:48:09.000Z</time>
      </trkpt>
      <trkpt lat="47.27769" lon="4.9566">
        <ele>468.7</ele>
        <time>2013-03-02T09:48:40.000Z</time>
      </trkpt>
      <trkpt lat="47.27769" lon="4.9566">
        <ele>468.4</ele>
        <time>2013-03-02T09:48:41.000Z</time>
      </trkpt>
      <trkpt lat="47.27769" lon="4.95659">
        <ele>468.3</ele>
        <time>2013-03-02T09:48:51.000Z</time>
      </trkpt>
      <trkpt lat="47.2777" lon="4.95653">
        <ele>468</ele>
        <time>2013-03-02T09:48:52.000Z</time>
      </trkpt>
      <trkpt lat="47.27771" lon="4.9565">
        <ele>468</ele>
        <time>2013-03-02T09:48:58.000Z</time>
      </trkpt>
      <trkpt lat="47.2777" lon="4.95638">
        <ele>462.1</ele>
        <time>2013-03-02T09:49:10.000Z</time>
      </trkpt>
      <trkpt lat="47.27772" lon="4.95633">
        <ele>462</ele>
        <time>2013-03-02T09:49:18.000Z</time>
      </trkpt>
      <trkpt lat="47.27772" lon="4.95632">
        <ele>461</ele>
        <time>2013-03-02T09:49:19.000Z</time>
      </trkpt>
      <trkpt lat="47.27775" lon="4.95629">
        <ele>461</ele>
        <time>2013-03-02T09:49:24.000Z</time>
      </trkpt>
      <trkpt lat="47.27776" lon="4.95628">
        <ele>460.3</ele>
        <time>2013-03-02T09:49:25.000Z</time>
      </trkpt>
      <trkpt lat="47.27779" lon="4.95626">
        <ele>458.5</ele>
        <time>2013-03-02T09:49:30.000Z</time>
      </trkpt>
      <trkpt lat="47.27781" lon="4.95625">
        <ele>457.7</ele>
        <time>2013-03-02T09:49:31.000Z</time>
      </trkpt>
      <trkpt lat="47.27781" lon="4.95619">
        <ele>455</ele>
        <time>2013-03-02T09:49:37.000Z</time>
      </trkpt>
      <trkpt lat="47.27782" lon="4.95618">
        <ele>454.4</ele>
        <time>2013-03-02T09:49:38.000Z</time>
      </trkpt>
      <trkpt lat="47.27783" lon="4.95613">
        <ele>454.8</ele>
        <time>2013-03-02T09:49:43.000Z</time>
      </trkpt>
      <trkpt lat="47.27782" lon="4.95611">
        <ele>454.8</ele>
        <time>2013-03-02T09:49:44.000Z</time>
      </trkpt>
      <trkpt lat="47.27782" lon="4.95605">
        <ele>453.7</ele>
        <time>2013-03-02T09:49:49.000Z</time>
      </trkpt>
      <trkpt lat="47.27782" lon="4.95603">
        <ele>453.5</ele>
        <time>2013-03-02T09:49:50.000Z</time>
      </trkpt>
      <trkpt lat="47.27781" lon="4.95599">
        <ele>453</ele>
        <time>2013-03-02T09:49:52.000Z</time>
      </trkpt>
      <trkpt lat="47.27782" lon="4.95596">
        <ele>452.9</ele>
        <time>2013-03-02T09:49:53.000Z</time>
      </trkpt>
      <trkpt lat="47.27782" lon="4.95592">
        <ele>452.3</ele>
        <time>2013-03-02T09:49:55.000Z</time>
      </trkpt>
      <trkpt lat="47.27782" lon="4.95589">
        <ele>451.9</ele>
        <time>2013-03-02T09:49:56.000Z</time>
      </trkpt>
      <trkpt lat="47.27783" lon="4.95585">
        <ele>451.1</ele>
        <time>2013-03-02T09:49:58.000Z</time>
      </trkpt>
      <trkpt lat="47.27783" lon="4.95542">
        <ele>439.5</ele>
        <time>2013-03-02T09:50:10.000Z</time>
      </trkpt>
      <trkpt lat="47.27783" lon="4.95542">
        <ele>439.5</ele>
        <time>2013-03-02T09:50:16.000Z</time>
      </trkpt>
      <trkpt lat="47.27779" lon="4.95557">
        <ele>431.7</ele>
        <time>2013-03-02T09:50:17.000Z</time>
      </trkpt>
      <trkpt lat="47.27781" lon="4.9556">
        <ele>430.4</ele>
        <time>2013-03-02T09:50:25.000Z</time>
      </trkpt>
      <trkpt lat="47.27786" lon="4.95565">
        <ele>432.9</ele>
        <time>2013-03-02T09:50:26.000Z</time>
      </trkpt>
      <trkpt lat="47.27783" lon="4.95561">
        <ele>433.4</ele>
        <time>2013-03-02T09:50:32.000Z</time>
      </trkpt>
      <trkpt lat="47.27782" lon="4.95561">
        <ele>433.4</ele>
        <time>2013-03-02T09:50:33.000Z</time>
      </trkpt>
      <trkpt lat="47.27779" lon="4.95557">
        <ele>434.4</ele>
        <time>2013-03-02T09:50:37.000Z</time>
      </trkpt>
      <trkpt lat="47.27777" lon="4.95557">
        <ele>434.3</ele>
        <time>2013-03-02T09:50:38.000Z</time>
      </trkpt>
      <trkpt lat="47.27775" lon="4.95556">
        <ele>434.8</ele>
        <time>2013-03-02T09:50:40.000Z</time>
      </trkpt>
      <trkpt lat="47.27773" lon="4.95555">
        <ele>434.7</ele>
        <time>2013-03-02T09:50:41.000Z</time>
      </trkpt>
      <trkpt lat="47.27769" lon="4.95552">
        <ele>434.7</ele>
        <time>2013-03-02T09:50:44.000Z</time>
      </trkpt>
      <trkpt lat="47.27768" lon="4.95552">
        <ele>434.7</ele>
        <time>2013-03-02T09:50:45.000Z</time>
      </trkpt>
      <trkpt lat="47.27765" lon="4.95549">
        <ele>435</ele>
        <time>2013-03-02T09:50:47.000Z</time>
      </trkpt>
      <trkpt lat="47.27763" lon="4.95548">
        <ele>434.8</ele>
        <time>2013-03-02T09:50:48.000Z</time>
      </trkpt>
      <trkpt lat="47.27761" lon="4.95544">
        <ele>434.7</ele>
        <time>2013-03-02T09:50:50.000Z</time>
      </trkpt>
      <trkpt lat="47.27759" lon="4.95543">
        <ele>434.9</ele>
        <time>2013-03-02T09:50:51.000Z</time>
      </trkpt>
      <trkpt lat="47.27756" lon="4.95538">
        <ele>435</ele>
        <time>2013-03-02T09:50:54.000Z</time>
      </trkpt>
      <trkpt lat="47.27755" lon="4.95537">
        <ele>435.1</ele>
        <time>2013-03-02T09:50:55.000Z</time>
      </trkpt>
      <trkpt lat="47.27752" lon="4.95534">
        <ele>436</ele>
        <time>2013-03-02T09:50:58.000Z</time>
      </trkpt>
      <trkpt lat="47.27743" lon="4.95522">
        <ele>448.8</ele>
        <time>2013-03-02T09:51:07.000Z</time>
      </trkpt>
      <trkpt lat="47.2774" lon="4.95519">
        <ele>449.9</ele>
        <time>2013-03-02T09:51:09.000Z</time>
      </trkpt>
      <trkpt lat="47.27739" lon="4.95516">
        <ele>450.3</ele>
        <time>2013-03-02T09:51:10.000Z</time>
      </trkpt>
      <trkpt lat="47.27737" lon="4.9551">
        <ele>452.7</ele>
        <time>2013-03-02T09:51:15.000Z</time>
      </trkpt>
      <trkpt lat="47.27736" lon="4.9551">
        <ele>451.9</ele>
        <time>2013-03-02T09:51:16.000Z</time>
      </trkpt>
      <trkpt lat="47.27733" lon="4.95506">
        <ele>451.5</ele>
        <time>2013-03-02T09:51:19.000Z</time>
      </trkpt>
      <trkpt lat="47.27732" lon="4.95504">
        <ele>450.4</ele>
        <time>2013-03-02T09:51:20.000Z</time>
      </trkpt>
      <trkpt lat="47.27728" lon="4.95501">
        <ele>450.3</ele>
        <time>2013-03-02T09:51:23.000Z</time>
      </trkpt>
      <trkpt lat="47.27727" lon="4.95499">
        <ele>450.6</ele>
        <time>2013-03-02T09:51:24.000Z</time>
      </trkpt>
      <trkpt lat="47.27725" lon="4.95496">
        <ele>450.4</ele>
        <time>2013-03-02T09:51:26.000Z</time>
      </trkpt>
      <trkpt lat="47.27723" lon="4.95495">
        <ele>448.9</ele>
        <time>2013-03-02T09:51:27.000Z</time>
      </trkpt>
      <trkpt lat="47.27718" lon="4.95492">
        <ele>445</ele>
        <time>2013-03-02T09:51:29.000Z</time>
      </trkpt>
      <trkpt lat="47.27717" lon="4.95491">
        <ele>444.3</ele>
        <time>2013-03-02T09:51:30.000Z</time>
      </trkpt>
      <trkpt lat="47.27715" lon="4.95486">
        <ele>443.9</ele>
        <time>2013-03-02T09:51:33.000Z</time>
      </trkpt>
      <trkpt lat="47.27714" lon="4.95485">
        <ele>443.5</ele>
        <time>2013-03-02T09:51:34.000Z</time>
      </trkpt>
      <trkpt lat="47.27712" lon="4.95482">
        <ele>443.3</ele>
        <time>2013-03-02T09:51:36.000Z</time>
      </trkpt>
      <trkpt lat="47.2771" lon="4.9548">
        <ele>442.7</ele>
        <time>2013-03-02T09:51:37.000Z</time>
      </trkpt>
      <trkpt lat="47.27707" lon="4.95475">
        <ele>441.8</ele>
        <time>2013-03-02T09:51:40.000Z</time>
      </trkpt>
      <trkpt lat="47.27707" lon="4.95474">
        <ele>441.8</ele>
        <time>2013-03-02T09:51:41.000Z</time>
      </trkpt>
      <trkpt lat="47.27704" lon="4.95469">
        <ele>439.1</ele>
        <time>2013-03-02T09:51:43.000Z</time>
      </trkpt>
      <trkpt lat="47.27704" lon="4.95468">
        <ele>438.3</ele>
        <time>2013-03-02T09:51:44.000Z</time>
      </trkpt>
      <trkpt lat="47.27704" lon="4.95465">
        <ele>434.5</ele>
        <time>2013-03-02T09:51:58.000Z</time>
      </trkpt>
      <trkpt lat="47.27721" lon="4.9548">
        <ele>444.1</ele>
        <time>2013-03-02T09:52:15.000Z</time>
      </trkpt>
      <trkpt lat="47.27725" lon="4.95482">
        <ele>448.9</ele>
        <time>2013-03-02T09:52:18.000Z</time>
      </trkpt>
      <trkpt lat="47.27725" lon="4.95483">
        <ele>448.5</ele>
        <time>2013-03-02T09:52:19.000Z</time>
      </trkpt>
      <trkpt lat="47.27728" lon="4.95488">
        <ele>448.7</ele>
        <time>2013-03-02T09:52:23.000Z</time>
      </trkpt>
      <trkpt lat="47.27728" lon="4.95489">
        <ele>448.9</ele>
        <time>2013-03-02T09:52:24.000Z</time>
      </trkpt>
      <trkpt lat="47.27731" lon="4.95492">
        <ele>449.6</ele>
        <time>2013-03-02T09:52:26.000Z</time>
      </trkpt>
      <trkpt lat="47.27732" lon="4.95494">
        <ele>450.1</ele>
        <time>2013-03-02T09:52:27.000Z</time>
      </trkpt>
      <trkpt lat="47.27734" lon="4.95497">
        <ele>449.3</ele>
        <time>2013-03-02T09:52:29.000Z</time>
      </trkpt>
      <trkpt lat="47.27735" lon="4.95499">
        <ele>449.1</ele>
        <time>2013-03-02T09:52:30.000Z</time>
      </trkpt>
      <trkpt lat="47.27737" lon="4.95502">
        <ele>449.1</ele>
        <time>2013-03-02T09:52:32.000Z</time>
      </trkpt>
      <trkpt lat="47.27738" lon="4.95505">
        <ele>449</ele>
        <time>2013-03-02T09:52:33.000Z</time>
      </trkpt>
      <trkpt lat="47.27741" lon="4.95509">
        <ele>448.8</ele>
        <time>2013-03-02T09:52:35.000Z</time>
      </trkpt>
      <trkpt lat="47.27742" lon="4.95512">
        <ele>448.8</ele>
        <time>2013-03-02T09:52:36.000Z</time>
      </trkpt>
      <trkpt lat="47.27744" lon="4.95516">
        <ele>447.9</ele>
        <time>2013-03-02T09:52:38.000Z</time>
      </trkpt>
      <trkpt lat="47.27745" lon="4.95518">
        <ele>447.5</ele>
        <time>2013-03-02T09:52:39.000Z</time>
      </trkpt>
      <trkpt lat="47.27747" lon="4.9552">
        <ele>446.9</ele>
        <time>2013-03-02T09:52:41.000Z</time>
      </trkpt>
      <trkpt lat="47.27748" lon="4.95522">
        <ele>446.3</ele>
        <time>2013-03-02T09:52:42.000Z</time>
      </trkpt>
      <trkpt lat="47.27752" lon="4.95524">
        <ele>445.3</ele>
        <time>2013-03-02T09:52:45.000Z</time>
      </trkpt>
      <trkpt lat="47.27752" lon="4.95525">
        <ele>445.1</ele>
        <time>2013-03-02T09:52:46.000Z</time>
      </trkpt>
      <trkpt lat="47.27755" lon="4.95529">
        <ele>445.2</ele>
        <time>2013-03-02T09:52:49.000Z</time>
      </trkpt>
      <trkpt lat="47.27757" lon="4.95529">
        <ele>445.4</ele>
        <time>2013-03-02T09:52:50.000Z</time>
      </trkpt>
      <trkpt lat="47.2776" lon="4.95531">
        <ele>445.5</ele>
        <time>2013-03-02T09:52:53.000Z</time>
      </trkpt>
      <trkpt lat="47.27761" lon="4.95532">
        <ele>445.6</ele>
        <time>2013-03-02T09:52:54.000Z</time>
      </trkpt>
      <trkpt lat="47.27763" lon="4.95534">
        <ele>445.4</ele>
        <time>2013-03-02T09:52:57.000Z</time>
      </trkpt>
      <trkpt lat="47.27765" lon="4.95535">
        <ele>445.8</ele>
        <time>2013-03-02T09:52:58.000Z</time>
      </trkpt>
      <trkpt lat="47.27786" lon="4.95541">
        <ele>436.1</ele>
        <time>2013-03-02T09:53:10.000Z</time>
      </trkpt>
      <trkpt lat="47.27789" lon="4.9554">
        <ele>433.6</ele>
        <time>2013-03-02T09:53:27.000Z</time>
      </trkpt>
      <trkpt lat="47.27792" lon="4.95554">
        <ele>433</ele>
        <time>2013-03-02T09:53:28.000Z</time>
      </trkpt>
      <trkpt lat="47.27793" lon="4.95556">
        <ele>432.2</ele>
        <time>2013-03-02T09:53:43.000Z</time>
      </trkpt>
      <trkpt lat="47.27792" lon="4.95563">
        <ele>427.8</ele>
        <time>2013-03-02T09:53:44.000Z</time>
      </trkpt>
      <trkpt lat="47.27791" lon="4.95564">
        <ele>427.5</ele>
        <time>2013-03-02T09:53:58.000Z</time>
      </trkpt>
      <trkpt lat="47.27786" lon="4.95579">
        <ele>433.6</ele>
        <time>2013-03-02T09:54:10.000Z</time>
      </trkpt>
      <trkpt lat="47.27786" lon="4.95579">
        <ele>433.6</ele>
        <time>2013-03-02T09:54:13.000Z</time>
      </trkpt>
      <trkpt lat="47.27787" lon="4.95591">
        <ele>428.1</ele>
        <time>2013-03-02T09:54:14.000Z</time>
      </trkpt>
      <trkpt lat="47.27784" lon="4.95592">
        <ele>428.9</ele>
        <time>2013-03-02T09:54:36.000Z</time>
      </trkpt>
      <trkpt lat="47.27782" lon="4.95593">
        <ele>436.1</ele>
        <time>2013-03-02T09:54:37.000Z</time>
      </trkpt>
      <trkpt lat="47.27783" lon="4.956">
        <ele>438.9</ele>
        <time>2013-03-02T09:54:44.000Z</time>
      </trkpt>
      <trkpt lat="47.27783" lon="4.956">
        <ele>439.4</ele>
        <time>2013-03-02T09:54:45.000Z</time>
      </trkpt>
      <trkpt lat="47.27785" lon="4.95606">
        <ele>439.9</ele>
        <time>2013-03-02T09:54:50.000Z</time>
      </trkpt>
      <trkpt lat="47.27785" lon="4.95607">
        <ele>439.8</ele>
        <time>2013-03-02T09:54:51.000Z</time>
      </trkpt>
      <trkpt lat="47.27784" lon="4.9561">
        <ele>440.8</ele>
        <time>2013-03-02T09:54:58.000Z</time>
      </trkpt>
      <trkpt lat="47.27786" lon="4.95616">
        <ele>453.9</ele>
        <time>2013-03-02T09:55:11.000Z</time>
      </trkpt>
      <trkpt lat="47.27779" lon="4.95614">
        <ele>460.4</ele>
        <time>2013-03-02T09:55:12.000Z</time>
      </trkpt>
      <trkpt lat="47.2778" lon="4.9562">
        <ele>463.8</ele>
        <time>2013-03-02T09:55:37.000Z</time>
      </trkpt>
      <trkpt lat="47.2778" lon="4.95621">
        <ele>463.6</ele>
        <time>2013-03-02T09:55:38.000Z</time>
      </trkpt>
      <trkpt lat="47.27783" lon="4.95616">
        <ele>454.6</ele>
        <time>2013-03-02T09:55:58.000Z</time>
      </trkpt>
      <trkpt lat="47.27783" lon="4.95583">
        <ele>432.8</ele>
        <time>2013-03-02T09:56:17.000Z</time>
      </trkpt>
      <trkpt lat="47.27782" lon="4.95578">
        <ele>431.6</ele>
        <time>2013-03-02T09:56:19.000Z</time>
      </trkpt>
      <trkpt lat="47.27782" lon="4.95575">
        <ele>430.8</ele>
        <time>2013-03-02T09:56:20.000Z</time>
      </trkpt>
      <trkpt lat="47.27784" lon="4.9557">
        <ele>426.4</ele>
        <time>2013-03-02T09:56:23.000Z</time>
      </trkpt>
      <trkpt lat="47.27784" lon="4.95569">
        <ele>425.2</ele>
        <time>2013-03-02T09:56:24.000Z</time>
      </trkpt>
      <trkpt lat="47.27787" lon="4.95564">
        <ele>425.5</ele>
        <time>2013-03-02T09:56:26.000Z</time>
      </trkpt>
      <trkpt lat="47.27788" lon="4.95563">
        <ele>426.4</ele>
        <time>2013-03-02T09:56:27.000Z</time>
      </trkpt>
      <trkpt lat="47.27789" lon="4.95569">
        <ele>423.7</ele>
        <time>2013-03-02T09:56:50.000Z</time>
      </trkpt>
      <trkpt lat="47.27789" lon="4.9557">
        <ele>423.9</ele>
        <time>2013-03-02T09:56:51.000Z</time>
      </trkpt>
      <trkpt lat="47.27785" lon="4.9557">
        <ele>425.4</ele>
        <time>2013-03-02T09:56:57.000Z</time>
      </trkpt>
      <trkpt lat="47.27784" lon="4.9557">
        <ele>425.3</ele>
        <time>2013-03-02T09:56:58.000Z</time>
      </trkpt>
      <trkpt lat="47.2777" lon="4.95553">
        <ele>430</ele>
        <time>2013-03-02T09:57:07.000Z</time>
      </trkpt>
      <trkpt lat="47.27772" lon="4.95548">
        <ele>437.5</ele>
        <time>2013-03-02T09:57:27.000Z</time>
      </trkpt>
      <trkpt lat="47.27777" lon="4.95546">
        <ele>432.7</ele>
        <time>2013-03-02T09:57:28.000Z</time>
      </trkpt>
      <trkpt lat="47.27779" lon="4.95547">
        <ele>429.5</ele>
        <time>2013-03-02T09:57:37.000Z</time>
      </trkpt>
      <trkpt lat="47.27785" lon="4.95555">
        <ele>426.2</ele>
        <time>2013-03-02T09:57:38.000Z</time>
      </trkpt>
      <trkpt lat="47.27785" lon="4.95561">
        <ele>426.3</ele>
        <time>2013-03-02T09:57:44.000Z</time>
      </trkpt>
      <trkpt lat="47.27784" lon="4.95562">
        <ele>427</ele>
        <time>2013-03-02T09:57:45.000Z</time>
      </trkpt>
      <trkpt lat="47.2778" lon="4.95561">
        <ele>427.7</ele>
        <time>2013-03-02T09:57:50.000Z</time>
      </trkpt>
      <trkpt lat="47.2778" lon="4.9556">
        <ele>427.7</ele>
        <time>2013-03-02T09:57:51.000Z</time>
      </trkpt>
      <trkpt lat="47.27776" lon="4.95557">
        <ele>428.7</ele>
        <time>2013-03-02T09:57:55.000Z</time>
      </trkpt>
      <trkpt lat="47.27775" lon="4.95557">
        <ele>428.7</ele>
        <time>2013-03-02T09:57:56.000Z</time>
      </trkpt>
      <trkpt lat="47.27773" lon="4.95555">
        <ele>428.8</ele>
        <time>2013-03-02T09:57:58.000Z</time>
      </trkpt>
      <trkpt lat="47.2777" lon="4.95539">
        <ele>432.5</ele>
        <time>2013-03-02T09:58:05.000Z</time>
      </trkpt>
      <trkpt lat="47.2777" lon="4.95539">
        <ele>432.5</ele>
        <time>2013-03-02T09:58:06.000Z</time>
      </trkpt>
      <trkpt lat="47.27763" lon="4.95541">
        <ele>436.6</ele>
        <time>2013-03-02T09:58:07.000Z</time>
      </trkpt>
      <trkpt lat="47.2776" lon="4.9554">
        <ele>437.3</ele>
        <time>2013-03-02T09:58:09.000Z</time>
      </trkpt>
      <trkpt lat="47.27759" lon="4.95539">
        <ele>438.3</ele>
        <time>2013-03-02T09:58:10.000Z</time>
      </trkpt>
      <trkpt lat="47.27755" lon="4.95535">
        <ele>447</ele>
        <time>2013-03-02T09:58:17.000Z</time>
      </trkpt>
      <trkpt lat="47.27754" lon="4.95534">
        <ele>448</ele>
        <time>2013-03-02T09:58:18.000Z</time>
      </trkpt>
      <trkpt lat="47.27751" lon="4.95532">
        <ele>452.3</ele>
        <time>2013-03-02T09:58:22.000Z</time>
      </trkpt>
      <trkpt lat="47.27749" lon="4.95532">
        <ele>452.6</ele>
        <time>2013-03-02T09:58:23.000Z</time>
      </trkpt>
      <trkpt lat="47.27747" lon="4.95527">
        <ele>453.2</ele>
        <time>2013-03-02T09:58:26.000Z</time>
      </trkpt>
      <trkpt lat="47.27745" lon="4.95525">
        <ele>452</ele>
        <time>2013-03-02T09:58:27.000Z</time>
      </trkpt>
      <trkpt lat="47.27743" lon="4.95522">
        <ele>450.7</ele>
        <time>2013-03-02T09:58:29.000Z</time>
      </trkpt>
      <trkpt lat="47.27742" lon="4.95521">
        <ele>449.5</ele>
        <time>2013-03-02T09:58:30.000Z</time>
      </trkpt>
      <trkpt lat="47.27739" lon="4.95517">
        <ele>450.6</ele>
        <time>2013-03-02T09:58:33.000Z</time>
      </trkpt>
      <trkpt lat="47.27737" lon="4.95516">
        <ele>450.6</ele>
        <time>2013-03-02T09:58:34.000Z</time>
      </trkpt>
      <trkpt lat="47.27735" lon="4.95514">
        <ele>450.5</ele>
        <time>2013-03-02T09:58:36.000Z</time>
      </trkpt>
      <trkpt lat="47.27733" lon="4.95513">
        <ele>450.5</ele>
        <time>2013-03-02T09:58:37.000Z</time>
      </trkpt>
      <trkpt lat="47.2773" lon="4.9551">
        <ele>449.8</ele>
        <time>2013-03-02T09:58:39.000Z</time>
      </trkpt>
      <trkpt lat="47.27729" lon="4.95508">
        <ele>449.2</ele>
        <time>2013-03-02T09:58:40.000Z</time>
      </trkpt>
      <trkpt lat="47.27726" lon="4.95506">
        <ele>449.1</ele>
        <time>2013-03-02T09:58:42.000Z</time>
      </trkpt>
      <trkpt lat="47.27725" lon="4.95504">
        <ele>449.2</ele>
        <time>2013-03-02T09:58:43.000Z</time>
      </trkpt>
      <trkpt lat="47.27721" lon="4.95501">
        <ele>449.5</ele>
        <time>2013-03-02T09:58:46.000Z</time>
      </trkpt>
      <trkpt lat="47.2772" lon="4.95499">
        <ele>449</ele>
        <time>2013-03-02T09:58:47.000Z</time>
      </trkpt>
      <trkpt lat="47.27716" lon="4.95496">
        <ele>447.3</ele>
        <time>2013-03-02T09:58:50.000Z</time>
      </trkpt>
      <trkpt lat="47.27715" lon="4.95495">
        <ele>446.1</ele>
        <time>2013-03-02T09:58:51.000Z</time>
      </trkpt>
      <trkpt lat="47.27714" lon="4.95494">
        <ele>445</ele>
        <time>2013-03-02T09:58:58.000Z</time>
      </trkpt>
      <trkpt lat="47.27741" lon="4.95518">
        <ele>443.1</ele>
        <time>2013-03-02T09:59:30.000Z</time>
      </trkpt>
      <trkpt lat="47.27744" lon="4.95522">
        <ele>444.7</ele>
        <time>2013-03-02T09:59:33.000Z</time>
      </trkpt>
      <trkpt lat="47.27745" lon="4.95524">
        <ele>444.5</ele>
        <time>2013-03-02T09:59:34.000Z</time>
      </trkpt>
      <trkpt lat="47.27747" lon="4.95528">
        <ele>446.8</ele>
        <time>2013-03-02T09:59:36.000Z</time>
      </trkpt>
      <trkpt lat="47.27748" lon="4.95529">
        <ele>447.9</ele>
        <time>2013-03-02T09:59:37.000Z</time>
      </trkpt>
      <trkpt lat="47.27751" lon="4.95532">
        <ele>448.2</ele>
        <time>2013-03-02T09:59:39.000Z</time>
      </trkpt>
      <trkpt lat="47.27753" lon="4.95532">
        <ele>448.1</ele>
        <time>2013-03-02T09:59:40.000Z</time>
      </trkpt>
      <trkpt lat="47.27756" lon="4.95536">
        <ele>444</ele>
        <time>2013-03-02T09:59:43.000Z</time>
      </trkpt>
      <trkpt lat="47.27758" lon="4.95536">
        <ele>442.9</ele>
        <time>2013-03-02T09:59:44.000Z</time>
      </trkpt>
      <trkpt lat="47.27762" lon="4.95536">
        <ele>442.1</ele>
        <time>2013-03-02T09:59:46.000Z</time>
      </trkpt>
      <trkpt lat="47.27763" lon="4.95536">
        <ele>441.4</ele>
        <time>2013-03-02T09:59:47.000Z</time>
      </trkpt>
      <trkpt lat="47.27767" lon="4.95539">
        <ele>440</ele>
        <time>2013-03-02T09:59:51.000Z</time>
      </trkpt>
      <trkpt lat="47.27768" lon="4.95539">
        <ele>439.9</ele>
        <time>2013-03-02T09:59:52.000Z</time>
      </trkpt>
      <trkpt lat="47.2777" lon="4.95544">
        <ele>439.7</ele>
        <time>2013-03-02T09:59:55.000Z</time>
      </trkpt>
      <trkpt lat="47.27771" lon="4.95544">
        <ele>439.6</ele>
        <time>2013-03-02T09:59:56.000Z</time>
      </trkpt>
      <trkpt lat="47.27773" lon="4.95545">
        <ele>438.7</ele>
        <time>2013-03-02T09:59:58.000Z</time>
      </trkpt>
      <trkpt lat="47.27783" lon="4.95559">
        <ele>420.6</ele>
        <time>2013-03-02T10:00:09.000Z</time>
      </trkpt>
      <trkpt lat="47.27783" lon="4.95555">
        <ele>434.1</ele>
        <time>2013-03-02T10:01:06.000Z</time>
      </trkpt>
      <trkpt lat="47.27786" lon="4.95551">
        <ele>434.2</ele>
        <time>2013-03-02T10:01:07.000Z</time>
      </trkpt>
      <trkpt lat="47.27787" lon="4.95557">
        <ele>416.7</ele>
        <time>2013-03-02T10:01:40.000Z</time>
      </trkpt>
      <trkpt lat="47.27788" lon="4.95559">
        <ele>415.3</ele>
        <time>2013-03-02T10:01:41.000Z</time>
      </trkpt>
      <trkpt lat="47.27789" lon="4.95565">
        <ele>419.4</ele>
        <time>2013-03-02T10:01:58.000Z</time>
      </trkpt>
      <trkpt lat="47.27792" lon="4.95578">
        <ele>431</ele>
        <time>2013-03-02T10:02:09.000Z</time>
      </trkpt>
      <trkpt lat="47.27792" lon="4.95578">
        <ele>431</ele>
        <time>2013-03-02T10:02:13.000Z</time>
      </trkpt>
      <trkpt lat="47.27801" lon="4.95572">
        <ele>430.6</ele>
        <time>2013-03-02T10:02:14.000Z</time>
      </trkpt>
      <trkpt lat="47.27799" lon="4.95566">
        <ele>436.5</ele>
        <time>2013-03-02T10:02:20.000Z</time>
      </trkpt>
      <trkpt lat="47.27799" lon="4.95565">
        <ele>439</ele>
        <time>2013-03-02T10:02:21.000Z</time>
      </trkpt>
      <trkpt lat="47.27799" lon="4.95559">
        <ele>443.6</ele>
        <time>2013-03-02T10:02:24.000Z</time>
      </trkpt>
      <trkpt lat="47.27799" lon="4.95558">
        <ele>443.6</ele>
        <time>2013-03-02T10:02:25.000Z</time>
      </trkpt>
      <trkpt lat="47.27795" lon="4.95558">
        <ele>443.3</ele>
        <time>2013-03-02T10:02:28.000Z</time>
      </trkpt>
      <trkpt lat="47.27794" lon="4.95559">
        <ele>442.6</ele>
        <time>2013-03-02T10:02:29.000Z</time>
      </trkpt>
      <trkpt lat="47.2779" lon="4.95559">
        <ele>441.5</ele>
        <time>2013-03-02T10:02:32.000Z</time>
      </trkpt>
      <trkpt lat="47.27788" lon="4.95559">
        <ele>440.5</ele>
        <time>2013-03-02T10:02:33.000Z</time>
      </trkpt>
      <trkpt lat="47.27786" lon="4.95557">
        <ele>439.9</ele>
        <time>2013-03-02T10:02:34.000Z</time>
      </trkpt>
      <trkpt lat="47.27784" lon="4.95556">
        <ele>438.5</ele>
        <time>2013-03-02T10:02:35.000Z</time>
      </trkpt>
      <trkpt lat="47.2778" lon="4.95554">
        <ele>436.7</ele>
        <time>2013-03-02T10:02:40.000Z</time>
      </trkpt>
      <trkpt lat="47.27778" lon="4.95553">
        <ele>436.4</ele>
        <time>2013-03-02T10:02:41.000Z</time>
      </trkpt>
      <trkpt lat="47.27775" lon="4.95548">
        <ele>435.9</ele>
        <time>2013-03-02T10:02:46.000Z</time>
      </trkpt>
      <trkpt lat="47.27773" lon="4.95548">
        <ele>436.1</ele>
        <time>2013-03-02T10:02:47.000Z</time>
      </trkpt>
      <trkpt lat="47.27769" lon="4.95545">
        <ele>436.1</ele>
        <time>2013-03-02T10:02:50.000Z</time>
      </trkpt>
      <trkpt lat="47.27768" lon="4.95544">
        <ele>436.3</ele>
        <time>2013-03-02T10:02:51.000Z</time>
      </trkpt>
      <trkpt lat="47.27764" lon="4.95543">
        <ele>437</ele>
        <time>2013-03-02T10:02:54.000Z</time>
      </trkpt>
      <trkpt lat="47.27763" lon="4.95543">
        <ele>437.2</ele>
        <time>2013-03-02T10:02:55.000Z</time>
      </trkpt>
      <trkpt lat="47.27759" lon="4.95541">
        <ele>437.6</ele>
        <time>2013-03-02T10:02:58.000Z</time>
      </trkpt>
      <trkpt lat="47.27751" lon="4.95525">
        <ele>448.5</ele>
        <time>2013-03-02T10:03:10.000Z</time>
      </trkpt>
      <trkpt lat="47.27747" lon="4.95523">
        <ele>447.1</ele>
        <time>2013-03-02T10:03:12.000Z</time>
      </trkpt>
      <trkpt lat="47.27746" lon="4.95523">
        <ele>447.3</ele>
        <time>2013-03-02T10:03:13.000Z</time>
      </trkpt>
      <trkpt lat="47.27742" lon="4.95519">
        <ele>446.1</ele>
        <time>2013-03-02T10:03:16.000Z</time>
      </trkpt>
      <trkpt lat="47.27741" lon="4.95518">
        <ele>445.6</ele>
        <time>2013-03-02T10:03:17.000Z</time>
      </trkpt>
      <trkpt lat="47.27737" lon="4.95514">
        <ele>444.3</ele>
        <time>2013-03-02T10:03:20.000Z</time>
      </trkpt>
      <trkpt lat="47.27737" lon="4.95513">
        <ele>444.1</ele>
        <time>2013-03-02T10:03:21.000Z</time>
      </trkpt>
      <trkpt lat="47.27733" lon="4.9551">
        <ele>443.2</ele>
        <time>2013-03-02T10:03:23.000Z</time>
      </trkpt>
      <trkpt lat="47.27732" lon="4.95509">
        <ele>443.5</ele>
        <time>2013-03-02T10:03:24.000Z</time>
      </trkpt>
      <trkpt lat="47.2773" lon="4.95505">
        <ele>442.8</ele>
        <time>2013-03-02T10:03:26.000Z</time>
      </trkpt>
      <trkpt lat="47.27729" lon="4.95503">
        <ele>442.9</ele>
        <time>2013-03-02T10:03:27.000Z</time>
      </trkpt>
      <trkpt lat="47.27726" lon="4.955">
        <ele>442</ele>
        <time>2013-03-02T10:03:29.000Z</time>
      </trkpt>
      <trkpt lat="47.27725" lon="4.95498">
        <ele>441</ele>
        <time>2013-03-02T10:03:30.000Z</time>
      </trkpt>
      <trkpt lat="47.27721" lon="4.95496">
        <ele>439.6</ele>
        <time>2013-03-02T10:03:32.000Z</time>
      </trkpt>
      <trkpt lat="47.2772" lon="4.95495">
        <ele>439</ele>
        <time>2013-03-02T10:03:33.000Z</time>
      </trkpt>
      <trkpt lat="47.27716" lon="4.95493">
        <ele>438.8</ele>
        <time>2013-03-02T10:03:35.000Z</time>
      </trkpt>
      <trkpt lat="47.27715" lon="4.95492">
        <ele>438.6</ele>
        <time>2013-03-02T10:03:36.000Z</time>
      </trkpt>
      <trkpt lat="47.27712" lon="4.95488">
        <ele>439.2</ele>
        <time>2013-03-02T10:03:39.000Z</time>
      </trkpt>
      <trkpt lat="47.27711" lon="4.95486">
        <ele>439.1</ele>
        <time>2013-03-02T10:03:40.000Z</time>
      </trkpt>
      <trkpt lat="47.27708" lon="4.95484">
        <ele>439.2</ele>
        <time>2013-03-02T10:03:42.000Z</time>
      </trkpt>
      <trkpt lat="47.27706" lon="4.95482">
        <ele>439</ele>
        <time>2013-03-02T10:03:43.000Z</time>
      </trkpt>
      <trkpt lat="47.27704" lon="4.95479">
        <ele>439.5</ele>
        <time>2013-03-02T10:03:45.000Z</time>
      </trkpt>
      <trkpt lat="47.27703" lon="4.95478">
        <ele>439.8</ele>
        <time>2013-03-02T10:03:46.000Z</time>
      </trkpt>
      <trkpt lat="47.277" lon="4.95473">
        <ele>440.8</ele>
        <time>2013-03-02T10:03:50.000Z</time>
      </trkpt>
      <trkpt lat="47.27699" lon="4.95472">
        <ele>441</ele>
        <time>2013-03-02T10:03:51.000Z</time>
      </trkpt>
      <trkpt lat="47.27695" lon="4.95469">
        <ele>441.7</ele>
        <time>2013-03-02T10:03:54.000Z</time>
      </trkpt>
      <trkpt lat="47.27694" lon="4.95467">
        <ele>442.1</ele>
        <time>2013-03-02T10:03:55.000Z</time>
      </trkpt>
      <trkpt lat="47.27693" lon="4.95463">
        <ele>442.9</ele>
        <time>2013-03-02T10:03:58.000Z</time>
      </trkpt>
      <trkpt lat="47.27685" lon="4.95447">
        <ele>446.4</ele>
        <time>2013-03-02T10:04:05.000Z</time>
      </trkpt>
      <trkpt lat="47.27682" lon="4.95445">
        <ele>452.4</ele>
        <time>2013-03-02T10:04:09.000Z</time>
      </trkpt>
      <trkpt lat="47.27681" lon="4.95445">
        <ele>452.4</ele>
        <time>2013-03-02T10:04:10.000Z</time>
      </trkpt>
      <trkpt lat="47.27679" lon="4.95444">
        <ele>452.5</ele>
        <time>2013-03-02T10:04:16.000Z</time>
      </trkpt>
      <trkpt lat="47.27675" lon="4.95441">
        <ele>455.9</ele>
        <time>2013-03-02T10:04:17.000Z</time>
      </trkpt>
      <trkpt lat="47.27671" lon="4.95439">
        <ele>455.5</ele>
        <time>2013-03-02T10:04:20.000Z</time>
      </trkpt>
      <trkpt lat="47.2767" lon="4.95439">
        <ele>455</ele>
        <time>2013-03-02T10:04:21.000Z</time>
      </trkpt>
      <trkpt lat="47.27667" lon="4.95438">
        <ele>454.6</ele>
        <time>2013-03-02T10:04:24.000Z</time>
      </trkpt>
      <trkpt lat="47.27665" lon="4.95436">
        <ele>454.2</ele>
        <time>2013-03-02T10:04:25.000Z</time>
      </trkpt>
      <trkpt lat="47.27663" lon="4.95433">
        <ele>453</ele>
        <time>2013-03-02T10:04:28.000Z</time>
      </trkpt>
      <trkpt lat="47.27662" lon="4.95431">
        <ele>453.9</ele>
        <time>2013-03-02T10:04:29.000Z</time>
      </trkpt>
      <trkpt lat="47.27658" lon="4.95429">
        <ele>452.3</ele>
        <time>2013-03-02T10:04:32.000Z</time>
      </trkpt>
      <trkpt lat="47.27657" lon="4.95428">
        <ele>451.8</ele>
        <time>2013-03-02T10:04:33.000Z</time>
      </trkpt>
      <trkpt lat="47.27655" lon="4.95427">
        <ele>450.8</ele>
        <time>2013-03-02T10:04:35.000Z</time>
      </trkpt>
      <trkpt lat="47.27652" lon="4.95427">
        <ele>450.7</ele>
        <time>2013-03-02T10:04:36.000Z</time>
      </trkpt>
      <trkpt lat="47.27649" lon="4.95427">
        <ele>450</ele>
        <time>2013-03-02T10:04:38.000Z</time>
      </trkpt>
      <trkpt lat="47.27647" lon="4.95426">
        <ele>450</ele>
        <time>2013-03-02T10:04:39.000Z</time>
      </trkpt>
      <trkpt lat="47.27643" lon="4.95425">
        <ele>450.1</ele>
        <time>2013-03-02T10:04:41.000Z</time>
      </trkpt>
      <trkpt lat="47.27642" lon="4.95423">
        <ele>449.7</ele>
        <time>2013-03-02T10:04:42.000Z</time>
      </trkpt>
      <trkpt lat="47.27638" lon="4.9542">
        <ele>448.9</ele>
        <time>2013-03-02T10:04:45.000Z</time>
      </trkpt>
      <trkpt lat="47.27636" lon="4.95419">
        <ele>448.8</ele>
        <time>2013-03-02T10:04:46.000Z</time>
      </trkpt>
      <trkpt lat="47.27634" lon="4.95415">
        <ele>449.3</ele>
        <time>2013-03-02T10:04:49.000Z</time>
      </trkpt>
      <trkpt lat="47.27633" lon="4.95413">
        <ele>449.7</ele>
        <time>2013-03-02T10:04:50.000Z</time>
      </trkpt>
      <trkpt lat="47.27631" lon="4.9541">
        <ele>450</ele>
        <time>2013-03-02T10:04:53.000Z</time>
      </trkpt>
      <trkpt lat="47.2763" lon="4.95408">
        <ele>450.2</ele>
        <time>2013-03-02T10:04:54.000Z</time>
      </trkpt>
      <trkpt lat="47.27628" lon="4.95403">
        <ele>450</ele>
        <time>2013-03-02T10:04:57.000Z</time>
      </trkpt>
      <trkpt lat="47.27627" lon="4.95402">
        <ele>450</ele>
        <time>2013-03-02T10:04:58.000Z</time>
      </trkpt>
      <trkpt lat="47.27625" lon="4.95397">
        <ele>449.8</ele>
        <time>2013-03-02T10:05:02.000Z</time>
      </trkpt>
      <trkpt lat="47.27625" lon="4.95395">
        <ele>449.7</ele>
        <time>2013-03-02T10:05:03.000Z</time>
      </trkpt>
      <trkpt lat="47.27623" lon="4.95391">
        <ele>449.5</ele>
        <time>2013-03-02T10:05:05.000Z</time>
      </trkpt>
      <trkpt lat="47.27622" lon="4.95388">
        <ele>450.3</ele>
        <time>2013-03-02T10:05:06.000Z</time>
      </trkpt>
      <trkpt lat="47.2762" lon="4.95383">
        <ele>450.8</ele>
        <time>2013-03-02T10:05:08.000Z</time>
      </trkpt>
      <trkpt lat="47.27619" lon="4.95381">
        <ele>450.8</ele>
        <time>2013-03-02T10:05:09.000Z</time>
      </trkpt>
      <trkpt lat="47.27617" lon="4.95377">
        <ele>451.2</ele>
        <time>2013-03-02T10:05:11.000Z</time>
      </trkpt>
      <trkpt lat="47.27616" lon="4.95375">
        <ele>451.3</ele>
        <time>2013-03-02T10:05:12.000Z</time>
      </trkpt>
      <trkpt lat="47.27614" lon="4.95371">
        <ele>451.5</ele>
        <time>2013-03-02T10:05:14.000Z</time>
      </trkpt>
      <trkpt lat="47.27613" lon="4.95369">
        <ele>451.9</ele>
        <time>2013-03-02T10:05:15.000Z</time>
      </trkpt>
      <trkpt lat="47.2761" lon="4.95365">
        <ele>453.3</ele>
        <time>2013-03-02T10:05:18.000Z</time>
      </trkpt>
      <trkpt lat="47.27609" lon="4.95364">
        <ele>453.2</ele>
        <time>2013-03-02T10:05:19.000Z</time>
      </trkpt>
      <trkpt lat="47.27605" lon="4.95361">
        <ele>453.1</ele>
        <time>2013-03-02T10:05:22.000Z</time>
      </trkpt>
      <trkpt lat="47.27604" lon="4.9536">
        <ele>453.2</ele>
        <time>2013-03-02T10:05:23.000Z</time>
      </trkpt>
      <trkpt lat="47.27601" lon="4.95356">
        <ele>453.1</ele>
        <time>2013-03-02T10:05:26.000Z</time>
      </trkpt>
      <trkpt lat="47.276" lon="4.95354">
        <ele>453.3</ele>
        <time>2013-03-02T10:05:27.000Z</time>
      </trkpt>
      <trkpt lat="47.276" lon="4.9535">
        <ele>454</ele>
        <time>2013-03-02T10:05:29.000Z</time>
      </trkpt>
      <trkpt lat="47.276" lon="4.95348">
        <ele>454.1</ele>
        <time>2013-03-02T10:05:30.000Z</time>
      </trkpt>
      <trkpt lat="47.27598" lon="4.95343">
        <ele>454.6</ele>
        <time>2013-03-02T10:05:33.000Z</time>
      </trkpt>
      <trkpt lat="47.27597" lon="4.95342">
        <ele>454.6</ele>
        <time>2013-03-02T10:05:34.000Z</time>
      </trkpt>
      <trkpt lat="47.27594" lon="4.95337">
        <ele>455.6</ele>
        <time>2013-03-02T10:05:38.000Z</time>
      </trkpt>
      <trkpt lat="47.27594" lon="4.95336">
        <ele>455.8</ele>
        <time>2013-03-02T10:05:39.000Z</time>
      </trkpt>
      <trkpt lat="47.27591" lon="4.95331">
        <ele>457.2</ele>
        <time>2013-03-02T10:05:43.000Z</time>
      </trkpt>
      <trkpt lat="47.27591" lon="4.9533">
        <ele>457.6</ele>
        <time>2013-03-02T10:05:44.000Z</time>
      </trkpt>
      <trkpt lat="47.27588" lon="4.95326">
        <ele>458.3</ele>
        <time>2013-03-02T10:05:48.000Z</time>
      </trkpt>
      <trkpt lat="47.27587" lon="4.95325">
        <ele>458.3</ele>
        <time>2013-03-02T10:05:49.000Z</time>
      </trkpt>
      <trkpt lat="47.27585" lon="4.95321">
        <ele>458.5</ele>
        <time>2013-03-02T10:05:53.000Z</time>
      </trkpt>
      <trkpt lat="47.27584" lon="4.9532">
        <ele>458.6</ele>
        <time>2013-03-02T10:05:54.000Z</time>
      </trkpt>
      <trkpt lat="47.27581" lon="4.95316">
        <ele>459</ele>
        <time>2013-03-02T10:05:57.000Z</time>
      </trkpt>
      <trkpt lat="47.2758" lon="4.95315">
        <ele>459.2</ele>
        <time>2013-03-02T10:05:58.000Z</time>
      </trkpt>
      <trkpt lat="47.27554" lon="4.95279">
        <ele>473.9</ele>
        <time>2013-03-02T10:06:26.000Z</time>
      </trkpt>
      <trkpt lat="47.27553" lon="4.95278">
        <ele>470.5</ele>
        <time>2013-03-02T10:06:58.000Z</time>
      </trkpt>
      <trkpt lat="47.2755" lon="4.95273">
        <ele>466.8</ele>
        <time>2013-03-02T10:07:12.000Z</time>
      </trkpt>
      <trkpt lat="47.27553" lon="4.95278">
        <ele>471.1</ele>
        <time>2013-03-02T10:07:22.000Z</time>
      </trkpt>
      <trkpt lat="47.27553" lon="4.95278">
        <ele>471.3</ele>
        <time>2013-03-02T10:07:23.000Z</time>
      </trkpt>
      <trkpt lat="47.27557" lon="4.9528">
        <ele>469.8</ele>
        <time>2013-03-02T10:07:26.000Z</time>
      </trkpt>
      <trkpt lat="47.27558" lon="4.95281">
        <ele>469.2</ele>
        <time>2013-03-02T10:07:27.000Z</time>
      </trkpt>
      <trkpt lat="47.27562" lon="4.95283">
        <ele>468.8</ele>
        <time>2013-03-02T10:07:30.000Z</time>
      </trkpt>
      <trkpt lat="47.27566" lon="4.95281">
        <ele>468.9</ele>
        <time>2013-03-02T10:07:31.000Z</time>
      </trkpt>
      <trkpt lat="47.27569" lon="4.95285">
        <ele>468.7</ele>
        <time>2013-03-02T10:07:34.000Z</time>
      </trkpt>
      <trkpt lat="47.27569" lon="4.95287">
        <ele>468.6</ele>
        <time>2013-03-02T10:07:35.000Z</time>
      </trkpt>
      <trkpt lat="47.27572" lon="4.95291">
        <ele>467.7</ele>
        <time>2013-03-02T10:07:38.000Z</time>
      </trkpt>
      <trkpt lat="47.27572" lon="4.95292">
        <ele>467.6</ele>
        <time>2013-03-02T10:07:39.000Z</time>
      </trkpt>
      <trkpt lat="47.27575" lon="4.95297">
        <ele>466.5</ele>
        <time>2013-03-02T10:07:43.000Z</time>
      </trkpt>
      <trkpt lat="47.27576" lon="4.95298">
        <ele>466.3</ele>
        <time>2013-03-02T10:07:44.000Z</time>
      </trkpt>
      <trkpt lat="47.27579" lon="4.95302">
        <ele>465.4</ele>
        <time>2013-03-02T10:07:47.000Z</time>
      </trkpt>
      <trkpt lat="47.27581" lon="4.95303">
        <ele>465.3</ele>
        <time>2013-03-02T10:07:48.000Z</time>
      </trkpt>
      <trkpt lat="47.27586" lon="4.95305">
        <ele>465</ele>
        <time>2013-03-02T10:07:51.000Z</time>
      </trkpt>
      <trkpt lat="47.27586" lon="4.95305">
        <ele>464.6</ele>
        <time>2013-03-02T10:07:52.000Z</time>
      </trkpt>
      <trkpt lat="47.27589" lon="4.9531">
        <ele>465</ele>
        <time>2013-03-02T10:07:55.000Z</time>
      </trkpt>
      <trkpt lat="47.2759" lon="4.95311">
        <ele>464.7</ele>
        <time>2013-03-02T10:07:56.000Z</time>
      </trkpt>
      <trkpt lat="47.27593" lon="4.95314">
        <ele>464.6</ele>
        <time>2013-03-02T10:07:58.000Z</time>
      </trkpt>
      <trkpt lat="47.27594" lon="4.95316">
        <ele>464.3</ele>
        <time>2013-03-02T10:07:59.000Z</time>
      </trkpt>
      <trkpt lat="47.27597" lon="4.9532">
        <ele>463.7</ele>
        <time>2013-03-02T10:08:01.000Z</time>
      </trkpt>
      <trkpt lat="47.27598" lon="4.95322">
        <ele>463.4</ele>
        <time>2013-03-02T10:08:02.000Z</time>
      </trkpt>
      <trkpt lat="47.276" lon="4.95325">
        <ele>463.1</ele>
        <time>2013-03-02T10:08:03.000Z</time>
      </trkpt>
      <trkpt lat="47.27602" lon="4.95327">
        <ele>462.7</ele>
        <time>2013-03-02T10:08:04.000Z</time>
      </trkpt>
      <trkpt lat="47.27605" lon="4.95331">
        <ele>462</ele>
        <time>2013-03-02T10:08:06.000Z</time>
      </trkpt>
      <trkpt lat="47.27605" lon="4.95333">
        <ele>461.9</ele>
        <time>2013-03-02T10:08:07.000Z</time>
      </trkpt>
      <trkpt lat="47.27607" lon="4.95338">
        <ele>461</ele>
        <time>2013-03-02T10:08:10.000Z</time>
      </trkpt>
      <trkpt lat="47.27608" lon="4.95339">
        <ele>460.7</ele>
        <time>2013-03-02T10:08:11.000Z</time>
      </trkpt>
      <trkpt lat="47.2761" lon="4.95343">
        <ele>460.1</ele>
        <time>2013-03-02T10:08:13.000Z</time>
      </trkpt>
      <trkpt lat="47.27611" lon="4.95345">
        <ele>459.7</ele>
        <time>2013-03-02T10:08:14.000Z</time>
      </trkpt>
      <trkpt lat="47.27612" lon="4.95348">
        <ele>459.4</ele>
        <time>2013-03-02T10:08:16.000Z</time>
      </trkpt>
      <trkpt lat="47.27613" lon="4.9535">
        <ele>459.3</ele>
        <time>2013-03-02T10:08:17.000Z</time>
      </trkpt>
      <trkpt lat="47.27615" lon="4.95354">
        <ele>459.1</ele>
        <time>2013-03-02T10:08:19.000Z</time>
      </trkpt>
      <trkpt lat="47.27616" lon="4.95356">
        <ele>458.8</ele>
        <time>2013-03-02T10:08:20.000Z</time>
      </trkpt>
      <trkpt lat="47.27619" lon="4.95359">
        <ele>458.5</ele>
        <time>2013-03-02T10:08:22.000Z</time>
      </trkpt>
      <trkpt lat="47.2762" lon="4.95361">
        <ele>458.1</ele>
        <time>2013-03-02T10:08:23.000Z</time>
      </trkpt>
      <trkpt lat="47.27622" lon="4.95366">
        <ele>457.9</ele>
        <time>2013-03-02T10:08:25.000Z</time>
      </trkpt>
      <trkpt lat="47.27624" lon="4.95367">
        <ele>458</ele>
        <time>2013-03-02T10:08:26.000Z</time>
      </trkpt>
      <trkpt lat="47.27626" lon="4.95372">
        <ele>458.4</ele>
        <time>2013-03-02T10:08:29.000Z</time>
      </trkpt>
      <trkpt lat="47.27628" lon="4.95375">
        <ele>458.4</ele>
        <time>2013-03-02T10:08:30.000Z</time>
      </trkpt>
      <trkpt lat="47.27631" lon="4.9538">
        <ele>458</ele>
        <time>2013-03-02T10:08:33.000Z</time>
      </trkpt>
      <trkpt lat="47.27632" lon="4.95381">
        <ele>458</ele>
        <time>2013-03-02T10:08:34.000Z</time>
      </trkpt>
      <trkpt lat="47.27634" lon="4.95385">
        <ele>458.1</ele>
        <time>2013-03-02T10:08:36.000Z</time>
      </trkpt>
      <trkpt lat="47.27635" lon="4.95386">
        <ele>457.8</ele>
        <time>2013-03-02T10:08:37.000Z</time>
      </trkpt>
      <trkpt lat="47.27638" lon="4.95389">
        <ele>457.6</ele>
        <time>2013-03-02T10:08:41.000Z</time>
      </trkpt>
      <trkpt lat="47.27639" lon="4.9539">
        <ele>457.4</ele>
        <time>2013-03-02T10:08:42.000Z</time>
      </trkpt>
      <trkpt lat="47.27641" lon="4.95394">
        <ele>456.8</ele>
        <time>2013-03-02T10:08:45.000Z</time>
      </trkpt>
      <trkpt lat="47.27641" lon="4.95396">
        <ele>456.6</ele>
        <time>2013-03-02T10:08:46.000Z</time>
      </trkpt>
      <trkpt lat="47.27644" lon="4.954">
        <ele>456.3</ele>
        <time>2013-03-02T10:08:49.000Z</time>
      </trkpt>
      <trkpt lat="47.27645" lon="4.95402">
        <ele>456.2</ele>
        <time>2013-03-02T10:08:50.000Z</time>
      </trkpt>
      <trkpt lat="47.27647" lon="4.95405">
        <ele>455.9</ele>
        <time>2013-03-02T10:08:52.000Z</time>
      </trkpt>
      <trkpt lat="47.27648" lon="4.95407">
        <ele>455.7</ele>
        <time>2013-03-02T10:08:53.000Z</time>
      </trkpt>
      <trkpt lat="47.27652" lon="4.9541">
        <ele>455.4</ele>
        <time>2013-03-02T10:08:55.000Z</time>
      </trkpt>
      <trkpt lat="47.27653" lon="4.95411">
        <ele>455.3</ele>
        <time>2013-03-02T10:08:56.000Z</time>
      </trkpt>
      <trkpt lat="47.27655" lon="4.95413">
        <ele>455.3</ele>
        <time>2013-03-02T10:08:58.000Z</time>
      </trkpt>
      <trkpt lat="47.27675" lon="4.95432">
        <ele>455.5</ele>
        <time>2013-03-02T10:09:11.000Z</time>
      </trkpt>
      <trkpt lat="47.27678" lon="4.95431">
        <ele>456.2</ele>
        <time>2013-03-02T10:09:13.000Z</time>
      </trkpt>
      <trkpt lat="47.2768" lon="4.95432">
        <ele>455.8</ele>
        <time>2013-03-02T10:09:14.000Z</time>
      </trkpt>
      <trkpt lat="47.27683" lon="4.95435">
        <ele>455.5</ele>
        <time>2013-03-02T10:09:16.000Z</time>
      </trkpt>
      <trkpt lat="47.27685" lon="4.95437">
        <ele>455.7</ele>
        <time>2013-03-02T10:09:17.000Z</time>
      </trkpt>
      <trkpt lat="47.27687" lon="4.9544">
        <ele>456.8</ele>
        <time>2013-03-02T10:09:19.000Z</time>
      </trkpt>
      <trkpt lat="47.2769" lon="4.95441">
        <ele>457.9</ele>
        <time>2013-03-02T10:09:20.000Z</time>
      </trkpt>
      <trkpt lat="47.27692" lon="4.95442">
        <ele>458.9</ele>
        <time>2013-03-02T10:09:21.000Z</time>
      </trkpt>
      <trkpt lat="47.27694" lon="4.95443">
        <ele>458.8</ele>
        <time>2013-03-02T10:09:22.000Z</time>
      </trkpt>
      <trkpt lat="47.27697" lon="4.95446">
        <ele>458.7</ele>
        <time>2013-03-02T10:09:24.000Z</time>
      </trkpt>
      <trkpt lat="47.27699" lon="4.95447">
        <ele>458.6</ele>
        <time>2013-03-02T10:09:25.000Z</time>
      </trkpt>
      <trkpt lat="47.27701" lon="4.95451">
        <ele>458.6</ele>
        <time>2013-03-02T10:09:27.000Z</time>
      </trkpt>
      <trkpt lat="47.27702" lon="4.95453">
        <ele>457.5</ele>
        <time>2013-03-02T10:09:28.000Z</time>
      </trkpt>
      <trkpt lat="47.27704" lon="4.95457">
        <ele>457.5</ele>
        <time>2013-03-02T10:09:30.000Z</time>
      </trkpt>
      <trkpt lat="47.27705" lon="4.95458">
        <ele>456</ele>
        <time>2013-03-02T10:09:31.000Z</time>
      </trkpt>
      <trkpt lat="47.27707" lon="4.95463">
        <ele>455.1</ele>
        <time>2013-03-02T10:09:33.000Z</time>
      </trkpt>
      <trkpt lat="47.27708" lon="4.95465">
        <ele>453.9</ele>
        <time>2013-03-02T10:09:34.000Z</time>
      </trkpt>
      <trkpt lat="47.2771" lon="4.95468">
        <ele>453.3</ele>
        <time>2013-03-02T10:09:35.000Z</time>
      </trkpt>
      <trkpt lat="47.27712" lon="4.9547">
        <ele>452.8</ele>
        <time>2013-03-02T10:09:36.000Z</time>
      </trkpt>
      <trkpt lat="47.27715" lon="4.95473">
        <ele>452.1</ele>
        <time>2013-03-02T10:09:38.000Z</time>
      </trkpt>
      <trkpt lat="47.27717" lon="4.95475">
        <ele>451.7</ele>
        <time>2013-03-02T10:09:39.000Z</time>
      </trkpt>
      <trkpt lat="47.27721" lon="4.95478">
        <ele>451.6</ele>
        <time>2013-03-02T10:09:41.000Z</time>
      </trkpt>
      <trkpt lat="47.27724" lon="4.9548">
        <ele>451.7</ele>
        <time>2013-03-02T10:09:42.000Z</time>
      </trkpt>
      <trkpt lat="47.27726" lon="4.95482">
        <ele>452.1</ele>
        <time>2013-03-02T10:09:43.000Z</time>
      </trkpt>
      <trkpt lat="47.27728" lon="4.95485">
        <ele>451.8</ele>
        <time>2013-03-02T10:09:44.000Z</time>
      </trkpt>
      <trkpt lat="47.2773" lon="4.95487">
        <ele>451.3</ele>
        <time>2013-03-02T10:09:45.000Z</time>
      </trkpt>
      <trkpt lat="47.27732" lon="4.95489">
        <ele>451</ele>
        <time>2013-03-02T10:09:46.000Z</time>
      </trkpt>
      <trkpt lat="47.27734" lon="4.95491">
        <ele>450.8</ele>
        <time>2013-03-02T10:09:47.000Z</time>
      </trkpt>
      <trkpt lat="47.27736" lon="4.95494">
        <ele>450.6</ele>
        <time>2013-03-02T10:09:48.000Z</time>
      </trkpt>
      <trkpt lat="47.27738" lon="4.95496">
        <ele>450.4</ele>
        <time>2013-03-02T10:09:49.000Z</time>
      </trkpt>
      <trkpt lat="47.2774" lon="4.95498">
        <ele>450.4</ele>
        <time>2013-03-02T10:09:50.000Z</time>
      </trkpt>
      <trkpt lat="47.27741" lon="4.95501">
        <ele>450.2</ele>
        <time>2013-03-02T10:09:51.000Z</time>
      </trkpt>
      <trkpt lat="47.27743" lon="4.95503">
        <ele>449.9</ele>
        <time>2013-03-02T10:09:52.000Z</time>
      </trkpt>
      <trkpt lat="47.27744" lon="4.95506">
        <ele>449.7</ele>
        <time>2013-03-02T10:09:53.000Z</time>
      </trkpt>
      <trkpt lat="47.27746" lon="4.95508">
        <ele>449.4</ele>
        <time>2013-03-02T10:09:54.000Z</time>
      </trkpt>
      <trkpt lat="47.27748" lon="4.95511">
        <ele>449.2</ele>
        <time>2013-03-02T10:09:55.000Z</time>
      </trkpt>
      <trkpt lat="47.2775" lon="4.95514">
        <ele>449.1</ele>
        <time>2013-03-02T10:09:56.000Z</time>
      </trkpt>
      <trkpt lat="47.27752" lon="4.95517">
        <ele>449</ele>
        <time>2013-03-02T10:09:57.000Z</time>
      </trkpt>
      <trkpt lat="47.27754" lon="4.95519">
        <ele>448.9</ele>
        <time>2013-03-02T10:09:58.000Z</time>
      </trkpt>
      <trkpt lat="47.27796" lon="4.95549">
        <ele>451.9</ele>
        <time>2013-03-02T10:10:17.000Z</time>
      </trkpt>
      <trkpt lat="47.278" lon="4.95552">
        <ele>454</ele>
        <time>2013-03-02T10:10:19.000Z</time>
      </trkpt>
      <trkpt lat="47.27801" lon="4.95553">
        <ele>455</ele>
        <time>2013-03-02T10:10:20.000Z</time>
      </trkpt>
      <trkpt lat="47.27803" lon="4.95556">
        <ele>455.1</ele>
        <time>2013-03-02T10:10:21.000Z</time>
      </trkpt>
      <trkpt lat="47.27805" lon="4.95558">
        <ele>455.3</ele>
        <time>2013-03-02T10:10:22.000Z</time>
      </trkpt>
      <trkpt lat="47.27807" lon="4.9556">
        <ele>455.4</ele>
        <time>2013-03-02T10:10:23.000Z</time>
      </trkpt>
      <trkpt lat="47.2781" lon="4.95561">
        <ele>456.4</ele>
        <time>2013-03-02T10:10:24.000Z</time>
      </trkpt>
      <trkpt lat="47.27813" lon="4.95564">
        <ele>456.6</ele>
        <time>2013-03-02T10:10:26.000Z</time>
      </trkpt>
      <trkpt lat="47.27815" lon="4.95565">
        <ele>456.5</ele>
        <time>2013-03-02T10:10:27.000Z</time>
      </trkpt>
      <trkpt lat="47.27817" lon="4.95566">
        <ele>456.8</ele>
        <time>2013-03-02T10:10:28.000Z</time>
      </trkpt>
      <trkpt lat="47.27819" lon="4.95568">
        <ele>456.9</ele>
        <time>2013-03-02T10:10:29.000Z</time>
      </trkpt>
      <trkpt lat="47.27822" lon="4.95572">
        <ele>452.5</ele>
        <time>2013-03-02T10:10:31.000Z</time>
      </trkpt>
      <trkpt lat="47.27824" lon="4.95573">
        <ele>451</ele>
        <time>2013-03-02T10:10:32.000Z</time>
      </trkpt>
      <trkpt lat="47.27826" lon="4.95574">
        <ele>450.8</ele>
        <time>2013-03-02T10:10:33.000Z</time>
      </trkpt>
      <trkpt lat="47.27828" lon="4.95576">
        <ele>451.1</ele>
        <time>2013-03-02T10:10:34.000Z</time>
      </trkpt>
      <trkpt lat="47.27832" lon="4.95579">
        <ele>450</ele>
        <time>2013-03-02T10:10:36.000Z</time>
      </trkpt>
      <trkpt lat="47.27833" lon="4.95581">
        <ele>449.4</ele>
        <time>2013-03-02T10:10:37.000Z</time>
      </trkpt>
      <trkpt lat="47.27836" lon="4.95583">
        <ele>449</ele>
        <time>2013-03-02T10:10:38.000Z</time>
      </trkpt>
      <trkpt lat="47.27838" lon="4.95583">
        <ele>448.7</ele>
        <time>2013-03-02T10:10:39.000Z</time>
      </trkpt>
      <trkpt lat="47.2784" lon="4.95584">
        <ele>448.6</ele>
        <time>2013-03-02T10:10:40.000Z</time>
      </trkpt>
      <trkpt lat="47.27843" lon="4.95584">
        <ele>448</ele>
        <time>2013-03-02T10:10:41.000Z</time>
      </trkpt>
      <trkpt lat="47.27845" lon="4.95586">
        <ele>447.5</ele>
        <time>2013-03-02T10:10:42.000Z</time>
      </trkpt>
      <trkpt lat="47.27847" lon="4.95586">
        <ele>446.8</ele>
        <time>2013-03-02T10:10:43.000Z</time>
      </trkpt>
      <trkpt lat="47.2785" lon="4.95587">
        <ele>446.5</ele>
        <time>2013-03-02T10:10:44.000Z</time>
      </trkpt>
      <trkpt lat="47.27852" lon="4.95589">
        <ele>445.7</ele>
        <time>2013-03-02T10:10:45.000Z</time>
      </trkpt>
      <trkpt lat="47.27854" lon="4.95591">
        <ele>445</ele>
        <time>2013-03-02T10:10:46.000Z</time>
      </trkpt>
      <trkpt lat="47.27856" lon="4.95593">
        <ele>444.6</ele>
        <time>2013-03-02T10:10:47.000Z</time>
      </trkpt>
      <trkpt lat="47.27858" lon="4.95596">
        <ele>444</ele>
        <time>2013-03-02T10:10:48.000Z</time>
      </trkpt>
      <trkpt lat="47.2786" lon="4.95598">
        <ele>443.5</ele>
        <time>2013-03-02T10:10:49.000Z</time>
      </trkpt>
      <trkpt lat="47.27863" lon="4.95602">
        <ele>442.9</ele>
        <time>2013-03-02T10:10:51.000Z</time>
      </trkpt>
      <trkpt lat="47.27865" lon="4.95604">
        <ele>442.6</ele>
        <time>2013-03-02T10:10:52.000Z</time>
      </trkpt>
      <trkpt lat="47.27867" lon="4.95607">
        <ele>442.5</ele>
        <time>2013-03-02T10:10:53.000Z</time>
      </trkpt>
      <trkpt lat="47.27869" lon="4.95609">
        <ele>442.1</ele>
        <time>2013-03-02T10:10:54.000Z</time>
      </trkpt>
      <trkpt lat="47.27871" lon="4.95611">
        <ele>441.9</ele>
        <time>2013-03-02T10:10:55.000Z</time>
      </trkpt>
      <trkpt lat="47.27873" lon="4.95613">
        <ele>441.6</ele>
        <time>2013-03-02T10:10:56.000Z</time>
      </trkpt>
      <trkpt lat="47.27876" lon="4.95615">
        <ele>441.1</ele>
        <time>2013-03-02T10:10:58.000Z</time>
      </trkpt>
      <trkpt lat="47.27896" lon="4.95628">
        <ele>441.1</ele>
        <time>2013-03-02T10:11:07.000Z</time>
      </trkpt>
      <trkpt lat="47.279" lon="4.95631">
        <ele>439.4</ele>
        <time>2013-03-02T10:11:09.000Z</time>
      </trkpt>
      <trkpt lat="47.27902" lon="4.95633">
        <ele>436</ele>
        <time>2013-03-02T10:11:10.000Z</time>
      </trkpt>
      <trkpt lat="47.27903" lon="4.95638">
        <ele>433.5</ele>
        <time>2013-03-02T10:11:12.000Z</time>
      </trkpt>
      <trkpt lat="47.27904" lon="4.9564">
        <ele>433</ele>
        <time>2013-03-02T10:11:13.000Z</time>
      </trkpt>
      <trkpt lat="47.27907" lon="4.95643">
        <ele>432.9</ele>
        <time>2013-03-02T10:11:17.000Z</time>
      </trkpt>
      <trkpt lat="47.27909" lon="4.95645">
        <ele>432.7</ele>
        <time>2013-03-02T10:11:18.000Z</time>
      </trkpt>
      <trkpt lat="47.27911" lon="4.95647">
        <ele>432</ele>
        <time>2013-03-02T10:11:19.000Z</time>
      </trkpt>
      <trkpt lat="47.27914" lon="4.95647">
        <ele>431.5</ele>
        <time>2013-03-02T10:11:20.000Z</time>
      </trkpt>
      <trkpt lat="47.27917" lon="4.95649">
        <ele>428.8</ele>
        <time>2013-03-02T10:11:22.000Z</time>
      </trkpt>
      <trkpt lat="47.27919" lon="4.95651">
        <ele>427.2</ele>
        <time>2013-03-02T10:11:23.000Z</time>
      </trkpt>
      <trkpt lat="47.27921" lon="4.95652">
        <ele>426.2</ele>
        <time>2013-03-02T10:11:24.000Z</time>
      </trkpt>
      <trkpt lat="47.27923" lon="4.95654">
        <ele>425.1</ele>
        <time>2013-03-02T10:11:25.000Z</time>
      </trkpt>
      <trkpt lat="47.27926" lon="4.95656">
        <ele>424.5</ele>
        <time>2013-03-02T10:11:27.000Z</time>
      </trkpt>
      <trkpt lat="47.27928" lon="4.95657">
        <ele>424.5</ele>
        <time>2013-03-02T10:11:28.000Z</time>
      </trkpt>
      <trkpt lat="47.2793" lon="4.95659">
        <ele>424.3</ele>
        <time>2013-03-02T10:11:29.000Z</time>
      </trkpt>
      <trkpt lat="47.27932" lon="4.95661">
        <ele>425.7</ele>
        <time>2013-03-02T10:11:30.000Z</time>
      </trkpt>
      <trkpt lat="47.27933" lon="4.95665">
        <ele>426.6</ele>
        <time>2013-03-02T10:11:32.000Z</time>
      </trkpt>
      <trkpt lat="47.27934" lon="4.95666">
        <ele>427.1</ele>
        <time>2013-03-02T10:11:33.000Z</time>
      </trkpt>
      <trkpt lat="47.27936" lon="4.95669">
        <ele>428.7</ele>
        <time>2013-03-02T10:11:36.000Z</time>
      </trkpt>
      <trkpt lat="47.27937" lon="4.95672">
        <ele>429.1</ele>
        <time>2013-03-02T10:11:37.000Z</time>
      </trkpt>
      <trkpt lat="47.2794" lon="4.95675">
        <ele>430</ele>
        <time>2013-03-02T10:11:39.000Z</time>
      </trkpt>
      <trkpt lat="47.27941" lon="4.95677">
        <ele>430.1</ele>
        <time>2013-03-02T10:11:40.000Z</time>
      </trkpt>
      <trkpt lat="47.27943" lon="4.95681">
        <ele>430.7</ele>
        <time>2013-03-02T10:11:42.000Z</time>
      </trkpt>
      <trkpt lat="47.27943" lon="4.95683">
        <ele>431</ele>
        <time>2013-03-02T10:11:43.000Z</time>
      </trkpt>
      <trkpt lat="47.27946" lon="4.95688">
        <ele>431.2</ele>
        <time>2013-03-02T10:11:45.000Z</time>
      </trkpt>
      <trkpt lat="47.27947" lon="4.95692">
        <ele>431.1</ele>
        <time>2013-03-02T10:11:46.000Z</time>
      </trkpt>
      <trkpt lat="47.2795" lon="4.95695">
        <ele>431.5</ele>
        <time>2013-03-02T10:11:48.000Z</time>
      </trkpt>
      <trkpt lat="47.27951" lon="4.95697">
        <ele>431.6</ele>
        <time>2013-03-02T10:11:49.000Z</time>
      </trkpt>
      <trkpt lat="47.27953" lon="4.95699">
        <ele>431.7</ele>
        <time>2013-03-02T10:11:50.000Z</time>
      </trkpt>
      <trkpt lat="47.27955" lon="4.95701">
        <ele>431.9</ele>
        <time>2013-03-02T10:11:51.000Z</time>
      </trkpt>
      <trkpt lat="47.27957" lon="4.95703">
        <ele>432.1</ele>
        <time>2013-03-02T10:11:52.000Z</time>
      </trkpt>
      <trkpt lat="47.27959" lon="4.95704">
        <ele>432.3</ele>
        <time>2013-03-02T10:11:53.000Z</time>
      </trkpt>
      <trkpt lat="47.27961" lon="4.95706">
        <ele>432.5</ele>
        <time>2013-03-02T10:11:54.000Z</time>
      </trkpt>
      <trkpt lat="47.27963" lon="4.95709">
        <ele>432.6</ele>
        <time>2013-03-02T10:11:55.000Z</time>
      </trkpt>
      <trkpt lat="47.27965" lon="4.95712">
        <ele>432.9</ele>
        <time>2013-03-02T10:11:56.000Z</time>
      </trkpt>
      <trkpt lat="47.27967" lon="4.95714">
        <ele>433</ele>
        <time>2013-03-02T10:11:57.000Z</time>
      </trkpt>
      <trkpt lat="47.27969" lon="4.95717">
        <ele>432.9</ele>
        <time>2013-03-02T10:11:58.000Z</time>
      </trkpt>
      <trkpt lat="47.27988" lon="4.95738">
        <ele>432.6</ele>
        <time>2013-03-02T10:12:06.000Z</time>
      </trkpt>
      <trkpt lat="47.27991" lon="4.95743">
        <ele>434.1</ele>
        <time>2013-03-02T10:12:09.000Z</time>
      </trkpt>
      <trkpt lat="47.27992" lon="4.95745">
        <ele>434</ele>
        <time>2013-03-02T10:12:10.000Z</time>
      </trkpt>
      <trkpt lat="47.27994" lon="4.95751">
        <ele>434.8</ele>
        <time>2013-03-02T10:12:12.000Z</time>
      </trkpt>
      <trkpt lat="47.27994" lon="4.95752">
        <ele>435.6</ele>
        <time>2013-03-02T10:12:13.000Z</time>
      </trkpt>
      <trkpt lat="47.27997" lon="4.95756">
        <ele>435</ele>
        <time>2013-03-02T10:12:16.000Z</time>
      </trkpt>
      <trkpt lat="47.27999" lon="4.95759">
        <ele>435</ele>
        <time>2013-03-02T10:12:17.000Z</time>
      </trkpt>
      <trkpt lat="47.28" lon="4.95763">
        <ele>433.9</ele>
        <time>2013-03-02T10:12:19.000Z</time>
      </trkpt>
      <trkpt lat="47.28001" lon="4.95765">
        <ele>433.4</ele>
        <time>2013-03-02T10:12:20.000Z</time>
      </trkpt>
      <trkpt lat="47.28005" lon="4.9577">
        <ele>432.2</ele>
        <time>2013-03-02T10:12:22.000Z</time>
      </trkpt>
      <trkpt lat="47.28006" lon="4.95771">
        <ele>432.5</ele>
        <time>2013-03-02T10:12:23.000Z</time>
      </trkpt>
      <trkpt lat="47.28009" lon="4.95773">
        <ele>434.3</ele>
        <time>2013-03-02T10:12:25.000Z</time>
      </trkpt>
      <trkpt lat="47.28011" lon="4.95775">
        <ele>434.6</ele>
        <time>2013-03-02T10:12:26.000Z</time>
      </trkpt>
      <trkpt lat="47.28013" lon="4.95778">
        <ele>435.3</ele>
        <time>2013-03-02T10:12:27.000Z</time>
      </trkpt>
      <trkpt lat="47.28014" lon="4.95781">
        <ele>436.1</ele>
        <time>2013-03-02T10:12:28.000Z</time>
      </trkpt>
      <trkpt lat="47.28016" lon="4.95786">
        <ele>435.8</ele>
        <time>2013-03-02T10:12:30.000Z</time>
      </trkpt>
      <trkpt lat="47.28017" lon="4.95788">
        <ele>435.3</ele>
        <time>2013-03-02T10:12:31.000Z</time>
      </trkpt>
      <trkpt lat="47.2802" lon="4.95792">
        <ele>435.1</ele>
        <time>2013-03-02T10:12:33.000Z</time>
      </trkpt>
      <trkpt lat="47.28021" lon="4.95794">
        <ele>435</ele>
        <time>2013-03-02T10:12:34.000Z</time>
      </trkpt>
      <trkpt lat="47.28024" lon="4.95798">
        <ele>435.6</ele>
        <time>2013-03-02T10:12:36.000Z</time>
      </trkpt>
      <trkpt lat="47.28025" lon="4.95799">
        <ele>435.6</ele>
        <time>2013-03-02T10:12:37.000Z</time>
      </trkpt>
      <trkpt lat="47.28028" lon="4.95803">
        <ele>435.3</ele>
        <time>2013-03-02T10:12:39.000Z</time>
      </trkpt>
      <trkpt lat="47.28029" lon="4.95805">
        <ele>434.7</ele>
        <time>2013-03-02T10:12:40.000Z</time>
      </trkpt>
      <trkpt lat="47.28032" lon="4.95809">
        <ele>434.5</ele>
        <time>2013-03-02T10:12:42.000Z</time>
      </trkpt>
      <trkpt lat="47.28033" lon="4.95811">
        <ele>434.2</ele>
        <time>2013-03-02T10:12:43.000Z</time>
      </trkpt>
      <trkpt lat="47.28036" lon="4.95814">
        <ele>434.8</ele>
        <time>2013-03-02T10:12:45.000Z</time>
      </trkpt>
      <trkpt lat="47.28037" lon="4.95816">
        <ele>434.9</ele>
        <time>2013-03-02T10:12:46.000Z</time>
      </trkpt>
      <trkpt lat="47.28039" lon="4.95821">
        <ele>434.5</ele>
        <time>2013-03-02T10:12:48.000Z</time>
      </trkpt>
      <trkpt lat="47.2804" lon="4.95823">
        <ele>434.8</ele>
        <time>2013-03-02T10:12:49.000Z</time>
      </trkpt>
      <trkpt lat="47.28042" lon="4.95827">
        <ele>434.9</ele>
        <time>2013-03-02T10:12:51.000Z</time>
      </trkpt>
      <trkpt lat="47.28042" lon="4.95829">
        <ele>434.6</ele>
        <time>2013-03-02T10:12:52.000Z</time>
      </trkpt>
      <trkpt lat="47.28046" lon="4.95832">
        <ele>433.4</ele>
        <time>2013-03-02T10:12:55.000Z</time>
      </trkpt>
      <trkpt lat="47.28047" lon="4.95833">
        <ele>433.2</ele>
        <time>2013-03-02T10:12:56.000Z</time>
      </trkpt>
      <trkpt lat="47.2805" lon="4.95833">
        <ele>432.5</ele>
        <time>2013-03-02T10:12:58.000Z</time>
      </trkpt>
      <trkpt lat="47.28056" lon="4.95842">
        <ele>424.2</ele>
        <time>2013-03-02T10:13:06.000Z</time>
      </trkpt>
      <trkpt lat="47.28055" lon="4.95846">
        <ele>414</ele>
        <time>2013-03-02T10:13:32.000Z</time>
      </trkpt>
      <trkpt lat="47.28064" lon="4.95843">
        <ele>416.3</ele>
        <time>2013-03-02T10:13:33.000Z</time>
      </trkpt>
      <trkpt lat="47.28065" lon="4.95842">
        <ele>415.7</ele>
        <time>2013-03-02T10:13:49.000Z</time>
      </trkpt>
      <trkpt lat="47.28069" lon="4.95837">
        <ele>415.1</ele>
        <time>2013-03-02T10:13:50.000Z</time>
      </trkpt>
      <trkpt lat="47.28071" lon="4.95836">
        <ele>414.7</ele>
        <time>2013-03-02T10:13:58.000Z</time>
      </trkpt>
      <trkpt lat="47.28072" lon="4.95826">
        <ele>436</ele>
        <time>2013-03-02T10:14:06.000Z</time>
      </trkpt>
      <trkpt lat="47.28072" lon="4.95826">
        <ele>436</ele>
        <time>2013-03-02T10:14:26.000Z</time>
      </trkpt>
      <trkpt lat="47.2808" lon="4.95825">
        <ele>438.3</ele>
        <time>2013-03-02T10:14:27.000Z</time>
      </trkpt>
      <trkpt lat="47.28085" lon="4.95823">
        <ele>437.6</ele>
        <time>2013-03-02T10:14:40.000Z</time>
      </trkpt>
      <trkpt lat="47.28085" lon="4.95822">
        <ele>437.6</ele>
        <time>2013-03-02T10:14:41.000Z</time>
      </trkpt>
      <trkpt lat="47.28089" lon="4.95822">
        <ele>437.1</ele>
        <time>2013-03-02T10:14:58.000Z</time>
      </trkpt>
      <trkpt lat="47.281" lon="4.95812">
        <ele>439.1</ele>
        <time>2013-03-02T10:15:05.000Z</time>
      </trkpt>
      <trkpt lat="47.281" lon="4.9581">
        <ele>440.8</ele>
        <time>2013-03-02T10:15:32.000Z</time>
      </trkpt>
      <trkpt lat="47.28107" lon="4.9581">
        <ele>443.2</ele>
        <time>2013-03-02T10:15:33.000Z</time>
      </trkpt>
      <trkpt lat="47.2811" lon="4.95805">
        <ele>443.9</ele>
        <time>2013-03-02T10:15:44.000Z</time>
      </trkpt>
      <trkpt lat="47.2811" lon="4.95804">
        <ele>444.1</ele>
        <time>2013-03-02T10:15:45.000Z</time>
      </trkpt>
      <trkpt lat="47.28114" lon="4.95801">
        <ele>445.7</ele>
        <time>2013-03-02T10:15:53.000Z</time>
      </trkpt>
      <trkpt lat="47.28115" lon="4.95801">
        <ele>445.9</ele>
        <time>2013-03-02T10:15:54.000Z</time>
      </trkpt>
      <trkpt lat="47.28116" lon="4.95799">
        <ele>447.4</ele>
        <time>2013-03-02T10:15:58.000Z</time>
      </trkpt>
      <trkpt lat="47.28122" lon="4.95797">
        <ele>444.6</ele>
        <time>2013-03-02T10:16:05.000Z</time>
      </trkpt>
      <trkpt lat="47.28124" lon="4.95792">
        <ele>454.9</ele>
        <time>2013-03-02T10:16:16.000Z</time>
      </trkpt>
      <trkpt lat="47.28124" lon="4.95791">
        <ele>455.2</ele>
        <time>2013-03-02T10:16:17.000Z</time>
      </trkpt>
      <trkpt lat="47.28128" lon="4.95788">
        <ele>459.9</ele>
        <time>2013-03-02T10:16:28.000Z</time>
      </trkpt>
      <trkpt lat="47.28129" lon="4.95788">
        <ele>460.1</ele>
        <time>2013-03-02T10:16:29.000Z</time>
      </trkpt>
      <trkpt lat="47.28132" lon="4.95784">
        <ele>460.6</ele>
        <time>2013-03-02T10:16:40.000Z</time>
      </trkpt>
      <trkpt lat="47.28132" lon="4.95784">
        <ele>460.6</ele>
        <time>2013-03-02T10:16:41.000Z</time>
      </trkpt>
      <trkpt lat="47.28136" lon="4.95782">
        <ele>461.6</ele>
        <time>2013-03-02T10:16:50.000Z</time>
      </trkpt>
      <trkpt lat="47.28137" lon="4.95781">
        <ele>461.7</ele>
        <time>2013-03-02T10:16:51.000Z</time>
      </trkpt>
      <trkpt lat="47.2814" lon="4.95777">
        <ele>462.9</ele>
        <time>2013-03-02T10:16:58.000Z</time>
      </trkpt>
      <trkpt lat="47.28144" lon="4.95773">
        <ele>464.8</ele>
        <time>2013-03-02T10:17:05.000Z</time>
      </trkpt>
      <trkpt lat="47.28148" lon="4.95769">
        <ele>466.5</ele>
        <time>2013-03-02T10:17:13.000Z</time>
      </trkpt>
      <trkpt lat="47.28148" lon="4.95768">
        <ele>466.9</ele>
        <time>2013-03-02T10:17:14.000Z</time>
      </trkpt>
      <trkpt lat="47.28151" lon="4.95765">
        <ele>469.5</ele>
        <time>2013-03-02T10:17:22.000Z</time>
      </trkpt>
      <trkpt lat="47.28152" lon="4.95764">
        <ele>469.8</ele>
        <time>2013-03-02T10:17:23.000Z</time>
      </trkpt>
      <trkpt lat="47.28155" lon="4.95761">
        <ele>472.9</ele>
        <time>2013-03-02T10:17:29.000Z</time>
      </trkpt>
      <trkpt lat="47.28155" lon="4.9576">
        <ele>472.8</ele>
        <time>2013-03-02T10:17:30.000Z</time>
      </trkpt>
      <trkpt lat="47.28159" lon="4.9576">
        <ele>472.9</ele>
        <time>2013-03-02T10:17:35.000Z</time>
      </trkpt>
      <trkpt lat="47.2816" lon="4.95761">
        <ele>473.1</ele>
        <time>2013-03-02T10:17:36.000Z</time>
      </trkpt>
      <trkpt lat="47.28164" lon="4.95765">
        <ele>473</ele>
        <time>2013-03-02T10:17:40.000Z</time>
      </trkpt>
      <trkpt lat="47.28164" lon="4.95766">
        <ele>473.1</ele>
        <time>2013-03-02T10:17:41.000Z</time>
      </trkpt>
      <trkpt lat="47.28166" lon="4.95771">
        <ele>473.1</ele>
        <time>2013-03-02T10:17:44.000Z</time>
      </trkpt>
      <trkpt lat="47.28167" lon="4.95772">
        <ele>473.3</ele>
        <time>2013-03-02T10:17:45.000Z</time>
      </trkpt>
      <trkpt lat="47.28169" lon="4.95777">
        <ele>473.1</ele>
        <time>2013-03-02T10:17:48.000Z</time>
      </trkpt>
      <trkpt lat="47.2817" lon="4.95779">
        <ele>473</ele>
        <time>2013-03-02T10:17:49.000Z</time>
      </trkpt>
      <trkpt lat="47.28172" lon="4.95783">
        <ele>472.6</ele>
        <time>2013-03-02T10:17:51.000Z</time>
      </trkpt>
      <trkpt lat="47.28173" lon="4.95785">
        <ele>472.5</ele>
        <time>2013-03-02T10:17:52.000Z</time>
      </trkpt>
      <trkpt lat="47.28175" lon="4.95789">
        <ele>472.1</ele>
        <time>2013-03-02T10:17:54.000Z</time>
      </trkpt>
      <trkpt lat="47.28177" lon="4.95791">
        <ele>471.9</ele>
        <time>2013-03-02T10:17:55.000Z</time>
      </trkpt>
      <trkpt lat="47.28179" lon="4.95794">
        <ele>471.8</ele>
        <time>2013-03-02T10:17:57.000Z</time>
      </trkpt>
      <trkpt lat="47.2818" lon="4.95796">
        <ele>471.7</ele>
        <time>2013-03-02T10:17:58.000Z</time>
      </trkpt>
      <trkpt lat="47.28189" lon="4.95811">
        <ele>471.2</ele>
        <time>2013-03-02T10:18:05.000Z</time>
      </trkpt>
      <trkpt lat="47.28192" lon="4.95814">
        <ele>473.4</ele>
        <time>2013-03-02T10:18:08.000Z</time>
      </trkpt>
      <trkpt lat="47.28192" lon="4.95815">
        <ele>473.7</ele>
        <time>2013-03-02T10:18:09.000Z</time>
      </trkpt>
      <trkpt lat="47.28195" lon="4.9582">
        <ele>473.5</ele>
        <time>2013-03-02T10:18:12.000Z</time>
      </trkpt>
      <trkpt lat="47.28196" lon="4.95822">
        <ele>473.5</ele>
        <time>2013-03-02T10:18:13.000Z</time>
      </trkpt>
      <trkpt lat="47.28198" lon="4.95826">
        <ele>474.6</ele>
        <time>2013-03-02T10:18:15.000Z</time>
      </trkpt>
      <trkpt lat="47.28199" lon="4.95829">
        <ele>473.5</ele>
        <time>2013-03-02T10:18:16.000Z</time>
      </trkpt>
      <trkpt lat="47.282" lon="4.95833">
        <ele>472.5</ele>
        <time>2013-03-02T10:18:18.000Z</time>
      </trkpt>
      <trkpt lat="47.28201" lon="4.95835">
        <ele>472.2</ele>
        <time>2013-03-02T10:18:19.000Z</time>
      </trkpt>
      <trkpt lat="47.28203" lon="4.95838">
        <ele>471.9</ele>
        <time>2013-03-02T10:18:21.000Z</time>
      </trkpt>
      <trkpt lat="47.28204" lon="4.9584">
        <ele>472</ele>
        <time>2013-03-02T10:18:22.000Z</time>
      </trkpt>
      <trkpt lat="47.28207" lon="4.95844">
        <ele>471.1</ele>
        <time>2013-03-02T10:18:25.000Z</time>
      </trkpt>
      <trkpt lat="47.28208" lon="4.95845">
        <ele>470.8</ele>
        <time>2013-03-02T10:18:26.000Z</time>
      </trkpt>
      <trkpt lat="47.2821" lon="4.95848">
        <ele>471.3</ele>
        <time>2013-03-02T10:18:28.000Z</time>
      </trkpt>
      <trkpt lat="47.28211" lon="4.9585">
        <ele>471.2</ele>
        <time>2013-03-02T10:18:29.000Z</time>
      </trkpt>
      <trkpt lat="47.28213" lon="4.95854">
        <ele>470.9</ele>
        <time>2013-03-02T10:18:31.000Z</time>
      </trkpt>
      <trkpt lat="47.28214" lon="4.95856">
        <ele>470.9</ele>
        <time>2013-03-02T10:18:32.000Z</time>
      </trkpt>
      <trkpt lat="47.28217" lon="4.9586">
        <ele>470.3</ele>
        <time>2013-03-02T10:18:35.000Z</time>
      </trkpt>
      <trkpt lat="47.28219" lon="4.95862">
        <ele>470</ele>
        <time>2013-03-02T10:18:36.000Z</time>
      </trkpt>
      <trkpt lat="47.28221" lon="4.95865">
        <ele>469.9</ele>
        <time>2013-03-02T10:18:38.000Z</time>
      </trkpt>
      <trkpt lat="47.28222" lon="4.95866">
        <ele>469.9</ele>
        <time>2013-03-02T10:18:39.000Z</time>
      </trkpt>
      <trkpt lat="47.28224" lon="4.95869">
        <ele>469.9</ele>
        <time>2013-03-02T10:18:41.000Z</time>
      </trkpt>
      <trkpt lat="47.28225" lon="4.95871">
        <ele>470.1</ele>
        <time>2013-03-02T10:18:42.000Z</time>
      </trkpt>
      <trkpt lat="47.28229" lon="4.95876">
        <ele>469.8</ele>
        <time>2013-03-02T10:18:45.000Z</time>
      </trkpt>
      <trkpt lat="47.28229" lon="4.95877">
        <ele>469.6</ele>
        <time>2013-03-02T10:18:46.000Z</time>
      </trkpt>
      <trkpt lat="47.28231" lon="4.95881">
        <ele>469.4</ele>
        <time>2013-03-02T10:18:48.000Z</time>
      </trkpt>
      <trkpt lat="47.28232" lon="4.95882">
        <ele>469.5</ele>
        <time>2013-03-02T10:18:49.000Z</time>
      </trkpt>
      <trkpt lat="47.28235" lon="4.95887">
        <ele>469.2</ele>
        <time>2013-03-02T10:18:52.000Z</time>
      </trkpt>
      <trkpt lat="47.28236" lon="4.95888">
        <ele>469</ele>
        <time>2013-03-02T10:18:53.000Z</time>
      </trkpt>
      <trkpt lat="47.28239" lon="4.95891">
        <ele>468.9</ele>
        <time>2013-03-02T10:18:55.000Z</time>
      </trkpt>
      <trkpt lat="47.2824" lon="4.95892">
        <ele>468.7</ele>
        <time>2013-03-02T10:18:56.000Z</time>
      </trkpt>
      <trkpt lat="47.28243" lon="4.95895">
        <ele>468.4</ele>
        <time>2013-03-02T10:18:58.000Z</time>
      </trkpt>
      <trkpt lat="47.28255" lon="4.95906">
        <ele>469.5</ele>
        <time>2013-03-02T10:19:05.000Z</time>
      </trkpt>
      <trkpt lat="47.28259" lon="4.95909">
        <ele>469</ele>
        <time>2013-03-02T10:19:08.000Z</time>
      </trkpt>
      <trkpt lat="47.28259" lon="4.9591">
        <ele>467.8</ele>
        <time>2013-03-02T10:19:09.000Z</time>
      </trkpt>
      <trkpt lat="47.28262" lon="4.95915">
        <ele>466.1</ele>
        <time>2013-03-02T10:19:12.000Z</time>
      </trkpt>
      <trkpt lat="47.28263" lon="4.95917">
        <ele>465.5</ele>
        <time>2013-03-02T10:19:13.000Z</time>
      </trkpt>
      <trkpt lat="47.28265" lon="4.95921">
        <ele>464.8</ele>
        <time>2013-03-02T10:19:15.000Z</time>
      </trkpt>
      <trkpt lat="47.28266" lon="4.95922">
        <ele>465</ele>
        <time>2013-03-02T10:19:16.000Z</time>
      </trkpt>
      <trkpt lat="47.28268" lon="4.95926">
        <ele>464.4</ele>
        <time>2013-03-02T10:19:18.000Z</time>
      </trkpt>
      <trkpt lat="47.28269" lon="4.95928">
        <ele>463.9</ele>
        <time>2013-03-02T10:19:19.000Z</time>
      </trkpt>
      <trkpt lat="47.2827" lon="4.95931">
        <ele>463.2</ele>
        <time>2013-03-02T10:19:21.000Z</time>
      </trkpt>
      <trkpt lat="47.28272" lon="4.95933">
        <ele>462.4</ele>
        <time>2013-03-02T10:19:22.000Z</time>
      </trkpt>
      <trkpt lat="47.28274" lon="4.95936">
        <ele>461.1</ele>
        <time>2013-03-02T10:19:24.000Z</time>
      </trkpt>
      <trkpt lat="47.28275" lon="4.95938">
        <ele>461</ele>
        <time>2013-03-02T10:19:25.000Z</time>
      </trkpt>
      <trkpt lat="47.28277" lon="4.95941">
        <ele>460.8</ele>
        <time>2013-03-02T10:19:27.000Z</time>
      </trkpt>
      <trkpt lat="47.28277" lon="4.95943">
        <ele>459.6</ele>
        <time>2013-03-02T10:19:28.000Z</time>
      </trkpt>
      <trkpt lat="47.28279" lon="4.95948">
        <ele>458.7</ele>
        <time>2013-03-02T10:19:31.000Z</time>
      </trkpt>
      <trkpt lat="47.2828" lon="4.95949">
        <ele>458.4</ele>
        <time>2013-03-02T10:19:32.000Z</time>
      </trkpt>
      <trkpt lat="47.28282" lon="4.95953">
        <ele>457.1</ele>
        <time>2013-03-02T10:19:34.000Z</time>
      </trkpt>
      <trkpt lat="47.28283" lon="4.95955">
        <ele>455.9</ele>
        <time>2013-03-02T10:19:35.000Z</time>
      </trkpt>
      <trkpt lat="47.28285" lon="4.95961">
        <ele>454.3</ele>
        <time>2013-03-02T10:19:38.000Z</time>
      </trkpt>
      <trkpt lat="47.28286" lon="4.95962">
        <ele>454.4</ele>
        <time>2013-03-02T10:19:39.000Z</time>
      </trkpt>
      <trkpt lat="47.28287" lon="4.95968">
        <ele>454</ele>
        <time>2013-03-02T10:19:43.000Z</time>
      </trkpt>
      <trkpt lat="47.28288" lon="4.9597">
        <ele>453.9</ele>
        <time>2013-03-02T10:19:44.000Z</time>
      </trkpt>
      <trkpt lat="47.28291" lon="4.95973">
        <ele>452.9</ele>
        <time>2013-03-02T10:19:46.000Z</time>
      </trkpt>
      <trkpt lat="47.28293" lon="4.95975">
        <ele>452</ele>
        <time>2013-03-02T10:19:47.000Z</time>
      </trkpt>
      <trkpt lat="47.28295" lon="4.95981">
        <ele>451.3</ele>
        <time>2013-03-02T10:19:50.000Z</time>
      </trkpt>
      <trkpt lat="47.28295" lon="4.95982">
        <ele>451</ele>
        <time>2013-03-02T10:19:51.000Z</time>
      </trkpt>
      <trkpt lat="47.28296" lon="4.95986">
        <ele>450.5</ele>
        <time>2013-03-02T10:19:53.000Z</time>
      </trkpt>
      <trkpt lat="47.28297" lon="4.95988">
        <ele>450.1</ele>
        <time>2013-03-02T10:19:54.000Z</time>
      </trkpt>
      <trkpt lat="47.28298" lon="4.95992">
        <ele>449.3</ele>
        <time>2013-03-02T10:19:56.000Z</time>
      </trkpt>
      <trkpt lat="47.28299" lon="4.95995">
        <ele>449</ele>
        <time>2013-03-02T10:19:57.000Z</time>
      </trkpt>
      <trkpt lat="47.283" lon="4.96001">
        <ele>448.7</ele>
        <time>2013-03-02T10:19:59.000Z</time>
      </trkpt>
      <trkpt lat="47.28301" lon="4.96004">
        <ele>448.5</ele>
        <time>2013-03-02T10:20:00.000Z</time>
      </trkpt>
      <trkpt lat="47.28302" lon="4.96009">
        <ele>448.5</ele>
        <time>2013-03-02T10:20:01.000Z</time>
      </trkpt>
      <trkpt lat="47.28302" lon="4.96013">
        <ele>448.3</ele>
        <time>2013-03-02T10:20:02.000Z</time>
      </trkpt>
      <trkpt lat="47.28303" lon="4.96019">
        <ele>447.9</ele>
        <time>2013-03-02T10:20:04.000Z</time>
      </trkpt>
      <trkpt lat="47.28303" lon="4.96022">
        <ele>447.6</ele>
        <time>2013-03-02T10:20:05.000Z</time>
      </trkpt>
      <trkpt lat="47.28304" lon="4.96027">
        <ele>447.3</ele>
        <time>2013-03-02T10:20:07.000Z</time>
      </trkpt>
      <trkpt lat="47.28303" lon="4.96029">
        <ele>447.3</ele>
        <time>2013-03-02T10:20:08.000Z</time>
      </trkpt>
      <trkpt lat="47.28303" lon="4.96034">
        <ele>447.2</ele>
        <time>2013-03-02T10:20:10.000Z</time>
      </trkpt>
      <trkpt lat="47.28304" lon="4.96038">
        <ele>446.9</ele>
        <time>2013-03-02T10:20:11.000Z</time>
      </trkpt>
      <trkpt lat="47.28305" lon="4.96044">
        <ele>446.6</ele>
        <time>2013-03-02T10:20:13.000Z</time>
      </trkpt>
      <trkpt lat="47.28306" lon="4.96047">
        <ele>446.5</ele>
        <time>2013-03-02T10:20:14.000Z</time>
      </trkpt>
      <trkpt lat="47.28307" lon="4.96053">
        <ele>446</ele>
        <time>2013-03-02T10:20:16.000Z</time>
      </trkpt>
      <trkpt lat="47.28307" lon="4.96057">
        <ele>445.8</ele>
        <time>2013-03-02T10:20:17.000Z</time>
      </trkpt>
      <trkpt lat="47.28306" lon="4.9606">
        <ele>445.7</ele>
        <time>2013-03-02T10:20:18.000Z</time>
      </trkpt>
      <trkpt lat="47.28306" lon="4.96063">
        <ele>445.4</ele>
        <time>2013-03-02T10:20:19.000Z</time>
      </trkpt>
      <trkpt lat="47.28306" lon="4.96068">
        <ele>444.7</ele>
        <time>2013-03-02T10:20:21.000Z</time>
      </trkpt>
      <trkpt lat="47.28306" lon="4.96071">
        <ele>444.5</ele>
        <time>2013-03-02T10:20:22.000Z</time>
      </trkpt>
      <trkpt lat="47.28305" lon="4.96075">
        <ele>444</ele>
        <time>2013-03-02T10:20:24.000Z</time>
      </trkpt>
      <trkpt lat="47.28305" lon="4.96078">
        <ele>443.7</ele>
        <time>2013-03-02T10:20:25.000Z</time>
      </trkpt>
      <trkpt lat="47.28305" lon="4.96084">
        <ele>442.6</ele>
        <time>2013-03-02T10:20:28.000Z</time>
      </trkpt>
      <trkpt lat="47.28305" lon="4.96087">
        <ele>442.3</ele>
        <time>2013-03-02T10:20:29.000Z</time>
      </trkpt>
      <trkpt lat="47.28305" lon="4.96093">
        <ele>441.8</ele>
        <time>2013-03-02T10:20:31.000Z</time>
      </trkpt>
      <trkpt lat="47.28305" lon="4.96096">
        <ele>441.5</ele>
        <time>2013-03-02T10:20:32.000Z</time>
      </trkpt>
      <trkpt lat="47.28304" lon="4.96101">
        <ele>440.9</ele>
        <time>2013-03-02T10:20:34.000Z</time>
      </trkpt>
      <trkpt lat="47.28304" lon="4.96103">
        <ele>440.6</ele>
        <time>2013-03-02T10:20:35.000Z</time>
      </trkpt>
      <trkpt lat="47.28302" lon="4.96107">
        <ele>440.3</ele>
        <time>2013-03-02T10:20:37.000Z</time>
      </trkpt>
      <trkpt lat="47.28302" lon="4.9611">
        <ele>440.2</ele>
        <time>2013-03-02T10:20:38.000Z</time>
      </trkpt>
      <trkpt lat="47.28301" lon="4.96115">
        <ele>439.6</ele>
        <time>2013-03-02T10:20:40.000Z</time>
      </trkpt>
      <trkpt lat="47.28301" lon="4.96119">
        <ele>439.2</ele>
        <time>2013-03-02T10:20:41.000Z</time>
      </trkpt>
      <trkpt lat="47.28302" lon="4.96122">
        <ele>438.9</ele>
        <time>2013-03-02T10:20:42.000Z</time>
      </trkpt>
      <trkpt lat="47.28301" lon="4.96125">
        <ele>438.6</ele>
        <time>2013-03-02T10:20:43.000Z</time>
      </trkpt>
      <trkpt lat="47.28301" lon="4.96131">
        <ele>437.9</ele>
        <time>2013-03-02T10:20:45.000Z</time>
      </trkpt>
      <trkpt lat="47.28302" lon="4.96134">
        <ele>437.6</ele>
        <time>2013-03-02T10:20:46.000Z</time>
      </trkpt>
      <trkpt lat="47.28302" lon="4.9614">
        <ele>436.9</ele>
        <time>2013-03-02T10:20:48.000Z</time>
      </trkpt>
      <trkpt lat="47.28302" lon="4.96144">
        <ele>436.5</ele>
        <time>2013-03-02T10:20:49.000Z</time>
      </trkpt>
      <trkpt lat="47.28303" lon="4.96149">
        <ele>435.6</ele>
        <time>2013-03-02T10:20:51.000Z</time>
      </trkpt>
      <trkpt lat="47.28303" lon="4.96151">
        <ele>435.3</ele>
        <time>2013-03-02T10:20:52.000Z</time>
      </trkpt>
      <trkpt lat="47.28304" lon="4.96157">
        <ele>434.5</ele>
        <time>2013-03-02T10:20:54.000Z</time>
      </trkpt>
      <trkpt lat="47.28304" lon="4.96159">
        <ele>434</ele>
        <time>2013-03-02T10:20:55.000Z</time>
      </trkpt>
      <trkpt lat="47.28304" lon="4.96166">
        <ele>433.1</ele>
        <time>2013-03-02T10:20:57.000Z</time>
      </trkpt>
      <trkpt lat="47.28304" lon="4.96168">
        <ele>432.8</ele>
        <time>2013-03-02T10:20:58.000Z</time>
      </trkpt>
      <trkpt lat="47.2831" lon="4.962">
        <ele>424.2</ele>
        <time>2013-03-02T10:21:09.000Z</time>
      </trkpt>
      <trkpt lat="47.28312" lon="4.96204">
        <ele>422.3</ele>
        <time>2013-03-02T10:21:11.000Z</time>
      </trkpt>
      <trkpt lat="47.28313" lon="4.96206">
        <ele>422.2</ele>
        <time>2013-03-02T10:21:12.000Z</time>
      </trkpt>
      <trkpt lat="47.28314" lon="4.96212">
        <ele>421.4</ele>
        <time>2013-03-02T10:21:14.000Z</time>
      </trkpt>
      <trkpt lat="47.28315" lon="4.96214">
        <ele>419.8</ele>
        <time>2013-03-02T10:21:15.000Z</time>
      </trkpt>
      <trkpt lat="47.28318" lon="4.96219">
        <ele>417.7</ele>
        <time>2013-03-02T10:21:17.000Z</time>
      </trkpt>
      <trkpt lat="47.28318" lon="4.96222">
        <ele>416</ele>
        <time>2013-03-02T10:21:18.000Z</time>
      </trkpt>
      <trkpt lat="47.28319" lon="4.96225">
        <ele>413.6</ele>
        <time>2013-03-02T10:21:19.000Z</time>
      </trkpt>
      <trkpt lat="47.28321" lon="4.96229">
        <ele>412.8</ele>
        <time>2013-03-02T10:21:20.000Z</time>
      </trkpt>
      <trkpt lat="47.28323" lon="4.96233">
        <ele>412</ele>
        <time>2013-03-02T10:21:22.000Z</time>
      </trkpt>
      <trkpt lat="47.28323" lon="4.96236">
        <ele>411.5</ele>
        <time>2013-03-02T10:21:23.000Z</time>
      </trkpt>
      <trkpt lat="47.28324" lon="4.96241">
        <ele>411.2</ele>
        <time>2013-03-02T10:21:25.000Z</time>
      </trkpt>
      <trkpt lat="47.28323" lon="4.96244">
        <ele>410.8</ele>
        <time>2013-03-02T10:21:26.000Z</time>
      </trkpt>
      <trkpt lat="47.28324" lon="4.96248">
        <ele>410.7</ele>
        <time>2013-03-02T10:21:27.000Z</time>
      </trkpt>
      <trkpt lat="47.28325" lon="4.96251">
        <ele>409.5</ele>
        <time>2013-03-02T10:21:28.000Z</time>
      </trkpt>
      <trkpt lat="47.28326" lon="4.96257">
        <ele>409.9</ele>
        <time>2013-03-02T10:21:30.000Z</time>
      </trkpt>
      <trkpt lat="47.28327" lon="4.9626">
        <ele>409</ele>
        <time>2013-03-02T10:21:31.000Z</time>
      </trkpt>
      <trkpt lat="47.28328" lon="4.96264">
        <ele>409</ele>
        <time>2013-03-02T10:21:32.000Z</time>
      </trkpt>
      <trkpt lat="47.28328" lon="4.96267">
        <ele>409.3</ele>
        <time>2013-03-02T10:21:33.000Z</time>
      </trkpt>
      <trkpt lat="47.28329" lon="4.96273">
        <ele>408.8</ele>
        <time>2013-03-02T10:21:35.000Z</time>
      </trkpt>
      <trkpt lat="47.2833" lon="4.96276">
        <ele>408.3</ele>
        <time>2013-03-02T10:21:36.000Z</time>
      </trkpt>
      <trkpt lat="47.28331" lon="4.96279">
        <ele>408</ele>
        <time>2013-03-02T10:21:37.000Z</time>
      </trkpt>
      <trkpt lat="47.28332" lon="4.96282">
        <ele>407.5</ele>
        <time>2013-03-02T10:21:38.000Z</time>
      </trkpt>
      <trkpt lat="47.28333" lon="4.96285">
        <ele>407.3</ele>
        <time>2013-03-02T10:21:39.000Z</time>
      </trkpt>
      <trkpt lat="47.28334" lon="4.96288">
        <ele>406.8</ele>
        <time>2013-03-02T10:21:40.000Z</time>
      </trkpt>
      <trkpt lat="47.28334" lon="4.96292">
        <ele>406.6</ele>
        <time>2013-03-02T10:21:41.000Z</time>
      </trkpt>
      <trkpt lat="47.28335" lon="4.96295">
        <ele>406.5</ele>
        <time>2013-03-02T10:21:42.000Z</time>
      </trkpt>
      <trkpt lat="47.28336" lon="4.96302">
        <ele>405.8</ele>
        <time>2013-03-02T10:21:44.000Z</time>
      </trkpt>
      <trkpt lat="47.28337" lon="4.96305">
        <ele>405.7</ele>
        <time>2013-03-02T10:21:45.000Z</time>
      </trkpt>
      <trkpt lat="47.28338" lon="4.9631">
        <ele>405.5</ele>
        <time>2013-03-02T10:21:47.000Z</time>
      </trkpt>
      <trkpt lat="47.28339" lon="4.96313">
        <ele>405.5</ele>
        <time>2013-03-02T10:21:48.000Z</time>
      </trkpt>
      <trkpt lat="47.2834" lon="4.96316">
        <ele>405.3</ele>
        <time>2013-03-02T10:21:49.000Z</time>
      </trkpt>
      <trkpt lat="47.28341" lon="4.9632">
        <ele>405.4</ele>
        <time>2013-03-02T10:21:50.000Z</time>
      </trkpt>
      <trkpt lat="47.28341" lon="4.96324">
        <ele>405.2</ele>
        <time>2013-03-02T10:21:51.000Z</time>
      </trkpt>
      <trkpt lat="47.28341" lon="4.96327">
        <ele>404.9</ele>
        <time>2013-03-02T10:21:52.000Z</time>
      </trkpt>
      <trkpt lat="47.28342" lon="4.96334">
        <ele>404.9</ele>
        <time>2013-03-02T10:21:54.000Z</time>
      </trkpt>
      <trkpt lat="47.28342" lon="4.96336">
        <ele>404.9</ele>
        <time>2013-03-02T10:21:55.000Z</time>
      </trkpt>
      <trkpt lat="47.28343" lon="4.96343">
        <ele>404.7</ele>
        <time>2013-03-02T10:21:57.000Z</time>
      </trkpt>
      <trkpt lat="47.28343" lon="4.96345">
        <ele>404.5</ele>
        <time>2013-03-02T10:21:58.000Z</time>
      </trkpt>
      <trkpt lat="47.28344" lon="4.96348">
        <ele>404.5</ele>
        <time>2013-03-02T10:21:59.000Z</time>
      </trkpt>
      <trkpt lat="47.2835" lon="4.96379">
        <ele>395.5</ele>
        <time>2013-03-02T10:22:08.000Z</time>
      </trkpt>
      <trkpt lat="47.28349" lon="4.96385">
        <ele>396.7</ele>
        <time>2013-03-02T10:22:10.000Z</time>
      </trkpt>
      <trkpt lat="47.28349" lon="4.96388">
        <ele>397</ele>
        <time>2013-03-02T10:22:11.000Z</time>
      </trkpt>
      <trkpt lat="47.28348" lon="4.96393">
        <ele>399.2</ele>
        <time>2013-03-02T10:22:13.000Z</time>
      </trkpt>
      <trkpt lat="47.28347" lon="4.96395">
        <ele>400.9</ele>
        <time>2013-03-02T10:22:14.000Z</time>
      </trkpt>
      <trkpt lat="47.28347" lon="4.96399">
        <ele>404.4</ele>
        <time>2013-03-02T10:22:16.000Z</time>
      </trkpt>
      <trkpt lat="47.28347" lon="4.96402">
        <ele>405.8</ele>
        <time>2013-03-02T10:22:17.000Z</time>
      </trkpt>
      <trkpt lat="47.28347" lon="4.96406">
        <ele>407.1</ele>
        <time>2013-03-02T10:22:19.000Z</time>
      </trkpt>
      <trkpt lat="47.28347" lon="4.96409">
        <ele>408.6</ele>
        <time>2013-03-02T10:22:20.000Z</time>
      </trkpt>
      <trkpt lat="47.28347" lon="4.96412">
        <ele>410.4</ele>
        <time>2013-03-02T10:22:21.000Z</time>
      </trkpt>
      <trkpt lat="47.28348" lon="4.96415">
        <ele>411.7</ele>
        <time>2013-03-02T10:22:22.000Z</time>
      </trkpt>
      <trkpt lat="47.28348" lon="4.9642">
        <ele>413.7</ele>
        <time>2013-03-02T10:22:23.000Z</time>
      </trkpt>
      <trkpt lat="47.28349" lon="4.96423">
        <ele>412.8</ele>
        <time>2013-03-02T10:22:24.000Z</time>
      </trkpt>
      <trkpt lat="47.2835" lon="4.96426">
        <ele>413.3</ele>
        <time>2013-03-02T10:22:25.000Z</time>
      </trkpt>
      <trkpt lat="47.2835" lon="4.96429">
        <ele>414</ele>
        <time>2013-03-02T10:22:26.000Z</time>
      </trkpt>
      <trkpt lat="47.28352" lon="4.96435">
        <ele>415.6</ele>
        <time>2013-03-02T10:22:28.000Z</time>
      </trkpt>
      <trkpt lat="47.28352" lon="4.96437">
        <ele>416</ele>
        <time>2013-03-02T10:22:29.000Z</time>
      </trkpt>
      <trkpt lat="47.28354" lon="4.96443">
        <ele>414.6</ele>
        <time>2013-03-02T10:22:31.000Z</time>
      </trkpt>
      <trkpt lat="47.28354" lon="4.96445">
        <ele>413.5</ele>
        <time>2013-03-02T10:22:32.000Z</time>
      </trkpt>
      <trkpt lat="47.28355" lon="4.96448">
        <ele>413</ele>
        <time>2013-03-02T10:22:33.000Z</time>
      </trkpt>
      <trkpt lat="47.28357" lon="4.96451">
        <ele>412.3</ele>
        <time>2013-03-02T10:22:34.000Z</time>
      </trkpt>
      <trkpt lat="47.28358" lon="4.96454">
        <ele>411.1</ele>
        <time>2013-03-02T10:22:35.000Z</time>
      </trkpt>
      <trkpt lat="47.28359" lon="4.96457">
        <ele>410.4</ele>
        <time>2013-03-02T10:22:36.000Z</time>
      </trkpt>
      <trkpt lat="47.2836" lon="4.96459">
        <ele>410.1</ele>
        <time>2013-03-02T10:22:37.000Z</time>
      </trkpt>
      <trkpt lat="47.28361" lon="4.96463">
        <ele>409.7</ele>
        <time>2013-03-02T10:22:38.000Z</time>
      </trkpt>
      <trkpt lat="47.28362" lon="4.96469">
        <ele>408.8</ele>
        <time>2013-03-02T10:22:40.000Z</time>
      </trkpt>
      <trkpt lat="47.28363" lon="4.96471">
        <ele>408.5</ele>
        <time>2013-03-02T10:22:41.000Z</time>
      </trkpt>
      <trkpt lat="47.28364" lon="4.96474">
        <ele>408</ele>
        <time>2013-03-02T10:22:42.000Z</time>
      </trkpt>
      <trkpt lat="47.28365" lon="4.96478">
        <ele>407.7</ele>
        <time>2013-03-02T10:22:43.000Z</time>
      </trkpt>
      <trkpt lat="47.28364" lon="4.96484">
        <ele>406.7</ele>
        <time>2013-03-02T10:22:45.000Z</time>
      </trkpt>
      <trkpt lat="47.28365" lon="4.96487">
        <ele>406.6</ele>
        <time>2013-03-02T10:22:46.000Z</time>
      </trkpt>
      <trkpt lat="47.28366" lon="4.9649">
        <ele>406.2</ele>
        <time>2013-03-02T10:22:47.000Z</time>
      </trkpt>
      <trkpt lat="47.28367" lon="4.96493">
        <ele>405.7</ele>
        <time>2013-03-02T10:22:48.000Z</time>
      </trkpt>
      <trkpt lat="47.28367" lon="4.96498">
        <ele>404.9</ele>
        <time>2013-03-02T10:22:50.000Z</time>
      </trkpt>
      <trkpt lat="47.28367" lon="4.96501">
        <ele>404.8</ele>
        <time>2013-03-02T10:22:51.000Z</time>
      </trkpt>
      <trkpt lat="47.28368" lon="4.96508">
        <ele>404.3</ele>
        <time>2013-03-02T10:22:53.000Z</time>
      </trkpt>
      <trkpt lat="47.28368" lon="4.9651">
        <ele>404.1</ele>
        <time>2013-03-02T10:22:54.000Z</time>
      </trkpt>
      <trkpt lat="47.28368" lon="4.96514">
        <ele>403.9</ele>
        <time>2013-03-02T10:22:55.000Z</time>
      </trkpt>
      <trkpt lat="47.28369" lon="4.96517">
        <ele>403.7</ele>
        <time>2013-03-02T10:22:56.000Z</time>
      </trkpt>
      <trkpt lat="47.28367" lon="4.96522">
        <ele>403.5</ele>
        <time>2013-03-02T10:22:58.000Z</time>
      </trkpt>
      <trkpt lat="47.28367" lon="4.96524">
        <ele>403.3</ele>
        <time>2013-03-02T10:22:59.000Z</time>
      </trkpt>
      <trkpt lat="47.28369" lon="4.96586">
        <ele>397.9</ele>
        <time>2013-03-02T10:23:17.000Z</time>
      </trkpt>
      <trkpt lat="47.2837" lon="4.96594">
        <ele>398.3</ele>
        <time>2013-03-02T10:23:18.000Z</time>
      </trkpt>
      <trkpt lat="47.2837" lon="4.96598">
        <ele>397.1</ele>
        <time>2013-03-02T10:23:19.000Z</time>
      </trkpt>
      <trkpt lat="47.28369" lon="4.96602">
        <ele>396.6</ele>
        <time>2013-03-02T10:23:20.000Z</time>
      </trkpt>
      <trkpt lat="47.28368" lon="4.96606">
        <ele>394.1</ele>
        <time>2013-03-02T10:23:22.000Z</time>
      </trkpt>
      <trkpt lat="47.28368" lon="4.96608">
        <ele>393.7</ele>
        <time>2013-03-02T10:23:23.000Z</time>
      </trkpt>
      <trkpt lat="47.28366" lon="4.96613">
        <ele>391.8</ele>
        <time>2013-03-02T10:23:25.000Z</time>
      </trkpt>
      <trkpt lat="47.28367" lon="4.96617">
        <ele>390.9</ele>
        <time>2013-03-02T10:23:26.000Z</time>
      </trkpt>
      <trkpt lat="47.28364" lon="4.96621">
        <ele>393.4</ele>
        <time>2013-03-02T10:23:28.000Z</time>
      </trkpt>
      <trkpt lat="47.28364" lon="4.96624">
        <ele>394.2</ele>
        <time>2013-03-02T10:23:29.000Z</time>
      </trkpt>
      <trkpt lat="47.28362" lon="4.9663">
        <ele>393.2</ele>
        <time>2013-03-02T10:23:32.000Z</time>
      </trkpt>
      <trkpt lat="47.28361" lon="4.96632">
        <ele>392.5</ele>
        <time>2013-03-02T10:23:33.000Z</time>
      </trkpt>
      <trkpt lat="47.28358" lon="4.96636">
        <ele>392.7</ele>
        <time>2013-03-02T10:23:35.000Z</time>
      </trkpt>
      <trkpt lat="47.28357" lon="4.96639">
        <ele>392.5</ele>
        <time>2013-03-02T10:23:36.000Z</time>
      </trkpt>
      <trkpt lat="47.28356" lon="4.96644">
        <ele>391.6</ele>
        <time>2013-03-02T10:23:38.000Z</time>
      </trkpt>
      <trkpt lat="47.28355" lon="4.96646">
        <ele>391.5</ele>
        <time>2013-03-02T10:23:39.000Z</time>
      </trkpt>
      <trkpt lat="47.28353" lon="4.96652">
        <ele>391.1</ele>
        <time>2013-03-02T10:23:41.000Z</time>
      </trkpt>
      <trkpt lat="47.28352" lon="4.96654">
        <ele>391</ele>
        <time>2013-03-02T10:23:42.000Z</time>
      </trkpt>
      <trkpt lat="47.28351" lon="4.96661">
        <ele>391.1</ele>
        <time>2013-03-02T10:23:44.000Z</time>
      </trkpt>
      <trkpt lat="47.28351" lon="4.96665">
        <ele>390.9</ele>
        <time>2013-03-02T10:23:45.000Z</time>
      </trkpt>
      <trkpt lat="47.2835" lon="4.96668">
        <ele>390.6</ele>
        <time>2013-03-02T10:23:46.000Z</time>
      </trkpt>
      <trkpt lat="47.2835" lon="4.96672">
        <ele>390.3</ele>
        <time>2013-03-02T10:23:47.000Z</time>
      </trkpt>
      <trkpt lat="47.2835" lon="4.96678">
        <ele>389.7</ele>
        <time>2013-03-02T10:23:49.000Z</time>
      </trkpt>
      <trkpt lat="47.2835" lon="4.9668">
        <ele>389.7</ele>
        <time>2013-03-02T10:23:50.000Z</time>
      </trkpt>
      <trkpt lat="47.2835" lon="4.96686">
        <ele>389.9</ele>
        <time>2013-03-02T10:23:52.000Z</time>
      </trkpt>
      <trkpt lat="47.2835" lon="4.96689">
        <ele>389.8</ele>
        <time>2013-03-02T10:23:53.000Z</time>
      </trkpt>
      <trkpt lat="47.2835" lon="4.96693">
        <ele>389.8</ele>
        <time>2013-03-02T10:23:54.000Z</time>
      </trkpt>
      <trkpt lat="47.2835" lon="4.96696">
        <ele>389.8</ele>
        <time>2013-03-02T10:23:55.000Z</time>
      </trkpt>
      <trkpt lat="47.28349" lon="4.96701">
        <ele>389.2</ele>
        <time>2013-03-02T10:23:57.000Z</time>
      </trkpt>
      <trkpt lat="47.28349" lon="4.96705">
        <ele>388.8</ele>
        <time>2013-03-02T10:23:58.000Z</time>
      </trkpt>
      <trkpt lat="47.28347" lon="4.96706">
        <ele>388.6</ele>
        <time>2013-03-02T10:23:59.000Z</time>
      </trkpt>
      <trkpt lat="47.28327" lon="4.96761">
        <ele>393.6</ele>
        <time>2013-03-02T10:24:18.000Z</time>
      </trkpt>
      <trkpt lat="47.28327" lon="4.96766">
        <ele>390.7</ele>
        <time>2013-03-02T10:24:20.000Z</time>
      </trkpt>
      <trkpt lat="47.28328" lon="4.96769">
        <ele>388.2</ele>
        <time>2013-03-02T10:24:21.000Z</time>
      </trkpt>
      <trkpt lat="47.28325" lon="4.96774">
        <ele>379.7</ele>
        <time>2013-03-02T10:24:24.000Z</time>
      </trkpt>
      <trkpt lat="47.28323" lon="4.96776">
        <ele>379.8</ele>
        <time>2013-03-02T10:24:25.000Z</time>
      </trkpt>
      <trkpt lat="47.2832" lon="4.96781">
        <ele>376.4</ele>
        <time>2013-03-02T10:24:27.000Z</time>
      </trkpt>
      <trkpt lat="47.28319" lon="4.96783">
        <ele>374</ele>
        <time>2013-03-02T10:24:28.000Z</time>
      </trkpt>
      <trkpt lat="47.28317" lon="4.96789">
        <ele>369.9</ele>
        <time>2013-03-02T10:24:30.000Z</time>
      </trkpt>
      <trkpt lat="47.28315" lon="4.96791">
        <ele>369.1</ele>
        <time>2013-03-02T10:24:31.000Z</time>
      </trkpt>
      <trkpt lat="47.28313" lon="4.96795">
        <ele>369.8</ele>
        <time>2013-03-02T10:24:34.000Z</time>
      </trkpt>
      <trkpt lat="47.28312" lon="4.96796">
        <ele>369.3</ele>
        <time>2013-03-02T10:24:35.000Z</time>
      </trkpt>
      <trkpt lat="47.2831" lon="4.968">
        <ele>370.4</ele>
        <time>2013-03-02T10:24:38.000Z</time>
      </trkpt>
      <trkpt lat="47.28309" lon="4.96802">
        <ele>370.9</ele>
        <time>2013-03-02T10:24:39.000Z</time>
      </trkpt>
      <trkpt lat="47.28306" lon="4.96805">
        <ele>372.1</ele>
        <time>2013-03-02T10:24:41.000Z</time>
      </trkpt>
      <trkpt lat="47.28305" lon="4.96806">
        <ele>372.5</ele>
        <time>2013-03-02T10:24:42.000Z</time>
      </trkpt>
      <trkpt lat="47.28304" lon="4.96811">
        <ele>373</ele>
        <time>2013-03-02T10:24:45.000Z</time>
      </trkpt>
      <trkpt lat="47.28304" lon="4.96813">
        <ele>373.2</ele>
        <time>2013-03-02T10:24:46.000Z</time>
      </trkpt>
      <trkpt lat="47.28303" lon="4.96817">
        <ele>373.2</ele>
        <time>2013-03-02T10:24:48.000Z</time>
      </trkpt>
      <trkpt lat="47.28303" lon="4.9682">
        <ele>373.3</ele>
        <time>2013-03-02T10:24:49.000Z</time>
      </trkpt>
      <trkpt lat="47.28302" lon="4.96826">
        <ele>373.8</ele>
        <time>2013-03-02T10:24:52.000Z</time>
      </trkpt>
      <trkpt lat="47.28301" lon="4.96828">
        <ele>373.8</ele>
        <time>2013-03-02T10:24:53.000Z</time>
      </trkpt>
      <trkpt lat="47.283" lon="4.96832">
        <ele>374</ele>
        <time>2013-03-02T10:24:55.000Z</time>
      </trkpt>
      <trkpt lat="47.28298" lon="4.96835">
        <ele>374</ele>
        <time>2013-03-02T10:24:56.000Z</time>
      </trkpt>
      <trkpt lat="47.28297" lon="4.96841">
        <ele>373.9</ele>
        <time>2013-03-02T10:24:58.000Z</time>
      </trkpt>
      <trkpt lat="47.28297" lon="4.96844">
        <ele>374.1</ele>
        <time>2013-03-02T10:24:59.000Z</time>
      </trkpt>
      <trkpt lat="47.28283" lon="4.96883">
        <ele>380.3</ele>
        <time>2013-03-02T10:25:18.000Z</time>
      </trkpt>
      <trkpt lat="47.28281" lon="4.96888">
        <ele>381.1</ele>
        <time>2013-03-02T10:25:21.000Z</time>
      </trkpt>
      <trkpt lat="47.28281" lon="4.9689">
        <ele>383.1</ele>
        <time>2013-03-02T10:25:22.000Z</time>
      </trkpt>
      <trkpt lat="47.2828" lon="4.96894">
        <ele>384</ele>
        <time>2013-03-02T10:25:24.000Z</time>
      </trkpt>
      <trkpt lat="47.28279" lon="4.96897">
        <ele>384.5</ele>
        <time>2013-03-02T10:25:25.000Z</time>
      </trkpt>
      <trkpt lat="47.28279" lon="4.96902">
        <ele>385.2</ele>
        <time>2013-03-02T10:25:27.000Z</time>
      </trkpt>
      <trkpt lat="47.28279" lon="4.96906">
        <ele>385</ele>
        <time>2013-03-02T10:25:28.000Z</time>
      </trkpt>
      <trkpt lat="47.28279" lon="4.96911">
        <ele>384.8</ele>
        <time>2013-03-02T10:25:30.000Z</time>
      </trkpt>
      <trkpt lat="47.28279" lon="4.96913">
        <ele>383</ele>
        <time>2013-03-02T10:25:31.000Z</time>
      </trkpt>
      <trkpt lat="47.28277" lon="4.96918">
        <ele>382.5</ele>
        <time>2013-03-02T10:25:33.000Z</time>
      </trkpt>
      <trkpt lat="47.28276" lon="4.96921">
        <ele>382.2</ele>
        <time>2013-03-02T10:25:34.000Z</time>
      </trkpt>
      <trkpt lat="47.28275" lon="4.96926">
        <ele>381.1</ele>
        <time>2013-03-02T10:25:36.000Z</time>
      </trkpt>
      <trkpt lat="47.28274" lon="4.96929">
        <ele>381.3</ele>
        <time>2013-03-02T10:25:37.000Z</time>
      </trkpt>
      <trkpt lat="47.28272" lon="4.96934">
        <ele>381</ele>
        <time>2013-03-02T10:25:39.000Z</time>
      </trkpt>
      <trkpt lat="47.28272" lon="4.96937">
        <ele>381</ele>
        <time>2013-03-02T10:25:40.000Z</time>
      </trkpt>
      <trkpt lat="47.2827" lon="4.96942">
        <ele>380.6</ele>
        <time>2013-03-02T10:25:42.000Z</time>
      </trkpt>
      <trkpt lat="47.28269" lon="4.96945">
        <ele>380.6</ele>
        <time>2013-03-02T10:25:43.000Z</time>
      </trkpt>
      <trkpt lat="47.28268" lon="4.96948">
        <ele>380.9</ele>
        <time>2013-03-02T10:25:44.000Z</time>
      </trkpt>
      <trkpt lat="47.28268" lon="4.96951">
        <ele>380.6</ele>
        <time>2013-03-02T10:25:45.000Z</time>
      </trkpt>
      <trkpt lat="47.28268" lon="4.96957">
        <ele>380.9</ele>
        <time>2013-03-02T10:25:47.000Z</time>
      </trkpt>
      <trkpt lat="47.28269" lon="4.96961">
        <ele>381</ele>
        <time>2013-03-02T10:25:48.000Z</time>
      </trkpt>
      <trkpt lat="47.28269" lon="4.96966">
        <ele>381.8</ele>
        <time>2013-03-02T10:25:50.000Z</time>
      </trkpt>
      <trkpt lat="47.28268" lon="4.9697">
        <ele>382</ele>
        <time>2013-03-02T10:25:51.000Z</time>
      </trkpt>
      <trkpt lat="47.28267" lon="4.96973">
        <ele>382.3</ele>
        <time>2013-03-02T10:25:52.000Z</time>
      </trkpt>
      <trkpt lat="47.28266" lon="4.96976">
        <ele>382.5</ele>
        <time>2013-03-02T10:25:53.000Z</time>
      </trkpt>
      <trkpt lat="47.28266" lon="4.96979">
        <ele>382.8</ele>
        <time>2013-03-02T10:25:54.000Z</time>
      </trkpt>
      <trkpt lat="47.28266" lon="4.96984">
        <ele>382.6</ele>
        <time>2013-03-02T10:25:55.000Z</time>
      </trkpt>
      <trkpt lat="47.28265" lon="4.9699">
        <ele>383</ele>
        <time>2013-03-02T10:25:57.000Z</time>
      </trkpt>
      <trkpt lat="47.28264" lon="4.96991">
        <ele>383.3</ele>
        <time>2013-03-02T10:25:58.000Z</time>
      </trkpt>
      <trkpt lat="47.28263" lon="4.96994">
        <ele>383.7</ele>
        <time>2013-03-02T10:25:59.000Z</time>
      </trkpt>
      <trkpt lat="47.28256" lon="4.97029">
        <ele>384.7</ele>
        <time>2013-03-02T10:26:10.000Z</time>
      </trkpt>
      <trkpt lat="47.28257" lon="4.97035">
        <ele>384.2</ele>
        <time>2013-03-02T10:26:12.000Z</time>
      </trkpt>
      <trkpt lat="47.28257" lon="4.97037">
        <ele>384.7</ele>
        <time>2013-03-02T10:26:13.000Z</time>
      </trkpt>
      <trkpt lat="47.28256" lon="4.97041">
        <ele>385.1</ele>
        <time>2013-03-02T10:26:16.000Z</time>
      </trkpt>
      <trkpt lat="47.28256" lon="4.97043">
        <ele>385.8</ele>
        <time>2013-03-02T10:26:17.000Z</time>
      </trkpt>
      <trkpt lat="47.28257" lon="4.9705">
        <ele>386.2</ele>
        <time>2013-03-02T10:26:20.000Z</time>
      </trkpt>
      <trkpt lat="47.28257" lon="4.97052">
        <ele>385.9</ele>
        <time>2013-03-02T10:26:21.000Z</time>
      </trkpt>
      <trkpt lat="47.28258" lon="4.97056">
        <ele>383.8</ele>
        <time>2013-03-02T10:26:23.000Z</time>
      </trkpt>
      <trkpt lat="47.28258" lon="4.97058">
        <ele>383.5</ele>
        <time>2013-03-02T10:26:24.000Z</time>
      </trkpt>
      <trkpt lat="47.28257" lon="4.97062">
        <ele>381.2</ele>
        <time>2013-03-02T10:26:28.000Z</time>
      </trkpt>
      <trkpt lat="47.28257" lon="4.97065">
        <ele>380.9</ele>
        <time>2013-03-02T10:26:29.000Z</time>
      </trkpt>
      <trkpt lat="47.28257" lon="4.9707">
        <ele>381.1</ele>
        <time>2013-03-02T10:26:31.000Z</time>
      </trkpt>
      <trkpt lat="47.28257" lon="4.97073">
        <ele>381.3</ele>
        <time>2013-03-02T10:26:32.000Z</time>
      </trkpt>
      <trkpt lat="47.28258" lon="4.97078">
        <ele>381.6</ele>
        <time>2013-03-02T10:26:34.000Z</time>
      </trkpt>
      <trkpt lat="47.28257" lon="4.97081">
        <ele>381.7</ele>
        <time>2013-03-02T10:26:35.000Z</time>
      </trkpt>
      <trkpt lat="47.28256" lon="4.97086">
        <ele>380.8</ele>
        <time>2013-03-02T10:26:37.000Z</time>
      </trkpt>
      <trkpt lat="47.28255" lon="4.97089">
        <ele>381.1</ele>
        <time>2013-03-02T10:26:38.000Z</time>
      </trkpt>
      <trkpt lat="47.28254" lon="4.97092">
        <ele>381.1</ele>
        <time>2013-03-02T10:26:39.000Z</time>
      </trkpt>
      <trkpt lat="47.28254" lon="4.97096">
        <ele>381.2</ele>
        <time>2013-03-02T10:26:40.000Z</time>
      </trkpt>
      <trkpt lat="47.28254" lon="4.971">
        <ele>381.2</ele>
        <time>2013-03-02T10:26:41.000Z</time>
      </trkpt>
      <trkpt lat="47.28254" lon="4.97102">
        <ele>381.5</ele>
        <time>2013-03-02T10:26:42.000Z</time>
      </trkpt>
      <trkpt lat="47.28252" lon="4.97108">
        <ele>381.9</ele>
        <time>2013-03-02T10:26:44.000Z</time>
      </trkpt>
      <trkpt lat="47.28251" lon="4.97112">
        <ele>381.9</ele>
        <time>2013-03-02T10:26:45.000Z</time>
      </trkpt>
      <trkpt lat="47.28252" lon="4.97116">
        <ele>381.7</ele>
        <time>2013-03-02T10:26:46.000Z</time>
      </trkpt>
      <trkpt lat="47.28252" lon="4.9712">
        <ele>381.4</ele>
        <time>2013-03-02T10:26:47.000Z</time>
      </trkpt>
      <trkpt lat="47.28252" lon="4.97123">
        <ele>381.3</ele>
        <time>2013-03-02T10:26:48.000Z</time>
      </trkpt>
      <trkpt lat="47.28253" lon="4.97127">
        <ele>381.4</ele>
        <time>2013-03-02T10:26:49.000Z</time>
      </trkpt>
      <trkpt lat="47.28252" lon="4.97132">
        <ele>381.5</ele>
        <time>2013-03-02T10:26:51.000Z</time>
      </trkpt>
      <trkpt lat="47.28252" lon="4.97135">
        <ele>381.2</ele>
        <time>2013-03-02T10:26:52.000Z</time>
      </trkpt>
      <trkpt lat="47.28252" lon="4.97141">
        <ele>381.2</ele>
        <time>2013-03-02T10:26:54.000Z</time>
      </trkpt>
      <trkpt lat="47.28251" lon="4.97144">
        <ele>381.1</ele>
        <time>2013-03-02T10:26:55.000Z</time>
      </trkpt>
      <trkpt lat="47.28249" lon="4.97149">
        <ele>381.3</ele>
        <time>2013-03-02T10:26:58.000Z</time>
      </trkpt>
      <trkpt lat="47.28249" lon="4.97151">
        <ele>381.5</ele>
        <time>2013-03-02T10:26:59.000Z</time>
      </trkpt>
      <trkpt lat="47.28241" lon="4.97179">
        <ele>374.3</ele>
        <time>2013-03-02T10:27:08.000Z</time>
      </trkpt>
      <trkpt lat="47.28239" lon="4.97184">
        <ele>379.2</ele>
        <time>2013-03-02T10:27:11.000Z</time>
      </trkpt>
      <trkpt lat="47.28239" lon="4.97185">
        <ele>379.7</ele>
        <time>2013-03-02T10:27:12.000Z</time>
      </trkpt>
      <trkpt lat="47.28238" lon="4.9719">
        <ele>377.9</ele>
        <time>2013-03-02T10:27:15.000Z</time>
      </trkpt>
      <trkpt lat="47.28237" lon="4.97192">
        <ele>377.5</ele>
        <time>2013-03-02T10:27:16.000Z</time>
      </trkpt>
      <trkpt lat="47.28237" lon="4.97198">
        <ele>378.7</ele>
        <time>2013-03-02T10:27:20.000Z</time>
      </trkpt>
      <trkpt lat="47.28237" lon="4.97201">
        <ele>379.8</ele>
        <time>2013-03-02T10:27:21.000Z</time>
      </trkpt>
      <trkpt lat="47.28235" lon="4.97206">
        <ele>380.7</ele>
        <time>2013-03-02T10:27:26.000Z</time>
      </trkpt>
      <trkpt lat="47.28235" lon="4.97208">
        <ele>380.1</ele>
        <time>2013-03-02T10:27:27.000Z</time>
      </trkpt>
      <trkpt lat="47.28236" lon="4.97212">
        <ele>379.1</ele>
        <time>2013-03-02T10:27:30.000Z</time>
      </trkpt>
      <trkpt lat="47.28236" lon="4.97214">
        <ele>378.9</ele>
        <time>2013-03-02T10:27:31.000Z</time>
      </trkpt>
      <trkpt lat="47.28236" lon="4.97221">
        <ele>379.6</ele>
        <time>2013-03-02T10:27:33.000Z</time>
      </trkpt>
      <trkpt lat="47.28235" lon="4.97223">
        <ele>379.6</ele>
        <time>2013-03-02T10:27:34.000Z</time>
      </trkpt>
      <trkpt lat="47.28236" lon="4.97228">
        <ele>378.7</ele>
        <time>2013-03-02T10:27:37.000Z</time>
      </trkpt>
      <trkpt lat="47.28236" lon="4.97231">
        <ele>378.5</ele>
        <time>2013-03-02T10:27:38.000Z</time>
      </trkpt>
      <trkpt lat="47.28237" lon="4.97237">
        <ele>378.2</ele>
        <time>2013-03-02T10:27:42.000Z</time>
      </trkpt>
      <trkpt lat="47.28236" lon="4.97238">
        <ele>378</ele>
        <time>2013-03-02T10:27:43.000Z</time>
      </trkpt>
      <trkpt lat="47.28235" lon="4.97243">
        <ele>377.3</ele>
        <time>2013-03-02T10:27:46.000Z</time>
      </trkpt>
      <trkpt lat="47.28234" lon="4.97245">
        <ele>377.7</ele>
        <time>2013-03-02T10:27:47.000Z</time>
      </trkpt>
      <trkpt lat="47.28233" lon="4.9725">
        <ele>377.7</ele>
        <time>2013-03-02T10:27:49.000Z</time>
      </trkpt>
      <trkpt lat="47.28233" lon="4.97252">
        <ele>377.3</ele>
        <time>2013-03-02T10:27:50.000Z</time>
      </trkpt>
      <trkpt lat="47.28232" lon="4.97258">
        <ele>376.9</ele>
        <time>2013-03-02T10:27:53.000Z</time>
      </trkpt>
      <trkpt lat="47.28231" lon="4.9726">
        <ele>376.7</ele>
        <time>2013-03-02T10:27:54.000Z</time>
      </trkpt>
      <trkpt lat="47.28229" lon="4.97265">
        <ele>376.4</ele>
        <time>2013-03-02T10:27:58.000Z</time>
      </trkpt>
      <trkpt lat="47.2823" lon="4.97268">
        <ele>375.3</ele>
        <time>2013-03-02T10:27:59.000Z</time>
      </trkpt>
      <trkpt lat="47.28221" lon="4.97285">
        <ele>382.6</ele>
        <time>2013-03-02T10:28:06.000Z</time>
      </trkpt>
      <trkpt lat="47.28224" lon="4.97288">
        <ele>377.8</ele>
        <time>2013-03-02T10:28:07.000Z</time>
      </trkpt>
      <trkpt lat="47.28227" lon="4.9729">
        <ele>374.4</ele>
        <time>2013-03-02T10:28:08.000Z</time>
      </trkpt>
      <trkpt lat="47.28227" lon="4.97286">
        <ele>370.9</ele>
        <time>2013-03-02T10:28:56.000Z</time>
      </trkpt>
      <trkpt lat="47.28226" lon="4.97283">
        <ele>371.5</ele>
        <time>2013-03-02T10:28:57.000Z</time>
      </trkpt>
      <trkpt lat="47.28226" lon="4.97282">
        <ele>371.9</ele>
        <time>2013-03-02T10:28:59.000Z</time>
      </trkpt>
      <trkpt lat="47.28224" lon="4.97268">
        <ele>366.4</ele>
        <time>2013-03-02T10:29:06.000Z</time>
      </trkpt>
      <trkpt lat="47.28223" lon="4.97272">
        <ele>367.8</ele>
        <time>2013-03-02T10:29:19.000Z</time>
      </trkpt>
      <trkpt lat="47.2823" lon="4.97282">
        <ele>365.4</ele>
        <time>2013-03-02T10:29:20.000Z</time>
      </trkpt>
      <trkpt lat="47.28233" lon="4.97284">
        <ele>364.6</ele>
        <time>2013-03-02T10:29:23.000Z</time>
      </trkpt>
      <trkpt lat="47.28235" lon="4.97285">
        <ele>364.6</ele>
        <time>2013-03-02T10:29:24.000Z</time>
      </trkpt>
      <trkpt lat="47.28232" lon="4.97287">
        <ele>366</ele>
        <time>2013-03-02T10:29:59.000Z</time>
      </trkpt>
      <trkpt lat="47.28203" lon="4.97282">
        <ele>375.6</ele>
        <time>2013-03-02T10:30:06.000Z</time>
      </trkpt>
      <trkpt lat="47.28203" lon="4.97282">
        <ele>375.6</ele>
        <time>2013-03-02T10:30:59.000Z</time>
      </trkpt>
      <trkpt lat="47.28211" lon="4.97286">
        <ele>379.3</ele>
        <time>2013-03-02T10:31:06.000Z</time>
      </trkpt>
      <trkpt lat="47.28211" lon="4.97286">
        <ele>379.3</ele>
        <time>2013-03-02T10:31:59.000Z</time>
      </trkpt>
      <trkpt lat="47.28216" lon="4.97291">
        <ele>379.9</ele>
        <time>2013-03-02T10:32:06.000Z</time>
      </trkpt>
      <trkpt lat="47.28216" lon="4.97291">
        <ele>379.9</ele>
        <time>2013-03-02T10:32:59.000Z</time>
      </trkpt>
      <trkpt lat="47.28196" lon="4.97287">
        <ele>382.6</ele>
        <time>2013-03-02T10:33:06.000Z</time>
      </trkpt>
      <trkpt lat="47.28196" lon="4.97287">
        <ele>382.6</ele>
        <time>2013-03-02T10:33:47.000Z</time>
      </trkpt>
      <trkpt lat="47.28202" lon="4.97283">
        <ele>375.2</ele>
        <time>2013-03-02T10:33:48.000Z</time>
      </trkpt>
      <trkpt lat="47.28202" lon="4.97283">
        <ele>375.1</ele>
        <time>2013-03-02T10:33:59.000Z</time>
      </trkpt>
      <trkpt lat="47.28206" lon="4.97278">
        <ele>365.6</ele>
        <time>2013-03-02T10:34:05.000Z</time>
      </trkpt>
      <trkpt lat="47.28212" lon="4.97279">
        <ele>375.4</ele>
        <time>2013-03-02T10:34:06.000Z</time>
      </trkpt>
      <trkpt lat="47.28212" lon="4.97278">
        <ele>374.8</ele>
        <time>2013-03-02T10:34:07.000Z</time>
      </trkpt>
      <trkpt lat="47.28217" lon="4.97281">
        <ele>378.2</ele>
        <time>2013-03-02T10:34:08.000Z</time>
      </trkpt>
      <trkpt lat="47.28216" lon="4.97282">
        <ele>377.1</ele>
        <time>2013-03-02T10:34:59.000Z</time>
      </trkpt>
      <trkpt lat="47.28221" lon="4.97295">
        <ele>380.7</ele>
        <time>2013-03-02T10:35:06.000Z</time>
      </trkpt>
      <trkpt lat="47.28221" lon="4.97295">
        <ele>380.7</ele>
        <time>2013-03-02T10:35:34.000Z</time>
      </trkpt>
      <trkpt lat="47.28212" lon="4.97291">
        <ele>379</ele>
        <time>2013-03-02T10:35:35.000Z</time>
      </trkpt>
      <trkpt lat="47.28211" lon="4.9729">
        <ele>377.2</ele>
        <time>2013-03-02T10:35:59.000Z</time>
      </trkpt>
      <trkpt lat="47.28194" lon="4.97285">
        <ele>381</ele>
        <time>2013-03-02T10:36:06.000Z</time>
      </trkpt>
      <trkpt lat="47.28193" lon="4.97285">
        <ele>380.1</ele>
        <time>2013-03-02T10:36:16.000Z</time>
      </trkpt>
    </trkseg>
  </trk>
</gpx>